<?xml version="1.0" encoding="UTF-8" standalone="no" ?>
<gpx xmlns="http://www.topografix.com/GPX/1/1" xmlns:xsi="http://www.w3.org/2001/XMLSchema-instance" xsi:schemaLocation="http://www.topografix.com/GPX/1/1 http://www.topografix.com/GPX/1/1/gpx.xsd" version="1.1" creator="VisuGPX - https://www.visugpx.com">
  <metadata>
    <name>CST Bike Challenge MTB Day2</name>
    <desc><![CDATA[2nd day for mtb Crouzet]]></desc>
  </metadata>
  <trk>
    <name><![CDATA[28-SEP-13 14:30:22]]></name>
    <trkseg>
      <trkpt lat="47.25032" lon="5.99915">
        <ele>320.26</ele>
        <time>2013-09-28T05:53:02Z</time>
      </trkpt>
      <trkpt lat="47.25034" lon="5.99912">
        <ele>316.41</ele>
        <time>2013-09-28T05:53:40Z</time>
      </trkpt>
      <trkpt lat="47.25037" lon="5.99909">
        <ele>315.45</ele>
        <time>2013-09-28T05:59:19Z</time>
      </trkpt>
      <trkpt lat="47.25039" lon="5.99924">
        <ele>309.2</ele>
        <time>2013-09-28T06:01:51Z</time>
      </trkpt>
      <trkpt lat="47.25038" lon="5.99929">
        <ele>307.28</ele>
        <time>2013-09-28T06:03:50Z</time>
      </trkpt>
      <trkpt lat="47.25053" lon="5.99942">
        <ele>307.28</ele>
        <time>2013-09-28T06:06:35Z</time>
      </trkpt>
      <trkpt lat="47.2508" lon="5.99948">
        <ele>306.32</ele>
        <time>2013-09-28T06:06:42Z</time>
      </trkpt>
      <trkpt lat="47.25097" lon="5.99969">
        <ele>308.24</ele>
        <time>2013-09-28T06:06:47Z</time>
      </trkpt>
      <trkpt lat="47.25112" lon="5.9999">
        <ele>309.68</ele>
        <time>2013-09-28T06:06:53Z</time>
      </trkpt>
      <trkpt lat="47.25115" lon="6.00013">
        <ele>311.6</ele>
        <time>2013-09-28T06:07:00Z</time>
      </trkpt>
      <trkpt lat="47.25092" lon="6.00033">
        <ele>312.57</ele>
        <time>2013-09-28T06:07:08Z</time>
      </trkpt>
      <trkpt lat="47.25069" lon="6.00051">
        <ele>314.49</ele>
        <time>2013-09-28T06:07:16Z</time>
      </trkpt>
      <trkpt lat="47.25053" lon="6.00071">
        <ele>316.41</ele>
        <time>2013-09-28T06:07:24Z</time>
      </trkpt>
      <trkpt lat="47.25039" lon="6.00089">
        <ele>317.85</ele>
        <time>2013-09-28T06:07:32Z</time>
      </trkpt>
      <trkpt lat="47.25021" lon="6.00105">
        <ele>319.78</ele>
        <time>2013-09-28T06:07:40Z</time>
      </trkpt>
      <trkpt lat="47.25006" lon="6.00124">
        <ele>319.78</ele>
        <time>2013-09-28T06:07:47Z</time>
      </trkpt>
      <trkpt lat="47.24992" lon="6.00147">
        <ele>320.26</ele>
        <time>2013-09-28T06:07:53Z</time>
      </trkpt>
      <trkpt lat="47.24981" lon="6.00173">
        <ele>320.74</ele>
        <time>2013-09-28T06:07:59Z</time>
      </trkpt>
      <trkpt lat="47.24966" lon="6.00199">
        <ele>320.26</ele>
        <time>2013-09-28T06:08:05Z</time>
      </trkpt>
      <trkpt lat="47.2495" lon="6.00224">
        <ele>318.81</ele>
        <time>2013-09-28T06:08:10Z</time>
      </trkpt>
      <trkpt lat="47.24937" lon="6.00245">
        <ele>318.33</ele>
        <time>2013-09-28T06:08:18Z</time>
      </trkpt>
      <trkpt lat="47.24926" lon="6.00269">
        <ele>318.33</ele>
        <time>2013-09-28T06:08:25Z</time>
      </trkpt>
      <trkpt lat="47.24934" lon="6.00297">
        <ele>319.3</ele>
        <time>2013-09-28T06:08:31Z</time>
      </trkpt>
      <trkpt lat="47.24947" lon="6.00325">
        <ele>320.26</ele>
        <time>2013-09-28T06:08:37Z</time>
      </trkpt>
      <trkpt lat="47.24959" lon="6.00352">
        <ele>319.78</ele>
        <time>2013-09-28T06:08:42Z</time>
      </trkpt>
      <trkpt lat="47.24967" lon="6.00376">
        <ele>318.81</ele>
        <time>2013-09-28T06:08:46Z</time>
      </trkpt>
      <trkpt lat="47.2498" lon="6.00403">
        <ele>317.37</ele>
        <time>2013-09-28T06:08:50Z</time>
      </trkpt>
      <trkpt lat="47.2499" lon="6.00426">
        <ele>316.41</ele>
        <time>2013-09-28T06:08:53Z</time>
      </trkpt>
      <trkpt lat="47.25002" lon="6.00457">
        <ele>316.89</ele>
        <time>2013-09-28T06:08:57Z</time>
      </trkpt>
      <trkpt lat="47.25013" lon="6.00489">
        <ele>316.89</ele>
        <time>2013-09-28T06:09:02Z</time>
      </trkpt>
      <trkpt lat="47.25019" lon="6.00516">
        <ele>317.37</ele>
        <time>2013-09-28T06:09:07Z</time>
      </trkpt>
      <trkpt lat="47.25028" lon="6.00538">
        <ele>318.33</ele>
        <time>2013-09-28T06:09:12Z</time>
      </trkpt>
      <trkpt lat="47.25034" lon="6.00567">
        <ele>318.33</ele>
        <time>2013-09-28T06:09:17Z</time>
      </trkpt>
      <trkpt lat="47.25039" lon="6.00595">
        <ele>319.3</ele>
        <time>2013-09-28T06:09:22Z</time>
      </trkpt>
      <trkpt lat="47.25043" lon="6.00625">
        <ele>319.3</ele>
        <time>2013-09-28T06:09:27Z</time>
      </trkpt>
      <trkpt lat="47.25047" lon="6.00652">
        <ele>319.3</ele>
        <time>2013-09-28T06:09:31Z</time>
      </trkpt>
      <trkpt lat="47.2505" lon="6.00683">
        <ele>317.85</ele>
        <time>2013-09-28T06:09:35Z</time>
      </trkpt>
      <trkpt lat="47.25053" lon="6.00717">
        <ele>316.89</ele>
        <time>2013-09-28T06:09:39Z</time>
      </trkpt>
      <trkpt lat="47.25055" lon="6.00746">
        <ele>316.41</ele>
        <time>2013-09-28T06:09:42Z</time>
      </trkpt>
      <trkpt lat="47.25057" lon="6.00776">
        <ele>315.45</ele>
        <time>2013-09-28T06:09:45Z</time>
      </trkpt>
      <trkpt lat="47.25061" lon="6.00807">
        <ele>314.49</ele>
        <time>2013-09-28T06:09:48Z</time>
      </trkpt>
      <trkpt lat="47.25066" lon="6.00837">
        <ele>313.05</ele>
        <time>2013-09-28T06:09:51Z</time>
      </trkpt>
      <trkpt lat="47.25073" lon="6.00867">
        <ele>313.05</ele>
        <time>2013-09-28T06:09:54Z</time>
      </trkpt>
      <trkpt lat="47.2508" lon="6.00894">
        <ele>312.57</ele>
        <time>2013-09-28T06:09:57Z</time>
      </trkpt>
      <trkpt lat="47.25086" lon="6.00921">
        <ele>312.57</ele>
        <time>2013-09-28T06:10:01Z</time>
      </trkpt>
      <trkpt lat="47.25091" lon="6.00948">
        <ele>312.09</ele>
        <time>2013-09-28T06:10:07Z</time>
      </trkpt>
      <trkpt lat="47.25098" lon="6.00973">
        <ele>312.57</ele>
        <time>2013-09-28T06:10:12Z</time>
      </trkpt>
      <trkpt lat="47.25106" lon="6.01002">
        <ele>314.01</ele>
        <time>2013-09-28T06:10:17Z</time>
      </trkpt>
      <trkpt lat="47.25114" lon="6.01027">
        <ele>314.01</ele>
        <time>2013-09-28T06:10:21Z</time>
      </trkpt>
      <trkpt lat="47.25121" lon="6.01053">
        <ele>314.49</ele>
        <time>2013-09-28T06:10:25Z</time>
      </trkpt>
      <trkpt lat="47.25127" lon="6.01083">
        <ele>314.97</ele>
        <time>2013-09-28T06:10:30Z</time>
      </trkpt>
      <trkpt lat="47.25133" lon="6.01113">
        <ele>315.45</ele>
        <time>2013-09-28T06:10:35Z</time>
      </trkpt>
      <trkpt lat="47.2514" lon="6.01139">
        <ele>316.41</ele>
        <time>2013-09-28T06:10:39Z</time>
      </trkpt>
      <trkpt lat="47.25147" lon="6.01171">
        <ele>316.41</ele>
        <time>2013-09-28T06:10:44Z</time>
      </trkpt>
      <trkpt lat="47.25156" lon="6.01203">
        <ele>316.41</ele>
        <time>2013-09-28T06:10:49Z</time>
      </trkpt>
      <trkpt lat="47.25163" lon="6.01232">
        <ele>316.89</ele>
        <time>2013-09-28T06:10:54Z</time>
      </trkpt>
      <trkpt lat="47.25171" lon="6.01262">
        <ele>317.37</ele>
        <time>2013-09-28T06:10:59Z</time>
      </trkpt>
      <trkpt lat="47.25187" lon="6.01302">
        <ele>317.85</ele>
        <time>2013-09-28T06:11:04Z</time>
      </trkpt>
      <trkpt lat="47.252" lon="6.01335">
        <ele>318.33</ele>
        <time>2013-09-28T06:11:09Z</time>
      </trkpt>
      <trkpt lat="47.2521" lon="6.01361">
        <ele>318.33</ele>
        <time>2013-09-28T06:11:13Z</time>
      </trkpt>
      <trkpt lat="47.25219" lon="6.01386">
        <ele>318.81</ele>
        <time>2013-09-28T06:11:17Z</time>
      </trkpt>
      <trkpt lat="47.25229" lon="6.01409">
        <ele>319.3</ele>
        <time>2013-09-28T06:11:21Z</time>
      </trkpt>
      <trkpt lat="47.25241" lon="6.01434">
        <ele>318.81</ele>
        <time>2013-09-28T06:11:26Z</time>
      </trkpt>
      <trkpt lat="47.25252" lon="6.01461">
        <ele>319.3</ele>
        <time>2013-09-28T06:11:31Z</time>
      </trkpt>
      <trkpt lat="47.25265" lon="6.01486">
        <ele>320.26</ele>
        <time>2013-09-28T06:11:36Z</time>
      </trkpt>
      <trkpt lat="47.25279" lon="6.01508">
        <ele>321.22</ele>
        <time>2013-09-28T06:11:41Z</time>
      </trkpt>
      <trkpt lat="47.25296" lon="6.0153">
        <ele>321.7</ele>
        <time>2013-09-28T06:11:46Z</time>
      </trkpt>
      <trkpt lat="47.25312" lon="6.0155">
        <ele>322.18</ele>
        <time>2013-09-28T06:11:51Z</time>
      </trkpt>
      <trkpt lat="47.25326" lon="6.01569">
        <ele>322.66</ele>
        <time>2013-09-28T06:11:59Z</time>
      </trkpt>
      <trkpt lat="47.25337" lon="6.01596">
        <ele>322.66</ele>
        <time>2013-09-28T06:12:44Z</time>
      </trkpt>
      <trkpt lat="47.25354" lon="6.01623">
        <ele>322.66</ele>
        <time>2013-09-28T06:12:49Z</time>
      </trkpt>
      <trkpt lat="47.2537" lon="6.01648">
        <ele>322.18</ele>
        <time>2013-09-28T06:12:53Z</time>
      </trkpt>
      <trkpt lat="47.25387" lon="6.01675">
        <ele>322.18</ele>
        <time>2013-09-28T06:12:57Z</time>
      </trkpt>
      <trkpt lat="47.25404" lon="6.01702">
        <ele>321.22</ele>
        <time>2013-09-28T06:13:01Z</time>
      </trkpt>
      <trkpt lat="47.2542" lon="6.01724">
        <ele>321.7</ele>
        <time>2013-09-28T06:13:05Z</time>
      </trkpt>
      <trkpt lat="47.25437" lon="6.01746">
        <ele>321.7</ele>
        <time>2013-09-28T06:13:09Z</time>
      </trkpt>
      <trkpt lat="47.25451" lon="6.01771">
        <ele>321.7</ele>
        <time>2013-09-28T06:13:13Z</time>
      </trkpt>
      <trkpt lat="47.25465" lon="6.01796">
        <ele>322.18</ele>
        <time>2013-09-28T06:13:17Z</time>
      </trkpt>
      <trkpt lat="47.2548" lon="6.01819">
        <ele>322.66</ele>
        <time>2013-09-28T06:13:21Z</time>
      </trkpt>
      <trkpt lat="47.25492" lon="6.01843">
        <ele>323.62</ele>
        <time>2013-09-28T06:13:25Z</time>
      </trkpt>
      <trkpt lat="47.25504" lon="6.01865">
        <ele>324.1</ele>
        <time>2013-09-28T06:13:29Z</time>
      </trkpt>
      <trkpt lat="47.25517" lon="6.01888">
        <ele>324.1</ele>
        <time>2013-09-28T06:13:33Z</time>
      </trkpt>
      <trkpt lat="47.2553" lon="6.01911">
        <ele>324.58</ele>
        <time>2013-09-28T06:13:37Z</time>
      </trkpt>
      <trkpt lat="47.25543" lon="6.01936">
        <ele>324.1</ele>
        <time>2013-09-28T06:13:41Z</time>
      </trkpt>
      <trkpt lat="47.25556" lon="6.01959">
        <ele>324.1</ele>
        <time>2013-09-28T06:13:45Z</time>
      </trkpt>
      <trkpt lat="47.25569" lon="6.01979">
        <ele>324.1</ele>
        <time>2013-09-28T06:13:49Z</time>
      </trkpt>
      <trkpt lat="47.25582" lon="6.01999">
        <ele>324.58</ele>
        <time>2013-09-28T06:13:54Z</time>
      </trkpt>
      <trkpt lat="47.25594" lon="6.02019">
        <ele>324.58</ele>
        <time>2013-09-28T06:13:58Z</time>
      </trkpt>
      <trkpt lat="47.25608" lon="6.0204">
        <ele>325.06</ele>
        <time>2013-09-28T06:14:02Z</time>
      </trkpt>
      <trkpt lat="47.25625" lon="6.02059">
        <ele>324.58</ele>
        <time>2013-09-28T06:14:06Z</time>
      </trkpt>
      <trkpt lat="47.25643" lon="6.02078">
        <ele>324.58</ele>
        <time>2013-09-28T06:14:10Z</time>
      </trkpt>
      <trkpt lat="47.2566" lon="6.02098">
        <ele>325.06</ele>
        <time>2013-09-28T06:14:14Z</time>
      </trkpt>
      <trkpt lat="47.25678" lon="6.02118">
        <ele>325.06</ele>
        <time>2013-09-28T06:14:18Z</time>
      </trkpt>
      <trkpt lat="47.25695" lon="6.02139">
        <ele>325.06</ele>
        <time>2013-09-28T06:14:22Z</time>
      </trkpt>
      <trkpt lat="47.25711" lon="6.02162">
        <ele>325.54</ele>
        <time>2013-09-28T06:14:26Z</time>
      </trkpt>
      <trkpt lat="47.25727" lon="6.02188">
        <ele>325.06</ele>
        <time>2013-09-28T06:14:30Z</time>
      </trkpt>
      <trkpt lat="47.25742" lon="6.02216">
        <ele>324.58</ele>
        <time>2013-09-28T06:14:34Z</time>
      </trkpt>
      <trkpt lat="47.25755" lon="6.02241">
        <ele>324.58</ele>
        <time>2013-09-28T06:14:38Z</time>
      </trkpt>
      <trkpt lat="47.25764" lon="6.02267">
        <ele>324.1</ele>
        <time>2013-09-28T06:14:46Z</time>
      </trkpt>
      <trkpt lat="47.25776" lon="6.02287">
        <ele>325.06</ele>
        <time>2013-09-28T06:14:52Z</time>
      </trkpt>
      <trkpt lat="47.25789" lon="6.02312">
        <ele>325.54</ele>
        <time>2013-09-28T06:14:57Z</time>
      </trkpt>
      <trkpt lat="47.25802" lon="6.02338">
        <ele>326.5</ele>
        <time>2013-09-28T06:15:02Z</time>
      </trkpt>
      <trkpt lat="47.25812" lon="6.02361">
        <ele>326.99</ele>
        <time>2013-09-28T06:15:06Z</time>
      </trkpt>
      <trkpt lat="47.25821" lon="6.02385">
        <ele>326.99</ele>
        <time>2013-09-28T06:15:10Z</time>
      </trkpt>
      <trkpt lat="47.25829" lon="6.0241">
        <ele>327.95</ele>
        <time>2013-09-28T06:15:14Z</time>
      </trkpt>
      <trkpt lat="47.25837" lon="6.02434">
        <ele>327.95</ele>
        <time>2013-09-28T06:15:18Z</time>
      </trkpt>
      <trkpt lat="47.25845" lon="6.0246">
        <ele>329.39</ele>
        <time>2013-09-28T06:15:22Z</time>
      </trkpt>
      <trkpt lat="47.25853" lon="6.02485">
        <ele>329.87</ele>
        <time>2013-09-28T06:15:26Z</time>
      </trkpt>
      <trkpt lat="47.25859" lon="6.02512">
        <ele>329.39</ele>
        <time>2013-09-28T06:15:30Z</time>
      </trkpt>
      <trkpt lat="47.25864" lon="6.02539">
        <ele>329.87</ele>
        <time>2013-09-28T06:15:34Z</time>
      </trkpt>
      <trkpt lat="47.2587" lon="6.02567">
        <ele>330.35</ele>
        <time>2013-09-28T06:15:38Z</time>
      </trkpt>
      <trkpt lat="47.25876" lon="6.02593">
        <ele>330.83</ele>
        <time>2013-09-28T06:15:42Z</time>
      </trkpt>
      <trkpt lat="47.2588" lon="6.0262">
        <ele>331.79</ele>
        <time>2013-09-28T06:15:46Z</time>
      </trkpt>
      <trkpt lat="47.25885" lon="6.02646">
        <ele>331.31</ele>
        <time>2013-09-28T06:15:50Z</time>
      </trkpt>
      <trkpt lat="47.2589" lon="6.02673">
        <ele>331.79</ele>
        <time>2013-09-28T06:15:54Z</time>
      </trkpt>
      <trkpt lat="47.25896" lon="6.027">
        <ele>332.27</ele>
        <time>2013-09-28T06:15:58Z</time>
      </trkpt>
      <trkpt lat="47.259" lon="6.02726">
        <ele>332.27</ele>
        <time>2013-09-28T06:16:02Z</time>
      </trkpt>
      <trkpt lat="47.25903" lon="6.02753">
        <ele>333.23</ele>
        <time>2013-09-28T06:16:06Z</time>
      </trkpt>
      <trkpt lat="47.25907" lon="6.0278">
        <ele>333.23</ele>
        <time>2013-09-28T06:16:10Z</time>
      </trkpt>
      <trkpt lat="47.25913" lon="6.02806">
        <ele>333.23</ele>
        <time>2013-09-28T06:16:14Z</time>
      </trkpt>
      <trkpt lat="47.25918" lon="6.02832">
        <ele>333.71</ele>
        <time>2013-09-28T06:16:18Z</time>
      </trkpt>
      <trkpt lat="47.25925" lon="6.02859">
        <ele>333.71</ele>
        <time>2013-09-28T06:16:22Z</time>
      </trkpt>
      <trkpt lat="47.25932" lon="6.02884">
        <ele>334.68</ele>
        <time>2013-09-28T06:16:26Z</time>
      </trkpt>
      <trkpt lat="47.25937" lon="6.0291">
        <ele>334.68</ele>
        <time>2013-09-28T06:16:30Z</time>
      </trkpt>
      <trkpt lat="47.25946" lon="6.0294">
        <ele>334.68</ele>
        <time>2013-09-28T06:16:35Z</time>
      </trkpt>
      <trkpt lat="47.25956" lon="6.02964">
        <ele>334.68</ele>
        <time>2013-09-28T06:16:39Z</time>
      </trkpt>
      <trkpt lat="47.25964" lon="6.0299">
        <ele>335.16</ele>
        <time>2013-09-28T06:16:43Z</time>
      </trkpt>
      <trkpt lat="47.25972" lon="6.03014">
        <ele>335.64</ele>
        <time>2013-09-28T06:16:47Z</time>
      </trkpt>
      <trkpt lat="47.25981" lon="6.03039">
        <ele>335.64</ele>
        <time>2013-09-28T06:16:51Z</time>
      </trkpt>
      <trkpt lat="47.25989" lon="6.03064">
        <ele>336.12</ele>
        <time>2013-09-28T06:16:55Z</time>
      </trkpt>
      <trkpt lat="47.25997" lon="6.0309">
        <ele>336.12</ele>
        <time>2013-09-28T06:16:59Z</time>
      </trkpt>
      <trkpt lat="47.26005" lon="6.03116">
        <ele>336.12</ele>
        <time>2013-09-28T06:17:03Z</time>
      </trkpt>
      <trkpt lat="47.26014" lon="6.03143">
        <ele>336.12</ele>
        <time>2013-09-28T06:17:07Z</time>
      </trkpt>
      <trkpt lat="47.26023" lon="6.03173">
        <ele>335.64</ele>
        <time>2013-09-28T06:17:11Z</time>
      </trkpt>
      <trkpt lat="47.26033" lon="6.03205">
        <ele>336.12</ele>
        <time>2013-09-28T06:17:15Z</time>
      </trkpt>
      <trkpt lat="47.26042" lon="6.03231">
        <ele>335.16</ele>
        <time>2013-09-28T06:17:18Z</time>
      </trkpt>
      <trkpt lat="47.2605" lon="6.03257">
        <ele>334.68</ele>
        <time>2013-09-28T06:17:21Z</time>
      </trkpt>
      <trkpt lat="47.26058" lon="6.03283">
        <ele>334.2</ele>
        <time>2013-09-28T06:17:24Z</time>
      </trkpt>
      <trkpt lat="47.26067" lon="6.0331">
        <ele>334.2</ele>
        <time>2013-09-28T06:17:27Z</time>
      </trkpt>
      <trkpt lat="47.26075" lon="6.03336">
        <ele>334.2</ele>
        <time>2013-09-28T06:17:30Z</time>
      </trkpt>
      <trkpt lat="47.26085" lon="6.03363">
        <ele>333.23</ele>
        <time>2013-09-28T06:17:33Z</time>
      </trkpt>
      <trkpt lat="47.26093" lon="6.03389">
        <ele>333.71</ele>
        <time>2013-09-28T06:17:36Z</time>
      </trkpt>
      <trkpt lat="47.26101" lon="6.03413">
        <ele>333.71</ele>
        <time>2013-09-28T06:17:39Z</time>
      </trkpt>
      <trkpt lat="47.26109" lon="6.03442">
        <ele>334.2</ele>
        <time>2013-09-28T06:17:43Z</time>
      </trkpt>
      <trkpt lat="47.26117" lon="6.03469">
        <ele>335.64</ele>
        <time>2013-09-28T06:17:47Z</time>
      </trkpt>
      <trkpt lat="47.26125" lon="6.03496">
        <ele>336.6</ele>
        <time>2013-09-28T06:17:51Z</time>
      </trkpt>
      <trkpt lat="47.26131" lon="6.03523">
        <ele>337.08</ele>
        <time>2013-09-28T06:17:55Z</time>
      </trkpt>
      <trkpt lat="47.26138" lon="6.0355">
        <ele>338.04</ele>
        <time>2013-09-28T06:17:59Z</time>
      </trkpt>
      <trkpt lat="47.26145" lon="6.0358">
        <ele>339</ele>
        <time>2013-09-28T06:18:04Z</time>
      </trkpt>
      <trkpt lat="47.26151" lon="6.0361">
        <ele>339.48</ele>
        <time>2013-09-28T06:18:09Z</time>
      </trkpt>
      <trkpt lat="47.26154" lon="6.03641">
        <ele>339.96</ele>
        <time>2013-09-28T06:18:14Z</time>
      </trkpt>
      <trkpt lat="47.26159" lon="6.03671">
        <ele>340.92</ele>
        <time>2013-09-28T06:18:19Z</time>
      </trkpt>
      <trkpt lat="47.26164" lon="6.03704">
        <ele>340.92</ele>
        <time>2013-09-28T06:18:24Z</time>
      </trkpt>
      <trkpt lat="47.26168" lon="6.03731">
        <ele>341.41</ele>
        <time>2013-09-28T06:18:28Z</time>
      </trkpt>
      <trkpt lat="47.26172" lon="6.03761">
        <ele>340.44</ele>
        <time>2013-09-28T06:18:32Z</time>
      </trkpt>
      <trkpt lat="47.26178" lon="6.03793">
        <ele>340.44</ele>
        <time>2013-09-28T06:18:36Z</time>
      </trkpt>
      <trkpt lat="47.26186" lon="6.03828">
        <ele>340.44</ele>
        <time>2013-09-28T06:18:40Z</time>
      </trkpt>
      <trkpt lat="47.26193" lon="6.03854">
        <ele>339.48</ele>
        <time>2013-09-28T06:18:43Z</time>
      </trkpt>
      <trkpt lat="47.262" lon="6.03881">
        <ele>339</ele>
        <time>2013-09-28T06:18:46Z</time>
      </trkpt>
      <trkpt lat="47.26207" lon="6.03906">
        <ele>338.52</ele>
        <time>2013-09-28T06:18:49Z</time>
      </trkpt>
      <trkpt lat="47.26216" lon="6.03937">
        <ele>339</ele>
        <time>2013-09-28T06:18:53Z</time>
      </trkpt>
      <trkpt lat="47.26223" lon="6.03962">
        <ele>339</ele>
        <time>2013-09-28T06:18:57Z</time>
      </trkpt>
      <trkpt lat="47.2623" lon="6.03987">
        <ele>339.96</ele>
        <time>2013-09-28T06:19:04Z</time>
      </trkpt>
      <trkpt lat="47.26234" lon="6.04016">
        <ele>339.48</ele>
        <time>2013-09-28T06:19:20Z</time>
      </trkpt>
      <trkpt lat="47.26241" lon="6.04041">
        <ele>339.48</ele>
        <time>2013-09-28T06:19:25Z</time>
      </trkpt>
      <trkpt lat="47.26249" lon="6.04065">
        <ele>339.96</ele>
        <time>2013-09-28T06:19:30Z</time>
      </trkpt>
      <trkpt lat="47.26257" lon="6.04094">
        <ele>340.44</ele>
        <time>2013-09-28T06:19:35Z</time>
      </trkpt>
      <trkpt lat="47.26265" lon="6.04125">
        <ele>340.44</ele>
        <time>2013-09-28T06:19:40Z</time>
      </trkpt>
      <trkpt lat="47.26275" lon="6.04154">
        <ele>340.92</ele>
        <time>2013-09-28T06:19:45Z</time>
      </trkpt>
      <trkpt lat="47.26284" lon="6.04184">
        <ele>341.89</ele>
        <time>2013-09-28T06:19:50Z</time>
      </trkpt>
      <trkpt lat="47.26292" lon="6.04214">
        <ele>342.37</ele>
        <time>2013-09-28T06:19:55Z</time>
      </trkpt>
      <trkpt lat="47.26302" lon="6.04243">
        <ele>342.85</ele>
        <time>2013-09-28T06:20:00Z</time>
      </trkpt>
      <trkpt lat="47.2631" lon="6.04273">
        <ele>343.33</ele>
        <time>2013-09-28T06:20:05Z</time>
      </trkpt>
      <trkpt lat="47.26315" lon="6.04298">
        <ele>343.81</ele>
        <time>2013-09-28T06:20:09Z</time>
      </trkpt>
      <trkpt lat="47.26321" lon="6.04324">
        <ele>343.81</ele>
        <time>2013-09-28T06:20:13Z</time>
      </trkpt>
      <trkpt lat="47.26328" lon="6.04349">
        <ele>343.33</ele>
        <time>2013-09-28T06:20:17Z</time>
      </trkpt>
      <trkpt lat="47.26334" lon="6.04375">
        <ele>343.81</ele>
        <time>2013-09-28T06:20:21Z</time>
      </trkpt>
      <trkpt lat="47.2634" lon="6.04401">
        <ele>343.33</ele>
        <time>2013-09-28T06:20:25Z</time>
      </trkpt>
      <trkpt lat="47.26344" lon="6.04428">
        <ele>342.85</ele>
        <time>2013-09-28T06:20:29Z</time>
      </trkpt>
      <trkpt lat="47.26349" lon="6.04458">
        <ele>342.85</ele>
        <time>2013-09-28T06:20:33Z</time>
      </trkpt>
      <trkpt lat="47.26352" lon="6.0449">
        <ele>342.37</ele>
        <time>2013-09-28T06:20:37Z</time>
      </trkpt>
      <trkpt lat="47.26353" lon="6.04517">
        <ele>341.89</ele>
        <time>2013-09-28T06:21:09Z</time>
      </trkpt>
      <trkpt lat="47.26355" lon="6.04545">
        <ele>341.41</ele>
        <time>2013-09-28T06:21:14Z</time>
      </trkpt>
      <trkpt lat="47.26355" lon="6.04576">
        <ele>340.92</ele>
        <time>2013-09-28T06:21:18Z</time>
      </trkpt>
      <trkpt lat="47.26354" lon="6.04611">
        <ele>339.48</ele>
        <time>2013-09-28T06:21:22Z</time>
      </trkpt>
      <trkpt lat="47.26354" lon="6.04647">
        <ele>339</ele>
        <time>2013-09-28T06:21:26Z</time>
      </trkpt>
      <trkpt lat="47.26353" lon="6.04682">
        <ele>338.04</ele>
        <time>2013-09-28T06:21:30Z</time>
      </trkpt>
      <trkpt lat="47.26352" lon="6.04708">
        <ele>338.04</ele>
        <time>2013-09-28T06:21:33Z</time>
      </trkpt>
      <trkpt lat="47.26353" lon="6.04735">
        <ele>337.56</ele>
        <time>2013-09-28T06:21:36Z</time>
      </trkpt>
      <trkpt lat="47.26347" lon="6.0476">
        <ele>337.08</ele>
        <time>2013-09-28T06:21:39Z</time>
      </trkpt>
      <trkpt lat="47.26337" lon="6.04785">
        <ele>336.6</ele>
        <time>2013-09-28T06:21:42Z</time>
      </trkpt>
      <trkpt lat="47.26328" lon="6.04811">
        <ele>336.12</ele>
        <time>2013-09-28T06:21:45Z</time>
      </trkpt>
      <trkpt lat="47.26318" lon="6.04839">
        <ele>334.68</ele>
        <time>2013-09-28T06:21:48Z</time>
      </trkpt>
      <trkpt lat="47.26305" lon="6.04866">
        <ele>334.2</ele>
        <time>2013-09-28T06:21:51Z</time>
      </trkpt>
      <trkpt lat="47.26291" lon="6.04894">
        <ele>333.23</ele>
        <time>2013-09-28T06:21:54Z</time>
      </trkpt>
      <trkpt lat="47.26279" lon="6.04921">
        <ele>333.71</ele>
        <time>2013-09-28T06:21:57Z</time>
      </trkpt>
      <trkpt lat="47.26267" lon="6.04948">
        <ele>333.71</ele>
        <time>2013-09-28T06:22:00Z</time>
      </trkpt>
      <trkpt lat="47.26255" lon="6.04974">
        <ele>333.23</ele>
        <time>2013-09-28T06:22:03Z</time>
      </trkpt>
      <trkpt lat="47.26243" lon="6.05">
        <ele>332.75</ele>
        <time>2013-09-28T06:22:06Z</time>
      </trkpt>
      <trkpt lat="47.26235" lon="6.05028">
        <ele>332.75</ele>
        <time>2013-09-28T06:22:09Z</time>
      </trkpt>
      <trkpt lat="47.2623" lon="6.05058">
        <ele>331.79</ele>
        <time>2013-09-28T06:22:12Z</time>
      </trkpt>
      <trkpt lat="47.26229" lon="6.0509">
        <ele>330.83</ele>
        <time>2013-09-28T06:22:15Z</time>
      </trkpt>
      <trkpt lat="47.26233" lon="6.05123">
        <ele>328.91</ele>
        <time>2013-09-28T06:22:18Z</time>
      </trkpt>
      <trkpt lat="47.26244" lon="6.05158">
        <ele>326.99</ele>
        <time>2013-09-28T06:22:21Z</time>
      </trkpt>
      <trkpt lat="47.26254" lon="6.05181">
        <ele>324.58</ele>
        <time>2013-09-28T06:22:23Z</time>
      </trkpt>
      <trkpt lat="47.26264" lon="6.05203">
        <ele>323.62</ele>
        <time>2013-09-28T06:22:25Z</time>
      </trkpt>
      <trkpt lat="47.26275" lon="6.05226">
        <ele>322.18</ele>
        <time>2013-09-28T06:22:27Z</time>
      </trkpt>
      <trkpt lat="47.26285" lon="6.05249">
        <ele>321.22</ele>
        <time>2013-09-28T06:22:29Z</time>
      </trkpt>
      <trkpt lat="47.26296" lon="6.05272">
        <ele>320.26</ele>
        <time>2013-09-28T06:22:31Z</time>
      </trkpt>
      <trkpt lat="47.26306" lon="6.05296">
        <ele>318.33</ele>
        <time>2013-09-28T06:22:33Z</time>
      </trkpt>
      <trkpt lat="47.26312" lon="6.05322">
        <ele>316.41</ele>
        <time>2013-09-28T06:22:35Z</time>
      </trkpt>
      <trkpt lat="47.26317" lon="6.05349">
        <ele>315.45</ele>
        <time>2013-09-28T06:22:37Z</time>
      </trkpt>
      <trkpt lat="47.26324" lon="6.05375">
        <ele>314.01</ele>
        <time>2013-09-28T06:22:39Z</time>
      </trkpt>
      <trkpt lat="47.26331" lon="6.05402">
        <ele>313.05</ele>
        <time>2013-09-28T06:22:41Z</time>
      </trkpt>
      <trkpt lat="47.26336" lon="6.05429">
        <ele>311.6</ele>
        <time>2013-09-28T06:22:43Z</time>
      </trkpt>
      <trkpt lat="47.2634" lon="6.05455">
        <ele>310.16</ele>
        <time>2013-09-28T06:22:45Z</time>
      </trkpt>
      <trkpt lat="47.26342" lon="6.05482">
        <ele>309.2</ele>
        <time>2013-09-28T06:22:47Z</time>
      </trkpt>
      <trkpt lat="47.26344" lon="6.05509">
        <ele>308.24</ele>
        <time>2013-09-28T06:22:49Z</time>
      </trkpt>
      <trkpt lat="47.26346" lon="6.05537">
        <ele>306.8</ele>
        <time>2013-09-28T06:22:51Z</time>
      </trkpt>
      <trkpt lat="47.26348" lon="6.05566">
        <ele>306.32</ele>
        <time>2013-09-28T06:22:53Z</time>
      </trkpt>
      <trkpt lat="47.26349" lon="6.05596">
        <ele>304.88</ele>
        <time>2013-09-28T06:22:55Z</time>
      </trkpt>
      <trkpt lat="47.2635" lon="6.05626">
        <ele>304.39</ele>
        <time>2013-09-28T06:22:57Z</time>
      </trkpt>
      <trkpt lat="47.2635" lon="6.05655">
        <ele>302.95</ele>
        <time>2013-09-28T06:22:59Z</time>
      </trkpt>
      <trkpt lat="47.2635" lon="6.05683">
        <ele>301.99</ele>
        <time>2013-09-28T06:23:01Z</time>
      </trkpt>
      <trkpt lat="47.26351" lon="6.05711">
        <ele>301.03</ele>
        <time>2013-09-28T06:23:03Z</time>
      </trkpt>
      <trkpt lat="47.26351" lon="6.05738">
        <ele>300.07</ele>
        <time>2013-09-28T06:23:05Z</time>
      </trkpt>
      <trkpt lat="47.26352" lon="6.05766">
        <ele>299.11</ele>
        <time>2013-09-28T06:23:07Z</time>
      </trkpt>
      <trkpt lat="47.26353" lon="6.05793">
        <ele>298.63</ele>
        <time>2013-09-28T06:23:09Z</time>
      </trkpt>
      <trkpt lat="47.26354" lon="6.0582">
        <ele>298.15</ele>
        <time>2013-09-28T06:23:11Z</time>
      </trkpt>
      <trkpt lat="47.26355" lon="6.0586">
        <ele>297.18</ele>
        <time>2013-09-28T06:23:14Z</time>
      </trkpt>
      <trkpt lat="47.26357" lon="6.05887">
        <ele>296.7</ele>
        <time>2013-09-28T06:23:16Z</time>
      </trkpt>
      <trkpt lat="47.26357" lon="6.05914">
        <ele>295.74</ele>
        <time>2013-09-28T06:23:18Z</time>
      </trkpt>
      <trkpt lat="47.26357" lon="6.0594">
        <ele>294.78</ele>
        <time>2013-09-28T06:23:20Z</time>
      </trkpt>
      <trkpt lat="47.26358" lon="6.0598">
        <ele>293.82</ele>
        <time>2013-09-28T06:23:23Z</time>
      </trkpt>
      <trkpt lat="47.2636" lon="6.06007">
        <ele>293.82</ele>
        <time>2013-09-28T06:23:25Z</time>
      </trkpt>
      <trkpt lat="47.26361" lon="6.06034">
        <ele>292.86</ele>
        <time>2013-09-28T06:23:27Z</time>
      </trkpt>
      <trkpt lat="47.26361" lon="6.0606">
        <ele>292.38</ele>
        <time>2013-09-28T06:23:29Z</time>
      </trkpt>
      <trkpt lat="47.26361" lon="6.06087">
        <ele>290.94</ele>
        <time>2013-09-28T06:23:31Z</time>
      </trkpt>
      <trkpt lat="47.26362" lon="6.06114">
        <ele>289.97</ele>
        <time>2013-09-28T06:23:33Z</time>
      </trkpt>
      <trkpt lat="47.26362" lon="6.06141">
        <ele>289.01</ele>
        <time>2013-09-28T06:23:35Z</time>
      </trkpt>
      <trkpt lat="47.26362" lon="6.06169">
        <ele>288.05</ele>
        <time>2013-09-28T06:23:37Z</time>
      </trkpt>
      <trkpt lat="47.26362" lon="6.06198">
        <ele>287.09</ele>
        <time>2013-09-28T06:23:39Z</time>
      </trkpt>
      <trkpt lat="47.26363" lon="6.06227">
        <ele>286.13</ele>
        <time>2013-09-28T06:23:41Z</time>
      </trkpt>
      <trkpt lat="47.26363" lon="6.06257">
        <ele>285.17</ele>
        <time>2013-09-28T06:23:43Z</time>
      </trkpt>
      <trkpt lat="47.26365" lon="6.06287">
        <ele>283.73</ele>
        <time>2013-09-28T06:23:45Z</time>
      </trkpt>
      <trkpt lat="47.26366" lon="6.06317">
        <ele>282.77</ele>
        <time>2013-09-28T06:23:47Z</time>
      </trkpt>
      <trkpt lat="47.26367" lon="6.06347">
        <ele>281.32</ele>
        <time>2013-09-28T06:23:49Z</time>
      </trkpt>
      <trkpt lat="47.26369" lon="6.06376">
        <ele>281.32</ele>
        <time>2013-09-28T06:23:51Z</time>
      </trkpt>
      <trkpt lat="47.26374" lon="6.06404">
        <ele>279.4</ele>
        <time>2013-09-28T06:23:53Z</time>
      </trkpt>
      <trkpt lat="47.26381" lon="6.06431">
        <ele>278.44</ele>
        <time>2013-09-28T06:23:55Z</time>
      </trkpt>
      <trkpt lat="47.2639" lon="6.06459">
        <ele>277.48</ele>
        <time>2013-09-28T06:23:57Z</time>
      </trkpt>
      <trkpt lat="47.26399" lon="6.06486">
        <ele>276.52</ele>
        <time>2013-09-28T06:23:59Z</time>
      </trkpt>
      <trkpt lat="47.26408" lon="6.06514">
        <ele>275.56</ele>
        <time>2013-09-28T06:24:01Z</time>
      </trkpt>
      <trkpt lat="47.26418" lon="6.06542">
        <ele>274.11</ele>
        <time>2013-09-28T06:24:03Z</time>
      </trkpt>
      <trkpt lat="47.26427" lon="6.06569">
        <ele>273.15</ele>
        <time>2013-09-28T06:24:05Z</time>
      </trkpt>
      <trkpt lat="47.26436" lon="6.06598">
        <ele>271.23</ele>
        <time>2013-09-28T06:24:07Z</time>
      </trkpt>
      <trkpt lat="47.26445" lon="6.06626">
        <ele>269.79</ele>
        <time>2013-09-28T06:24:09Z</time>
      </trkpt>
      <trkpt lat="47.26455" lon="6.06654">
        <ele>268.83</ele>
        <time>2013-09-28T06:24:11Z</time>
      </trkpt>
      <trkpt lat="47.26464" lon="6.06684">
        <ele>267.86</ele>
        <time>2013-09-28T06:24:13Z</time>
      </trkpt>
      <trkpt lat="47.26474" lon="6.06713">
        <ele>266.9</ele>
        <time>2013-09-28T06:24:15Z</time>
      </trkpt>
      <trkpt lat="47.26484" lon="6.06742">
        <ele>265.94</ele>
        <time>2013-09-28T06:24:17Z</time>
      </trkpt>
      <trkpt lat="47.26494" lon="6.06772">
        <ele>264.98</ele>
        <time>2013-09-28T06:24:19Z</time>
      </trkpt>
      <trkpt lat="47.26502" lon="6.068">
        <ele>264.02</ele>
        <time>2013-09-28T06:24:21Z</time>
      </trkpt>
      <trkpt lat="47.26511" lon="6.06829">
        <ele>263.54</ele>
        <time>2013-09-28T06:24:23Z</time>
      </trkpt>
      <trkpt lat="47.26521" lon="6.06858">
        <ele>262.58</ele>
        <time>2013-09-28T06:24:25Z</time>
      </trkpt>
      <trkpt lat="47.26531" lon="6.06887">
        <ele>261.14</ele>
        <time>2013-09-28T06:24:27Z</time>
      </trkpt>
      <trkpt lat="47.2654" lon="6.06915">
        <ele>260.65</ele>
        <time>2013-09-28T06:24:29Z</time>
      </trkpt>
      <trkpt lat="47.26549" lon="6.06943">
        <ele>259.69</ele>
        <time>2013-09-28T06:24:31Z</time>
      </trkpt>
      <trkpt lat="47.26558" lon="6.0697">
        <ele>259.21</ele>
        <time>2013-09-28T06:24:33Z</time>
      </trkpt>
      <trkpt lat="47.26567" lon="6.06996">
        <ele>258.73</ele>
        <time>2013-09-28T06:24:35Z</time>
      </trkpt>
      <trkpt lat="47.26576" lon="6.07022">
        <ele>258.73</ele>
        <time>2013-09-28T06:24:37Z</time>
      </trkpt>
      <trkpt lat="47.26583" lon="6.07048">
        <ele>257.77</ele>
        <time>2013-09-28T06:24:39Z</time>
      </trkpt>
      <trkpt lat="47.26591" lon="6.07072">
        <ele>257.29</ele>
        <time>2013-09-28T06:24:41Z</time>
      </trkpt>
      <trkpt lat="47.26599" lon="6.07097">
        <ele>256.81</ele>
        <time>2013-09-28T06:24:43Z</time>
      </trkpt>
      <trkpt lat="47.26606" lon="6.07121">
        <ele>257.29</ele>
        <time>2013-09-28T06:24:45Z</time>
      </trkpt>
      <trkpt lat="47.26613" lon="6.07146">
        <ele>256.33</ele>
        <time>2013-09-28T06:24:47Z</time>
      </trkpt>
      <trkpt lat="47.26622" lon="6.07181">
        <ele>256.81</ele>
        <time>2013-09-28T06:24:50Z</time>
      </trkpt>
      <trkpt lat="47.26631" lon="6.07214">
        <ele>255.85</ele>
        <time>2013-09-28T06:24:53Z</time>
      </trkpt>
      <trkpt lat="47.2664" lon="6.07244">
        <ele>256.33</ele>
        <time>2013-09-28T06:24:56Z</time>
      </trkpt>
      <trkpt lat="47.26649" lon="6.07275">
        <ele>256.33</ele>
        <time>2013-09-28T06:24:59Z</time>
      </trkpt>
      <trkpt lat="47.26658" lon="6.07305">
        <ele>256.81</ele>
        <time>2013-09-28T06:25:02Z</time>
      </trkpt>
      <trkpt lat="47.26667" lon="6.07335">
        <ele>257.29</ele>
        <time>2013-09-28T06:25:05Z</time>
      </trkpt>
      <trkpt lat="47.26677" lon="6.07364">
        <ele>257.29</ele>
        <time>2013-09-28T06:25:08Z</time>
      </trkpt>
      <trkpt lat="47.26687" lon="6.07394">
        <ele>256.81</ele>
        <time>2013-09-28T06:25:11Z</time>
      </trkpt>
      <trkpt lat="47.26698" lon="6.07423">
        <ele>256.81</ele>
        <time>2013-09-28T06:25:14Z</time>
      </trkpt>
      <trkpt lat="47.26711" lon="6.07451">
        <ele>256.81</ele>
        <time>2013-09-28T06:25:17Z</time>
      </trkpt>
      <trkpt lat="47.26724" lon="6.07476">
        <ele>257.29</ele>
        <time>2013-09-28T06:25:20Z</time>
      </trkpt>
      <trkpt lat="47.26738" lon="6.075">
        <ele>256.81</ele>
        <time>2013-09-28T06:25:23Z</time>
      </trkpt>
      <trkpt lat="47.26754" lon="6.07523">
        <ele>256.81</ele>
        <time>2013-09-28T06:25:26Z</time>
      </trkpt>
      <trkpt lat="47.2677" lon="6.07545">
        <ele>256.81</ele>
        <time>2013-09-28T06:25:29Z</time>
      </trkpt>
      <trkpt lat="47.26786" lon="6.07565">
        <ele>256.81</ele>
        <time>2013-09-28T06:25:32Z</time>
      </trkpt>
      <trkpt lat="47.26803" lon="6.07583">
        <ele>257.29</ele>
        <time>2013-09-28T06:25:35Z</time>
      </trkpt>
      <trkpt lat="47.2682" lon="6.07601">
        <ele>257.29</ele>
        <time>2013-09-28T06:25:38Z</time>
      </trkpt>
      <trkpt lat="47.26838" lon="6.07619">
        <ele>256.81</ele>
        <time>2013-09-28T06:25:41Z</time>
      </trkpt>
      <trkpt lat="47.26855" lon="6.07637">
        <ele>256.81</ele>
        <time>2013-09-28T06:25:44Z</time>
      </trkpt>
      <trkpt lat="47.26874" lon="6.07656">
        <ele>256.81</ele>
        <time>2013-09-28T06:25:47Z</time>
      </trkpt>
      <trkpt lat="47.26892" lon="6.07675">
        <ele>256.33</ele>
        <time>2013-09-28T06:25:50Z</time>
      </trkpt>
      <trkpt lat="47.26909" lon="6.07695">
        <ele>256.33</ele>
        <time>2013-09-28T06:25:53Z</time>
      </trkpt>
      <trkpt lat="47.26926" lon="6.07716">
        <ele>256.81</ele>
        <time>2013-09-28T06:25:56Z</time>
      </trkpt>
      <trkpt lat="47.26942" lon="6.07737">
        <ele>256.33</ele>
        <time>2013-09-28T06:25:59Z</time>
      </trkpt>
      <trkpt lat="47.26958" lon="6.0776">
        <ele>256.33</ele>
        <time>2013-09-28T06:26:02Z</time>
      </trkpt>
      <trkpt lat="47.26973" lon="6.07782">
        <ele>256.33</ele>
        <time>2013-09-28T06:26:05Z</time>
      </trkpt>
      <trkpt lat="47.26988" lon="6.07805">
        <ele>256.81</ele>
        <time>2013-09-28T06:26:08Z</time>
      </trkpt>
      <trkpt lat="47.27002" lon="6.07828">
        <ele>256.33</ele>
        <time>2013-09-28T06:26:11Z</time>
      </trkpt>
      <trkpt lat="47.27015" lon="6.07852">
        <ele>256.81</ele>
        <time>2013-09-28T06:26:14Z</time>
      </trkpt>
      <trkpt lat="47.27028" lon="6.07877">
        <ele>256.33</ele>
        <time>2013-09-28T06:26:17Z</time>
      </trkpt>
      <trkpt lat="47.2704" lon="6.07902">
        <ele>256.81</ele>
        <time>2013-09-28T06:26:20Z</time>
      </trkpt>
      <trkpt lat="47.2705" lon="6.07928">
        <ele>256.81</ele>
        <time>2013-09-28T06:26:23Z</time>
      </trkpt>
      <trkpt lat="47.2706" lon="6.07954">
        <ele>256.81</ele>
        <time>2013-09-28T06:26:26Z</time>
      </trkpt>
      <trkpt lat="47.27069" lon="6.0798">
        <ele>256.81</ele>
        <time>2013-09-28T06:26:29Z</time>
      </trkpt>
      <trkpt lat="47.27078" lon="6.08006">
        <ele>256.33</ele>
        <time>2013-09-28T06:26:32Z</time>
      </trkpt>
      <trkpt lat="47.27086" lon="6.08032">
        <ele>256.33</ele>
        <time>2013-09-28T06:26:35Z</time>
      </trkpt>
      <trkpt lat="47.27093" lon="6.08058">
        <ele>256.81</ele>
        <time>2013-09-28T06:26:38Z</time>
      </trkpt>
      <trkpt lat="47.271" lon="6.08084">
        <ele>256.81</ele>
        <time>2013-09-28T06:26:41Z</time>
      </trkpt>
      <trkpt lat="47.27106" lon="6.0811">
        <ele>256.81</ele>
        <time>2013-09-28T06:26:44Z</time>
      </trkpt>
      <trkpt lat="47.27111" lon="6.08136">
        <ele>256.81</ele>
        <time>2013-09-28T06:26:47Z</time>
      </trkpt>
      <trkpt lat="47.27116" lon="6.08163">
        <ele>257.29</ele>
        <time>2013-09-28T06:26:50Z</time>
      </trkpt>
      <trkpt lat="47.27121" lon="6.08189">
        <ele>257.29</ele>
        <time>2013-09-28T06:26:53Z</time>
      </trkpt>
      <trkpt lat="47.27124" lon="6.08216">
        <ele>257.29</ele>
        <time>2013-09-28T06:26:56Z</time>
      </trkpt>
      <trkpt lat="47.27128" lon="6.08243">
        <ele>257.29</ele>
        <time>2013-09-28T06:26:59Z</time>
      </trkpt>
      <trkpt lat="47.27131" lon="6.0827">
        <ele>256.81</ele>
        <time>2013-09-28T06:27:02Z</time>
      </trkpt>
      <trkpt lat="47.27134" lon="6.08298">
        <ele>256.81</ele>
        <time>2013-09-28T06:27:05Z</time>
      </trkpt>
      <trkpt lat="47.27136" lon="6.08325">
        <ele>256.81</ele>
        <time>2013-09-28T06:27:08Z</time>
      </trkpt>
      <trkpt lat="47.27138" lon="6.08353">
        <ele>256.81</ele>
        <time>2013-09-28T06:27:11Z</time>
      </trkpt>
      <trkpt lat="47.2714" lon="6.0838">
        <ele>256.81</ele>
        <time>2013-09-28T06:27:14Z</time>
      </trkpt>
      <trkpt lat="47.27139" lon="6.08411">
        <ele>256.81</ele>
        <time>2013-09-28T06:27:18Z</time>
      </trkpt>
      <trkpt lat="47.27132" lon="6.08437">
        <ele>257.29</ele>
        <time>2013-09-28T06:27:22Z</time>
      </trkpt>
      <trkpt lat="47.27121" lon="6.08458">
        <ele>256.33</ele>
        <time>2013-09-28T06:27:26Z</time>
      </trkpt>
      <trkpt lat="47.27102" lon="6.08472">
        <ele>256.81</ele>
        <time>2013-09-28T06:27:30Z</time>
      </trkpt>
      <trkpt lat="47.27085" lon="6.08485">
        <ele>257.29</ele>
        <time>2013-09-28T06:27:35Z</time>
      </trkpt>
      <trkpt lat="47.2708" lon="6.0851">
        <ele>257.29</ele>
        <time>2013-09-28T06:27:40Z</time>
      </trkpt>
      <trkpt lat="47.27083" lon="6.08536">
        <ele>256.81</ele>
        <time>2013-09-28T06:27:44Z</time>
      </trkpt>
      <trkpt lat="47.27087" lon="6.08565">
        <ele>257.29</ele>
        <time>2013-09-28T06:27:49Z</time>
      </trkpt>
      <trkpt lat="47.27088" lon="6.08597">
        <ele>256.81</ele>
        <time>2013-09-28T06:27:54Z</time>
      </trkpt>
      <trkpt lat="47.27088" lon="6.08625">
        <ele>257.29</ele>
        <time>2013-09-28T06:27:58Z</time>
      </trkpt>
      <trkpt lat="47.27089" lon="6.08655">
        <ele>257.29</ele>
        <time>2013-09-28T06:28:02Z</time>
      </trkpt>
      <trkpt lat="47.27089" lon="6.08685">
        <ele>257.29</ele>
        <time>2013-09-28T06:28:06Z</time>
      </trkpt>
      <trkpt lat="47.27087" lon="6.08714">
        <ele>257.29</ele>
        <time>2013-09-28T06:28:10Z</time>
      </trkpt>
      <trkpt lat="47.27084" lon="6.08743">
        <ele>257.29</ele>
        <time>2013-09-28T06:28:14Z</time>
      </trkpt>
      <trkpt lat="47.27081" lon="6.08772">
        <ele>257.29</ele>
        <time>2013-09-28T06:28:18Z</time>
      </trkpt>
      <trkpt lat="47.27078" lon="6.08801">
        <ele>257.29</ele>
        <time>2013-09-28T06:28:22Z</time>
      </trkpt>
      <trkpt lat="47.27073" lon="6.08831">
        <ele>257.29</ele>
        <time>2013-09-28T06:28:26Z</time>
      </trkpt>
      <trkpt lat="47.27069" lon="6.0886">
        <ele>257.77</ele>
        <time>2013-09-28T06:28:30Z</time>
      </trkpt>
      <trkpt lat="47.27064" lon="6.08891">
        <ele>256.81</ele>
        <time>2013-09-28T06:28:34Z</time>
      </trkpt>
      <trkpt lat="47.27058" lon="6.08924">
        <ele>257.29</ele>
        <time>2013-09-28T06:28:38Z</time>
      </trkpt>
      <trkpt lat="47.27054" lon="6.0895">
        <ele>257.29</ele>
        <time>2013-09-28T06:28:41Z</time>
      </trkpt>
      <trkpt lat="47.2705" lon="6.08976">
        <ele>257.29</ele>
        <time>2013-09-28T06:28:44Z</time>
      </trkpt>
      <trkpt lat="47.27045" lon="6.09003">
        <ele>257.29</ele>
        <time>2013-09-28T06:28:47Z</time>
      </trkpt>
      <trkpt lat="47.27041" lon="6.09032">
        <ele>256.81</ele>
        <time>2013-09-28T06:28:50Z</time>
      </trkpt>
      <trkpt lat="47.27037" lon="6.0906">
        <ele>256.81</ele>
        <time>2013-09-28T06:28:53Z</time>
      </trkpt>
      <trkpt lat="47.27033" lon="6.09089">
        <ele>256.81</ele>
        <time>2013-09-28T06:28:56Z</time>
      </trkpt>
      <trkpt lat="47.27029" lon="6.09117">
        <ele>256.81</ele>
        <time>2013-09-28T06:28:59Z</time>
      </trkpt>
      <trkpt lat="47.27026" lon="6.09146">
        <ele>256.81</ele>
        <time>2013-09-28T06:29:02Z</time>
      </trkpt>
      <trkpt lat="47.27021" lon="6.09175">
        <ele>257.29</ele>
        <time>2013-09-28T06:29:05Z</time>
      </trkpt>
      <trkpt lat="47.27016" lon="6.09205">
        <ele>256.81</ele>
        <time>2013-09-28T06:29:08Z</time>
      </trkpt>
      <trkpt lat="47.27012" lon="6.09234">
        <ele>256.81</ele>
        <time>2013-09-28T06:29:11Z</time>
      </trkpt>
      <trkpt lat="47.27007" lon="6.09263">
        <ele>256.33</ele>
        <time>2013-09-28T06:29:14Z</time>
      </trkpt>
      <trkpt lat="47.27002" lon="6.09294">
        <ele>256.81</ele>
        <time>2013-09-28T06:29:17Z</time>
      </trkpt>
      <trkpt lat="47.26997" lon="6.09324">
        <ele>256.33</ele>
        <time>2013-09-28T06:29:20Z</time>
      </trkpt>
      <trkpt lat="47.26994" lon="6.09353">
        <ele>256.33</ele>
        <time>2013-09-28T06:29:23Z</time>
      </trkpt>
      <trkpt lat="47.26991" lon="6.09385">
        <ele>256.81</ele>
        <time>2013-09-28T06:29:26Z</time>
      </trkpt>
      <trkpt lat="47.26987" lon="6.09416">
        <ele>256.33</ele>
        <time>2013-09-28T06:29:29Z</time>
      </trkpt>
      <trkpt lat="47.26983" lon="6.09446">
        <ele>256.81</ele>
        <time>2013-09-28T06:29:32Z</time>
      </trkpt>
      <trkpt lat="47.26981" lon="6.09477">
        <ele>256.81</ele>
        <time>2013-09-28T06:29:35Z</time>
      </trkpt>
      <trkpt lat="47.26979" lon="6.09508">
        <ele>256.81</ele>
        <time>2013-09-28T06:29:38Z</time>
      </trkpt>
      <trkpt lat="47.26977" lon="6.0954">
        <ele>256.81</ele>
        <time>2013-09-28T06:29:41Z</time>
      </trkpt>
      <trkpt lat="47.26976" lon="6.09571">
        <ele>256.33</ele>
        <time>2013-09-28T06:29:44Z</time>
      </trkpt>
      <trkpt lat="47.26976" lon="6.09603">
        <ele>256.81</ele>
        <time>2013-09-28T06:29:47Z</time>
      </trkpt>
      <trkpt lat="47.26976" lon="6.09635">
        <ele>256.81</ele>
        <time>2013-09-28T06:29:50Z</time>
      </trkpt>
      <trkpt lat="47.26978" lon="6.09665">
        <ele>256.81</ele>
        <time>2013-09-28T06:29:53Z</time>
      </trkpt>
      <trkpt lat="47.26979" lon="6.09695">
        <ele>257.29</ele>
        <time>2013-09-28T06:29:56Z</time>
      </trkpt>
      <trkpt lat="47.26981" lon="6.09725">
        <ele>256.81</ele>
        <time>2013-09-28T06:29:59Z</time>
      </trkpt>
      <trkpt lat="47.26984" lon="6.09756">
        <ele>256.81</ele>
        <time>2013-09-28T06:30:02Z</time>
      </trkpt>
      <trkpt lat="47.26986" lon="6.09787">
        <ele>257.29</ele>
        <time>2013-09-28T06:30:05Z</time>
      </trkpt>
      <trkpt lat="47.26988" lon="6.09817">
        <ele>257.29</ele>
        <time>2013-09-28T06:30:08Z</time>
      </trkpt>
      <trkpt lat="47.26989" lon="6.09847">
        <ele>256.81</ele>
        <time>2013-09-28T06:30:11Z</time>
      </trkpt>
      <trkpt lat="47.2699" lon="6.09878">
        <ele>257.29</ele>
        <time>2013-09-28T06:30:14Z</time>
      </trkpt>
      <trkpt lat="47.26991" lon="6.09908">
        <ele>256.81</ele>
        <time>2013-09-28T06:30:17Z</time>
      </trkpt>
      <trkpt lat="47.26989" lon="6.09939">
        <ele>256.81</ele>
        <time>2013-09-28T06:30:20Z</time>
      </trkpt>
      <trkpt lat="47.26988" lon="6.0997">
        <ele>257.29</ele>
        <time>2013-09-28T06:30:23Z</time>
      </trkpt>
      <trkpt lat="47.26984" lon="6.1">
        <ele>256.81</ele>
        <time>2013-09-28T06:30:26Z</time>
      </trkpt>
      <trkpt lat="47.2698" lon="6.1003">
        <ele>256.81</ele>
        <time>2013-09-28T06:30:29Z</time>
      </trkpt>
      <trkpt lat="47.26976" lon="6.1006">
        <ele>257.29</ele>
        <time>2013-09-28T06:30:32Z</time>
      </trkpt>
      <trkpt lat="47.26971" lon="6.10089">
        <ele>256.81</ele>
        <time>2013-09-28T06:30:35Z</time>
      </trkpt>
      <trkpt lat="47.26966" lon="6.10119">
        <ele>257.29</ele>
        <time>2013-09-28T06:30:38Z</time>
      </trkpt>
      <trkpt lat="47.26961" lon="6.10149">
        <ele>257.29</ele>
        <time>2013-09-28T06:30:41Z</time>
      </trkpt>
      <trkpt lat="47.26955" lon="6.1018">
        <ele>256.81</ele>
        <time>2013-09-28T06:30:44Z</time>
      </trkpt>
      <trkpt lat="47.2695" lon="6.10209">
        <ele>257.77</ele>
        <time>2013-09-28T06:30:47Z</time>
      </trkpt>
      <trkpt lat="47.26944" lon="6.10239">
        <ele>256.81</ele>
        <time>2013-09-28T06:30:50Z</time>
      </trkpt>
      <trkpt lat="47.26938" lon="6.10269">
        <ele>257.29</ele>
        <time>2013-09-28T06:30:53Z</time>
      </trkpt>
      <trkpt lat="47.26933" lon="6.10298">
        <ele>256.81</ele>
        <time>2013-09-28T06:30:56Z</time>
      </trkpt>
      <trkpt lat="47.26928" lon="6.10328">
        <ele>256.81</ele>
        <time>2013-09-28T06:30:59Z</time>
      </trkpt>
      <trkpt lat="47.26922" lon="6.10358">
        <ele>256.81</ele>
        <time>2013-09-28T06:31:02Z</time>
      </trkpt>
      <trkpt lat="47.26917" lon="6.10389">
        <ele>257.29</ele>
        <time>2013-09-28T06:31:05Z</time>
      </trkpt>
      <trkpt lat="47.26913" lon="6.1042">
        <ele>257.29</ele>
        <time>2013-09-28T06:31:08Z</time>
      </trkpt>
      <trkpt lat="47.26909" lon="6.10451">
        <ele>256.81</ele>
        <time>2013-09-28T06:31:11Z</time>
      </trkpt>
      <trkpt lat="47.26905" lon="6.10483">
        <ele>257.29</ele>
        <time>2013-09-28T06:31:14Z</time>
      </trkpt>
      <trkpt lat="47.26903" lon="6.10514">
        <ele>257.29</ele>
        <time>2013-09-28T06:31:17Z</time>
      </trkpt>
      <trkpt lat="47.26901" lon="6.10545">
        <ele>257.29</ele>
        <time>2013-09-28T06:31:20Z</time>
      </trkpt>
      <trkpt lat="47.269" lon="6.10577">
        <ele>257.29</ele>
        <time>2013-09-28T06:31:23Z</time>
      </trkpt>
      <trkpt lat="47.269" lon="6.10609">
        <ele>257.77</ele>
        <time>2013-09-28T06:31:26Z</time>
      </trkpt>
      <trkpt lat="47.26899" lon="6.1064">
        <ele>257.29</ele>
        <time>2013-09-28T06:31:29Z</time>
      </trkpt>
      <trkpt lat="47.269" lon="6.10671">
        <ele>257.29</ele>
        <time>2013-09-28T06:31:32Z</time>
      </trkpt>
      <trkpt lat="47.26901" lon="6.10703">
        <ele>257.29</ele>
        <time>2013-09-28T06:31:35Z</time>
      </trkpt>
      <trkpt lat="47.26902" lon="6.10736">
        <ele>256.81</ele>
        <time>2013-09-28T06:31:38Z</time>
      </trkpt>
      <trkpt lat="47.26902" lon="6.10768">
        <ele>257.29</ele>
        <time>2013-09-28T06:31:41Z</time>
      </trkpt>
      <trkpt lat="47.26904" lon="6.108">
        <ele>257.29</ele>
        <time>2013-09-28T06:31:44Z</time>
      </trkpt>
      <trkpt lat="47.26907" lon="6.10832">
        <ele>257.29</ele>
        <time>2013-09-28T06:31:47Z</time>
      </trkpt>
      <trkpt lat="47.2691" lon="6.10864">
        <ele>257.29</ele>
        <time>2013-09-28T06:31:50Z</time>
      </trkpt>
      <trkpt lat="47.26914" lon="6.10897">
        <ele>256.81</ele>
        <time>2013-09-28T06:31:53Z</time>
      </trkpt>
      <trkpt lat="47.26918" lon="6.10929">
        <ele>256.81</ele>
        <time>2013-09-28T06:31:56Z</time>
      </trkpt>
      <trkpt lat="47.26922" lon="6.10961">
        <ele>257.29</ele>
        <time>2013-09-28T06:31:59Z</time>
      </trkpt>
      <trkpt lat="47.26927" lon="6.10992">
        <ele>257.29</ele>
        <time>2013-09-28T06:32:02Z</time>
      </trkpt>
      <trkpt lat="47.26933" lon="6.11024">
        <ele>257.29</ele>
        <time>2013-09-28T06:32:05Z</time>
      </trkpt>
      <trkpt lat="47.26939" lon="6.11055">
        <ele>257.29</ele>
        <time>2013-09-28T06:32:08Z</time>
      </trkpt>
      <trkpt lat="47.26947" lon="6.11086">
        <ele>257.29</ele>
        <time>2013-09-28T06:32:11Z</time>
      </trkpt>
      <trkpt lat="47.26955" lon="6.11116">
        <ele>257.77</ele>
        <time>2013-09-28T06:32:14Z</time>
      </trkpt>
      <trkpt lat="47.26963" lon="6.11145">
        <ele>257.29</ele>
        <time>2013-09-28T06:32:17Z</time>
      </trkpt>
      <trkpt lat="47.26973" lon="6.11176">
        <ele>257.29</ele>
        <time>2013-09-28T06:32:20Z</time>
      </trkpt>
      <trkpt lat="47.26984" lon="6.11206">
        <ele>257.29</ele>
        <time>2013-09-28T06:32:23Z</time>
      </trkpt>
      <trkpt lat="47.26994" lon="6.11234">
        <ele>257.29</ele>
        <time>2013-09-28T06:32:26Z</time>
      </trkpt>
      <trkpt lat="47.27005" lon="6.11261">
        <ele>262.1</ele>
        <time>2013-09-28T06:32:29Z</time>
      </trkpt>
      <trkpt lat="47.27017" lon="6.11288">
        <ele>257.29</ele>
        <time>2013-09-28T06:32:32Z</time>
      </trkpt>
      <trkpt lat="47.27031" lon="6.11315">
        <ele>257.29</ele>
        <time>2013-09-28T06:32:35Z</time>
      </trkpt>
      <trkpt lat="47.27044" lon="6.11341">
        <ele>257.29</ele>
        <time>2013-09-28T06:32:38Z</time>
      </trkpt>
      <trkpt lat="47.27058" lon="6.11366">
        <ele>257.29</ele>
        <time>2013-09-28T06:32:41Z</time>
      </trkpt>
      <trkpt lat="47.27073" lon="6.11391">
        <ele>257.77</ele>
        <time>2013-09-28T06:32:44Z</time>
      </trkpt>
      <trkpt lat="47.27089" lon="6.11415">
        <ele>257.29</ele>
        <time>2013-09-28T06:32:47Z</time>
      </trkpt>
      <trkpt lat="47.27106" lon="6.11436">
        <ele>257.29</ele>
        <time>2013-09-28T06:32:50Z</time>
      </trkpt>
      <trkpt lat="47.27122" lon="6.11457">
        <ele>257.77</ele>
        <time>2013-09-28T06:32:53Z</time>
      </trkpt>
      <trkpt lat="47.27139" lon="6.11476">
        <ele>257.29</ele>
        <time>2013-09-28T06:32:56Z</time>
      </trkpt>
      <trkpt lat="47.27157" lon="6.11494">
        <ele>257.29</ele>
        <time>2013-09-28T06:32:59Z</time>
      </trkpt>
      <trkpt lat="47.27175" lon="6.11513">
        <ele>257.29</ele>
        <time>2013-09-28T06:33:02Z</time>
      </trkpt>
      <trkpt lat="47.27193" lon="6.11531">
        <ele>257.29</ele>
        <time>2013-09-28T06:33:05Z</time>
      </trkpt>
      <trkpt lat="47.27211" lon="6.11547">
        <ele>257.77</ele>
        <time>2013-09-28T06:33:08Z</time>
      </trkpt>
      <trkpt lat="47.27229" lon="6.11563">
        <ele>257.77</ele>
        <time>2013-09-28T06:33:11Z</time>
      </trkpt>
      <trkpt lat="47.27247" lon="6.1158">
        <ele>257.77</ele>
        <time>2013-09-28T06:33:14Z</time>
      </trkpt>
      <trkpt lat="47.27264" lon="6.11597">
        <ele>258.73</ele>
        <time>2013-09-28T06:33:17Z</time>
      </trkpt>
      <trkpt lat="47.2728" lon="6.11611">
        <ele>259.21</ele>
        <time>2013-09-28T06:33:20Z</time>
      </trkpt>
      <trkpt lat="47.27296" lon="6.11625">
        <ele>258.25</ele>
        <time>2013-09-28T06:33:23Z</time>
      </trkpt>
      <trkpt lat="47.27313" lon="6.11642">
        <ele>258.25</ele>
        <time>2013-09-28T06:33:26Z</time>
      </trkpt>
      <trkpt lat="47.27329" lon="6.11663">
        <ele>258.25</ele>
        <time>2013-09-28T06:33:29Z</time>
      </trkpt>
      <trkpt lat="47.27345" lon="6.11684">
        <ele>257.29</ele>
        <time>2013-09-28T06:33:32Z</time>
      </trkpt>
      <trkpt lat="47.27363" lon="6.11704">
        <ele>257.77</ele>
        <time>2013-09-28T06:33:35Z</time>
      </trkpt>
      <trkpt lat="47.27381" lon="6.11723">
        <ele>257.29</ele>
        <time>2013-09-28T06:33:38Z</time>
      </trkpt>
      <trkpt lat="47.27398" lon="6.11738">
        <ele>256.81</ele>
        <time>2013-09-28T06:33:41Z</time>
      </trkpt>
      <trkpt lat="47.27417" lon="6.11751">
        <ele>256.33</ele>
        <time>2013-09-28T06:33:44Z</time>
      </trkpt>
      <trkpt lat="47.2744" lon="6.11758">
        <ele>255.85</ele>
        <time>2013-09-28T06:33:47Z</time>
      </trkpt>
      <trkpt lat="47.27461" lon="6.11777">
        <ele>255.85</ele>
        <time>2013-09-28T06:33:50Z</time>
      </trkpt>
      <trkpt lat="47.2748" lon="6.11796">
        <ele>255.85</ele>
        <time>2013-09-28T06:33:53Z</time>
      </trkpt>
      <trkpt lat="47.27499" lon="6.11815">
        <ele>256.33</ele>
        <time>2013-09-28T06:33:56Z</time>
      </trkpt>
      <trkpt lat="47.27517" lon="6.11835">
        <ele>256.33</ele>
        <time>2013-09-28T06:33:59Z</time>
      </trkpt>
      <trkpt lat="47.27533" lon="6.11855">
        <ele>256.33</ele>
        <time>2013-09-28T06:34:02Z</time>
      </trkpt>
      <trkpt lat="47.2755" lon="6.11875">
        <ele>256.33</ele>
        <time>2013-09-28T06:34:05Z</time>
      </trkpt>
      <trkpt lat="47.27567" lon="6.11895">
        <ele>256.33</ele>
        <time>2013-09-28T06:34:08Z</time>
      </trkpt>
      <trkpt lat="47.27583" lon="6.11917">
        <ele>255.85</ele>
        <time>2013-09-28T06:34:11Z</time>
      </trkpt>
      <trkpt lat="47.27601" lon="6.11938">
        <ele>255.85</ele>
        <time>2013-09-28T06:34:14Z</time>
      </trkpt>
      <trkpt lat="47.27617" lon="6.11959">
        <ele>255.85</ele>
        <time>2013-09-28T06:34:17Z</time>
      </trkpt>
      <trkpt lat="47.27633" lon="6.11979">
        <ele>256.33</ele>
        <time>2013-09-28T06:34:20Z</time>
      </trkpt>
      <trkpt lat="47.27649" lon="6.12">
        <ele>256.33</ele>
        <time>2013-09-28T06:34:23Z</time>
      </trkpt>
      <trkpt lat="47.27666" lon="6.12018">
        <ele>255.85</ele>
        <time>2013-09-28T06:34:26Z</time>
      </trkpt>
      <trkpt lat="47.27683" lon="6.12037">
        <ele>255.85</ele>
        <time>2013-09-28T06:34:29Z</time>
      </trkpt>
      <trkpt lat="47.277" lon="6.12056">
        <ele>256.33</ele>
        <time>2013-09-28T06:34:32Z</time>
      </trkpt>
      <trkpt lat="47.27716" lon="6.12073">
        <ele>256.81</ele>
        <time>2013-09-28T06:34:35Z</time>
      </trkpt>
      <trkpt lat="47.27733" lon="6.1209">
        <ele>256.81</ele>
        <time>2013-09-28T06:34:38Z</time>
      </trkpt>
      <trkpt lat="47.2775" lon="6.12105">
        <ele>256.81</ele>
        <time>2013-09-28T06:34:41Z</time>
      </trkpt>
      <trkpt lat="47.27767" lon="6.12122">
        <ele>256.33</ele>
        <time>2013-09-28T06:34:44Z</time>
      </trkpt>
      <trkpt lat="47.27785" lon="6.12137">
        <ele>257.29</ele>
        <time>2013-09-28T06:34:47Z</time>
      </trkpt>
      <trkpt lat="47.27802" lon="6.12152">
        <ele>257.29</ele>
        <time>2013-09-28T06:34:50Z</time>
      </trkpt>
      <trkpt lat="47.27818" lon="6.12171">
        <ele>257.29</ele>
        <time>2013-09-28T06:34:53Z</time>
      </trkpt>
      <trkpt lat="47.27833" lon="6.12193">
        <ele>256.81</ele>
        <time>2013-09-28T06:34:56Z</time>
      </trkpt>
      <trkpt lat="47.27848" lon="6.12217">
        <ele>256.33</ele>
        <time>2013-09-28T06:34:59Z</time>
      </trkpt>
      <trkpt lat="47.27863" lon="6.1224">
        <ele>256.81</ele>
        <time>2013-09-28T06:35:02Z</time>
      </trkpt>
      <trkpt lat="47.27877" lon="6.12262">
        <ele>256.81</ele>
        <time>2013-09-28T06:35:05Z</time>
      </trkpt>
      <trkpt lat="47.27892" lon="6.12285">
        <ele>256.81</ele>
        <time>2013-09-28T06:35:08Z</time>
      </trkpt>
      <trkpt lat="47.27906" lon="6.12308">
        <ele>256.81</ele>
        <time>2013-09-28T06:35:11Z</time>
      </trkpt>
      <trkpt lat="47.27919" lon="6.12332">
        <ele>256.81</ele>
        <time>2013-09-28T06:35:14Z</time>
      </trkpt>
      <trkpt lat="47.27933" lon="6.12355">
        <ele>256.81</ele>
        <time>2013-09-28T06:35:17Z</time>
      </trkpt>
      <trkpt lat="47.27948" lon="6.1238">
        <ele>256.33</ele>
        <time>2013-09-28T06:35:20Z</time>
      </trkpt>
      <trkpt lat="47.27963" lon="6.12406">
        <ele>256.33</ele>
        <time>2013-09-28T06:35:23Z</time>
      </trkpt>
      <trkpt lat="47.27977" lon="6.1243">
        <ele>256.33</ele>
        <time>2013-09-28T06:35:26Z</time>
      </trkpt>
      <trkpt lat="47.27991" lon="6.12455">
        <ele>256.81</ele>
        <time>2013-09-28T06:35:29Z</time>
      </trkpt>
      <trkpt lat="47.28005" lon="6.12481">
        <ele>256.81</ele>
        <time>2013-09-28T06:35:32Z</time>
      </trkpt>
      <trkpt lat="47.28019" lon="6.12507">
        <ele>256.81</ele>
        <time>2013-09-28T06:35:35Z</time>
      </trkpt>
      <trkpt lat="47.28033" lon="6.12532">
        <ele>256.81</ele>
        <time>2013-09-28T06:35:38Z</time>
      </trkpt>
      <trkpt lat="47.28047" lon="6.12559">
        <ele>256.81</ele>
        <time>2013-09-28T06:35:41Z</time>
      </trkpt>
      <trkpt lat="47.28058" lon="6.12587">
        <ele>257.77</ele>
        <time>2013-09-28T06:35:44Z</time>
      </trkpt>
      <trkpt lat="47.28065" lon="6.12617">
        <ele>257.29</ele>
        <time>2013-09-28T06:35:47Z</time>
      </trkpt>
      <trkpt lat="47.2807" lon="6.12647">
        <ele>257.77</ele>
        <time>2013-09-28T06:35:50Z</time>
      </trkpt>
      <trkpt lat="47.28074" lon="6.12676">
        <ele>257.29</ele>
        <time>2013-09-28T06:35:53Z</time>
      </trkpt>
      <trkpt lat="47.28079" lon="6.12704">
        <ele>257.29</ele>
        <time>2013-09-28T06:35:56Z</time>
      </trkpt>
      <trkpt lat="47.28083" lon="6.12733">
        <ele>257.29</ele>
        <time>2013-09-28T06:35:59Z</time>
      </trkpt>
      <trkpt lat="47.28086" lon="6.12764">
        <ele>256.81</ele>
        <time>2013-09-28T06:36:02Z</time>
      </trkpt>
      <trkpt lat="47.2809" lon="6.12795">
        <ele>256.81</ele>
        <time>2013-09-28T06:36:05Z</time>
      </trkpt>
      <trkpt lat="47.28093" lon="6.12828">
        <ele>256.81</ele>
        <time>2013-09-28T06:36:08Z</time>
      </trkpt>
      <trkpt lat="47.28095" lon="6.12861">
        <ele>256.33</ele>
        <time>2013-09-28T06:36:11Z</time>
      </trkpt>
      <trkpt lat="47.28097" lon="6.12893">
        <ele>256.33</ele>
        <time>2013-09-28T06:36:14Z</time>
      </trkpt>
      <trkpt lat="47.281" lon="6.12924">
        <ele>256.33</ele>
        <time>2013-09-28T06:36:17Z</time>
      </trkpt>
      <trkpt lat="47.28103" lon="6.12954">
        <ele>256.33</ele>
        <time>2013-09-28T06:36:20Z</time>
      </trkpt>
      <trkpt lat="47.28106" lon="6.12985">
        <ele>256.81</ele>
        <time>2013-09-28T06:36:23Z</time>
      </trkpt>
      <trkpt lat="47.28109" lon="6.13015">
        <ele>256.33</ele>
        <time>2013-09-28T06:36:26Z</time>
      </trkpt>
      <trkpt lat="47.28111" lon="6.13046">
        <ele>256.33</ele>
        <time>2013-09-28T06:36:29Z</time>
      </trkpt>
      <trkpt lat="47.28115" lon="6.13075">
        <ele>256.33</ele>
        <time>2013-09-28T06:36:32Z</time>
      </trkpt>
      <trkpt lat="47.28119" lon="6.13103">
        <ele>256.81</ele>
        <time>2013-09-28T06:36:35Z</time>
      </trkpt>
      <trkpt lat="47.28124" lon="6.13132">
        <ele>256.33</ele>
        <time>2013-09-28T06:36:38Z</time>
      </trkpt>
      <trkpt lat="47.28128" lon="6.13162">
        <ele>256.81</ele>
        <time>2013-09-28T06:36:41Z</time>
      </trkpt>
      <trkpt lat="47.28135" lon="6.1319">
        <ele>256.81</ele>
        <time>2013-09-28T06:36:44Z</time>
      </trkpt>
      <trkpt lat="47.2814" lon="6.13218">
        <ele>257.29</ele>
        <time>2013-09-28T06:36:47Z</time>
      </trkpt>
      <trkpt lat="47.28145" lon="6.13246">
        <ele>256.81</ele>
        <time>2013-09-28T06:36:50Z</time>
      </trkpt>
      <trkpt lat="47.28149" lon="6.13274">
        <ele>256.81</ele>
        <time>2013-09-28T06:36:53Z</time>
      </trkpt>
      <trkpt lat="47.28153" lon="6.13304">
        <ele>256.81</ele>
        <time>2013-09-28T06:36:56Z</time>
      </trkpt>
      <trkpt lat="47.28158" lon="6.13335">
        <ele>257.29</ele>
        <time>2013-09-28T06:36:59Z</time>
      </trkpt>
      <trkpt lat="47.28164" lon="6.13367">
        <ele>257.29</ele>
        <time>2013-09-28T06:37:02Z</time>
      </trkpt>
      <trkpt lat="47.28169" lon="6.13398">
        <ele>257.29</ele>
        <time>2013-09-28T06:37:05Z</time>
      </trkpt>
      <trkpt lat="47.28173" lon="6.13427">
        <ele>257.77</ele>
        <time>2013-09-28T06:37:08Z</time>
      </trkpt>
      <trkpt lat="47.28178" lon="6.13455">
        <ele>258.25</ele>
        <time>2013-09-28T06:37:11Z</time>
      </trkpt>
      <trkpt lat="47.28183" lon="6.13484">
        <ele>257.77</ele>
        <time>2013-09-28T06:37:14Z</time>
      </trkpt>
      <trkpt lat="47.2819" lon="6.13515">
        <ele>257.77</ele>
        <time>2013-09-28T06:37:17Z</time>
      </trkpt>
      <trkpt lat="47.282" lon="6.13545">
        <ele>257.29</ele>
        <time>2013-09-28T06:37:20Z</time>
      </trkpt>
      <trkpt lat="47.2821" lon="6.13573">
        <ele>256.81</ele>
        <time>2013-09-28T06:37:23Z</time>
      </trkpt>
      <trkpt lat="47.28223" lon="6.13599">
        <ele>257.29</ele>
        <time>2013-09-28T06:37:26Z</time>
      </trkpt>
      <trkpt lat="47.28237" lon="6.13623">
        <ele>256.81</ele>
        <time>2013-09-28T06:37:29Z</time>
      </trkpt>
      <trkpt lat="47.28252" lon="6.13645">
        <ele>257.29</ele>
        <time>2013-09-28T06:37:32Z</time>
      </trkpt>
      <trkpt lat="47.28267" lon="6.13667">
        <ele>256.81</ele>
        <time>2013-09-28T06:37:35Z</time>
      </trkpt>
      <trkpt lat="47.28281" lon="6.13689">
        <ele>257.29</ele>
        <time>2013-09-28T06:37:38Z</time>
      </trkpt>
      <trkpt lat="47.28296" lon="6.13709">
        <ele>257.29</ele>
        <time>2013-09-28T06:37:41Z</time>
      </trkpt>
      <trkpt lat="47.28311" lon="6.1373">
        <ele>257.29</ele>
        <time>2013-09-28T06:37:44Z</time>
      </trkpt>
      <trkpt lat="47.28325" lon="6.13751">
        <ele>256.81</ele>
        <time>2013-09-28T06:37:47Z</time>
      </trkpt>
      <trkpt lat="47.28338" lon="6.13771">
        <ele>257.29</ele>
        <time>2013-09-28T06:37:50Z</time>
      </trkpt>
      <trkpt lat="47.28352" lon="6.13791">
        <ele>257.77</ele>
        <time>2013-09-28T06:37:53Z</time>
      </trkpt>
      <trkpt lat="47.28367" lon="6.13812">
        <ele>257.29</ele>
        <time>2013-09-28T06:37:56Z</time>
      </trkpt>
      <trkpt lat="47.28381" lon="6.13834">
        <ele>257.77</ele>
        <time>2013-09-28T06:37:59Z</time>
      </trkpt>
      <trkpt lat="47.28396" lon="6.13855">
        <ele>257.77</ele>
        <time>2013-09-28T06:38:02Z</time>
      </trkpt>
      <trkpt lat="47.2841" lon="6.13877">
        <ele>257.77</ele>
        <time>2013-09-28T06:38:05Z</time>
      </trkpt>
      <trkpt lat="47.28424" lon="6.139">
        <ele>257.77</ele>
        <time>2013-09-28T06:38:08Z</time>
      </trkpt>
      <trkpt lat="47.28436" lon="6.13923">
        <ele>257.77</ele>
        <time>2013-09-28T06:38:11Z</time>
      </trkpt>
      <trkpt lat="47.28444" lon="6.13949">
        <ele>257.77</ele>
        <time>2013-09-28T06:38:14Z</time>
      </trkpt>
      <trkpt lat="47.28448" lon="6.13979">
        <ele>256.81</ele>
        <time>2013-09-28T06:38:17Z</time>
      </trkpt>
      <trkpt lat="47.28453" lon="6.14013">
        <ele>255.85</ele>
        <time>2013-09-28T06:38:20Z</time>
      </trkpt>
      <trkpt lat="47.28456" lon="6.14045">
        <ele>255.85</ele>
        <time>2013-09-28T06:38:23Z</time>
      </trkpt>
      <trkpt lat="47.28457" lon="6.14077">
        <ele>256.33</ele>
        <time>2013-09-28T06:38:26Z</time>
      </trkpt>
      <trkpt lat="47.28458" lon="6.14108">
        <ele>256.33</ele>
        <time>2013-09-28T06:38:29Z</time>
      </trkpt>
      <trkpt lat="47.28462" lon="6.14138">
        <ele>255.85</ele>
        <time>2013-09-28T06:38:32Z</time>
      </trkpt>
      <trkpt lat="47.28465" lon="6.14168">
        <ele>256.33</ele>
        <time>2013-09-28T06:38:35Z</time>
      </trkpt>
      <trkpt lat="47.28468" lon="6.14198">
        <ele>256.33</ele>
        <time>2013-09-28T06:38:38Z</time>
      </trkpt>
      <trkpt lat="47.28471" lon="6.14228">
        <ele>256.33</ele>
        <time>2013-09-28T06:38:41Z</time>
      </trkpt>
      <trkpt lat="47.28473" lon="6.14258">
        <ele>256.33</ele>
        <time>2013-09-28T06:38:44Z</time>
      </trkpt>
      <trkpt lat="47.28475" lon="6.14288">
        <ele>256.33</ele>
        <time>2013-09-28T06:38:47Z</time>
      </trkpt>
      <trkpt lat="47.28476" lon="6.14318">
        <ele>256.33</ele>
        <time>2013-09-28T06:38:50Z</time>
      </trkpt>
      <trkpt lat="47.28479" lon="6.14347">
        <ele>256.33</ele>
        <time>2013-09-28T06:38:53Z</time>
      </trkpt>
      <trkpt lat="47.28481" lon="6.14378">
        <ele>256.33</ele>
        <time>2013-09-28T06:38:56Z</time>
      </trkpt>
      <trkpt lat="47.28482" lon="6.14409">
        <ele>256.33</ele>
        <time>2013-09-28T06:38:59Z</time>
      </trkpt>
      <trkpt lat="47.28484" lon="6.1444">
        <ele>256.33</ele>
        <time>2013-09-28T06:39:02Z</time>
      </trkpt>
      <trkpt lat="47.28487" lon="6.14472">
        <ele>255.85</ele>
        <time>2013-09-28T06:39:05Z</time>
      </trkpt>
      <trkpt lat="47.28492" lon="6.14502">
        <ele>256.33</ele>
        <time>2013-09-28T06:39:08Z</time>
      </trkpt>
      <trkpt lat="47.28498" lon="6.14532">
        <ele>255.85</ele>
        <time>2013-09-28T06:39:11Z</time>
      </trkpt>
      <trkpt lat="47.28503" lon="6.14562">
        <ele>256.33</ele>
        <time>2013-09-28T06:39:14Z</time>
      </trkpt>
      <trkpt lat="47.28508" lon="6.14591">
        <ele>256.81</ele>
        <time>2013-09-28T06:39:17Z</time>
      </trkpt>
      <trkpt lat="47.28513" lon="6.14618">
        <ele>256.33</ele>
        <time>2013-09-28T06:39:20Z</time>
      </trkpt>
      <trkpt lat="47.28518" lon="6.14646">
        <ele>256.33</ele>
        <time>2013-09-28T06:39:23Z</time>
      </trkpt>
      <trkpt lat="47.28524" lon="6.14674">
        <ele>256.33</ele>
        <time>2013-09-28T06:39:26Z</time>
      </trkpt>
      <trkpt lat="47.28529" lon="6.14703">
        <ele>256.33</ele>
        <time>2013-09-28T06:39:29Z</time>
      </trkpt>
      <trkpt lat="47.28537" lon="6.14731">
        <ele>255.85</ele>
        <time>2013-09-28T06:39:32Z</time>
      </trkpt>
      <trkpt lat="47.28547" lon="6.14759">
        <ele>255.85</ele>
        <time>2013-09-28T06:39:35Z</time>
      </trkpt>
      <trkpt lat="47.28556" lon="6.14788">
        <ele>255.85</ele>
        <time>2013-09-28T06:39:38Z</time>
      </trkpt>
      <trkpt lat="47.28566" lon="6.14816">
        <ele>255.85</ele>
        <time>2013-09-28T06:39:41Z</time>
      </trkpt>
      <trkpt lat="47.28575" lon="6.14845">
        <ele>255.85</ele>
        <time>2013-09-28T06:39:44Z</time>
      </trkpt>
      <trkpt lat="47.28584" lon="6.14873">
        <ele>256.33</ele>
        <time>2013-09-28T06:39:48Z</time>
      </trkpt>
      <trkpt lat="47.2858" lon="6.14853">
        <ele>256.33</ele>
        <time>2013-09-28T06:40:00Z</time>
      </trkpt>
      <trkpt lat="47.28571" lon="6.14827">
        <ele>255.85</ele>
        <time>2013-09-28T06:40:06Z</time>
      </trkpt>
      <trkpt lat="47.2857" lon="6.14801">
        <ele>255.85</ele>
        <time>2013-09-28T06:40:12Z</time>
      </trkpt>
      <trkpt lat="47.28585" lon="6.14785">
        <ele>256.33</ele>
        <time>2013-09-28T06:40:19Z</time>
      </trkpt>
      <trkpt lat="47.28598" lon="6.14793">
        <ele>257.77</ele>
        <time>2013-09-28T06:40:28Z</time>
      </trkpt>
      <trkpt lat="47.28607" lon="6.14818">
        <ele>260.17</ele>
        <time>2013-09-28T06:40:35Z</time>
      </trkpt>
      <trkpt lat="47.28615" lon="6.14844">
        <ele>262.1</ele>
        <time>2013-09-28T06:40:42Z</time>
      </trkpt>
      <trkpt lat="47.2862" lon="6.14871">
        <ele>263.54</ele>
        <time>2013-09-28T06:40:49Z</time>
      </trkpt>
      <trkpt lat="47.28608" lon="6.14893">
        <ele>263.06</ele>
        <time>2013-09-28T06:40:55Z</time>
      </trkpt>
      <trkpt lat="47.28589" lon="6.14905">
        <ele>263.06</ele>
        <time>2013-09-28T06:41:00Z</time>
      </trkpt>
      <trkpt lat="47.2857" lon="6.14917">
        <ele>263.06</ele>
        <time>2013-09-28T06:41:04Z</time>
      </trkpt>
      <trkpt lat="47.28551" lon="6.14929">
        <ele>263.06</ele>
        <time>2013-09-28T06:41:08Z</time>
      </trkpt>
      <trkpt lat="47.28533" lon="6.14941">
        <ele>262.1</ele>
        <time>2013-09-28T06:41:12Z</time>
      </trkpt>
      <trkpt lat="47.28515" lon="6.14953">
        <ele>262.1</ele>
        <time>2013-09-28T06:41:16Z</time>
      </trkpt>
      <trkpt lat="47.28496" lon="6.14967">
        <ele>261.62</ele>
        <time>2013-09-28T06:41:20Z</time>
      </trkpt>
      <trkpt lat="47.28481" lon="6.14989">
        <ele>261.14</ele>
        <time>2013-09-28T06:41:24Z</time>
      </trkpt>
      <trkpt lat="47.28472" lon="6.15017">
        <ele>261.14</ele>
        <time>2013-09-28T06:41:28Z</time>
      </trkpt>
      <trkpt lat="47.28468" lon="6.15049">
        <ele>260.65</ele>
        <time>2013-09-28T06:41:32Z</time>
      </trkpt>
      <trkpt lat="47.28465" lon="6.15084">
        <ele>259.69</ele>
        <time>2013-09-28T06:41:36Z</time>
      </trkpt>
      <trkpt lat="47.28464" lon="6.1511">
        <ele>259.21</ele>
        <time>2013-09-28T06:41:39Z</time>
      </trkpt>
      <trkpt lat="47.2846" lon="6.15143">
        <ele>258.25</ele>
        <time>2013-09-28T06:41:43Z</time>
      </trkpt>
      <trkpt lat="47.28455" lon="6.15169">
        <ele>258.25</ele>
        <time>2013-09-28T06:41:49Z</time>
      </trkpt>
      <trkpt lat="47.28471" lon="6.15165">
        <ele>258.25</ele>
        <time>2013-09-28T06:43:22Z</time>
      </trkpt>
      <trkpt lat="47.28491" lon="6.15156">
        <ele>257.77</ele>
        <time>2013-09-28T06:43:52Z</time>
      </trkpt>
      <trkpt lat="47.28511" lon="6.1515">
        <ele>256.81</ele>
        <time>2013-09-28T06:43:56Z</time>
      </trkpt>
      <trkpt lat="47.28534" lon="6.1514">
        <ele>256.33</ele>
        <time>2013-09-28T06:44:00Z</time>
      </trkpt>
      <trkpt lat="47.28552" lon="6.15145">
        <ele>256.81</ele>
        <time>2013-09-28T06:44:03Z</time>
      </trkpt>
      <trkpt lat="47.28572" lon="6.15163">
        <ele>256.81</ele>
        <time>2013-09-28T06:44:07Z</time>
      </trkpt>
      <trkpt lat="47.28586" lon="6.15185">
        <ele>256.81</ele>
        <time>2013-09-28T06:44:11Z</time>
      </trkpt>
      <trkpt lat="47.28599" lon="6.15211">
        <ele>256.33</ele>
        <time>2013-09-28T06:44:15Z</time>
      </trkpt>
      <trkpt lat="47.28611" lon="6.15238">
        <ele>256.81</ele>
        <time>2013-09-28T06:44:19Z</time>
      </trkpt>
      <trkpt lat="47.28622" lon="6.15267">
        <ele>256.81</ele>
        <time>2013-09-28T06:44:23Z</time>
      </trkpt>
      <trkpt lat="47.28632" lon="6.15295">
        <ele>257.29</ele>
        <time>2013-09-28T06:44:27Z</time>
      </trkpt>
      <trkpt lat="47.28641" lon="6.15325">
        <ele>256.81</ele>
        <time>2013-09-28T06:44:31Z</time>
      </trkpt>
      <trkpt lat="47.2865" lon="6.15356">
        <ele>256.81</ele>
        <time>2013-09-28T06:44:35Z</time>
      </trkpt>
      <trkpt lat="47.28659" lon="6.15388">
        <ele>257.29</ele>
        <time>2013-09-28T06:44:39Z</time>
      </trkpt>
      <trkpt lat="47.28667" lon="6.1542">
        <ele>257.77</ele>
        <time>2013-09-28T06:44:43Z</time>
      </trkpt>
      <trkpt lat="47.28674" lon="6.15454">
        <ele>258.25</ele>
        <time>2013-09-28T06:44:47Z</time>
      </trkpt>
      <trkpt lat="47.28682" lon="6.15486">
        <ele>257.77</ele>
        <time>2013-09-28T06:44:51Z</time>
      </trkpt>
      <trkpt lat="47.2869" lon="6.15519">
        <ele>258.25</ele>
        <time>2013-09-28T06:44:55Z</time>
      </trkpt>
      <trkpt lat="47.28698" lon="6.15552">
        <ele>258.25</ele>
        <time>2013-09-28T06:44:59Z</time>
      </trkpt>
      <trkpt lat="47.28705" lon="6.15584">
        <ele>258.25</ele>
        <time>2013-09-28T06:45:03Z</time>
      </trkpt>
      <trkpt lat="47.28711" lon="6.15617">
        <ele>258.25</ele>
        <time>2013-09-28T06:45:07Z</time>
      </trkpt>
      <trkpt lat="47.28717" lon="6.1565">
        <ele>258.25</ele>
        <time>2013-09-28T06:45:11Z</time>
      </trkpt>
      <trkpt lat="47.28723" lon="6.15683">
        <ele>258.25</ele>
        <time>2013-09-28T06:45:15Z</time>
      </trkpt>
      <trkpt lat="47.2873" lon="6.15717">
        <ele>258.25</ele>
        <time>2013-09-28T06:45:19Z</time>
      </trkpt>
      <trkpt lat="47.28736" lon="6.15751">
        <ele>258.25</ele>
        <time>2013-09-28T06:45:23Z</time>
      </trkpt>
      <trkpt lat="47.28741" lon="6.15785">
        <ele>258.73</ele>
        <time>2013-09-28T06:45:27Z</time>
      </trkpt>
      <trkpt lat="47.28745" lon="6.15811">
        <ele>258.73</ele>
        <time>2013-09-28T06:45:30Z</time>
      </trkpt>
      <trkpt lat="47.2875" lon="6.15846">
        <ele>258.25</ele>
        <time>2013-09-28T06:45:34Z</time>
      </trkpt>
      <trkpt lat="47.28754" lon="6.1588">
        <ele>258.73</ele>
        <time>2013-09-28T06:45:38Z</time>
      </trkpt>
      <trkpt lat="47.28759" lon="6.15914">
        <ele>259.21</ele>
        <time>2013-09-28T06:45:42Z</time>
      </trkpt>
      <trkpt lat="47.28762" lon="6.15948">
        <ele>258.73</ele>
        <time>2013-09-28T06:45:46Z</time>
      </trkpt>
      <trkpt lat="47.28766" lon="6.15975">
        <ele>258.73</ele>
        <time>2013-09-28T06:45:49Z</time>
      </trkpt>
      <trkpt lat="47.28769" lon="6.16002">
        <ele>257.77</ele>
        <time>2013-09-28T06:45:52Z</time>
      </trkpt>
      <trkpt lat="47.28772" lon="6.1603">
        <ele>258.25</ele>
        <time>2013-09-28T06:45:55Z</time>
      </trkpt>
      <trkpt lat="47.28776" lon="6.16057">
        <ele>258.73</ele>
        <time>2013-09-28T06:45:58Z</time>
      </trkpt>
      <trkpt lat="47.2878" lon="6.16083">
        <ele>258.25</ele>
        <time>2013-09-28T06:46:01Z</time>
      </trkpt>
      <trkpt lat="47.28783" lon="6.16109">
        <ele>258.73</ele>
        <time>2013-09-28T06:46:04Z</time>
      </trkpt>
      <trkpt lat="47.28787" lon="6.16144">
        <ele>258.73</ele>
        <time>2013-09-28T06:46:08Z</time>
      </trkpt>
      <trkpt lat="47.2879" lon="6.1618">
        <ele>258.73</ele>
        <time>2013-09-28T06:46:12Z</time>
      </trkpt>
      <trkpt lat="47.28793" lon="6.16206">
        <ele>258.25</ele>
        <time>2013-09-28T06:46:15Z</time>
      </trkpt>
      <trkpt lat="47.28796" lon="6.16232">
        <ele>258.25</ele>
        <time>2013-09-28T06:46:18Z</time>
      </trkpt>
      <trkpt lat="47.288" lon="6.16258">
        <ele>257.77</ele>
        <time>2013-09-28T06:46:21Z</time>
      </trkpt>
      <trkpt lat="47.28804" lon="6.16284">
        <ele>258.25</ele>
        <time>2013-09-28T06:46:24Z</time>
      </trkpt>
      <trkpt lat="47.28809" lon="6.16319">
        <ele>258.25</ele>
        <time>2013-09-28T06:46:28Z</time>
      </trkpt>
      <trkpt lat="47.28813" lon="6.16353">
        <ele>257.77</ele>
        <time>2013-09-28T06:46:32Z</time>
      </trkpt>
      <trkpt lat="47.28816" lon="6.16379">
        <ele>257.29</ele>
        <time>2013-09-28T06:46:35Z</time>
      </trkpt>
      <trkpt lat="47.2882" lon="6.16406">
        <ele>257.29</ele>
        <time>2013-09-28T06:46:38Z</time>
      </trkpt>
      <trkpt lat="47.28823" lon="6.16432">
        <ele>257.77</ele>
        <time>2013-09-28T06:46:41Z</time>
      </trkpt>
      <trkpt lat="47.28826" lon="6.16458">
        <ele>257.77</ele>
        <time>2013-09-28T06:46:44Z</time>
      </trkpt>
      <trkpt lat="47.28828" lon="6.16485">
        <ele>258.25</ele>
        <time>2013-09-28T06:46:47Z</time>
      </trkpt>
      <trkpt lat="47.28829" lon="6.16513">
        <ele>257.77</ele>
        <time>2013-09-28T06:46:50Z</time>
      </trkpt>
      <trkpt lat="47.28831" lon="6.16539">
        <ele>257.77</ele>
        <time>2013-09-28T06:46:53Z</time>
      </trkpt>
      <trkpt lat="47.28832" lon="6.16573">
        <ele>257.77</ele>
        <time>2013-09-28T06:46:57Z</time>
      </trkpt>
      <trkpt lat="47.28834" lon="6.16609">
        <ele>257.77</ele>
        <time>2013-09-28T06:47:01Z</time>
      </trkpt>
      <trkpt lat="47.28835" lon="6.16643">
        <ele>257.77</ele>
        <time>2013-09-28T06:47:05Z</time>
      </trkpt>
      <trkpt lat="47.28836" lon="6.16677">
        <ele>257.77</ele>
        <time>2013-09-28T06:47:09Z</time>
      </trkpt>
      <trkpt lat="47.28837" lon="6.16711">
        <ele>257.77</ele>
        <time>2013-09-28T06:47:13Z</time>
      </trkpt>
      <trkpt lat="47.28838" lon="6.16745">
        <ele>257.77</ele>
        <time>2013-09-28T06:47:17Z</time>
      </trkpt>
      <trkpt lat="47.2884" lon="6.16781">
        <ele>257.29</ele>
        <time>2013-09-28T06:47:21Z</time>
      </trkpt>
      <trkpt lat="47.28841" lon="6.16808">
        <ele>257.77</ele>
        <time>2013-09-28T06:47:24Z</time>
      </trkpt>
      <trkpt lat="47.28843" lon="6.16836">
        <ele>257.77</ele>
        <time>2013-09-28T06:47:27Z</time>
      </trkpt>
      <trkpt lat="47.28845" lon="6.16863">
        <ele>257.29</ele>
        <time>2013-09-28T06:47:30Z</time>
      </trkpt>
      <trkpt lat="47.28846" lon="6.1689">
        <ele>257.29</ele>
        <time>2013-09-28T06:47:33Z</time>
      </trkpt>
      <trkpt lat="47.28848" lon="6.16917">
        <ele>257.29</ele>
        <time>2013-09-28T06:47:36Z</time>
      </trkpt>
      <trkpt lat="47.28851" lon="6.16944">
        <ele>257.77</ele>
        <time>2013-09-28T06:47:39Z</time>
      </trkpt>
      <trkpt lat="47.28854" lon="6.16979">
        <ele>257.29</ele>
        <time>2013-09-28T06:47:43Z</time>
      </trkpt>
      <trkpt lat="47.28857" lon="6.17005">
        <ele>257.29</ele>
        <time>2013-09-28T06:47:46Z</time>
      </trkpt>
      <trkpt lat="47.28861" lon="6.1704">
        <ele>257.29</ele>
        <time>2013-09-28T06:47:50Z</time>
      </trkpt>
      <trkpt lat="47.28864" lon="6.17075">
        <ele>257.77</ele>
        <time>2013-09-28T06:47:54Z</time>
      </trkpt>
      <trkpt lat="47.28867" lon="6.17109">
        <ele>257.77</ele>
        <time>2013-09-28T06:47:58Z</time>
      </trkpt>
      <trkpt lat="47.28867" lon="6.17142">
        <ele>257.77</ele>
        <time>2013-09-28T06:48:02Z</time>
      </trkpt>
      <trkpt lat="47.28866" lon="6.17177">
        <ele>257.29</ele>
        <time>2013-09-28T06:48:06Z</time>
      </trkpt>
      <trkpt lat="47.28867" lon="6.17212">
        <ele>257.29</ele>
        <time>2013-09-28T06:48:10Z</time>
      </trkpt>
      <trkpt lat="47.28868" lon="6.17246">
        <ele>257.29</ele>
        <time>2013-09-28T06:48:14Z</time>
      </trkpt>
      <trkpt lat="47.28871" lon="6.1728">
        <ele>257.77</ele>
        <time>2013-09-28T06:48:18Z</time>
      </trkpt>
      <trkpt lat="47.28873" lon="6.17307">
        <ele>257.29</ele>
        <time>2013-09-28T06:48:21Z</time>
      </trkpt>
      <trkpt lat="47.28874" lon="6.17342">
        <ele>257.29</ele>
        <time>2013-09-28T06:48:25Z</time>
      </trkpt>
      <trkpt lat="47.28877" lon="6.17377">
        <ele>257.77</ele>
        <time>2013-09-28T06:48:29Z</time>
      </trkpt>
      <trkpt lat="47.28882" lon="6.17411">
        <ele>257.29</ele>
        <time>2013-09-28T06:48:33Z</time>
      </trkpt>
      <trkpt lat="47.28886" lon="6.17445">
        <ele>257.77</ele>
        <time>2013-09-28T06:48:37Z</time>
      </trkpt>
      <trkpt lat="47.2889" lon="6.17478">
        <ele>257.77</ele>
        <time>2013-09-28T06:48:41Z</time>
      </trkpt>
      <trkpt lat="47.28894" lon="6.17513">
        <ele>257.77</ele>
        <time>2013-09-28T06:48:45Z</time>
      </trkpt>
      <trkpt lat="47.28899" lon="6.17546">
        <ele>258.25</ele>
        <time>2013-09-28T06:48:49Z</time>
      </trkpt>
      <trkpt lat="47.28903" lon="6.1758">
        <ele>258.73</ele>
        <time>2013-09-28T06:48:53Z</time>
      </trkpt>
      <trkpt lat="47.28906" lon="6.17606">
        <ele>258.25</ele>
        <time>2013-09-28T06:48:56Z</time>
      </trkpt>
      <trkpt lat="47.28909" lon="6.17634">
        <ele>258.25</ele>
        <time>2013-09-28T06:48:59Z</time>
      </trkpt>
      <trkpt lat="47.28912" lon="6.17662">
        <ele>258.73</ele>
        <time>2013-09-28T06:49:02Z</time>
      </trkpt>
      <trkpt lat="47.28918" lon="6.17689">
        <ele>258.25</ele>
        <time>2013-09-28T06:49:05Z</time>
      </trkpt>
      <trkpt lat="47.28925" lon="6.17716">
        <ele>258.25</ele>
        <time>2013-09-28T06:49:08Z</time>
      </trkpt>
      <trkpt lat="47.28931" lon="6.17743">
        <ele>257.77</ele>
        <time>2013-09-28T06:49:11Z</time>
      </trkpt>
      <trkpt lat="47.28938" lon="6.1777">
        <ele>258.25</ele>
        <time>2013-09-28T06:49:14Z</time>
      </trkpt>
      <trkpt lat="47.28944" lon="6.17796">
        <ele>258.25</ele>
        <time>2013-09-28T06:49:17Z</time>
      </trkpt>
      <trkpt lat="47.28955" lon="6.17827">
        <ele>258.73</ele>
        <time>2013-09-28T06:49:21Z</time>
      </trkpt>
      <trkpt lat="47.28965" lon="6.17857">
        <ele>259.21</ele>
        <time>2013-09-28T06:49:25Z</time>
      </trkpt>
      <trkpt lat="47.28972" lon="6.17891">
        <ele>258.73</ele>
        <time>2013-09-28T06:49:29Z</time>
      </trkpt>
      <trkpt lat="47.28976" lon="6.17925">
        <ele>258.73</ele>
        <time>2013-09-28T06:49:33Z</time>
      </trkpt>
      <trkpt lat="47.28975" lon="6.1796">
        <ele>258.25</ele>
        <time>2013-09-28T06:49:37Z</time>
      </trkpt>
      <trkpt lat="47.28968" lon="6.17992">
        <ele>258.25</ele>
        <time>2013-09-28T06:49:41Z</time>
      </trkpt>
      <trkpt lat="47.28959" lon="6.18024">
        <ele>258.25</ele>
        <time>2013-09-28T06:49:45Z</time>
      </trkpt>
      <trkpt lat="47.28951" lon="6.18055">
        <ele>258.25</ele>
        <time>2013-09-28T06:49:49Z</time>
      </trkpt>
      <trkpt lat="47.28944" lon="6.1808">
        <ele>258.25</ele>
        <time>2013-09-28T06:49:52Z</time>
      </trkpt>
      <trkpt lat="47.28937" lon="6.18106">
        <ele>257.77</ele>
        <time>2013-09-28T06:49:55Z</time>
      </trkpt>
      <trkpt lat="47.2893" lon="6.18133">
        <ele>257.77</ele>
        <time>2013-09-28T06:49:58Z</time>
      </trkpt>
      <trkpt lat="47.28922" lon="6.18158">
        <ele>257.77</ele>
        <time>2013-09-28T06:50:01Z</time>
      </trkpt>
      <trkpt lat="47.28912" lon="6.18186">
        <ele>257.29</ele>
        <time>2013-09-28T06:50:05Z</time>
      </trkpt>
      <trkpt lat="47.28903" lon="6.18213">
        <ele>257.29</ele>
        <time>2013-09-28T06:50:09Z</time>
      </trkpt>
      <trkpt lat="47.28893" lon="6.18241">
        <ele>257.29</ele>
        <time>2013-09-28T06:50:13Z</time>
      </trkpt>
      <trkpt lat="47.28884" lon="6.18268">
        <ele>257.77</ele>
        <time>2013-09-28T06:50:17Z</time>
      </trkpt>
      <trkpt lat="47.28875" lon="6.18294">
        <ele>257.29</ele>
        <time>2013-09-28T06:50:21Z</time>
      </trkpt>
      <trkpt lat="47.28866" lon="6.18322">
        <ele>257.77</ele>
        <time>2013-09-28T06:50:25Z</time>
      </trkpt>
      <trkpt lat="47.28857" lon="6.18349">
        <ele>257.29</ele>
        <time>2013-09-28T06:50:29Z</time>
      </trkpt>
      <trkpt lat="47.28848" lon="6.18375">
        <ele>257.77</ele>
        <time>2013-09-28T06:50:33Z</time>
      </trkpt>
      <trkpt lat="47.2884" lon="6.184">
        <ele>257.77</ele>
        <time>2013-09-28T06:50:37Z</time>
      </trkpt>
      <trkpt lat="47.28831" lon="6.18424">
        <ele>257.77</ele>
        <time>2013-09-28T06:50:41Z</time>
      </trkpt>
      <trkpt lat="47.28823" lon="6.18449">
        <ele>257.77</ele>
        <time>2013-09-28T06:50:45Z</time>
      </trkpt>
      <trkpt lat="47.28815" lon="6.18478">
        <ele>257.77</ele>
        <time>2013-09-28T06:50:50Z</time>
      </trkpt>
      <trkpt lat="47.28805" lon="6.18506">
        <ele>257.77</ele>
        <time>2013-09-28T06:50:55Z</time>
      </trkpt>
      <trkpt lat="47.28797" lon="6.18531">
        <ele>258.25</ele>
        <time>2013-09-28T06:50:59Z</time>
      </trkpt>
      <trkpt lat="47.28787" lon="6.1856">
        <ele>258.73</ele>
        <time>2013-09-28T06:51:04Z</time>
      </trkpt>
      <trkpt lat="47.2878" lon="6.18586">
        <ele>258.25</ele>
        <time>2013-09-28T06:51:08Z</time>
      </trkpt>
      <trkpt lat="47.28772" lon="6.18612">
        <ele>257.77</ele>
        <time>2013-09-28T06:51:12Z</time>
      </trkpt>
      <trkpt lat="47.28765" lon="6.18641">
        <ele>258.25</ele>
        <time>2013-09-28T06:51:17Z</time>
      </trkpt>
      <trkpt lat="47.28756" lon="6.18672">
        <ele>258.25</ele>
        <time>2013-09-28T06:51:22Z</time>
      </trkpt>
      <trkpt lat="47.28749" lon="6.18699">
        <ele>258.25</ele>
        <time>2013-09-28T06:51:26Z</time>
      </trkpt>
      <trkpt lat="47.28742" lon="6.1873">
        <ele>258.25</ele>
        <time>2013-09-28T06:51:30Z</time>
      </trkpt>
      <trkpt lat="47.28735" lon="6.1876">
        <ele>257.77</ele>
        <time>2013-09-28T06:51:34Z</time>
      </trkpt>
      <trkpt lat="47.28729" lon="6.18789">
        <ele>258.25</ele>
        <time>2013-09-28T06:51:38Z</time>
      </trkpt>
      <trkpt lat="47.28726" lon="6.18818">
        <ele>257.29</ele>
        <time>2013-09-28T06:51:42Z</time>
      </trkpt>
      <trkpt lat="47.28723" lon="6.18848">
        <ele>257.77</ele>
        <time>2013-09-28T06:51:46Z</time>
      </trkpt>
      <trkpt lat="47.28721" lon="6.18879">
        <ele>257.29</ele>
        <time>2013-09-28T06:51:50Z</time>
      </trkpt>
      <trkpt lat="47.2872" lon="6.18907">
        <ele>257.29</ele>
        <time>2013-09-28T06:51:54Z</time>
      </trkpt>
      <trkpt lat="47.2872" lon="6.1894">
        <ele>257.29</ele>
        <time>2013-09-28T06:51:59Z</time>
      </trkpt>
      <trkpt lat="47.28723" lon="6.18967">
        <ele>256.81</ele>
        <time>2013-09-28T06:52:03Z</time>
      </trkpt>
      <trkpt lat="47.28726" lon="6.18994">
        <ele>256.81</ele>
        <time>2013-09-28T06:52:07Z</time>
      </trkpt>
      <trkpt lat="47.28727" lon="6.19025">
        <ele>256.81</ele>
        <time>2013-09-28T06:52:12Z</time>
      </trkpt>
      <trkpt lat="47.2873" lon="6.19057">
        <ele>256.33</ele>
        <time>2013-09-28T06:52:17Z</time>
      </trkpt>
      <trkpt lat="47.28732" lon="6.19084">
        <ele>257.29</ele>
        <time>2013-09-28T06:52:21Z</time>
      </trkpt>
      <trkpt lat="47.28731" lon="6.19116">
        <ele>256.81</ele>
        <time>2013-09-28T06:52:26Z</time>
      </trkpt>
      <trkpt lat="47.28733" lon="6.19147">
        <ele>257.77</ele>
        <time>2013-09-28T06:52:31Z</time>
      </trkpt>
      <trkpt lat="47.28737" lon="6.19175">
        <ele>257.77</ele>
        <time>2013-09-28T06:52:36Z</time>
      </trkpt>
      <trkpt lat="47.28734" lon="6.19208">
        <ele>258.25</ele>
        <time>2013-09-28T06:52:47Z</time>
      </trkpt>
      <trkpt lat="47.28736" lon="6.19246">
        <ele>257.77</ele>
        <time>2013-09-28T06:52:59Z</time>
      </trkpt>
      <trkpt lat="47.28737" lon="6.19284">
        <ele>257.77</ele>
        <time>2013-09-28T06:53:08Z</time>
      </trkpt>
      <trkpt lat="47.28737" lon="6.19318">
        <ele>257.77</ele>
        <time>2013-09-28T06:53:15Z</time>
      </trkpt>
      <trkpt lat="47.28741" lon="6.19354">
        <ele>258.25</ele>
        <time>2013-09-28T06:53:22Z</time>
      </trkpt>
      <trkpt lat="47.28742" lon="6.19392">
        <ele>258.73</ele>
        <time>2013-09-28T06:53:50Z</time>
      </trkpt>
      <trkpt lat="47.28737" lon="6.19439">
        <ele>258.73</ele>
        <time>2013-09-28T06:54:01Z</time>
      </trkpt>
      <trkpt lat="47.28738" lon="6.19477">
        <ele>258.73</ele>
        <time>2013-09-28T06:54:07Z</time>
      </trkpt>
      <trkpt lat="47.28739" lon="6.1951">
        <ele>258.25</ele>
        <time>2013-09-28T06:54:12Z</time>
      </trkpt>
      <trkpt lat="47.28743" lon="6.19544">
        <ele>257.77</ele>
        <time>2013-09-28T06:54:17Z</time>
      </trkpt>
      <trkpt lat="47.2875" lon="6.19574">
        <ele>257.29</ele>
        <time>2013-09-28T06:54:21Z</time>
      </trkpt>
      <trkpt lat="47.28763" lon="6.19606">
        <ele>257.29</ele>
        <time>2013-09-28T06:54:26Z</time>
      </trkpt>
      <trkpt lat="47.28769" lon="6.19637">
        <ele>257.77</ele>
        <time>2013-09-28T06:54:31Z</time>
      </trkpt>
      <trkpt lat="47.28779" lon="6.19664">
        <ele>257.77</ele>
        <time>2013-09-28T06:54:37Z</time>
      </trkpt>
      <trkpt lat="47.2879" lon="6.19693">
        <ele>257.77</ele>
        <time>2013-09-28T06:54:42Z</time>
      </trkpt>
      <trkpt lat="47.28797" lon="6.19721">
        <ele>257.77</ele>
        <time>2013-09-28T06:54:46Z</time>
      </trkpt>
      <trkpt lat="47.28799" lon="6.19754">
        <ele>258.25</ele>
        <time>2013-09-28T06:54:51Z</time>
      </trkpt>
      <trkpt lat="47.28803" lon="6.19783">
        <ele>258.25</ele>
        <time>2013-09-28T06:54:56Z</time>
      </trkpt>
      <trkpt lat="47.28811" lon="6.19812">
        <ele>258.73</ele>
        <time>2013-09-28T06:55:01Z</time>
      </trkpt>
      <trkpt lat="47.28807" lon="6.19847">
        <ele>259.21</ele>
        <time>2013-09-28T06:55:07Z</time>
      </trkpt>
      <trkpt lat="47.28809" lon="6.19879">
        <ele>258.73</ele>
        <time>2013-09-28T06:55:12Z</time>
      </trkpt>
      <trkpt lat="47.2882" lon="6.19916">
        <ele>259.69</ele>
        <time>2013-09-28T06:55:17Z</time>
      </trkpt>
      <trkpt lat="47.28826" lon="6.19946">
        <ele>259.21</ele>
        <time>2013-09-28T06:55:21Z</time>
      </trkpt>
      <trkpt lat="47.28832" lon="6.19978">
        <ele>258.73</ele>
        <time>2013-09-28T06:55:25Z</time>
      </trkpt>
      <trkpt lat="47.28839" lon="6.20008">
        <ele>259.21</ele>
        <time>2013-09-28T06:55:29Z</time>
      </trkpt>
      <trkpt lat="47.28845" lon="6.20036">
        <ele>259.21</ele>
        <time>2013-09-28T06:55:33Z</time>
      </trkpt>
      <trkpt lat="47.28851" lon="6.20066">
        <ele>259.21</ele>
        <time>2013-09-28T06:55:37Z</time>
      </trkpt>
      <trkpt lat="47.28857" lon="6.20093">
        <ele>259.69</ele>
        <time>2013-09-28T06:55:41Z</time>
      </trkpt>
      <trkpt lat="47.28866" lon="6.20126">
        <ele>260.17</ele>
        <time>2013-09-28T06:55:46Z</time>
      </trkpt>
      <trkpt lat="47.28878" lon="6.2015">
        <ele>259.69</ele>
        <time>2013-09-28T06:55:50Z</time>
      </trkpt>
      <trkpt lat="47.2889" lon="6.20177">
        <ele>260.17</ele>
        <time>2013-09-28T06:55:54Z</time>
      </trkpt>
      <trkpt lat="47.28906" lon="6.20205">
        <ele>260.17</ele>
        <time>2013-09-28T06:55:59Z</time>
      </trkpt>
      <trkpt lat="47.28922" lon="6.20226">
        <ele>260.17</ele>
        <time>2013-09-28T06:56:03Z</time>
      </trkpt>
      <trkpt lat="47.28941" lon="6.20253">
        <ele>260.65</ele>
        <time>2013-09-28T06:56:08Z</time>
      </trkpt>
      <trkpt lat="47.2896" lon="6.20279">
        <ele>261.62</ele>
        <time>2013-09-28T06:56:14Z</time>
      </trkpt>
      <trkpt lat="47.28981" lon="6.20304">
        <ele>260.65</ele>
        <time>2013-09-28T06:56:20Z</time>
      </trkpt>
      <trkpt lat="47.28993" lon="6.20328">
        <ele>260.17</ele>
        <time>2013-09-28T06:56:24Z</time>
      </trkpt>
      <trkpt lat="47.29004" lon="6.20357">
        <ele>260.17</ele>
        <time>2013-09-28T06:56:29Z</time>
      </trkpt>
      <trkpt lat="47.29017" lon="6.20389">
        <ele>260.65</ele>
        <time>2013-09-28T06:56:35Z</time>
      </trkpt>
      <trkpt lat="47.29038" lon="6.20419">
        <ele>261.14</ele>
        <time>2013-09-28T06:56:41Z</time>
      </trkpt>
      <trkpt lat="47.29057" lon="6.2044">
        <ele>261.14</ele>
        <time>2013-09-28T06:56:45Z</time>
      </trkpt>
      <trkpt lat="47.2908" lon="6.20462">
        <ele>261.62</ele>
        <time>2013-09-28T06:56:50Z</time>
      </trkpt>
      <trkpt lat="47.29099" lon="6.20485">
        <ele>262.1</ele>
        <time>2013-09-28T06:56:55Z</time>
      </trkpt>
      <trkpt lat="47.29119" lon="6.20507">
        <ele>262.58</ele>
        <time>2013-09-28T06:57:01Z</time>
      </trkpt>
      <trkpt lat="47.2914" lon="6.20527">
        <ele>262.58</ele>
        <time>2013-09-28T06:57:08Z</time>
      </trkpt>
      <trkpt lat="47.29158" lon="6.20547">
        <ele>263.06</ele>
        <time>2013-09-28T06:58:09Z</time>
      </trkpt>
      <trkpt lat="47.29183" lon="6.20563">
        <ele>263.54</ele>
        <time>2013-09-28T06:58:19Z</time>
      </trkpt>
      <trkpt lat="47.29216" lon="6.20574">
        <ele>263.06</ele>
        <time>2013-09-28T07:00:18Z</time>
      </trkpt>
      <trkpt lat="47.29231" lon="6.20593">
        <ele>263.06</ele>
        <time>2013-09-28T07:00:23Z</time>
      </trkpt>
      <trkpt lat="47.29253" lon="6.20608">
        <ele>262.1</ele>
        <time>2013-09-28T07:00:28Z</time>
      </trkpt>
      <trkpt lat="47.29271" lon="6.20618">
        <ele>262.58</ele>
        <time>2013-09-28T07:00:32Z</time>
      </trkpt>
      <trkpt lat="47.29293" lon="6.20629">
        <ele>262.58</ele>
        <time>2013-09-28T07:00:37Z</time>
      </trkpt>
      <trkpt lat="47.29313" lon="6.20636">
        <ele>262.1</ele>
        <time>2013-09-28T07:00:41Z</time>
      </trkpt>
      <trkpt lat="47.29343" lon="6.20645">
        <ele>262.1</ele>
        <time>2013-09-28T07:00:45Z</time>
      </trkpt>
      <trkpt lat="47.29367" lon="6.20649">
        <ele>261.62</ele>
        <time>2013-09-28T07:00:49Z</time>
      </trkpt>
      <trkpt lat="47.2939" lon="6.20654">
        <ele>262.1</ele>
        <time>2013-09-28T07:00:53Z</time>
      </trkpt>
      <trkpt lat="47.29411" lon="6.20658">
        <ele>262.1</ele>
        <time>2013-09-28T07:00:57Z</time>
      </trkpt>
      <trkpt lat="47.2943" lon="6.20664">
        <ele>262.1</ele>
        <time>2013-09-28T07:01:01Z</time>
      </trkpt>
      <trkpt lat="47.29453" lon="6.20669">
        <ele>262.1</ele>
        <time>2013-09-28T07:01:05Z</time>
      </trkpt>
      <trkpt lat="47.29474" lon="6.20674">
        <ele>262.58</ele>
        <time>2013-09-28T07:01:09Z</time>
      </trkpt>
      <trkpt lat="47.29497" lon="6.20676">
        <ele>262.58</ele>
        <time>2013-09-28T07:01:14Z</time>
      </trkpt>
      <trkpt lat="47.29517" lon="6.20669">
        <ele>262.58</ele>
        <time>2013-09-28T07:01:18Z</time>
      </trkpt>
      <trkpt lat="47.29541" lon="6.20665">
        <ele>263.06</ele>
        <time>2013-09-28T07:01:22Z</time>
      </trkpt>
      <trkpt lat="47.29562" lon="6.20659">
        <ele>263.06</ele>
        <time>2013-09-28T07:01:26Z</time>
      </trkpt>
      <trkpt lat="47.29582" lon="6.20656">
        <ele>263.54</ele>
        <time>2013-09-28T07:01:30Z</time>
      </trkpt>
      <trkpt lat="47.29604" lon="6.20657">
        <ele>263.54</ele>
        <time>2013-09-28T07:01:34Z</time>
      </trkpt>
      <trkpt lat="47.29625" lon="6.20662">
        <ele>263.06</ele>
        <time>2013-09-28T07:01:38Z</time>
      </trkpt>
      <trkpt lat="47.29649" lon="6.20664">
        <ele>263.06</ele>
        <time>2013-09-28T07:01:42Z</time>
      </trkpt>
      <trkpt lat="47.29672" lon="6.20665">
        <ele>263.06</ele>
        <time>2013-09-28T07:01:46Z</time>
      </trkpt>
      <trkpt lat="47.29694" lon="6.20666">
        <ele>263.06</ele>
        <time>2013-09-28T07:01:50Z</time>
      </trkpt>
      <trkpt lat="47.29715" lon="6.20668">
        <ele>263.06</ele>
        <time>2013-09-28T07:01:54Z</time>
      </trkpt>
      <trkpt lat="47.29734" lon="6.20674">
        <ele>263.06</ele>
        <time>2013-09-28T07:01:58Z</time>
      </trkpt>
      <trkpt lat="47.29758" lon="6.20683">
        <ele>263.06</ele>
        <time>2013-09-28T07:02:03Z</time>
      </trkpt>
      <trkpt lat="47.29777" lon="6.20691">
        <ele>262.58</ele>
        <time>2013-09-28T07:02:07Z</time>
      </trkpt>
      <trkpt lat="47.29797" lon="6.20698">
        <ele>263.06</ele>
        <time>2013-09-28T07:02:11Z</time>
      </trkpt>
      <trkpt lat="47.29818" lon="6.20708">
        <ele>263.54</ele>
        <time>2013-09-28T07:02:16Z</time>
      </trkpt>
      <trkpt lat="47.29834" lon="6.20732">
        <ele>264.98</ele>
        <time>2013-09-28T07:02:22Z</time>
      </trkpt>
      <trkpt lat="47.29853" lon="6.20754">
        <ele>266.42</ele>
        <time>2013-09-28T07:02:30Z</time>
      </trkpt>
      <trkpt lat="47.29872" lon="6.20767">
        <ele>267.38</ele>
        <time>2013-09-28T07:02:36Z</time>
      </trkpt>
      <trkpt lat="47.299" lon="6.20773">
        <ele>267.86</ele>
        <time>2013-09-28T07:02:43Z</time>
      </trkpt>
      <trkpt lat="47.29922" lon="6.20779">
        <ele>267.38</ele>
        <time>2013-09-28T07:02:50Z</time>
      </trkpt>
      <trkpt lat="47.2995" lon="6.20787">
        <ele>268.35</ele>
        <time>2013-09-28T07:02:55Z</time>
      </trkpt>
      <trkpt lat="47.29973" lon="6.20801">
        <ele>269.79</ele>
        <time>2013-09-28T07:03:02Z</time>
      </trkpt>
      <trkpt lat="47.29994" lon="6.20824">
        <ele>270.27</ele>
        <time>2013-09-28T07:03:10Z</time>
      </trkpt>
      <trkpt lat="47.3002" lon="6.20848">
        <ele>271.23</ele>
        <time>2013-09-28T07:03:16Z</time>
      </trkpt>
      <trkpt lat="47.30033" lon="6.20875">
        <ele>271.71</ele>
        <time>2013-09-28T07:03:22Z</time>
      </trkpt>
      <trkpt lat="47.3005" lon="6.20897">
        <ele>271.23</ele>
        <time>2013-09-28T07:03:27Z</time>
      </trkpt>
      <trkpt lat="47.30069" lon="6.20917">
        <ele>271.23</ele>
        <time>2013-09-28T07:03:31Z</time>
      </trkpt>
      <trkpt lat="47.30085" lon="6.20939">
        <ele>271.23</ele>
        <time>2013-09-28T07:03:36Z</time>
      </trkpt>
      <trkpt lat="47.30101" lon="6.20961">
        <ele>270.75</ele>
        <time>2013-09-28T07:03:41Z</time>
      </trkpt>
      <trkpt lat="47.30113" lon="6.2099">
        <ele>271.71</ele>
        <time>2013-09-28T07:03:46Z</time>
      </trkpt>
      <trkpt lat="47.3012" lon="6.21017">
        <ele>272.67</ele>
        <time>2013-09-28T07:03:51Z</time>
      </trkpt>
      <trkpt lat="47.30127" lon="6.21048">
        <ele>273.15</ele>
        <time>2013-09-28T07:03:57Z</time>
      </trkpt>
      <trkpt lat="47.30134" lon="6.21078">
        <ele>272.67</ele>
        <time>2013-09-28T07:04:02Z</time>
      </trkpt>
      <trkpt lat="47.30138" lon="6.21111">
        <ele>272.19</ele>
        <time>2013-09-28T07:04:07Z</time>
      </trkpt>
      <trkpt lat="47.30144" lon="6.2114">
        <ele>271.71</ele>
        <time>2013-09-28T07:04:11Z</time>
      </trkpt>
      <trkpt lat="47.30146" lon="6.21173">
        <ele>271.71</ele>
        <time>2013-09-28T07:04:16Z</time>
      </trkpt>
      <trkpt lat="47.30143" lon="6.21199">
        <ele>271.23</ele>
        <time>2013-09-28T07:04:23Z</time>
      </trkpt>
      <trkpt lat="47.30141" lon="6.21225">
        <ele>271.23</ele>
        <time>2013-09-28T07:04:32Z</time>
      </trkpt>
      <trkpt lat="47.30137" lon="6.21255">
        <ele>270.75</ele>
        <time>2013-09-28T07:04:39Z</time>
      </trkpt>
      <trkpt lat="47.30134" lon="6.21284">
        <ele>270.27</ele>
        <time>2013-09-28T07:04:44Z</time>
      </trkpt>
      <trkpt lat="47.30133" lon="6.21314">
        <ele>269.31</ele>
        <time>2013-09-28T07:04:48Z</time>
      </trkpt>
      <trkpt lat="47.30134" lon="6.21344">
        <ele>269.31</ele>
        <time>2013-09-28T07:04:52Z</time>
      </trkpt>
      <trkpt lat="47.30133" lon="6.21371">
        <ele>268.83</ele>
        <time>2013-09-28T07:04:56Z</time>
      </trkpt>
      <trkpt lat="47.30129" lon="6.21402">
        <ele>268.83</ele>
        <time>2013-09-28T07:05:01Z</time>
      </trkpt>
      <trkpt lat="47.3012" lon="6.21434">
        <ele>268.83</ele>
        <time>2013-09-28T07:05:06Z</time>
      </trkpt>
      <trkpt lat="47.30116" lon="6.21464">
        <ele>266.9</ele>
        <time>2013-09-28T07:05:10Z</time>
      </trkpt>
      <trkpt lat="47.30111" lon="6.21498">
        <ele>264.98</ele>
        <time>2013-09-28T07:05:14Z</time>
      </trkpt>
      <trkpt lat="47.30103" lon="6.21529">
        <ele>264.5</ele>
        <time>2013-09-28T07:05:18Z</time>
      </trkpt>
      <trkpt lat="47.30092" lon="6.21554">
        <ele>264.5</ele>
        <time>2013-09-28T07:05:23Z</time>
      </trkpt>
      <trkpt lat="47.30078" lon="6.21572">
        <ele>264.5</ele>
        <time>2013-09-28T07:05:28Z</time>
      </trkpt>
      <trkpt lat="47.30068" lon="6.21604">
        <ele>264.5</ele>
        <time>2013-09-28T07:05:34Z</time>
      </trkpt>
      <trkpt lat="47.30056" lon="6.21634">
        <ele>264.98</ele>
        <time>2013-09-28T07:05:40Z</time>
      </trkpt>
      <trkpt lat="47.30045" lon="6.21667">
        <ele>265.46</ele>
        <time>2013-09-28T07:05:46Z</time>
      </trkpt>
      <trkpt lat="47.30027" lon="6.21698">
        <ele>266.42</ele>
        <time>2013-09-28T07:05:54Z</time>
      </trkpt>
      <trkpt lat="47.30012" lon="6.21733">
        <ele>266.42</ele>
        <time>2013-09-28T07:06:02Z</time>
      </trkpt>
      <trkpt lat="47.29999" lon="6.21767">
        <ele>265.46</ele>
        <time>2013-09-28T07:06:07Z</time>
      </trkpt>
      <trkpt lat="47.29987" lon="6.21801">
        <ele>264.02</ele>
        <time>2013-09-28T07:06:11Z</time>
      </trkpt>
      <trkpt lat="47.29979" lon="6.21833">
        <ele>263.06</ele>
        <time>2013-09-28T07:06:15Z</time>
      </trkpt>
      <trkpt lat="47.2997" lon="6.21862">
        <ele>263.06</ele>
        <time>2013-09-28T07:06:18Z</time>
      </trkpt>
      <trkpt lat="47.29956" lon="6.21894">
        <ele>263.06</ele>
        <time>2013-09-28T07:06:22Z</time>
      </trkpt>
      <trkpt lat="47.29938" lon="6.2192">
        <ele>265.46</ele>
        <time>2013-09-28T07:06:27Z</time>
      </trkpt>
      <trkpt lat="47.29919" lon="6.21945">
        <ele>264.02</ele>
        <time>2013-09-28T07:06:32Z</time>
      </trkpt>
      <trkpt lat="47.29907" lon="6.21974">
        <ele>262.1</ele>
        <time>2013-09-28T07:06:36Z</time>
      </trkpt>
      <trkpt lat="47.29886" lon="6.22003">
        <ele>261.62</ele>
        <time>2013-09-28T07:06:39Z</time>
      </trkpt>
      <trkpt lat="47.29868" lon="6.22028">
        <ele>261.62</ele>
        <time>2013-09-28T07:06:42Z</time>
      </trkpt>
      <trkpt lat="47.29849" lon="6.22052">
        <ele>261.14</ele>
        <time>2013-09-28T07:06:45Z</time>
      </trkpt>
      <trkpt lat="47.29816" lon="6.22084">
        <ele>261.62</ele>
        <time>2013-09-28T07:06:49Z</time>
      </trkpt>
      <trkpt lat="47.298" lon="6.22113">
        <ele>261.62</ele>
        <time>2013-09-28T07:06:52Z</time>
      </trkpt>
      <trkpt lat="47.2979" lon="6.22143">
        <ele>261.62</ele>
        <time>2013-09-28T07:06:55Z</time>
      </trkpt>
      <trkpt lat="47.29781" lon="6.2217">
        <ele>261.62</ele>
        <time>2013-09-28T07:06:58Z</time>
      </trkpt>
      <trkpt lat="47.29773" lon="6.22203">
        <ele>261.14</ele>
        <time>2013-09-28T07:07:02Z</time>
      </trkpt>
      <trkpt lat="47.29766" lon="6.22236">
        <ele>261.14</ele>
        <time>2013-09-28T07:07:06Z</time>
      </trkpt>
      <trkpt lat="47.2976" lon="6.22268">
        <ele>261.14</ele>
        <time>2013-09-28T07:07:10Z</time>
      </trkpt>
      <trkpt lat="47.29756" lon="6.22301">
        <ele>261.14</ele>
        <time>2013-09-28T07:07:14Z</time>
      </trkpt>
      <trkpt lat="47.29749" lon="6.22333">
        <ele>261.14</ele>
        <time>2013-09-28T07:07:18Z</time>
      </trkpt>
      <trkpt lat="47.2974" lon="6.22363">
        <ele>261.62</ele>
        <time>2013-09-28T07:07:22Z</time>
      </trkpt>
      <trkpt lat="47.29732" lon="6.22394">
        <ele>261.62</ele>
        <time>2013-09-28T07:07:26Z</time>
      </trkpt>
      <trkpt lat="47.29724" lon="6.22424">
        <ele>261.62</ele>
        <time>2013-09-28T07:07:30Z</time>
      </trkpt>
      <trkpt lat="47.29715" lon="6.22454">
        <ele>262.1</ele>
        <time>2013-09-28T07:07:34Z</time>
      </trkpt>
      <trkpt lat="47.29704" lon="6.22483">
        <ele>261.62</ele>
        <time>2013-09-28T07:07:38Z</time>
      </trkpt>
      <trkpt lat="47.29691" lon="6.2251">
        <ele>261.14</ele>
        <time>2013-09-28T07:07:42Z</time>
      </trkpt>
      <trkpt lat="47.29678" lon="6.22538">
        <ele>261.14</ele>
        <time>2013-09-28T07:07:46Z</time>
      </trkpt>
      <trkpt lat="47.29666" lon="6.22567">
        <ele>261.62</ele>
        <time>2013-09-28T07:07:50Z</time>
      </trkpt>
      <trkpt lat="47.29656" lon="6.22596">
        <ele>261.14</ele>
        <time>2013-09-28T07:07:54Z</time>
      </trkpt>
      <trkpt lat="47.29645" lon="6.22624">
        <ele>261.62</ele>
        <time>2013-09-28T07:07:58Z</time>
      </trkpt>
      <trkpt lat="47.29634" lon="6.22652">
        <ele>262.1</ele>
        <time>2013-09-28T07:08:02Z</time>
      </trkpt>
      <trkpt lat="47.29625" lon="6.22678">
        <ele>262.1</ele>
        <time>2013-09-28T07:08:06Z</time>
      </trkpt>
      <trkpt lat="47.29612" lon="6.22698">
        <ele>263.06</ele>
        <time>2013-09-28T07:08:10Z</time>
      </trkpt>
      <trkpt lat="47.29599" lon="6.2272">
        <ele>264.5</ele>
        <time>2013-09-28T07:08:15Z</time>
      </trkpt>
      <trkpt lat="47.29585" lon="6.22743">
        <ele>266.42</ele>
        <time>2013-09-28T07:08:22Z</time>
      </trkpt>
      <trkpt lat="47.29572" lon="6.22765">
        <ele>267.86</ele>
        <time>2013-09-28T07:08:28Z</time>
      </trkpt>
      <trkpt lat="47.29559" lon="6.22795">
        <ele>268.83</ele>
        <time>2013-09-28T07:08:35Z</time>
      </trkpt>
      <trkpt lat="47.29547" lon="6.22825">
        <ele>268.83</ele>
        <time>2013-09-28T07:08:41Z</time>
      </trkpt>
      <trkpt lat="47.29536" lon="6.22852">
        <ele>268.83</ele>
        <time>2013-09-28T07:08:46Z</time>
      </trkpt>
      <trkpt lat="47.29526" lon="6.22877">
        <ele>268.35</ele>
        <time>2013-09-28T07:08:50Z</time>
      </trkpt>
      <trkpt lat="47.29513" lon="6.22903">
        <ele>268.35</ele>
        <time>2013-09-28T07:08:54Z</time>
      </trkpt>
      <trkpt lat="47.29502" lon="6.22929">
        <ele>268.83</ele>
        <time>2013-09-28T07:08:58Z</time>
      </trkpt>
      <trkpt lat="47.29492" lon="6.22954">
        <ele>268.35</ele>
        <time>2013-09-28T07:09:02Z</time>
      </trkpt>
      <trkpt lat="47.29482" lon="6.22977">
        <ele>268.35</ele>
        <time>2013-09-28T07:09:06Z</time>
      </trkpt>
      <trkpt lat="47.29473" lon="6.23002">
        <ele>268.35</ele>
        <time>2013-09-28T07:09:10Z</time>
      </trkpt>
      <trkpt lat="47.29472" lon="6.23031">
        <ele>268.35</ele>
        <time>2013-09-28T07:09:14Z</time>
      </trkpt>
      <trkpt lat="47.29477" lon="6.23064">
        <ele>266.42</ele>
        <time>2013-09-28T07:09:18Z</time>
      </trkpt>
      <trkpt lat="47.29482" lon="6.23091">
        <ele>265.46</ele>
        <time>2013-09-28T07:09:21Z</time>
      </trkpt>
      <trkpt lat="47.29488" lon="6.23119">
        <ele>264.98</ele>
        <time>2013-09-28T07:09:24Z</time>
      </trkpt>
      <trkpt lat="47.29494" lon="6.23145">
        <ele>264.98</ele>
        <time>2013-09-28T07:09:27Z</time>
      </trkpt>
      <trkpt lat="47.29496" lon="6.23178">
        <ele>265.46</ele>
        <time>2013-09-28T07:09:31Z</time>
      </trkpt>
      <trkpt lat="47.295" lon="6.23209">
        <ele>264.98</ele>
        <time>2013-09-28T07:09:35Z</time>
      </trkpt>
      <trkpt lat="47.29506" lon="6.23239">
        <ele>264.98</ele>
        <time>2013-09-28T07:09:39Z</time>
      </trkpt>
      <trkpt lat="47.2951" lon="6.23268">
        <ele>264.98</ele>
        <time>2013-09-28T07:09:43Z</time>
      </trkpt>
      <trkpt lat="47.29516" lon="6.23296">
        <ele>264.98</ele>
        <time>2013-09-28T07:09:47Z</time>
      </trkpt>
      <trkpt lat="47.29519" lon="6.23324">
        <ele>264.5</ele>
        <time>2013-09-28T07:09:51Z</time>
      </trkpt>
      <trkpt lat="47.29525" lon="6.23351">
        <ele>264.98</ele>
        <time>2013-09-28T07:09:55Z</time>
      </trkpt>
      <trkpt lat="47.29542" lon="6.23376">
        <ele>265.94</ele>
        <time>2013-09-28T07:09:59Z</time>
      </trkpt>
      <trkpt lat="47.29558" lon="6.23395">
        <ele>266.42</ele>
        <time>2013-09-28T07:10:03Z</time>
      </trkpt>
      <trkpt lat="47.29573" lon="6.23417">
        <ele>266.9</ele>
        <time>2013-09-28T07:10:07Z</time>
      </trkpt>
      <trkpt lat="47.29589" lon="6.23451">
        <ele>266.42</ele>
        <time>2013-09-28T07:10:11Z</time>
      </trkpt>
      <trkpt lat="47.29601" lon="6.23477">
        <ele>266.42</ele>
        <time>2013-09-28T07:10:15Z</time>
      </trkpt>
      <trkpt lat="47.29614" lon="6.23497">
        <ele>266.9</ele>
        <time>2013-09-28T07:10:19Z</time>
      </trkpt>
      <trkpt lat="47.29631" lon="6.23518">
        <ele>265.94</ele>
        <time>2013-09-28T07:10:23Z</time>
      </trkpt>
      <trkpt lat="47.29648" lon="6.23539">
        <ele>265.94</ele>
        <time>2013-09-28T07:10:27Z</time>
      </trkpt>
      <trkpt lat="47.29663" lon="6.23561">
        <ele>265.94</ele>
        <time>2013-09-28T07:10:31Z</time>
      </trkpt>
      <trkpt lat="47.29678" lon="6.23584">
        <ele>265.46</ele>
        <time>2013-09-28T07:10:35Z</time>
      </trkpt>
      <trkpt lat="47.29696" lon="6.23607">
        <ele>265.94</ele>
        <time>2013-09-28T07:10:40Z</time>
      </trkpt>
      <trkpt lat="47.29711" lon="6.23628">
        <ele>265.46</ele>
        <time>2013-09-28T07:10:44Z</time>
      </trkpt>
      <trkpt lat="47.2973" lon="6.23649">
        <ele>266.9</ele>
        <time>2013-09-28T07:10:49Z</time>
      </trkpt>
      <trkpt lat="47.29748" lon="6.23669">
        <ele>268.83</ele>
        <time>2013-09-28T07:10:55Z</time>
      </trkpt>
      <trkpt lat="47.29765" lon="6.23691">
        <ele>269.79</ele>
        <time>2013-09-28T07:11:01Z</time>
      </trkpt>
      <trkpt lat="47.29781" lon="6.23712">
        <ele>270.27</ele>
        <time>2013-09-28T07:11:07Z</time>
      </trkpt>
      <trkpt lat="47.29803" lon="6.23729">
        <ele>271.71</ele>
        <time>2013-09-28T07:11:13Z</time>
      </trkpt>
      <trkpt lat="47.29823" lon="6.23734">
        <ele>273.15</ele>
        <time>2013-09-28T07:11:20Z</time>
      </trkpt>
      <trkpt lat="47.29821" lon="6.23735">
        <ele>273.15</ele>
        <time>2013-09-28T07:11:44Z</time>
      </trkpt>
      <trkpt lat="47.29834" lon="6.23755">
        <ele>274.11</ele>
        <time>2013-09-28T07:11:54Z</time>
      </trkpt>
      <trkpt lat="47.29853" lon="6.23766">
        <ele>275.07</ele>
        <time>2013-09-28T07:12:03Z</time>
      </trkpt>
      <trkpt lat="47.29871" lon="6.23774">
        <ele>276.52</ele>
        <time>2013-09-28T07:12:11Z</time>
      </trkpt>
      <trkpt lat="47.29889" lon="6.2378">
        <ele>277</ele>
        <time>2013-09-28T07:12:20Z</time>
      </trkpt>
      <trkpt lat="47.29908" lon="6.23791">
        <ele>278.44</ele>
        <time>2013-09-28T07:12:28Z</time>
      </trkpt>
      <trkpt lat="47.29926" lon="6.23799">
        <ele>279.88</ele>
        <time>2013-09-28T07:12:36Z</time>
      </trkpt>
      <trkpt lat="47.29945" lon="6.23804">
        <ele>280.36</ele>
        <time>2013-09-28T07:12:44Z</time>
      </trkpt>
      <trkpt lat="47.29966" lon="6.23807">
        <ele>281.32</ele>
        <time>2013-09-28T07:12:52Z</time>
      </trkpt>
      <trkpt lat="47.29987" lon="6.23807">
        <ele>283.25</ele>
        <time>2013-09-28T07:13:01Z</time>
      </trkpt>
      <trkpt lat="47.30012" lon="6.23811">
        <ele>283.73</ele>
        <time>2013-09-28T07:13:08Z</time>
      </trkpt>
      <trkpt lat="47.30033" lon="6.23826">
        <ele>285.17</ele>
        <time>2013-09-28T07:13:15Z</time>
      </trkpt>
      <trkpt lat="47.30048" lon="6.23849">
        <ele>286.61</ele>
        <time>2013-09-28T07:13:23Z</time>
      </trkpt>
      <trkpt lat="47.30064" lon="6.23872">
        <ele>288.05</ele>
        <time>2013-09-28T07:13:31Z</time>
      </trkpt>
      <trkpt lat="47.30087" lon="6.2388">
        <ele>289.49</ele>
        <time>2013-09-28T07:13:40Z</time>
      </trkpt>
      <trkpt lat="47.30106" lon="6.23852">
        <ele>290.46</ele>
        <time>2013-09-28T07:13:49Z</time>
      </trkpt>
      <trkpt lat="47.30124" lon="6.23827">
        <ele>291.42</ele>
        <time>2013-09-28T07:13:56Z</time>
      </trkpt>
      <trkpt lat="47.30143" lon="6.23818">
        <ele>292.86</ele>
        <time>2013-09-28T07:14:02Z</time>
      </trkpt>
      <trkpt lat="47.30163" lon="6.23815">
        <ele>293.82</ele>
        <time>2013-09-28T07:14:09Z</time>
      </trkpt>
      <trkpt lat="47.3018" lon="6.23807">
        <ele>295.26</ele>
        <time>2013-09-28T07:14:18Z</time>
      </trkpt>
      <trkpt lat="47.302" lon="6.23804">
        <ele>296.7</ele>
        <time>2013-09-28T07:15:57Z</time>
      </trkpt>
      <trkpt lat="47.30222" lon="6.238">
        <ele>298.15</ele>
        <time>2013-09-28T07:16:05Z</time>
      </trkpt>
      <trkpt lat="47.30243" lon="6.23802">
        <ele>300.07</ele>
        <time>2013-09-28T07:16:13Z</time>
      </trkpt>
      <trkpt lat="47.30265" lon="6.238">
        <ele>301.03</ele>
        <time>2013-09-28T07:16:20Z</time>
      </trkpt>
      <trkpt lat="47.30286" lon="6.23802">
        <ele>301.99</ele>
        <time>2013-09-28T07:16:26Z</time>
      </trkpt>
      <trkpt lat="47.30306" lon="6.23812">
        <ele>302.95</ele>
        <time>2013-09-28T07:16:32Z</time>
      </trkpt>
      <trkpt lat="47.30323" lon="6.23826">
        <ele>303.91</ele>
        <time>2013-09-28T07:16:38Z</time>
      </trkpt>
      <trkpt lat="47.3034" lon="6.2384">
        <ele>305.36</ele>
        <time>2013-09-28T07:16:44Z</time>
      </trkpt>
      <trkpt lat="47.30359" lon="6.23853">
        <ele>306.8</ele>
        <time>2013-09-28T07:16:50Z</time>
      </trkpt>
      <trkpt lat="47.30376" lon="6.23868">
        <ele>307.76</ele>
        <time>2013-09-28T07:16:56Z</time>
      </trkpt>
      <trkpt lat="47.30391" lon="6.23885">
        <ele>308.72</ele>
        <time>2013-09-28T07:17:02Z</time>
      </trkpt>
      <trkpt lat="47.30406" lon="6.23908">
        <ele>309.68</ele>
        <time>2013-09-28T07:17:09Z</time>
      </trkpt>
      <trkpt lat="47.30419" lon="6.23935">
        <ele>311.12</ele>
        <time>2013-09-28T07:17:16Z</time>
      </trkpt>
      <trkpt lat="47.30434" lon="6.23963">
        <ele>312.57</ele>
        <time>2013-09-28T07:17:24Z</time>
      </trkpt>
      <trkpt lat="47.30447" lon="6.23999">
        <ele>314.01</ele>
        <time>2013-09-28T07:17:33Z</time>
      </trkpt>
      <trkpt lat="47.30459" lon="6.24027">
        <ele>314.97</ele>
        <time>2013-09-28T07:17:40Z</time>
      </trkpt>
      <trkpt lat="47.30474" lon="6.24051">
        <ele>315.93</ele>
        <time>2013-09-28T07:17:47Z</time>
      </trkpt>
      <trkpt lat="47.3049" lon="6.24074">
        <ele>317.37</ele>
        <time>2013-09-28T07:17:54Z</time>
      </trkpt>
      <trkpt lat="47.30503" lon="6.24093">
        <ele>318.81</ele>
        <time>2013-09-28T07:18:00Z</time>
      </trkpt>
      <trkpt lat="47.30507" lon="6.2412">
        <ele>319.78</ele>
        <time>2013-09-28T07:18:06Z</time>
      </trkpt>
      <trkpt lat="47.30502" lon="6.24158">
        <ele>320.74</ele>
        <time>2013-09-28T07:18:14Z</time>
      </trkpt>
      <trkpt lat="47.30499" lon="6.24191">
        <ele>321.7</ele>
        <time>2013-09-28T07:18:21Z</time>
      </trkpt>
      <trkpt lat="47.30501" lon="6.24225">
        <ele>322.66</ele>
        <time>2013-09-28T07:18:28Z</time>
      </trkpt>
      <trkpt lat="47.30506" lon="6.24256">
        <ele>324.1</ele>
        <time>2013-09-28T07:18:35Z</time>
      </trkpt>
      <trkpt lat="47.3051" lon="6.24284">
        <ele>325.06</ele>
        <time>2013-09-28T07:18:41Z</time>
      </trkpt>
      <trkpt lat="47.30515" lon="6.24313">
        <ele>326.02</ele>
        <time>2013-09-28T07:18:48Z</time>
      </trkpt>
      <trkpt lat="47.30515" lon="6.24342">
        <ele>326.99</ele>
        <time>2013-09-28T07:18:55Z</time>
      </trkpt>
      <trkpt lat="47.30508" lon="6.24369">
        <ele>327.95</ele>
        <time>2013-09-28T07:19:03Z</time>
      </trkpt>
      <trkpt lat="47.30494" lon="6.24388">
        <ele>328.91</ele>
        <time>2013-09-28T07:19:13Z</time>
      </trkpt>
      <trkpt lat="47.30497" lon="6.24288">
        <ele>329.39</ele>
        <time>2013-09-28T07:19:22Z</time>
      </trkpt>
      <trkpt lat="47.30503" lon="6.24257">
        <ele>330.83</ele>
        <time>2013-09-28T07:20:09Z</time>
      </trkpt>
      <trkpt lat="47.30498" lon="6.24287">
        <ele>329.39</ele>
        <time>2013-09-28T07:21:40Z</time>
      </trkpt>
      <trkpt lat="47.30489" lon="6.24316">
        <ele>329.39</ele>
        <time>2013-09-28T07:21:46Z</time>
      </trkpt>
      <trkpt lat="47.30479" lon="6.24343">
        <ele>329.39</ele>
        <time>2013-09-28T07:21:52Z</time>
      </trkpt>
      <trkpt lat="47.3047" lon="6.2437">
        <ele>328.43</ele>
        <time>2013-09-28T07:21:58Z</time>
      </trkpt>
      <trkpt lat="47.3051" lon="6.24352">
        <ele>327.95</ele>
        <time>2013-09-28T07:22:04Z</time>
      </trkpt>
      <trkpt lat="47.30516" lon="6.2429">
        <ele>325.54</ele>
        <time>2013-09-28T07:22:16Z</time>
      </trkpt>
      <trkpt lat="47.3051" lon="6.24256">
        <ele>324.1</ele>
        <time>2013-09-28T07:22:20Z</time>
      </trkpt>
      <trkpt lat="47.30505" lon="6.2422">
        <ele>323.62</ele>
        <time>2013-09-28T07:22:24Z</time>
      </trkpt>
      <trkpt lat="47.305" lon="6.24191">
        <ele>322.18</ele>
        <time>2013-09-28T07:22:27Z</time>
      </trkpt>
      <trkpt lat="47.30493" lon="6.24162">
        <ele>321.22</ele>
        <time>2013-09-28T07:22:30Z</time>
      </trkpt>
      <trkpt lat="47.30485" lon="6.24131">
        <ele>319.78</ele>
        <time>2013-09-28T07:22:33Z</time>
      </trkpt>
      <trkpt lat="47.30477" lon="6.24098">
        <ele>318.33</ele>
        <time>2013-09-28T07:22:36Z</time>
      </trkpt>
      <trkpt lat="47.30468" lon="6.24064">
        <ele>317.37</ele>
        <time>2013-09-28T07:22:39Z</time>
      </trkpt>
      <trkpt lat="47.30458" lon="6.24031">
        <ele>315.45</ele>
        <time>2013-09-28T07:22:42Z</time>
      </trkpt>
      <trkpt lat="47.30448" lon="6.23999">
        <ele>314.01</ele>
        <time>2013-09-28T07:22:45Z</time>
      </trkpt>
      <trkpt lat="47.30436" lon="6.23965">
        <ele>312.57</ele>
        <time>2013-09-28T07:22:48Z</time>
      </trkpt>
      <trkpt lat="47.30421" lon="6.2393">
        <ele>311.12</ele>
        <time>2013-09-28T07:22:51Z</time>
      </trkpt>
      <trkpt lat="47.30402" lon="6.23899">
        <ele>309.68</ele>
        <time>2013-09-28T07:22:54Z</time>
      </trkpt>
      <trkpt lat="47.3038" lon="6.23872">
        <ele>308.72</ele>
        <time>2013-09-28T07:22:57Z</time>
      </trkpt>
      <trkpt lat="47.30357" lon="6.23847">
        <ele>307.28</ele>
        <time>2013-09-28T07:23:00Z</time>
      </trkpt>
      <trkpt lat="47.30333" lon="6.23826">
        <ele>305.84</ele>
        <time>2013-09-28T07:23:03Z</time>
      </trkpt>
      <trkpt lat="47.30309" lon="6.23809">
        <ele>303.91</ele>
        <time>2013-09-28T07:23:06Z</time>
      </trkpt>
      <trkpt lat="47.3029" lon="6.238">
        <ele>303.43</ele>
        <time>2013-09-28T07:23:08Z</time>
      </trkpt>
      <trkpt lat="47.30271" lon="6.23795">
        <ele>301.99</ele>
        <time>2013-09-28T07:23:10Z</time>
      </trkpt>
      <trkpt lat="47.30251" lon="6.23796">
        <ele>300.55</ele>
        <time>2013-09-28T07:23:12Z</time>
      </trkpt>
      <trkpt lat="47.30232" lon="6.23799">
        <ele>299.59</ele>
        <time>2013-09-28T07:23:14Z</time>
      </trkpt>
      <trkpt lat="47.30213" lon="6.23801">
        <ele>298.63</ele>
        <time>2013-09-28T07:23:16Z</time>
      </trkpt>
      <trkpt lat="47.30194" lon="6.23806">
        <ele>297.18</ele>
        <time>2013-09-28T07:23:18Z</time>
      </trkpt>
      <trkpt lat="47.30176" lon="6.23815">
        <ele>296.22</ele>
        <time>2013-09-28T07:23:20Z</time>
      </trkpt>
      <trkpt lat="47.30156" lon="6.2382">
        <ele>295.26</ele>
        <time>2013-09-28T07:23:22Z</time>
      </trkpt>
      <trkpt lat="47.30138" lon="6.23821">
        <ele>294.78</ele>
        <time>2013-09-28T07:23:24Z</time>
      </trkpt>
      <trkpt lat="47.30113" lon="6.23833">
        <ele>293.34</ele>
        <time>2013-09-28T07:23:27Z</time>
      </trkpt>
      <trkpt lat="47.30098" lon="6.2385">
        <ele>292.38</ele>
        <time>2013-09-28T07:23:29Z</time>
      </trkpt>
      <trkpt lat="47.30075" lon="6.23869">
        <ele>289.97</ele>
        <time>2013-09-28T07:23:32Z</time>
      </trkpt>
      <trkpt lat="47.3005" lon="6.23864">
        <ele>288.53</ele>
        <time>2013-09-28T07:23:35Z</time>
      </trkpt>
      <trkpt lat="47.3003" lon="6.23848">
        <ele>287.57</ele>
        <time>2013-09-28T07:23:38Z</time>
      </trkpt>
      <trkpt lat="47.30012" lon="6.2383">
        <ele>286.61</ele>
        <time>2013-09-28T07:23:40Z</time>
      </trkpt>
      <trkpt lat="47.29994" lon="6.2382">
        <ele>285.17</ele>
        <time>2013-09-28T07:23:42Z</time>
      </trkpt>
      <trkpt lat="47.29976" lon="6.23815">
        <ele>284.21</ele>
        <time>2013-09-28T07:23:44Z</time>
      </trkpt>
      <trkpt lat="47.29958" lon="6.23811">
        <ele>282.77</ele>
        <time>2013-09-28T07:23:46Z</time>
      </trkpt>
      <trkpt lat="47.29938" lon="6.23805">
        <ele>282.28</ele>
        <time>2013-09-28T07:23:48Z</time>
      </trkpt>
      <trkpt lat="47.2992" lon="6.23796">
        <ele>280.84</ele>
        <time>2013-09-28T07:23:50Z</time>
      </trkpt>
      <trkpt lat="47.29903" lon="6.23787">
        <ele>279.88</ele>
        <time>2013-09-28T07:23:52Z</time>
      </trkpt>
      <trkpt lat="47.29885" lon="6.23778">
        <ele>278.44</ele>
        <time>2013-09-28T07:23:54Z</time>
      </trkpt>
      <trkpt lat="47.29866" lon="6.23769">
        <ele>277.96</ele>
        <time>2013-09-28T07:23:56Z</time>
      </trkpt>
      <trkpt lat="47.29847" lon="6.23757">
        <ele>276.52</ele>
        <time>2013-09-28T07:23:58Z</time>
      </trkpt>
      <trkpt lat="47.29829" lon="6.23738">
        <ele>275.07</ele>
        <time>2013-09-28T07:24:00Z</time>
      </trkpt>
      <trkpt lat="47.29821" lon="6.23713">
        <ele>274.59</ele>
        <time>2013-09-28T07:24:02Z</time>
      </trkpt>
      <trkpt lat="47.29822" lon="6.23684">
        <ele>274.11</ele>
        <time>2013-09-28T07:24:04Z</time>
      </trkpt>
      <trkpt lat="47.29829" lon="6.23644">
        <ele>273.63</ele>
        <time>2013-09-28T07:24:07Z</time>
      </trkpt>
      <trkpt lat="47.29835" lon="6.2361">
        <ele>274.11</ele>
        <time>2013-09-28T07:24:10Z</time>
      </trkpt>
      <trkpt lat="47.2984" lon="6.23581">
        <ele>274.11</ele>
        <time>2013-09-28T07:24:13Z</time>
      </trkpt>
      <trkpt lat="47.29845" lon="6.23555">
        <ele>273.15</ele>
        <time>2013-09-28T07:24:16Z</time>
      </trkpt>
      <trkpt lat="47.29849" lon="6.2353">
        <ele>273.63</ele>
        <time>2013-09-28T07:24:19Z</time>
      </trkpt>
      <trkpt lat="47.29853" lon="6.23504">
        <ele>273.63</ele>
        <time>2013-09-28T07:24:22Z</time>
      </trkpt>
      <trkpt lat="47.2986" lon="6.23472">
        <ele>274.11</ele>
        <time>2013-09-28T07:24:26Z</time>
      </trkpt>
      <trkpt lat="47.29869" lon="6.23446">
        <ele>275.07</ele>
        <time>2013-09-28T07:24:30Z</time>
      </trkpt>
      <trkpt lat="47.29878" lon="6.23421">
        <ele>276.04</ele>
        <time>2013-09-28T07:24:35Z</time>
      </trkpt>
      <trkpt lat="47.29897" lon="6.23412">
        <ele>276.04</ele>
        <time>2013-09-28T07:24:41Z</time>
      </trkpt>
      <trkpt lat="47.29918" lon="6.23418">
        <ele>275.07</ele>
        <time>2013-09-28T07:24:46Z</time>
      </trkpt>
      <trkpt lat="47.29937" lon="6.23432">
        <ele>275.07</ele>
        <time>2013-09-28T07:24:51Z</time>
      </trkpt>
      <trkpt lat="47.29953" lon="6.23451">
        <ele>274.11</ele>
        <time>2013-09-28T07:24:56Z</time>
      </trkpt>
      <trkpt lat="47.29972" lon="6.23472">
        <ele>273.15</ele>
        <time>2013-09-28T07:25:01Z</time>
      </trkpt>
      <trkpt lat="47.29989" lon="6.2349">
        <ele>272.19</ele>
        <time>2013-09-28T07:25:05Z</time>
      </trkpt>
      <trkpt lat="47.30007" lon="6.23509">
        <ele>271.23</ele>
        <time>2013-09-28T07:25:09Z</time>
      </trkpt>
      <trkpt lat="47.30024" lon="6.23522">
        <ele>270.27</ele>
        <time>2013-09-28T07:25:12Z</time>
      </trkpt>
      <trkpt lat="47.30042" lon="6.2353">
        <ele>269.79</ele>
        <time>2013-09-28T07:25:15Z</time>
      </trkpt>
      <trkpt lat="47.30063" lon="6.23532">
        <ele>269.31</ele>
        <time>2013-09-28T07:25:18Z</time>
      </trkpt>
      <trkpt lat="47.30085" lon="6.23531">
        <ele>267.86</ele>
        <time>2013-09-28T07:25:21Z</time>
      </trkpt>
      <trkpt lat="47.30104" lon="6.23537">
        <ele>266.9</ele>
        <time>2013-09-28T07:25:24Z</time>
      </trkpt>
      <trkpt lat="47.30123" lon="6.23538">
        <ele>265.94</ele>
        <time>2013-09-28T07:25:27Z</time>
      </trkpt>
      <trkpt lat="47.30141" lon="6.23534">
        <ele>265.46</ele>
        <time>2013-09-28T07:25:30Z</time>
      </trkpt>
      <trkpt lat="47.30159" lon="6.2353">
        <ele>265.46</ele>
        <time>2013-09-28T07:25:33Z</time>
      </trkpt>
      <trkpt lat="47.30181" lon="6.23525">
        <ele>265.46</ele>
        <time>2013-09-28T07:25:37Z</time>
      </trkpt>
      <trkpt lat="47.30204" lon="6.2352">
        <ele>265.46</ele>
        <time>2013-09-28T07:25:41Z</time>
      </trkpt>
      <trkpt lat="47.30227" lon="6.23519">
        <ele>265.46</ele>
        <time>2013-09-28T07:25:45Z</time>
      </trkpt>
      <trkpt lat="47.30249" lon="6.23518">
        <ele>265.46</ele>
        <time>2013-09-28T07:25:49Z</time>
      </trkpt>
      <trkpt lat="47.30273" lon="6.23518">
        <ele>265.46</ele>
        <time>2013-09-28T07:25:53Z</time>
      </trkpt>
      <trkpt lat="47.30297" lon="6.23521">
        <ele>265.46</ele>
        <time>2013-09-28T07:25:57Z</time>
      </trkpt>
      <trkpt lat="47.30315" lon="6.23526">
        <ele>265.94</ele>
        <time>2013-09-28T07:26:00Z</time>
      </trkpt>
      <trkpt lat="47.30336" lon="6.23535">
        <ele>265.46</ele>
        <time>2013-09-28T07:26:04Z</time>
      </trkpt>
      <trkpt lat="47.30357" lon="6.23549">
        <ele>265.46</ele>
        <time>2013-09-28T07:26:08Z</time>
      </trkpt>
      <trkpt lat="47.30378" lon="6.23566">
        <ele>264.98</ele>
        <time>2013-09-28T07:26:12Z</time>
      </trkpt>
      <trkpt lat="47.30399" lon="6.23578">
        <ele>264.98</ele>
        <time>2013-09-28T07:26:16Z</time>
      </trkpt>
      <trkpt lat="47.30419" lon="6.2359">
        <ele>265.46</ele>
        <time>2013-09-28T07:26:20Z</time>
      </trkpt>
      <trkpt lat="47.30441" lon="6.23601">
        <ele>264.98</ele>
        <time>2013-09-28T07:26:24Z</time>
      </trkpt>
      <trkpt lat="47.30462" lon="6.23612">
        <ele>264.98</ele>
        <time>2013-09-28T07:26:28Z</time>
      </trkpt>
      <trkpt lat="47.30484" lon="6.23621">
        <ele>264.98</ele>
        <time>2013-09-28T07:26:32Z</time>
      </trkpt>
      <trkpt lat="47.30505" lon="6.23627">
        <ele>265.46</ele>
        <time>2013-09-28T07:26:36Z</time>
      </trkpt>
      <trkpt lat="47.30526" lon="6.23632">
        <ele>264.98</ele>
        <time>2013-09-28T07:26:40Z</time>
      </trkpt>
      <trkpt lat="47.30549" lon="6.2364">
        <ele>264.98</ele>
        <time>2013-09-28T07:26:44Z</time>
      </trkpt>
      <trkpt lat="47.3057" lon="6.23654">
        <ele>264.98</ele>
        <time>2013-09-28T07:26:48Z</time>
      </trkpt>
      <trkpt lat="47.30587" lon="6.23677">
        <ele>265.46</ele>
        <time>2013-09-28T07:26:52Z</time>
      </trkpt>
      <trkpt lat="47.30602" lon="6.23704">
        <ele>264.98</ele>
        <time>2013-09-28T07:26:56Z</time>
      </trkpt>
      <trkpt lat="47.30616" lon="6.23731">
        <ele>265.46</ele>
        <time>2013-09-28T07:27:00Z</time>
      </trkpt>
      <trkpt lat="47.30629" lon="6.23757">
        <ele>265.46</ele>
        <time>2013-09-28T07:27:04Z</time>
      </trkpt>
      <trkpt lat="47.30641" lon="6.23782">
        <ele>265.94</ele>
        <time>2013-09-28T07:27:08Z</time>
      </trkpt>
      <trkpt lat="47.30653" lon="6.23809">
        <ele>265.46</ele>
        <time>2013-09-28T07:27:12Z</time>
      </trkpt>
      <trkpt lat="47.30664" lon="6.23835">
        <ele>266.42</ele>
        <time>2013-09-28T07:27:16Z</time>
      </trkpt>
      <trkpt lat="47.30674" lon="6.23861">
        <ele>265.94</ele>
        <time>2013-09-28T07:27:20Z</time>
      </trkpt>
      <trkpt lat="47.30684" lon="6.23889">
        <ele>266.42</ele>
        <time>2013-09-28T07:27:24Z</time>
      </trkpt>
      <trkpt lat="47.30692" lon="6.23919">
        <ele>265.94</ele>
        <time>2013-09-28T07:27:28Z</time>
      </trkpt>
      <trkpt lat="47.30699" lon="6.23949">
        <ele>265.94</ele>
        <time>2013-09-28T07:27:32Z</time>
      </trkpt>
      <trkpt lat="47.30706" lon="6.2398">
        <ele>266.42</ele>
        <time>2013-09-28T07:27:36Z</time>
      </trkpt>
      <trkpt lat="47.30714" lon="6.24012">
        <ele>265.94</ele>
        <time>2013-09-28T07:27:40Z</time>
      </trkpt>
      <trkpt lat="47.30721" lon="6.24042">
        <ele>266.42</ele>
        <time>2013-09-28T07:27:44Z</time>
      </trkpt>
      <trkpt lat="47.30727" lon="6.24072">
        <ele>266.42</ele>
        <time>2013-09-28T07:27:48Z</time>
      </trkpt>
      <trkpt lat="47.30733" lon="6.24101">
        <ele>266.42</ele>
        <time>2013-09-28T07:27:52Z</time>
      </trkpt>
      <trkpt lat="47.3074" lon="6.24132">
        <ele>266.42</ele>
        <time>2013-09-28T07:27:56Z</time>
      </trkpt>
      <trkpt lat="47.30746" lon="6.24162">
        <ele>266.42</ele>
        <time>2013-09-28T07:28:00Z</time>
      </trkpt>
      <trkpt lat="47.30753" lon="6.24192">
        <ele>266.42</ele>
        <time>2013-09-28T07:28:04Z</time>
      </trkpt>
      <trkpt lat="47.30759" lon="6.24224">
        <ele>266.42</ele>
        <time>2013-09-28T07:28:08Z</time>
      </trkpt>
      <trkpt lat="47.30767" lon="6.24256">
        <ele>265.94</ele>
        <time>2013-09-28T07:28:12Z</time>
      </trkpt>
      <trkpt lat="47.30777" lon="6.24288">
        <ele>265.94</ele>
        <time>2013-09-28T07:28:16Z</time>
      </trkpt>
      <trkpt lat="47.30786" lon="6.24319">
        <ele>265.94</ele>
        <time>2013-09-28T07:28:20Z</time>
      </trkpt>
      <trkpt lat="47.30795" lon="6.24349">
        <ele>265.94</ele>
        <time>2013-09-28T07:28:24Z</time>
      </trkpt>
      <trkpt lat="47.30803" lon="6.2438">
        <ele>265.46</ele>
        <time>2013-09-28T07:28:28Z</time>
      </trkpt>
      <trkpt lat="47.30812" lon="6.24412">
        <ele>265.46</ele>
        <time>2013-09-28T07:28:32Z</time>
      </trkpt>
      <trkpt lat="47.30819" lon="6.24444">
        <ele>265.46</ele>
        <time>2013-09-28T07:28:36Z</time>
      </trkpt>
      <trkpt lat="47.30826" lon="6.24477">
        <ele>265.46</ele>
        <time>2013-09-28T07:28:40Z</time>
      </trkpt>
      <trkpt lat="47.30833" lon="6.2451">
        <ele>266.42</ele>
        <time>2013-09-28T07:28:44Z</time>
      </trkpt>
      <trkpt lat="47.30838" lon="6.24544">
        <ele>265.94</ele>
        <time>2013-09-28T07:28:48Z</time>
      </trkpt>
      <trkpt lat="47.30843" lon="6.24577">
        <ele>265.94</ele>
        <time>2013-09-28T07:28:52Z</time>
      </trkpt>
      <trkpt lat="47.30848" lon="6.24604">
        <ele>265.94</ele>
        <time>2013-09-28T07:28:55Z</time>
      </trkpt>
      <trkpt lat="47.30852" lon="6.2463">
        <ele>265.94</ele>
        <time>2013-09-28T07:28:58Z</time>
      </trkpt>
      <trkpt lat="47.30856" lon="6.24656">
        <ele>265.46</ele>
        <time>2013-09-28T07:29:01Z</time>
      </trkpt>
      <trkpt lat="47.3086" lon="6.24682">
        <ele>265.94</ele>
        <time>2013-09-28T07:29:04Z</time>
      </trkpt>
      <trkpt lat="47.30864" lon="6.24709">
        <ele>265.46</ele>
        <time>2013-09-28T07:29:07Z</time>
      </trkpt>
      <trkpt lat="47.30868" lon="6.24735">
        <ele>265.94</ele>
        <time>2013-09-28T07:29:10Z</time>
      </trkpt>
      <trkpt lat="47.30873" lon="6.24769">
        <ele>265.94</ele>
        <time>2013-09-28T07:29:14Z</time>
      </trkpt>
      <trkpt lat="47.30878" lon="6.24803">
        <ele>265.94</ele>
        <time>2013-09-28T07:29:18Z</time>
      </trkpt>
      <trkpt lat="47.30882" lon="6.24829">
        <ele>265.46</ele>
        <time>2013-09-28T07:29:21Z</time>
      </trkpt>
      <trkpt lat="47.30887" lon="6.24862">
        <ele>265.94</ele>
        <time>2013-09-28T07:29:25Z</time>
      </trkpt>
      <trkpt lat="47.30893" lon="6.24896">
        <ele>265.94</ele>
        <time>2013-09-28T07:29:29Z</time>
      </trkpt>
      <trkpt lat="47.30896" lon="6.24928">
        <ele>266.42</ele>
        <time>2013-09-28T07:29:33Z</time>
      </trkpt>
      <trkpt lat="47.30901" lon="6.2496">
        <ele>267.38</ele>
        <time>2013-09-28T07:29:37Z</time>
      </trkpt>
      <trkpt lat="47.30906" lon="6.24993">
        <ele>266.42</ele>
        <time>2013-09-28T07:29:41Z</time>
      </trkpt>
      <trkpt lat="47.30909" lon="6.25019">
        <ele>265.94</ele>
        <time>2013-09-28T07:29:44Z</time>
      </trkpt>
      <trkpt lat="47.30913" lon="6.25046">
        <ele>266.42</ele>
        <time>2013-09-28T07:29:47Z</time>
      </trkpt>
      <trkpt lat="47.30917" lon="6.25072">
        <ele>266.42</ele>
        <time>2013-09-28T07:29:50Z</time>
      </trkpt>
      <trkpt lat="47.30924" lon="6.25107">
        <ele>265.94</ele>
        <time>2013-09-28T07:29:54Z</time>
      </trkpt>
      <trkpt lat="47.30928" lon="6.25133">
        <ele>265.46</ele>
        <time>2013-09-28T07:29:57Z</time>
      </trkpt>
      <trkpt lat="47.30932" lon="6.25159">
        <ele>265.46</ele>
        <time>2013-09-28T07:30:00Z</time>
      </trkpt>
      <trkpt lat="47.30936" lon="6.25185">
        <ele>265.94</ele>
        <time>2013-09-28T07:30:03Z</time>
      </trkpt>
      <trkpt lat="47.30941" lon="6.25218">
        <ele>265.46</ele>
        <time>2013-09-28T07:30:07Z</time>
      </trkpt>
      <trkpt lat="47.30946" lon="6.25252">
        <ele>265.94</ele>
        <time>2013-09-28T07:30:11Z</time>
      </trkpt>
      <trkpt lat="47.30951" lon="6.25285">
        <ele>266.42</ele>
        <time>2013-09-28T07:30:15Z</time>
      </trkpt>
      <trkpt lat="47.30957" lon="6.25316">
        <ele>266.9</ele>
        <time>2013-09-28T07:30:19Z</time>
      </trkpt>
      <trkpt lat="47.30962" lon="6.25348">
        <ele>266.9</ele>
        <time>2013-09-28T07:30:23Z</time>
      </trkpt>
      <trkpt lat="47.30967" lon="6.2538">
        <ele>266.9</ele>
        <time>2013-09-28T07:30:27Z</time>
      </trkpt>
      <trkpt lat="47.30973" lon="6.25414">
        <ele>266.9</ele>
        <time>2013-09-28T07:30:31Z</time>
      </trkpt>
      <trkpt lat="47.30979" lon="6.25447">
        <ele>266.9</ele>
        <time>2013-09-28T07:30:35Z</time>
      </trkpt>
      <trkpt lat="47.30985" lon="6.2548">
        <ele>266.42</ele>
        <time>2013-09-28T07:30:39Z</time>
      </trkpt>
      <trkpt lat="47.3099" lon="6.25514">
        <ele>266.9</ele>
        <time>2013-09-28T07:30:43Z</time>
      </trkpt>
      <trkpt lat="47.30993" lon="6.2554">
        <ele>266.42</ele>
        <time>2013-09-28T07:30:46Z</time>
      </trkpt>
      <trkpt lat="47.30998" lon="6.25575">
        <ele>266.42</ele>
        <time>2013-09-28T07:30:50Z</time>
      </trkpt>
      <trkpt lat="47.31003" lon="6.25611">
        <ele>265.94</ele>
        <time>2013-09-28T07:30:54Z</time>
      </trkpt>
      <trkpt lat="47.31008" lon="6.25638">
        <ele>265.94</ele>
        <time>2013-09-28T07:30:57Z</time>
      </trkpt>
      <trkpt lat="47.31011" lon="6.25665">
        <ele>265.46</ele>
        <time>2013-09-28T07:31:00Z</time>
      </trkpt>
      <trkpt lat="47.31014" lon="6.25698">
        <ele>266.42</ele>
        <time>2013-09-28T07:31:04Z</time>
      </trkpt>
      <trkpt lat="47.31024" lon="6.25727">
        <ele>267.86</ele>
        <time>2013-09-28T07:31:09Z</time>
      </trkpt>
      <trkpt lat="47.31037" lon="6.25748">
        <ele>268.83</ele>
        <time>2013-09-28T07:31:14Z</time>
      </trkpt>
      <trkpt lat="47.3105" lon="6.25768">
        <ele>268.35</ele>
        <time>2013-09-28T07:31:20Z</time>
      </trkpt>
      <trkpt lat="47.31064" lon="6.25792">
        <ele>268.35</ele>
        <time>2013-09-28T07:31:26Z</time>
      </trkpt>
      <trkpt lat="47.31076" lon="6.25812">
        <ele>267.86</ele>
        <time>2013-09-28T07:31:31Z</time>
      </trkpt>
      <trkpt lat="47.31092" lon="6.25835">
        <ele>267.86</ele>
        <time>2013-09-28T07:31:37Z</time>
      </trkpt>
      <trkpt lat="47.31107" lon="6.25858">
        <ele>267.86</ele>
        <time>2013-09-28T07:31:42Z</time>
      </trkpt>
      <trkpt lat="47.3112" lon="6.25881">
        <ele>267.38</ele>
        <time>2013-09-28T07:31:46Z</time>
      </trkpt>
      <trkpt lat="47.31133" lon="6.25905">
        <ele>267.38</ele>
        <time>2013-09-28T07:31:50Z</time>
      </trkpt>
      <trkpt lat="47.31145" lon="6.25933">
        <ele>266.42</ele>
        <time>2013-09-28T07:31:54Z</time>
      </trkpt>
      <trkpt lat="47.31159" lon="6.25959">
        <ele>266.9</ele>
        <time>2013-09-28T07:31:58Z</time>
      </trkpt>
      <trkpt lat="47.31173" lon="6.25981">
        <ele>266.42</ele>
        <time>2013-09-28T07:32:02Z</time>
      </trkpt>
      <trkpt lat="47.31189" lon="6.25997">
        <ele>266.42</ele>
        <time>2013-09-28T07:32:06Z</time>
      </trkpt>
      <trkpt lat="47.31207" lon="6.2601">
        <ele>266.42</ele>
        <time>2013-09-28T07:32:10Z</time>
      </trkpt>
      <trkpt lat="47.31224" lon="6.26023">
        <ele>266.42</ele>
        <time>2013-09-28T07:32:14Z</time>
      </trkpt>
      <trkpt lat="47.31243" lon="6.26036">
        <ele>265.94</ele>
        <time>2013-09-28T07:32:18Z</time>
      </trkpt>
      <trkpt lat="47.31262" lon="6.26048">
        <ele>266.42</ele>
        <time>2013-09-28T07:32:22Z</time>
      </trkpt>
      <trkpt lat="47.31282" lon="6.26059">
        <ele>266.42</ele>
        <time>2013-09-28T07:32:26Z</time>
      </trkpt>
      <trkpt lat="47.31302" lon="6.26069">
        <ele>266.42</ele>
        <time>2013-09-28T07:32:30Z</time>
      </trkpt>
      <trkpt lat="47.31323" lon="6.26078">
        <ele>266.9</ele>
        <time>2013-09-28T07:32:34Z</time>
      </trkpt>
      <trkpt lat="47.31342" lon="6.2609">
        <ele>266.9</ele>
        <time>2013-09-28T07:32:38Z</time>
      </trkpt>
      <trkpt lat="47.31361" lon="6.26102">
        <ele>266.9</ele>
        <time>2013-09-28T07:32:42Z</time>
      </trkpt>
      <trkpt lat="47.31381" lon="6.26114">
        <ele>266.9</ele>
        <time>2013-09-28T07:32:46Z</time>
      </trkpt>
      <trkpt lat="47.314" lon="6.26127">
        <ele>267.38</ele>
        <time>2013-09-28T07:32:50Z</time>
      </trkpt>
      <trkpt lat="47.31417" lon="6.2614">
        <ele>267.86</ele>
        <time>2013-09-28T07:32:54Z</time>
      </trkpt>
      <trkpt lat="47.31434" lon="6.26155">
        <ele>267.38</ele>
        <time>2013-09-28T07:32:58Z</time>
      </trkpt>
      <trkpt lat="47.3145" lon="6.26171">
        <ele>267.38</ele>
        <time>2013-09-28T07:33:02Z</time>
      </trkpt>
      <trkpt lat="47.31464" lon="6.26186">
        <ele>266.9</ele>
        <time>2013-09-28T07:33:06Z</time>
      </trkpt>
      <trkpt lat="47.3148" lon="6.262">
        <ele>266.42</ele>
        <time>2013-09-28T07:33:10Z</time>
      </trkpt>
      <trkpt lat="47.31498" lon="6.26214">
        <ele>266.9</ele>
        <time>2013-09-28T07:33:14Z</time>
      </trkpt>
      <trkpt lat="47.31514" lon="6.26226">
        <ele>265.46</ele>
        <time>2013-09-28T07:33:18Z</time>
      </trkpt>
      <trkpt lat="47.31532" lon="6.26236">
        <ele>266.9</ele>
        <time>2013-09-28T07:33:23Z</time>
      </trkpt>
      <trkpt lat="47.31551" lon="6.26249">
        <ele>266.9</ele>
        <time>2013-09-28T07:33:29Z</time>
      </trkpt>
      <trkpt lat="47.31568" lon="6.26259">
        <ele>266.9</ele>
        <time>2013-09-28T07:33:34Z</time>
      </trkpt>
      <trkpt lat="47.31587" lon="6.26271">
        <ele>266.9</ele>
        <time>2013-09-28T07:33:40Z</time>
      </trkpt>
      <trkpt lat="47.31606" lon="6.26284">
        <ele>266.9</ele>
        <time>2013-09-28T07:33:44Z</time>
      </trkpt>
      <trkpt lat="47.31627" lon="6.26296">
        <ele>266.42</ele>
        <time>2013-09-28T07:33:48Z</time>
      </trkpt>
      <trkpt lat="47.31647" lon="6.26309">
        <ele>267.38</ele>
        <time>2013-09-28T07:33:52Z</time>
      </trkpt>
      <trkpt lat="47.31665" lon="6.26322">
        <ele>267.38</ele>
        <time>2013-09-28T07:33:56Z</time>
      </trkpt>
      <trkpt lat="47.31683" lon="6.26333">
        <ele>265.94</ele>
        <time>2013-09-28T07:34:00Z</time>
      </trkpt>
      <trkpt lat="47.31699" lon="6.26345">
        <ele>267.38</ele>
        <time>2013-09-28T07:34:04Z</time>
      </trkpt>
      <trkpt lat="47.31718" lon="6.26359">
        <ele>266.9</ele>
        <time>2013-09-28T07:34:08Z</time>
      </trkpt>
      <trkpt lat="47.3174" lon="6.26374">
        <ele>267.38</ele>
        <time>2013-09-28T07:34:12Z</time>
      </trkpt>
      <trkpt lat="47.31757" lon="6.26383">
        <ele>266.9</ele>
        <time>2013-09-28T07:34:15Z</time>
      </trkpt>
      <trkpt lat="47.31774" lon="6.26394">
        <ele>266.9</ele>
        <time>2013-09-28T07:34:18Z</time>
      </trkpt>
      <trkpt lat="47.31795" lon="6.26406">
        <ele>266.9</ele>
        <time>2013-09-28T07:34:22Z</time>
      </trkpt>
      <trkpt lat="47.31817" lon="6.26419">
        <ele>267.38</ele>
        <time>2013-09-28T07:34:26Z</time>
      </trkpt>
      <trkpt lat="47.31838" lon="6.26431">
        <ele>266.9</ele>
        <time>2013-09-28T07:34:30Z</time>
      </trkpt>
      <trkpt lat="47.3186" lon="6.26444">
        <ele>267.38</ele>
        <time>2013-09-28T07:34:34Z</time>
      </trkpt>
      <trkpt lat="47.31877" lon="6.26453">
        <ele>267.38</ele>
        <time>2013-09-28T07:34:37Z</time>
      </trkpt>
      <trkpt lat="47.31894" lon="6.26462">
        <ele>266.9</ele>
        <time>2013-09-28T07:34:40Z</time>
      </trkpt>
      <trkpt lat="47.31911" lon="6.26472">
        <ele>266.9</ele>
        <time>2013-09-28T07:34:43Z</time>
      </trkpt>
      <trkpt lat="47.31928" lon="6.26481">
        <ele>266.9</ele>
        <time>2013-09-28T07:34:46Z</time>
      </trkpt>
      <trkpt lat="47.31945" lon="6.26491">
        <ele>267.38</ele>
        <time>2013-09-28T07:34:49Z</time>
      </trkpt>
      <trkpt lat="47.31963" lon="6.26504">
        <ele>266.42</ele>
        <time>2013-09-28T07:34:52Z</time>
      </trkpt>
      <trkpt lat="47.3198" lon="6.26519">
        <ele>266.9</ele>
        <time>2013-09-28T07:34:55Z</time>
      </trkpt>
      <trkpt lat="47.31997" lon="6.26535">
        <ele>267.38</ele>
        <time>2013-09-28T07:34:58Z</time>
      </trkpt>
      <trkpt lat="47.32013" lon="6.26552">
        <ele>267.38</ele>
        <time>2013-09-28T07:35:01Z</time>
      </trkpt>
      <trkpt lat="47.32028" lon="6.2657">
        <ele>267.38</ele>
        <time>2013-09-28T07:35:04Z</time>
      </trkpt>
      <trkpt lat="47.32043" lon="6.2659">
        <ele>266.9</ele>
        <time>2013-09-28T07:35:07Z</time>
      </trkpt>
      <trkpt lat="47.32057" lon="6.26613">
        <ele>266.42</ele>
        <time>2013-09-28T07:35:10Z</time>
      </trkpt>
      <trkpt lat="47.32066" lon="6.26637">
        <ele>266.9</ele>
        <time>2013-09-28T07:35:13Z</time>
      </trkpt>
      <trkpt lat="47.32072" lon="6.26663">
        <ele>266.9</ele>
        <time>2013-09-28T07:35:16Z</time>
      </trkpt>
      <trkpt lat="47.32077" lon="6.2669">
        <ele>266.9</ele>
        <time>2013-09-28T07:35:19Z</time>
      </trkpt>
      <trkpt lat="47.32081" lon="6.26718">
        <ele>267.38</ele>
        <time>2013-09-28T07:35:22Z</time>
      </trkpt>
      <trkpt lat="47.32084" lon="6.26747">
        <ele>267.38</ele>
        <time>2013-09-28T07:35:25Z</time>
      </trkpt>
      <trkpt lat="47.32087" lon="6.26776">
        <ele>266.9</ele>
        <time>2013-09-28T07:35:28Z</time>
      </trkpt>
      <trkpt lat="47.32086" lon="6.26805">
        <ele>266.9</ele>
        <time>2013-09-28T07:35:31Z</time>
      </trkpt>
      <trkpt lat="47.32085" lon="6.26835">
        <ele>266.9</ele>
        <time>2013-09-28T07:35:34Z</time>
      </trkpt>
      <trkpt lat="47.32085" lon="6.26865">
        <ele>266.9</ele>
        <time>2013-09-28T07:35:37Z</time>
      </trkpt>
      <trkpt lat="47.32084" lon="6.26896">
        <ele>266.9</ele>
        <time>2013-09-28T07:35:40Z</time>
      </trkpt>
      <trkpt lat="47.32083" lon="6.26925">
        <ele>266.9</ele>
        <time>2013-09-28T07:35:43Z</time>
      </trkpt>
      <trkpt lat="47.32081" lon="6.26953">
        <ele>266.9</ele>
        <time>2013-09-28T07:35:46Z</time>
      </trkpt>
      <trkpt lat="47.3208" lon="6.2698">
        <ele>266.42</ele>
        <time>2013-09-28T07:35:49Z</time>
      </trkpt>
      <trkpt lat="47.32079" lon="6.27008">
        <ele>266.9</ele>
        <time>2013-09-28T07:35:52Z</time>
      </trkpt>
      <trkpt lat="47.32079" lon="6.27036">
        <ele>266.9</ele>
        <time>2013-09-28T07:35:55Z</time>
      </trkpt>
      <trkpt lat="47.32078" lon="6.27064">
        <ele>266.9</ele>
        <time>2013-09-28T07:35:58Z</time>
      </trkpt>
      <trkpt lat="47.32079" lon="6.27093">
        <ele>266.9</ele>
        <time>2013-09-28T07:36:01Z</time>
      </trkpt>
      <trkpt lat="47.3208" lon="6.27121">
        <ele>267.38</ele>
        <time>2013-09-28T07:36:04Z</time>
      </trkpt>
      <trkpt lat="47.32081" lon="6.27151">
        <ele>267.38</ele>
        <time>2013-09-28T07:36:07Z</time>
      </trkpt>
      <trkpt lat="47.32082" lon="6.27182">
        <ele>266.9</ele>
        <time>2013-09-28T07:36:10Z</time>
      </trkpt>
      <trkpt lat="47.32085" lon="6.27211">
        <ele>266.9</ele>
        <time>2013-09-28T07:36:13Z</time>
      </trkpt>
      <trkpt lat="47.32089" lon="6.2724">
        <ele>266.9</ele>
        <time>2013-09-28T07:36:16Z</time>
      </trkpt>
      <trkpt lat="47.32092" lon="6.27268">
        <ele>266.9</ele>
        <time>2013-09-28T07:36:19Z</time>
      </trkpt>
      <trkpt lat="47.32095" lon="6.27297">
        <ele>266.9</ele>
        <time>2013-09-28T07:36:22Z</time>
      </trkpt>
      <trkpt lat="47.321" lon="6.27326">
        <ele>267.38</ele>
        <time>2013-09-28T07:36:25Z</time>
      </trkpt>
      <trkpt lat="47.32104" lon="6.27354">
        <ele>266.9</ele>
        <time>2013-09-28T07:36:28Z</time>
      </trkpt>
      <trkpt lat="47.32107" lon="6.27381">
        <ele>267.38</ele>
        <time>2013-09-28T07:36:31Z</time>
      </trkpt>
      <trkpt lat="47.32111" lon="6.27409">
        <ele>265.94</ele>
        <time>2013-09-28T07:36:34Z</time>
      </trkpt>
      <trkpt lat="47.32116" lon="6.27442">
        <ele>267.38</ele>
        <time>2013-09-28T07:36:38Z</time>
      </trkpt>
      <trkpt lat="47.32129" lon="6.27471">
        <ele>267.38</ele>
        <time>2013-09-28T07:36:42Z</time>
      </trkpt>
      <trkpt lat="47.3215" lon="6.27482">
        <ele>267.86</ele>
        <time>2013-09-28T07:36:46Z</time>
      </trkpt>
      <trkpt lat="47.32167" lon="6.27494">
        <ele>267.86</ele>
        <time>2013-09-28T07:36:50Z</time>
      </trkpt>
      <trkpt lat="47.3215" lon="6.27498">
        <ele>269.79</ele>
        <time>2013-09-28T07:36:56Z</time>
      </trkpt>
      <trkpt lat="47.3213" lon="6.27503">
        <ele>271.71</ele>
        <time>2013-09-28T07:37:03Z</time>
      </trkpt>
      <trkpt lat="47.32113" lon="6.2751">
        <ele>271.71</ele>
        <time>2013-09-28T07:37:08Z</time>
      </trkpt>
      <trkpt lat="47.32092" lon="6.27518">
        <ele>272.19</ele>
        <time>2013-09-28T07:37:13Z</time>
      </trkpt>
      <trkpt lat="47.32072" lon="6.27527">
        <ele>271.71</ele>
        <time>2013-09-28T07:37:18Z</time>
      </trkpt>
      <trkpt lat="47.32053" lon="6.27534">
        <ele>271.71</ele>
        <time>2013-09-28T07:37:23Z</time>
      </trkpt>
      <trkpt lat="47.3203" lon="6.27546">
        <ele>270.27</ele>
        <time>2013-09-28T07:37:28Z</time>
      </trkpt>
      <trkpt lat="47.32018" lon="6.27573">
        <ele>269.31</ele>
        <time>2013-09-28T07:37:32Z</time>
      </trkpt>
      <trkpt lat="47.32014" lon="6.27606">
        <ele>269.31</ele>
        <time>2013-09-28T07:37:36Z</time>
      </trkpt>
      <trkpt lat="47.32014" lon="6.2764">
        <ele>268.83</ele>
        <time>2013-09-28T07:37:40Z</time>
      </trkpt>
      <trkpt lat="47.32019" lon="6.27673">
        <ele>268.83</ele>
        <time>2013-09-28T07:37:44Z</time>
      </trkpt>
      <trkpt lat="47.32027" lon="6.27697">
        <ele>268.83</ele>
        <time>2013-09-28T07:37:47Z</time>
      </trkpt>
      <trkpt lat="47.3204" lon="6.27719">
        <ele>268.83</ele>
        <time>2013-09-28T07:37:50Z</time>
      </trkpt>
      <trkpt lat="47.32051" lon="6.2775">
        <ele>269.79</ele>
        <time>2013-09-28T07:37:54Z</time>
      </trkpt>
      <trkpt lat="47.32055" lon="6.27784">
        <ele>269.79</ele>
        <time>2013-09-28T07:37:58Z</time>
      </trkpt>
      <trkpt lat="47.3205" lon="6.27813">
        <ele>270.27</ele>
        <time>2013-09-28T07:38:02Z</time>
      </trkpt>
      <trkpt lat="47.32044" lon="6.27839">
        <ele>271.23</ele>
        <time>2013-09-28T07:38:06Z</time>
      </trkpt>
      <trkpt lat="47.32038" lon="6.27866">
        <ele>271.71</ele>
        <time>2013-09-28T07:38:10Z</time>
      </trkpt>
      <trkpt lat="47.32031" lon="6.27891">
        <ele>272.67</ele>
        <time>2013-09-28T07:38:14Z</time>
      </trkpt>
      <trkpt lat="47.32024" lon="6.27923">
        <ele>273.15</ele>
        <time>2013-09-28T07:38:19Z</time>
      </trkpt>
      <trkpt lat="47.32022" lon="6.27952">
        <ele>273.15</ele>
        <time>2013-09-28T07:38:23Z</time>
      </trkpt>
      <trkpt lat="47.32019" lon="6.27982">
        <ele>274.11</ele>
        <time>2013-09-28T07:38:27Z</time>
      </trkpt>
      <trkpt lat="47.3202" lon="6.2801">
        <ele>275.07</ele>
        <time>2013-09-28T07:38:31Z</time>
      </trkpt>
      <trkpt lat="47.32022" lon="6.28037">
        <ele>275.07</ele>
        <time>2013-09-28T07:38:35Z</time>
      </trkpt>
      <trkpt lat="47.32022" lon="6.28067">
        <ele>275.07</ele>
        <time>2013-09-28T07:38:39Z</time>
      </trkpt>
      <trkpt lat="47.32023" lon="6.281">
        <ele>274.11</ele>
        <time>2013-09-28T07:38:43Z</time>
      </trkpt>
      <trkpt lat="47.32026" lon="6.28127">
        <ele>274.59</ele>
        <time>2013-09-28T07:38:46Z</time>
      </trkpt>
      <trkpt lat="47.32029" lon="6.28156">
        <ele>273.63</ele>
        <time>2013-09-28T07:38:49Z</time>
      </trkpt>
      <trkpt lat="47.32032" lon="6.28189">
        <ele>272.67</ele>
        <time>2013-09-28T07:38:52Z</time>
      </trkpt>
      <trkpt lat="47.32037" lon="6.28221">
        <ele>271.71</ele>
        <time>2013-09-28T07:38:55Z</time>
      </trkpt>
      <trkpt lat="47.3205" lon="6.28251">
        <ele>270.27</ele>
        <time>2013-09-28T07:38:58Z</time>
      </trkpt>
      <trkpt lat="47.32063" lon="6.2828">
        <ele>270.27</ele>
        <time>2013-09-28T07:39:01Z</time>
      </trkpt>
      <trkpt lat="47.32076" lon="6.28305">
        <ele>270.27</ele>
        <time>2013-09-28T07:39:04Z</time>
      </trkpt>
      <trkpt lat="47.32092" lon="6.28331">
        <ele>268.83</ele>
        <time>2013-09-28T07:39:07Z</time>
      </trkpt>
      <trkpt lat="47.32111" lon="6.28357">
        <ele>268.35</ele>
        <time>2013-09-28T07:39:10Z</time>
      </trkpt>
      <trkpt lat="47.32129" lon="6.28384">
        <ele>268.83</ele>
        <time>2013-09-28T07:39:13Z</time>
      </trkpt>
      <trkpt lat="47.32147" lon="6.2841">
        <ele>268.35</ele>
        <time>2013-09-28T07:39:16Z</time>
      </trkpt>
      <trkpt lat="47.32164" lon="6.28434">
        <ele>268.83</ele>
        <time>2013-09-28T07:39:19Z</time>
      </trkpt>
      <trkpt lat="47.3218" lon="6.28457">
        <ele>267.86</ele>
        <time>2013-09-28T07:39:22Z</time>
      </trkpt>
      <trkpt lat="47.32198" lon="6.28476">
        <ele>267.38</ele>
        <time>2013-09-28T07:39:25Z</time>
      </trkpt>
      <trkpt lat="47.32217" lon="6.28494">
        <ele>267.86</ele>
        <time>2013-09-28T07:39:28Z</time>
      </trkpt>
      <trkpt lat="47.32236" lon="6.28512">
        <ele>267.38</ele>
        <time>2013-09-28T07:39:31Z</time>
      </trkpt>
      <trkpt lat="47.32255" lon="6.28532">
        <ele>267.86</ele>
        <time>2013-09-28T07:39:34Z</time>
      </trkpt>
      <trkpt lat="47.32274" lon="6.28553">
        <ele>267.38</ele>
        <time>2013-09-28T07:39:37Z</time>
      </trkpt>
      <trkpt lat="47.32293" lon="6.28573">
        <ele>267.38</ele>
        <time>2013-09-28T07:39:40Z</time>
      </trkpt>
      <trkpt lat="47.32311" lon="6.28592">
        <ele>267.38</ele>
        <time>2013-09-28T07:39:43Z</time>
      </trkpt>
      <trkpt lat="47.32328" lon="6.28609">
        <ele>267.38</ele>
        <time>2013-09-28T07:39:46Z</time>
      </trkpt>
      <trkpt lat="47.32346" lon="6.28627">
        <ele>267.38</ele>
        <time>2013-09-28T07:39:49Z</time>
      </trkpt>
      <trkpt lat="47.32364" lon="6.28644">
        <ele>267.38</ele>
        <time>2013-09-28T07:39:52Z</time>
      </trkpt>
      <trkpt lat="47.32381" lon="6.28662">
        <ele>267.86</ele>
        <time>2013-09-28T07:39:55Z</time>
      </trkpt>
      <trkpt lat="47.32398" lon="6.28679">
        <ele>267.38</ele>
        <time>2013-09-28T07:39:58Z</time>
      </trkpt>
      <trkpt lat="47.32414" lon="6.28696">
        <ele>267.38</ele>
        <time>2013-09-28T07:40:01Z</time>
      </trkpt>
      <trkpt lat="47.3243" lon="6.28712">
        <ele>267.38</ele>
        <time>2013-09-28T07:40:04Z</time>
      </trkpt>
      <trkpt lat="47.32445" lon="6.28728">
        <ele>267.38</ele>
        <time>2013-09-28T07:40:07Z</time>
      </trkpt>
      <trkpt lat="47.32464" lon="6.28749">
        <ele>267.38</ele>
        <time>2013-09-28T07:40:11Z</time>
      </trkpt>
      <trkpt lat="47.32477" lon="6.28767">
        <ele>267.38</ele>
        <time>2013-09-28T07:40:14Z</time>
      </trkpt>
      <trkpt lat="47.32494" lon="6.28791">
        <ele>267.86</ele>
        <time>2013-09-28T07:40:18Z</time>
      </trkpt>
      <trkpt lat="47.3251" lon="6.28816">
        <ele>267.86</ele>
        <time>2013-09-28T07:40:22Z</time>
      </trkpt>
      <trkpt lat="47.32528" lon="6.28839">
        <ele>267.38</ele>
        <time>2013-09-28T07:40:26Z</time>
      </trkpt>
      <trkpt lat="47.32546" lon="6.28862">
        <ele>266.9</ele>
        <time>2013-09-28T07:40:30Z</time>
      </trkpt>
      <trkpt lat="47.32565" lon="6.28883">
        <ele>267.38</ele>
        <time>2013-09-28T07:40:34Z</time>
      </trkpt>
      <trkpt lat="47.32583" lon="6.28904">
        <ele>267.38</ele>
        <time>2013-09-28T07:40:38Z</time>
      </trkpt>
      <trkpt lat="47.32602" lon="6.28925">
        <ele>267.38</ele>
        <time>2013-09-28T07:40:42Z</time>
      </trkpt>
      <trkpt lat="47.32619" lon="6.28946">
        <ele>267.38</ele>
        <time>2013-09-28T07:40:46Z</time>
      </trkpt>
      <trkpt lat="47.32637" lon="6.28968">
        <ele>267.38</ele>
        <time>2013-09-28T07:40:50Z</time>
      </trkpt>
      <trkpt lat="47.32656" lon="6.28989">
        <ele>267.38</ele>
        <time>2013-09-28T07:40:54Z</time>
      </trkpt>
      <trkpt lat="47.32669" lon="6.29006">
        <ele>267.38</ele>
        <time>2013-09-28T07:40:57Z</time>
      </trkpt>
      <trkpt lat="47.32684" lon="6.29031">
        <ele>267.86</ele>
        <time>2013-09-28T07:41:01Z</time>
      </trkpt>
      <trkpt lat="47.32699" lon="6.29056">
        <ele>267.86</ele>
        <time>2013-09-28T07:41:05Z</time>
      </trkpt>
      <trkpt lat="47.32715" lon="6.29082">
        <ele>267.86</ele>
        <time>2013-09-28T07:41:09Z</time>
      </trkpt>
      <trkpt lat="47.3273" lon="6.29107">
        <ele>267.86</ele>
        <time>2013-09-28T07:41:13Z</time>
      </trkpt>
      <trkpt lat="47.32745" lon="6.29133">
        <ele>267.86</ele>
        <time>2013-09-28T07:41:17Z</time>
      </trkpt>
      <trkpt lat="47.3276" lon="6.2916">
        <ele>267.38</ele>
        <time>2013-09-28T07:41:21Z</time>
      </trkpt>
      <trkpt lat="47.32776" lon="6.29186">
        <ele>267.38</ele>
        <time>2013-09-28T07:41:25Z</time>
      </trkpt>
      <trkpt lat="47.32791" lon="6.29213">
        <ele>267.38</ele>
        <time>2013-09-28T07:41:29Z</time>
      </trkpt>
      <trkpt lat="47.32805" lon="6.29239">
        <ele>267.86</ele>
        <time>2013-09-28T07:41:33Z</time>
      </trkpt>
      <trkpt lat="47.32819" lon="6.29265">
        <ele>267.38</ele>
        <time>2013-09-28T07:41:37Z</time>
      </trkpt>
      <trkpt lat="47.32833" lon="6.29292">
        <ele>267.38</ele>
        <time>2013-09-28T07:41:41Z</time>
      </trkpt>
      <trkpt lat="47.32844" lon="6.29321">
        <ele>267.38</ele>
        <time>2013-09-28T07:41:45Z</time>
      </trkpt>
      <trkpt lat="47.32853" lon="6.29349">
        <ele>267.38</ele>
        <time>2013-09-28T07:41:49Z</time>
      </trkpt>
      <trkpt lat="47.32861" lon="6.29378">
        <ele>267.86</ele>
        <time>2013-09-28T07:41:53Z</time>
      </trkpt>
      <trkpt lat="47.32868" lon="6.29408">
        <ele>267.38</ele>
        <time>2013-09-28T07:41:57Z</time>
      </trkpt>
      <trkpt lat="47.32875" lon="6.29438">
        <ele>267.38</ele>
        <time>2013-09-28T07:42:01Z</time>
      </trkpt>
      <trkpt lat="47.32882" lon="6.29469">
        <ele>268.35</ele>
        <time>2013-09-28T07:42:05Z</time>
      </trkpt>
      <trkpt lat="47.32887" lon="6.29499">
        <ele>267.86</ele>
        <time>2013-09-28T07:42:09Z</time>
      </trkpt>
      <trkpt lat="47.32893" lon="6.29531">
        <ele>267.38</ele>
        <time>2013-09-28T07:42:13Z</time>
      </trkpt>
      <trkpt lat="47.32897" lon="6.29558">
        <ele>267.38</ele>
        <time>2013-09-28T07:42:16Z</time>
      </trkpt>
      <trkpt lat="47.32903" lon="6.29593">
        <ele>267.86</ele>
        <time>2013-09-28T07:42:20Z</time>
      </trkpt>
      <trkpt lat="47.32908" lon="6.29627">
        <ele>267.38</ele>
        <time>2013-09-28T07:42:24Z</time>
      </trkpt>
      <trkpt lat="47.32911" lon="6.29661">
        <ele>267.38</ele>
        <time>2013-09-28T07:42:28Z</time>
      </trkpt>
      <trkpt lat="47.32914" lon="6.29693">
        <ele>267.38</ele>
        <time>2013-09-28T07:42:32Z</time>
      </trkpt>
      <trkpt lat="47.32917" lon="6.29726">
        <ele>267.86</ele>
        <time>2013-09-28T07:42:36Z</time>
      </trkpt>
      <trkpt lat="47.32919" lon="6.29761">
        <ele>267.38</ele>
        <time>2013-09-28T07:42:40Z</time>
      </trkpt>
      <trkpt lat="47.32922" lon="6.29794">
        <ele>267.86</ele>
        <time>2013-09-28T07:42:44Z</time>
      </trkpt>
      <trkpt lat="47.32923" lon="6.29825">
        <ele>267.86</ele>
        <time>2013-09-28T07:42:48Z</time>
      </trkpt>
      <trkpt lat="47.32921" lon="6.29857">
        <ele>268.35</ele>
        <time>2013-09-28T07:42:52Z</time>
      </trkpt>
      <trkpt lat="47.32919" lon="6.29888">
        <ele>267.86</ele>
        <time>2013-09-28T07:42:56Z</time>
      </trkpt>
      <trkpt lat="47.32917" lon="6.29919">
        <ele>267.38</ele>
        <time>2013-09-28T07:43:00Z</time>
      </trkpt>
      <trkpt lat="47.32914" lon="6.2995">
        <ele>267.86</ele>
        <time>2013-09-28T07:43:04Z</time>
      </trkpt>
      <trkpt lat="47.32911" lon="6.29984">
        <ele>267.86</ele>
        <time>2013-09-28T07:43:08Z</time>
      </trkpt>
      <trkpt lat="47.3291" lon="6.30015">
        <ele>268.35</ele>
        <time>2013-09-28T07:43:12Z</time>
      </trkpt>
      <trkpt lat="47.32907" lon="6.30047">
        <ele>268.35</ele>
        <time>2013-09-28T07:43:16Z</time>
      </trkpt>
      <trkpt lat="47.32903" lon="6.30078">
        <ele>268.83</ele>
        <time>2013-09-28T07:43:20Z</time>
      </trkpt>
      <trkpt lat="47.32898" lon="6.30109">
        <ele>268.83</ele>
        <time>2013-09-28T07:43:24Z</time>
      </trkpt>
      <trkpt lat="47.3289" lon="6.30136">
        <ele>268.83</ele>
        <time>2013-09-28T07:43:28Z</time>
      </trkpt>
      <trkpt lat="47.32876" lon="6.30162">
        <ele>268.83</ele>
        <time>2013-09-28T07:43:32Z</time>
      </trkpt>
      <trkpt lat="47.32861" lon="6.30186">
        <ele>269.31</ele>
        <time>2013-09-28T07:43:36Z</time>
      </trkpt>
      <trkpt lat="47.3285" lon="6.30212">
        <ele>270.27</ele>
        <time>2013-09-28T07:43:40Z</time>
      </trkpt>
      <trkpt lat="47.32844" lon="6.30241">
        <ele>269.79</ele>
        <time>2013-09-28T07:43:44Z</time>
      </trkpt>
      <trkpt lat="47.32842" lon="6.30271">
        <ele>269.79</ele>
        <time>2013-09-28T07:43:48Z</time>
      </trkpt>
      <trkpt lat="47.32842" lon="6.30302">
        <ele>270.27</ele>
        <time>2013-09-28T07:43:52Z</time>
      </trkpt>
      <trkpt lat="47.32844" lon="6.30331">
        <ele>270.75</ele>
        <time>2013-09-28T07:43:56Z</time>
      </trkpt>
      <trkpt lat="47.32845" lon="6.30358">
        <ele>271.23</ele>
        <time>2013-09-28T07:44:00Z</time>
      </trkpt>
      <trkpt lat="47.32843" lon="6.30385">
        <ele>271.23</ele>
        <time>2013-09-28T07:44:04Z</time>
      </trkpt>
      <trkpt lat="47.32839" lon="6.30412">
        <ele>272.67</ele>
        <time>2013-09-28T07:44:08Z</time>
      </trkpt>
      <trkpt lat="47.32838" lon="6.30441">
        <ele>273.15</ele>
        <time>2013-09-28T07:44:13Z</time>
      </trkpt>
      <trkpt lat="47.32844" lon="6.30467">
        <ele>273.15</ele>
        <time>2013-09-28T07:44:18Z</time>
      </trkpt>
      <trkpt lat="47.3285" lon="6.30496">
        <ele>274.11</ele>
        <time>2013-09-28T07:44:23Z</time>
      </trkpt>
      <trkpt lat="47.3285" lon="6.30528">
        <ele>274.59</ele>
        <time>2013-09-28T07:44:28Z</time>
      </trkpt>
      <trkpt lat="47.32848" lon="6.30557">
        <ele>276.04</ele>
        <time>2013-09-28T07:44:33Z</time>
      </trkpt>
      <trkpt lat="47.32853" lon="6.30589">
        <ele>277</ele>
        <time>2013-09-28T07:44:39Z</time>
      </trkpt>
      <trkpt lat="47.32859" lon="6.30618">
        <ele>278.44</ele>
        <time>2013-09-28T07:44:46Z</time>
      </trkpt>
      <trkpt lat="47.32859" lon="6.30651">
        <ele>279.88</ele>
        <time>2013-09-28T07:44:53Z</time>
      </trkpt>
      <trkpt lat="47.32859" lon="6.30681">
        <ele>281.32</ele>
        <time>2013-09-28T07:45:00Z</time>
      </trkpt>
      <trkpt lat="47.32866" lon="6.30714">
        <ele>282.28</ele>
        <time>2013-09-28T07:45:07Z</time>
      </trkpt>
      <trkpt lat="47.32869" lon="6.30745">
        <ele>283.25</ele>
        <time>2013-09-28T07:45:14Z</time>
      </trkpt>
      <trkpt lat="47.32869" lon="6.30775">
        <ele>284.69</ele>
        <time>2013-09-28T07:45:21Z</time>
      </trkpt>
      <trkpt lat="47.32867" lon="6.30805">
        <ele>285.65</ele>
        <time>2013-09-28T07:45:28Z</time>
      </trkpt>
      <trkpt lat="47.32868" lon="6.30834">
        <ele>287.09</ele>
        <time>2013-09-28T07:45:34Z</time>
      </trkpt>
      <trkpt lat="47.32871" lon="6.30862">
        <ele>288.05</ele>
        <time>2013-09-28T07:45:40Z</time>
      </trkpt>
      <trkpt lat="47.32873" lon="6.30889">
        <ele>287.09</ele>
        <time>2013-09-28T07:45:45Z</time>
      </trkpt>
      <trkpt lat="47.32875" lon="6.30925">
        <ele>285.65</ele>
        <time>2013-09-28T07:45:50Z</time>
      </trkpt>
      <trkpt lat="47.32874" lon="6.3096">
        <ele>284.21</ele>
        <time>2013-09-28T07:45:54Z</time>
      </trkpt>
      <trkpt lat="47.32872" lon="6.30993">
        <ele>282.28</ele>
        <time>2013-09-28T07:45:57Z</time>
      </trkpt>
      <trkpt lat="47.32873" lon="6.31023">
        <ele>279.88</ele>
        <time>2013-09-28T07:46:00Z</time>
      </trkpt>
      <trkpt lat="47.32879" lon="6.31051">
        <ele>278.92</ele>
        <time>2013-09-28T07:46:03Z</time>
      </trkpt>
      <trkpt lat="47.32888" lon="6.31082">
        <ele>278.44</ele>
        <time>2013-09-28T07:46:06Z</time>
      </trkpt>
      <trkpt lat="47.32903" lon="6.31113">
        <ele>277.48</ele>
        <time>2013-09-28T07:46:09Z</time>
      </trkpt>
      <trkpt lat="47.32919" lon="6.31144">
        <ele>276.04</ele>
        <time>2013-09-28T07:46:12Z</time>
      </trkpt>
      <trkpt lat="47.32935" lon="6.31186">
        <ele>275.56</ele>
        <time>2013-09-28T07:46:15Z</time>
      </trkpt>
      <trkpt lat="47.32948" lon="6.31225">
        <ele>275.56</ele>
        <time>2013-09-28T07:46:18Z</time>
      </trkpt>
      <trkpt lat="47.32959" lon="6.31258">
        <ele>277</ele>
        <time>2013-09-28T07:46:21Z</time>
      </trkpt>
      <trkpt lat="47.32967" lon="6.31292">
        <ele>279.4</ele>
        <time>2013-09-28T07:46:26Z</time>
      </trkpt>
      <trkpt lat="47.32977" lon="6.31319">
        <ele>279.4</ele>
        <time>2013-09-28T07:46:30Z</time>
      </trkpt>
      <trkpt lat="47.32987" lon="6.31348">
        <ele>279.4</ele>
        <time>2013-09-28T07:46:34Z</time>
      </trkpt>
      <trkpt lat="47.32994" lon="6.31376">
        <ele>280.36</ele>
        <time>2013-09-28T07:46:38Z</time>
      </trkpt>
      <trkpt lat="47.32993" lon="6.31409">
        <ele>281.32</ele>
        <time>2013-09-28T07:46:43Z</time>
      </trkpt>
      <trkpt lat="47.32993" lon="6.31439">
        <ele>282.28</ele>
        <time>2013-09-28T07:46:48Z</time>
      </trkpt>
      <trkpt lat="47.33003" lon="6.31462">
        <ele>283.73</ele>
        <time>2013-09-28T07:46:53Z</time>
      </trkpt>
      <trkpt lat="47.33022" lon="6.31477">
        <ele>285.65</ele>
        <time>2013-09-28T07:47:00Z</time>
      </trkpt>
      <trkpt lat="47.3304" lon="6.31489">
        <ele>287.09</ele>
        <time>2013-09-28T07:47:06Z</time>
      </trkpt>
      <trkpt lat="47.33058" lon="6.31505">
        <ele>288.53</ele>
        <time>2013-09-28T07:47:13Z</time>
      </trkpt>
      <trkpt lat="47.33077" lon="6.31522">
        <ele>289.49</ele>
        <time>2013-09-28T07:47:20Z</time>
      </trkpt>
      <trkpt lat="47.33095" lon="6.31533">
        <ele>290.46</ele>
        <time>2013-09-28T07:47:26Z</time>
      </trkpt>
      <trkpt lat="47.33113" lon="6.31546">
        <ele>290.94</ele>
        <time>2013-09-28T07:47:32Z</time>
      </trkpt>
      <trkpt lat="47.33132" lon="6.31554">
        <ele>291.42</ele>
        <time>2013-09-28T07:47:37Z</time>
      </trkpt>
      <trkpt lat="47.33151" lon="6.31562">
        <ele>291.9</ele>
        <time>2013-09-28T07:47:42Z</time>
      </trkpt>
      <trkpt lat="47.3317" lon="6.31571">
        <ele>291.9</ele>
        <time>2013-09-28T07:47:47Z</time>
      </trkpt>
      <trkpt lat="47.33191" lon="6.31581">
        <ele>291.42</ele>
        <time>2013-09-28T07:47:52Z</time>
      </trkpt>
      <trkpt lat="47.33209" lon="6.31591">
        <ele>290.94</ele>
        <time>2013-09-28T07:47:56Z</time>
      </trkpt>
      <trkpt lat="47.33229" lon="6.31602">
        <ele>290.94</ele>
        <time>2013-09-28T07:48:00Z</time>
      </trkpt>
      <trkpt lat="47.33248" lon="6.31612">
        <ele>290.46</ele>
        <time>2013-09-28T07:48:04Z</time>
      </trkpt>
      <trkpt lat="47.33266" lon="6.31623">
        <ele>289.97</ele>
        <time>2013-09-28T07:48:08Z</time>
      </trkpt>
      <trkpt lat="47.33287" lon="6.31634">
        <ele>289.01</ele>
        <time>2013-09-28T07:48:12Z</time>
      </trkpt>
      <trkpt lat="47.33305" lon="6.31642">
        <ele>288.53</ele>
        <time>2013-09-28T07:48:15Z</time>
      </trkpt>
      <trkpt lat="47.33324" lon="6.31651">
        <ele>287.09</ele>
        <time>2013-09-28T07:48:18Z</time>
      </trkpt>
      <trkpt lat="47.33343" lon="6.31663">
        <ele>286.13</ele>
        <time>2013-09-28T07:48:21Z</time>
      </trkpt>
      <trkpt lat="47.33361" lon="6.31675">
        <ele>285.65</ele>
        <time>2013-09-28T07:48:24Z</time>
      </trkpt>
      <trkpt lat="47.3338" lon="6.31687">
        <ele>285.17</ele>
        <time>2013-09-28T07:48:27Z</time>
      </trkpt>
      <trkpt lat="47.33398" lon="6.317">
        <ele>284.69</ele>
        <time>2013-09-28T07:48:30Z</time>
      </trkpt>
      <trkpt lat="47.33416" lon="6.31714">
        <ele>284.21</ele>
        <time>2013-09-28T07:48:33Z</time>
      </trkpt>
      <trkpt lat="47.33433" lon="6.31726">
        <ele>285.17</ele>
        <time>2013-09-28T07:48:36Z</time>
      </trkpt>
      <trkpt lat="47.33453" lon="6.31741">
        <ele>284.69</ele>
        <time>2013-09-28T07:48:40Z</time>
      </trkpt>
      <trkpt lat="47.33472" lon="6.31757">
        <ele>285.17</ele>
        <time>2013-09-28T07:48:44Z</time>
      </trkpt>
      <trkpt lat="47.33489" lon="6.31771">
        <ele>285.65</ele>
        <time>2013-09-28T07:48:48Z</time>
      </trkpt>
      <trkpt lat="47.33505" lon="6.31785">
        <ele>286.13</ele>
        <time>2013-09-28T07:48:52Z</time>
      </trkpt>
      <trkpt lat="47.33524" lon="6.31802">
        <ele>287.09</ele>
        <time>2013-09-28T07:48:57Z</time>
      </trkpt>
      <trkpt lat="47.33542" lon="6.31817">
        <ele>288.53</ele>
        <time>2013-09-28T07:49:02Z</time>
      </trkpt>
      <trkpt lat="47.33559" lon="6.31833">
        <ele>288.05</ele>
        <time>2013-09-28T07:49:07Z</time>
      </trkpt>
      <trkpt lat="47.33575" lon="6.31851">
        <ele>289.01</ele>
        <time>2013-09-28T07:49:12Z</time>
      </trkpt>
      <trkpt lat="47.33593" lon="6.31869">
        <ele>289.49</ele>
        <time>2013-09-28T07:49:17Z</time>
      </trkpt>
      <trkpt lat="47.33609" lon="6.31888">
        <ele>290.46</ele>
        <time>2013-09-28T07:49:22Z</time>
      </trkpt>
      <trkpt lat="47.33625" lon="6.31907">
        <ele>290.94</ele>
        <time>2013-09-28T07:49:27Z</time>
      </trkpt>
      <trkpt lat="47.3364" lon="6.31927">
        <ele>291.9</ele>
        <time>2013-09-28T07:49:32Z</time>
      </trkpt>
      <trkpt lat="47.33655" lon="6.31947">
        <ele>292.86</ele>
        <time>2013-09-28T07:49:37Z</time>
      </trkpt>
      <trkpt lat="47.33671" lon="6.31965">
        <ele>293.34</ele>
        <time>2013-09-28T07:49:42Z</time>
      </trkpt>
      <trkpt lat="47.33686" lon="6.31982">
        <ele>294.3</ele>
        <time>2013-09-28T07:49:47Z</time>
      </trkpt>
      <trkpt lat="47.33701" lon="6.32">
        <ele>294.78</ele>
        <time>2013-09-28T07:49:52Z</time>
      </trkpt>
      <trkpt lat="47.33717" lon="6.32017">
        <ele>294.78</ele>
        <time>2013-09-28T07:49:57Z</time>
      </trkpt>
      <trkpt lat="47.33731" lon="6.32034">
        <ele>295.26</ele>
        <time>2013-09-28T07:50:02Z</time>
      </trkpt>
      <trkpt lat="47.33744" lon="6.32052">
        <ele>296.22</ele>
        <time>2013-09-28T07:50:07Z</time>
      </trkpt>
      <trkpt lat="47.33758" lon="6.32069">
        <ele>296.7</ele>
        <time>2013-09-28T07:50:12Z</time>
      </trkpt>
      <trkpt lat="47.33775" lon="6.32088">
        <ele>297.67</ele>
        <time>2013-09-28T07:50:18Z</time>
      </trkpt>
      <trkpt lat="47.33791" lon="6.32107">
        <ele>298.63</ele>
        <time>2013-09-28T07:50:24Z</time>
      </trkpt>
      <trkpt lat="47.33807" lon="6.32124">
        <ele>299.11</ele>
        <time>2013-09-28T07:50:29Z</time>
      </trkpt>
      <trkpt lat="47.33823" lon="6.32142">
        <ele>298.63</ele>
        <time>2013-09-28T07:50:34Z</time>
      </trkpt>
      <trkpt lat="47.33838" lon="6.32164">
        <ele>299.11</ele>
        <time>2013-09-28T07:50:39Z</time>
      </trkpt>
      <trkpt lat="47.33852" lon="6.32187">
        <ele>298.63</ele>
        <time>2013-09-28T07:50:44Z</time>
      </trkpt>
      <trkpt lat="47.33865" lon="6.32212">
        <ele>299.11</ele>
        <time>2013-09-28T07:50:49Z</time>
      </trkpt>
      <trkpt lat="47.33879" lon="6.32238">
        <ele>299.59</ele>
        <time>2013-09-28T07:50:54Z</time>
      </trkpt>
      <trkpt lat="47.33891" lon="6.3226">
        <ele>300.07</ele>
        <time>2013-09-28T07:50:59Z</time>
      </trkpt>
      <trkpt lat="47.33902" lon="6.3228">
        <ele>301.03</ele>
        <time>2013-09-28T07:51:08Z</time>
      </trkpt>
      <trkpt lat="47.33907" lon="6.32288">
        <ele>301.03</ele>
        <time>2013-09-28T07:56:52Z</time>
      </trkpt>
      <trkpt lat="47.33916" lon="6.32322">
        <ele>302.47</ele>
        <time>2013-09-28T07:58:25Z</time>
      </trkpt>
      <trkpt lat="47.33921" lon="6.32355">
        <ele>302.47</ele>
        <time>2013-09-28T07:58:30Z</time>
      </trkpt>
      <trkpt lat="47.33925" lon="6.32387">
        <ele>303.43</ele>
        <time>2013-09-28T07:58:37Z</time>
      </trkpt>
      <trkpt lat="47.33926" lon="6.32414">
        <ele>304.88</ele>
        <time>2013-09-28T07:58:43Z</time>
      </trkpt>
      <trkpt lat="47.33934" lon="6.32443">
        <ele>305.84</ele>
        <time>2013-09-28T07:58:51Z</time>
      </trkpt>
      <trkpt lat="47.33942" lon="6.32471">
        <ele>305.36</ele>
        <time>2013-09-28T07:58:57Z</time>
      </trkpt>
      <trkpt lat="47.33953" lon="6.32497">
        <ele>305.84</ele>
        <time>2013-09-28T07:59:02Z</time>
      </trkpt>
      <trkpt lat="47.33963" lon="6.3252">
        <ele>304.88</ele>
        <time>2013-09-28T07:59:06Z</time>
      </trkpt>
      <trkpt lat="47.33974" lon="6.32545">
        <ele>304.39</ele>
        <time>2013-09-28T07:59:10Z</time>
      </trkpt>
      <trkpt lat="47.33986" lon="6.32573">
        <ele>303.43</ele>
        <time>2013-09-28T07:59:14Z</time>
      </trkpt>
      <trkpt lat="47.33997" lon="6.32597">
        <ele>302.95</ele>
        <time>2013-09-28T07:59:17Z</time>
      </trkpt>
      <trkpt lat="47.34008" lon="6.32621">
        <ele>301.51</ele>
        <time>2013-09-28T07:59:20Z</time>
      </trkpt>
      <trkpt lat="47.34019" lon="6.32646">
        <ele>301.03</ele>
        <time>2013-09-28T07:59:23Z</time>
      </trkpt>
      <trkpt lat="47.3403" lon="6.32672">
        <ele>299.59</ele>
        <time>2013-09-28T07:59:26Z</time>
      </trkpt>
      <trkpt lat="47.34038" lon="6.32702">
        <ele>298.63</ele>
        <time>2013-09-28T07:59:29Z</time>
      </trkpt>
      <trkpt lat="47.34043" lon="6.32732">
        <ele>297.67</ele>
        <time>2013-09-28T07:59:32Z</time>
      </trkpt>
      <trkpt lat="47.34049" lon="6.32764">
        <ele>297.67</ele>
        <time>2013-09-28T07:59:35Z</time>
      </trkpt>
      <trkpt lat="47.34059" lon="6.32795">
        <ele>295.26</ele>
        <time>2013-09-28T07:59:38Z</time>
      </trkpt>
      <trkpt lat="47.34069" lon="6.32829">
        <ele>293.34</ele>
        <time>2013-09-28T07:59:41Z</time>
      </trkpt>
      <trkpt lat="47.34073" lon="6.32856">
        <ele>291.42</ele>
        <time>2013-09-28T07:59:43Z</time>
      </trkpt>
      <trkpt lat="47.34078" lon="6.32886">
        <ele>289.49</ele>
        <time>2013-09-28T07:59:45Z</time>
      </trkpt>
      <trkpt lat="47.34087" lon="6.32915">
        <ele>286.61</ele>
        <time>2013-09-28T07:59:47Z</time>
      </trkpt>
      <trkpt lat="47.341" lon="6.32943">
        <ele>283.73</ele>
        <time>2013-09-28T07:59:49Z</time>
      </trkpt>
      <trkpt lat="47.34111" lon="6.32973">
        <ele>282.28</ele>
        <time>2013-09-28T07:59:51Z</time>
      </trkpt>
      <trkpt lat="47.3412" lon="6.33003">
        <ele>280.84</ele>
        <time>2013-09-28T07:59:53Z</time>
      </trkpt>
      <trkpt lat="47.34127" lon="6.33036">
        <ele>278.92</ele>
        <time>2013-09-28T07:59:55Z</time>
      </trkpt>
      <trkpt lat="47.34129" lon="6.33069">
        <ele>277.96</ele>
        <time>2013-09-28T07:59:57Z</time>
      </trkpt>
      <trkpt lat="47.34129" lon="6.33101">
        <ele>277.48</ele>
        <time>2013-09-28T07:59:59Z</time>
      </trkpt>
      <trkpt lat="47.34127" lon="6.33131">
        <ele>277</ele>
        <time>2013-09-28T08:00:01Z</time>
      </trkpt>
      <trkpt lat="47.34125" lon="6.33159">
        <ele>276.04</ele>
        <time>2013-09-28T08:00:03Z</time>
      </trkpt>
      <trkpt lat="47.34124" lon="6.33187">
        <ele>275.07</ele>
        <time>2013-09-28T08:00:05Z</time>
      </trkpt>
      <trkpt lat="47.34123" lon="6.33216">
        <ele>273.63</ele>
        <time>2013-09-28T08:00:07Z</time>
      </trkpt>
      <trkpt lat="47.34124" lon="6.33245">
        <ele>272.19</ele>
        <time>2013-09-28T08:00:09Z</time>
      </trkpt>
      <trkpt lat="47.34123" lon="6.33274">
        <ele>271.71</ele>
        <time>2013-09-28T08:00:11Z</time>
      </trkpt>
      <trkpt lat="47.34121" lon="6.33301">
        <ele>269.79</ele>
        <time>2013-09-28T08:00:13Z</time>
      </trkpt>
      <trkpt lat="47.34117" lon="6.33328">
        <ele>269.31</ele>
        <time>2013-09-28T08:00:15Z</time>
      </trkpt>
      <trkpt lat="47.34113" lon="6.33354">
        <ele>270.27</ele>
        <time>2013-09-28T08:00:17Z</time>
      </trkpt>
      <trkpt lat="47.34106" lon="6.33391">
        <ele>270.27</ele>
        <time>2013-09-28T08:00:20Z</time>
      </trkpt>
      <trkpt lat="47.34101" lon="6.33425">
        <ele>270.27</ele>
        <time>2013-09-28T08:00:23Z</time>
      </trkpt>
      <trkpt lat="47.34095" lon="6.33456">
        <ele>270.27</ele>
        <time>2013-09-28T08:00:26Z</time>
      </trkpt>
      <trkpt lat="47.3409" lon="6.33486">
        <ele>270.27</ele>
        <time>2013-09-28T08:00:29Z</time>
      </trkpt>
      <trkpt lat="47.34086" lon="6.33513">
        <ele>270.27</ele>
        <time>2013-09-28T08:00:32Z</time>
      </trkpt>
      <trkpt lat="47.34082" lon="6.3354">
        <ele>269.79</ele>
        <time>2013-09-28T08:00:35Z</time>
      </trkpt>
      <trkpt lat="47.34077" lon="6.33567">
        <ele>270.27</ele>
        <time>2013-09-28T08:00:38Z</time>
      </trkpt>
      <trkpt lat="47.34073" lon="6.33594">
        <ele>270.27</ele>
        <time>2013-09-28T08:00:41Z</time>
      </trkpt>
      <trkpt lat="47.34068" lon="6.33621">
        <ele>270.27</ele>
        <time>2013-09-28T08:00:44Z</time>
      </trkpt>
      <trkpt lat="47.34063" lon="6.33646">
        <ele>270.27</ele>
        <time>2013-09-28T08:00:47Z</time>
      </trkpt>
      <trkpt lat="47.34055" lon="6.33671">
        <ele>269.79</ele>
        <time>2013-09-28T08:00:50Z</time>
      </trkpt>
      <trkpt lat="47.34045" lon="6.33695">
        <ele>269.79</ele>
        <time>2013-09-28T08:00:53Z</time>
      </trkpt>
      <trkpt lat="47.34036" lon="6.33721">
        <ele>269.79</ele>
        <time>2013-09-28T08:00:56Z</time>
      </trkpt>
      <trkpt lat="47.34026" lon="6.33744">
        <ele>271.23</ele>
        <time>2013-09-28T08:00:59Z</time>
      </trkpt>
      <trkpt lat="47.34013" lon="6.33773">
        <ele>271.23</ele>
        <time>2013-09-28T08:01:03Z</time>
      </trkpt>
      <trkpt lat="47.34002" lon="6.33795">
        <ele>271.23</ele>
        <time>2013-09-28T08:01:06Z</time>
      </trkpt>
      <trkpt lat="47.33989" lon="6.33815">
        <ele>271.23</ele>
        <time>2013-09-28T08:01:09Z</time>
      </trkpt>
      <trkpt lat="47.33976" lon="6.33836">
        <ele>271.23</ele>
        <time>2013-09-28T08:01:12Z</time>
      </trkpt>
      <trkpt lat="47.33964" lon="6.33859">
        <ele>271.23</ele>
        <time>2013-09-28T08:01:15Z</time>
      </trkpt>
      <trkpt lat="47.33953" lon="6.33883">
        <ele>270.75</ele>
        <time>2013-09-28T08:01:18Z</time>
      </trkpt>
      <trkpt lat="47.33941" lon="6.33906">
        <ele>270.75</ele>
        <time>2013-09-28T08:01:21Z</time>
      </trkpt>
      <trkpt lat="47.3393" lon="6.33929">
        <ele>270.75</ele>
        <time>2013-09-28T08:01:24Z</time>
      </trkpt>
      <trkpt lat="47.33919" lon="6.33952">
        <ele>270.75</ele>
        <time>2013-09-28T08:01:27Z</time>
      </trkpt>
      <trkpt lat="47.33908" lon="6.33975">
        <ele>271.23</ele>
        <time>2013-09-28T08:01:30Z</time>
      </trkpt>
      <trkpt lat="47.33897" lon="6.34">
        <ele>270.75</ele>
        <time>2013-09-28T08:01:33Z</time>
      </trkpt>
      <trkpt lat="47.33885" lon="6.34023">
        <ele>271.23</ele>
        <time>2013-09-28T08:01:36Z</time>
      </trkpt>
      <trkpt lat="47.33875" lon="6.34046">
        <ele>270.75</ele>
        <time>2013-09-28T08:01:39Z</time>
      </trkpt>
      <trkpt lat="47.33863" lon="6.34069">
        <ele>270.75</ele>
        <time>2013-09-28T08:01:42Z</time>
      </trkpt>
      <trkpt lat="47.33852" lon="6.34093">
        <ele>270.27</ele>
        <time>2013-09-28T08:01:45Z</time>
      </trkpt>
      <trkpt lat="47.33841" lon="6.34116">
        <ele>270.75</ele>
        <time>2013-09-28T08:01:48Z</time>
      </trkpt>
      <trkpt lat="47.3383" lon="6.3414">
        <ele>270.75</ele>
        <time>2013-09-28T08:01:51Z</time>
      </trkpt>
      <trkpt lat="47.33818" lon="6.34164">
        <ele>271.23</ele>
        <time>2013-09-28T08:01:54Z</time>
      </trkpt>
      <trkpt lat="47.33807" lon="6.34188">
        <ele>270.75</ele>
        <time>2013-09-28T08:01:57Z</time>
      </trkpt>
      <trkpt lat="47.33795" lon="6.34212">
        <ele>270.75</ele>
        <time>2013-09-28T08:02:00Z</time>
      </trkpt>
      <trkpt lat="47.33784" lon="6.34237">
        <ele>271.23</ele>
        <time>2013-09-28T08:02:03Z</time>
      </trkpt>
      <trkpt lat="47.33772" lon="6.34261">
        <ele>270.75</ele>
        <time>2013-09-28T08:02:06Z</time>
      </trkpt>
      <trkpt lat="47.3376" lon="6.34285">
        <ele>270.75</ele>
        <time>2013-09-28T08:02:09Z</time>
      </trkpt>
      <trkpt lat="47.33748" lon="6.34308">
        <ele>271.23</ele>
        <time>2013-09-28T08:02:12Z</time>
      </trkpt>
      <trkpt lat="47.33735" lon="6.3433">
        <ele>271.23</ele>
        <time>2013-09-28T08:02:15Z</time>
      </trkpt>
      <trkpt lat="47.33722" lon="6.34352">
        <ele>270.75</ele>
        <time>2013-09-28T08:02:18Z</time>
      </trkpt>
      <trkpt lat="47.33708" lon="6.34374">
        <ele>270.75</ele>
        <time>2013-09-28T08:02:21Z</time>
      </trkpt>
      <trkpt lat="47.33693" lon="6.34395">
        <ele>270.75</ele>
        <time>2013-09-28T08:02:24Z</time>
      </trkpt>
      <trkpt lat="47.33677" lon="6.34416">
        <ele>270.75</ele>
        <time>2013-09-28T08:02:27Z</time>
      </trkpt>
      <trkpt lat="47.33661" lon="6.34434">
        <ele>270.75</ele>
        <time>2013-09-28T08:02:30Z</time>
      </trkpt>
      <trkpt lat="47.33644" lon="6.34453">
        <ele>270.75</ele>
        <time>2013-09-28T08:02:33Z</time>
      </trkpt>
      <trkpt lat="47.33627" lon="6.3447">
        <ele>270.75</ele>
        <time>2013-09-28T08:02:36Z</time>
      </trkpt>
      <trkpt lat="47.3361" lon="6.34487">
        <ele>271.23</ele>
        <time>2013-09-28T08:02:39Z</time>
      </trkpt>
      <trkpt lat="47.33594" lon="6.34506">
        <ele>271.23</ele>
        <time>2013-09-28T08:02:42Z</time>
      </trkpt>
      <trkpt lat="47.33578" lon="6.34526">
        <ele>270.75</ele>
        <time>2013-09-28T08:02:45Z</time>
      </trkpt>
      <trkpt lat="47.33561" lon="6.34543">
        <ele>270.75</ele>
        <time>2013-09-28T08:02:48Z</time>
      </trkpt>
      <trkpt lat="47.33544" lon="6.34557">
        <ele>270.75</ele>
        <time>2013-09-28T08:02:51Z</time>
      </trkpt>
      <trkpt lat="47.33527" lon="6.34569">
        <ele>270.75</ele>
        <time>2013-09-28T08:02:54Z</time>
      </trkpt>
      <trkpt lat="47.3351" lon="6.34581">
        <ele>270.75</ele>
        <time>2013-09-28T08:02:57Z</time>
      </trkpt>
      <trkpt lat="47.33492" lon="6.34595">
        <ele>272.19</ele>
        <time>2013-09-28T08:03:01Z</time>
      </trkpt>
      <trkpt lat="47.33491" lon="6.3462">
        <ele>273.63</ele>
        <time>2013-09-28T08:03:08Z</time>
      </trkpt>
      <trkpt lat="47.33481" lon="6.34641">
        <ele>271.71</ele>
        <time>2013-09-28T08:03:12Z</time>
      </trkpt>
      <trkpt lat="47.33461" lon="6.34657">
        <ele>271.23</ele>
        <time>2013-09-28T08:03:17Z</time>
      </trkpt>
      <trkpt lat="47.33445" lon="6.34674">
        <ele>271.23</ele>
        <time>2013-09-28T08:03:21Z</time>
      </trkpt>
      <trkpt lat="47.33431" lon="6.34695">
        <ele>271.23</ele>
        <time>2013-09-28T08:03:25Z</time>
      </trkpt>
      <trkpt lat="47.33417" lon="6.34717">
        <ele>271.71</ele>
        <time>2013-09-28T08:03:29Z</time>
      </trkpt>
      <trkpt lat="47.33404" lon="6.34745">
        <ele>271.23</ele>
        <time>2013-09-28T08:03:33Z</time>
      </trkpt>
      <trkpt lat="47.33396" lon="6.34772">
        <ele>271.71</ele>
        <time>2013-09-28T08:03:37Z</time>
      </trkpt>
      <trkpt lat="47.3339" lon="6.34803">
        <ele>271.23</ele>
        <time>2013-09-28T08:03:41Z</time>
      </trkpt>
      <trkpt lat="47.33386" lon="6.34841">
        <ele>271.71</ele>
        <time>2013-09-28T08:03:45Z</time>
      </trkpt>
      <trkpt lat="47.33384" lon="6.3487">
        <ele>271.71</ele>
        <time>2013-09-28T08:03:48Z</time>
      </trkpt>
      <trkpt lat="47.33384" lon="6.34908">
        <ele>271.71</ele>
        <time>2013-09-28T08:03:52Z</time>
      </trkpt>
      <trkpt lat="47.33386" lon="6.34945">
        <ele>272.19</ele>
        <time>2013-09-28T08:03:56Z</time>
      </trkpt>
      <trkpt lat="47.33389" lon="6.34972">
        <ele>271.71</ele>
        <time>2013-09-28T08:03:59Z</time>
      </trkpt>
      <trkpt lat="47.33396" lon="6.35006">
        <ele>271.71</ele>
        <time>2013-09-28T08:04:03Z</time>
      </trkpt>
      <trkpt lat="47.33405" lon="6.35037">
        <ele>271.71</ele>
        <time>2013-09-28T08:04:07Z</time>
      </trkpt>
      <trkpt lat="47.33419" lon="6.35068">
        <ele>272.19</ele>
        <time>2013-09-28T08:04:11Z</time>
      </trkpt>
      <trkpt lat="47.33433" lon="6.35095">
        <ele>272.67</ele>
        <time>2013-09-28T08:04:15Z</time>
      </trkpt>
      <trkpt lat="47.33452" lon="6.35119">
        <ele>272.19</ele>
        <time>2013-09-28T08:04:19Z</time>
      </trkpt>
      <trkpt lat="47.33473" lon="6.35139">
        <ele>272.67</ele>
        <time>2013-09-28T08:04:23Z</time>
      </trkpt>
      <trkpt lat="47.33496" lon="6.35153">
        <ele>272.67</ele>
        <time>2013-09-28T08:04:27Z</time>
      </trkpt>
      <trkpt lat="47.33519" lon="6.35167">
        <ele>272.67</ele>
        <time>2013-09-28T08:04:31Z</time>
      </trkpt>
      <trkpt lat="47.33542" lon="6.35181">
        <ele>272.19</ele>
        <time>2013-09-28T08:04:35Z</time>
      </trkpt>
      <trkpt lat="47.33566" lon="6.35192">
        <ele>272.19</ele>
        <time>2013-09-28T08:04:39Z</time>
      </trkpt>
      <trkpt lat="47.33584" lon="6.352">
        <ele>272.67</ele>
        <time>2013-09-28T08:04:42Z</time>
      </trkpt>
      <trkpt lat="47.33601" lon="6.35208">
        <ele>272.19</ele>
        <time>2013-09-28T08:04:45Z</time>
      </trkpt>
      <trkpt lat="47.33625" lon="6.3522">
        <ele>272.19</ele>
        <time>2013-09-28T08:04:49Z</time>
      </trkpt>
      <trkpt lat="47.33643" lon="6.35228">
        <ele>272.67</ele>
        <time>2013-09-28T08:04:52Z</time>
      </trkpt>
      <trkpt lat="47.33661" lon="6.35236">
        <ele>272.19</ele>
        <time>2013-09-28T08:04:55Z</time>
      </trkpt>
      <trkpt lat="47.33679" lon="6.35244">
        <ele>272.67</ele>
        <time>2013-09-28T08:04:58Z</time>
      </trkpt>
      <trkpt lat="47.33696" lon="6.35251">
        <ele>272.19</ele>
        <time>2013-09-28T08:05:01Z</time>
      </trkpt>
      <trkpt lat="47.33714" lon="6.35259">
        <ele>272.67</ele>
        <time>2013-09-28T08:05:04Z</time>
      </trkpt>
      <trkpt lat="47.33732" lon="6.35268">
        <ele>272.67</ele>
        <time>2013-09-28T08:05:07Z</time>
      </trkpt>
      <trkpt lat="47.33749" lon="6.35277">
        <ele>272.67</ele>
        <time>2013-09-28T08:05:10Z</time>
      </trkpt>
      <trkpt lat="47.33767" lon="6.35287">
        <ele>272.19</ele>
        <time>2013-09-28T08:05:13Z</time>
      </trkpt>
      <trkpt lat="47.33786" lon="6.35297">
        <ele>272.67</ele>
        <time>2013-09-28T08:05:16Z</time>
      </trkpt>
      <trkpt lat="47.33803" lon="6.35309">
        <ele>272.67</ele>
        <time>2013-09-28T08:05:19Z</time>
      </trkpt>
      <trkpt lat="47.33819" lon="6.3532">
        <ele>272.19</ele>
        <time>2013-09-28T08:05:22Z</time>
      </trkpt>
      <trkpt lat="47.33836" lon="6.35332">
        <ele>272.19</ele>
        <time>2013-09-28T08:05:25Z</time>
      </trkpt>
      <trkpt lat="47.33852" lon="6.35346">
        <ele>272.67</ele>
        <time>2013-09-28T08:05:28Z</time>
      </trkpt>
      <trkpt lat="47.33868" lon="6.3536">
        <ele>272.19</ele>
        <time>2013-09-28T08:05:31Z</time>
      </trkpt>
      <trkpt lat="47.33883" lon="6.35376">
        <ele>272.67</ele>
        <time>2013-09-28T08:05:34Z</time>
      </trkpt>
      <trkpt lat="47.33899" lon="6.35391">
        <ele>272.67</ele>
        <time>2013-09-28T08:05:37Z</time>
      </trkpt>
      <trkpt lat="47.33913" lon="6.35407">
        <ele>272.67</ele>
        <time>2013-09-28T08:05:40Z</time>
      </trkpt>
      <trkpt lat="47.33932" lon="6.35429">
        <ele>272.67</ele>
        <time>2013-09-28T08:05:44Z</time>
      </trkpt>
      <trkpt lat="47.33946" lon="6.35448">
        <ele>272.67</ele>
        <time>2013-09-28T08:05:47Z</time>
      </trkpt>
      <trkpt lat="47.33959" lon="6.35466">
        <ele>272.67</ele>
        <time>2013-09-28T08:05:50Z</time>
      </trkpt>
      <trkpt lat="47.33973" lon="6.35485">
        <ele>272.67</ele>
        <time>2013-09-28T08:05:53Z</time>
      </trkpt>
      <trkpt lat="47.33986" lon="6.35504">
        <ele>272.67</ele>
        <time>2013-09-28T08:05:56Z</time>
      </trkpt>
      <trkpt lat="47.33998" lon="6.35524">
        <ele>273.15</ele>
        <time>2013-09-28T08:05:59Z</time>
      </trkpt>
      <trkpt lat="47.3401" lon="6.35544">
        <ele>272.67</ele>
        <time>2013-09-28T08:06:02Z</time>
      </trkpt>
      <trkpt lat="47.34024" lon="6.35572">
        <ele>272.67</ele>
        <time>2013-09-28T08:06:06Z</time>
      </trkpt>
      <trkpt lat="47.34037" lon="6.356">
        <ele>272.67</ele>
        <time>2013-09-28T08:06:10Z</time>
      </trkpt>
      <trkpt lat="47.3405" lon="6.35628">
        <ele>273.15</ele>
        <time>2013-09-28T08:06:14Z</time>
      </trkpt>
      <trkpt lat="47.34062" lon="6.35659">
        <ele>273.15</ele>
        <time>2013-09-28T08:06:18Z</time>
      </trkpt>
      <trkpt lat="47.34071" lon="6.35684">
        <ele>273.15</ele>
        <time>2013-09-28T08:06:21Z</time>
      </trkpt>
      <trkpt lat="47.34081" lon="6.3571">
        <ele>272.67</ele>
        <time>2013-09-28T08:06:24Z</time>
      </trkpt>
      <trkpt lat="47.3409" lon="6.35736">
        <ele>272.67</ele>
        <time>2013-09-28T08:06:27Z</time>
      </trkpt>
      <trkpt lat="47.341" lon="6.35762">
        <ele>272.67</ele>
        <time>2013-09-28T08:06:30Z</time>
      </trkpt>
      <trkpt lat="47.34109" lon="6.35788">
        <ele>273.15</ele>
        <time>2013-09-28T08:06:33Z</time>
      </trkpt>
      <trkpt lat="47.34119" lon="6.35814">
        <ele>273.63</ele>
        <time>2013-09-28T08:06:36Z</time>
      </trkpt>
      <trkpt lat="47.3413" lon="6.35839">
        <ele>273.63</ele>
        <time>2013-09-28T08:06:39Z</time>
      </trkpt>
      <trkpt lat="47.3414" lon="6.35864">
        <ele>273.63</ele>
        <time>2013-09-28T08:06:42Z</time>
      </trkpt>
      <trkpt lat="47.34149" lon="6.35889">
        <ele>273.63</ele>
        <time>2013-09-28T08:06:45Z</time>
      </trkpt>
      <trkpt lat="47.34159" lon="6.35915">
        <ele>273.15</ele>
        <time>2013-09-28T08:06:48Z</time>
      </trkpt>
      <trkpt lat="47.34168" lon="6.35939">
        <ele>273.15</ele>
        <time>2013-09-28T08:06:51Z</time>
      </trkpt>
      <trkpt lat="47.34178" lon="6.35964">
        <ele>273.63</ele>
        <time>2013-09-28T08:06:54Z</time>
      </trkpt>
      <trkpt lat="47.34189" lon="6.3599">
        <ele>273.63</ele>
        <time>2013-09-28T08:06:57Z</time>
      </trkpt>
      <trkpt lat="47.34201" lon="6.36021">
        <ele>274.11</ele>
        <time>2013-09-28T08:07:01Z</time>
      </trkpt>
      <trkpt lat="47.34192" lon="6.36048">
        <ele>275.07</ele>
        <time>2013-09-28T08:07:06Z</time>
      </trkpt>
      <trkpt lat="47.3419" lon="6.36075">
        <ele>274.11</ele>
        <time>2013-09-28T08:07:10Z</time>
      </trkpt>
      <trkpt lat="47.34193" lon="6.36103">
        <ele>273.63</ele>
        <time>2013-09-28T08:07:14Z</time>
      </trkpt>
      <trkpt lat="47.34199" lon="6.3614">
        <ele>274.11</ele>
        <time>2013-09-28T08:07:18Z</time>
      </trkpt>
      <trkpt lat="47.34205" lon="6.36167">
        <ele>273.15</ele>
        <time>2013-09-28T08:07:21Z</time>
      </trkpt>
      <trkpt lat="47.34207" lon="6.36194">
        <ele>272.67</ele>
        <time>2013-09-28T08:07:24Z</time>
      </trkpt>
      <trkpt lat="47.342" lon="6.36228">
        <ele>274.11</ele>
        <time>2013-09-28T08:07:28Z</time>
      </trkpt>
      <trkpt lat="47.34197" lon="6.36255">
        <ele>273.63</ele>
        <time>2013-09-28T08:07:31Z</time>
      </trkpt>
      <trkpt lat="47.34191" lon="6.36284">
        <ele>274.11</ele>
        <time>2013-09-28T08:07:34Z</time>
      </trkpt>
      <trkpt lat="47.34186" lon="6.36313">
        <ele>273.63</ele>
        <time>2013-09-28T08:07:37Z</time>
      </trkpt>
      <trkpt lat="47.3418" lon="6.36342">
        <ele>274.11</ele>
        <time>2013-09-28T08:07:40Z</time>
      </trkpt>
      <trkpt lat="47.34174" lon="6.36372">
        <ele>273.63</ele>
        <time>2013-09-28T08:07:43Z</time>
      </trkpt>
      <trkpt lat="47.34168" lon="6.36402">
        <ele>273.63</ele>
        <time>2013-09-28T08:07:46Z</time>
      </trkpt>
      <trkpt lat="47.34163" lon="6.36432">
        <ele>273.63</ele>
        <time>2013-09-28T08:07:49Z</time>
      </trkpt>
      <trkpt lat="47.34157" lon="6.36464">
        <ele>273.63</ele>
        <time>2013-09-28T08:07:52Z</time>
      </trkpt>
      <trkpt lat="47.34151" lon="6.36494">
        <ele>273.63</ele>
        <time>2013-09-28T08:07:55Z</time>
      </trkpt>
      <trkpt lat="47.34145" lon="6.36525">
        <ele>274.11</ele>
        <time>2013-09-28T08:07:58Z</time>
      </trkpt>
      <trkpt lat="47.3414" lon="6.36557">
        <ele>274.11</ele>
        <time>2013-09-28T08:08:01Z</time>
      </trkpt>
      <trkpt lat="47.34136" lon="6.36586">
        <ele>274.59</ele>
        <time>2013-09-28T08:08:04Z</time>
      </trkpt>
      <trkpt lat="47.34133" lon="6.36614">
        <ele>275.07</ele>
        <time>2013-09-28T08:08:07Z</time>
      </trkpt>
      <trkpt lat="47.34127" lon="6.36641">
        <ele>275.56</ele>
        <time>2013-09-28T08:08:10Z</time>
      </trkpt>
      <trkpt lat="47.34123" lon="6.36671">
        <ele>275.07</ele>
        <time>2013-09-28T08:08:13Z</time>
      </trkpt>
      <trkpt lat="47.34118" lon="6.36703">
        <ele>274.59</ele>
        <time>2013-09-28T08:08:16Z</time>
      </trkpt>
      <trkpt lat="47.34114" lon="6.36733">
        <ele>275.07</ele>
        <time>2013-09-28T08:08:19Z</time>
      </trkpt>
      <trkpt lat="47.34111" lon="6.36764">
        <ele>274.11</ele>
        <time>2013-09-28T08:08:22Z</time>
      </trkpt>
      <trkpt lat="47.34111" lon="6.36795">
        <ele>273.63</ele>
        <time>2013-09-28T08:08:25Z</time>
      </trkpt>
      <trkpt lat="47.34111" lon="6.36825">
        <ele>273.15</ele>
        <time>2013-09-28T08:08:28Z</time>
      </trkpt>
      <trkpt lat="47.34112" lon="6.36857">
        <ele>273.15</ele>
        <time>2013-09-28T08:08:31Z</time>
      </trkpt>
      <trkpt lat="47.34114" lon="6.36888">
        <ele>273.63</ele>
        <time>2013-09-28T08:08:34Z</time>
      </trkpt>
      <trkpt lat="47.34114" lon="6.36921">
        <ele>273.15</ele>
        <time>2013-09-28T08:08:37Z</time>
      </trkpt>
      <trkpt lat="47.34114" lon="6.36957">
        <ele>273.63</ele>
        <time>2013-09-28T08:08:40Z</time>
      </trkpt>
      <trkpt lat="47.34114" lon="6.36992">
        <ele>273.63</ele>
        <time>2013-09-28T08:08:43Z</time>
      </trkpt>
      <trkpt lat="47.34116" lon="6.37025">
        <ele>274.11</ele>
        <time>2013-09-28T08:08:46Z</time>
      </trkpt>
      <trkpt lat="47.34117" lon="6.37057">
        <ele>273.63</ele>
        <time>2013-09-28T08:08:49Z</time>
      </trkpt>
      <trkpt lat="47.34118" lon="6.3709">
        <ele>272.67</ele>
        <time>2013-09-28T08:08:52Z</time>
      </trkpt>
      <trkpt lat="47.34121" lon="6.37123">
        <ele>273.15</ele>
        <time>2013-09-28T08:08:55Z</time>
      </trkpt>
      <trkpt lat="47.34123" lon="6.37155">
        <ele>272.67</ele>
        <time>2013-09-28T08:08:58Z</time>
      </trkpt>
      <trkpt lat="47.34125" lon="6.37185">
        <ele>273.63</ele>
        <time>2013-09-28T08:09:01Z</time>
      </trkpt>
      <trkpt lat="47.34126" lon="6.37213">
        <ele>273.15</ele>
        <time>2013-09-28T08:09:04Z</time>
      </trkpt>
      <trkpt lat="47.34123" lon="6.37241">
        <ele>273.63</ele>
        <time>2013-09-28T08:09:09Z</time>
      </trkpt>
      <trkpt lat="47.3412" lon="6.37269">
        <ele>274.11</ele>
        <time>2013-09-28T08:09:14Z</time>
      </trkpt>
      <trkpt lat="47.34125" lon="6.37295">
        <ele>274.59</ele>
        <time>2013-09-28T08:09:18Z</time>
      </trkpt>
      <trkpt lat="47.34138" lon="6.37316">
        <ele>274.59</ele>
        <time>2013-09-28T08:09:22Z</time>
      </trkpt>
      <trkpt lat="47.3415" lon="6.37337">
        <ele>273.63</ele>
        <time>2013-09-28T08:09:26Z</time>
      </trkpt>
      <trkpt lat="47.34167" lon="6.37358">
        <ele>272.67</ele>
        <time>2013-09-28T08:09:30Z</time>
      </trkpt>
      <trkpt lat="47.34185" lon="6.37368">
        <ele>272.67</ele>
        <time>2013-09-28T08:09:33Z</time>
      </trkpt>
      <trkpt lat="47.34204" lon="6.37374">
        <ele>272.19</ele>
        <time>2013-09-28T08:09:36Z</time>
      </trkpt>
      <trkpt lat="47.34225" lon="6.37378">
        <ele>271.71</ele>
        <time>2013-09-28T08:09:39Z</time>
      </trkpt>
      <trkpt lat="47.34246" lon="6.37381">
        <ele>271.23</ele>
        <time>2013-09-28T08:09:42Z</time>
      </trkpt>
      <trkpt lat="47.34266" lon="6.37388">
        <ele>271.23</ele>
        <time>2013-09-28T08:09:45Z</time>
      </trkpt>
      <trkpt lat="47.34287" lon="6.37397">
        <ele>271.23</ele>
        <time>2013-09-28T08:09:48Z</time>
      </trkpt>
      <trkpt lat="47.34307" lon="6.37405">
        <ele>271.23</ele>
        <time>2013-09-28T08:09:51Z</time>
      </trkpt>
      <trkpt lat="47.34328" lon="6.37405">
        <ele>271.71</ele>
        <time>2013-09-28T08:09:54Z</time>
      </trkpt>
      <trkpt lat="47.34348" lon="6.37399">
        <ele>271.71</ele>
        <time>2013-09-28T08:09:57Z</time>
      </trkpt>
      <trkpt lat="47.34367" lon="6.37395">
        <ele>272.19</ele>
        <time>2013-09-28T08:10:00Z</time>
      </trkpt>
      <trkpt lat="47.34386" lon="6.3739">
        <ele>272.19</ele>
        <time>2013-09-28T08:10:03Z</time>
      </trkpt>
      <trkpt lat="47.3441" lon="6.37384">
        <ele>272.67</ele>
        <time>2013-09-28T08:10:07Z</time>
      </trkpt>
      <trkpt lat="47.34428" lon="6.37381">
        <ele>272.67</ele>
        <time>2013-09-28T08:10:10Z</time>
      </trkpt>
      <trkpt lat="47.34447" lon="6.37377">
        <ele>272.67</ele>
        <time>2013-09-28T08:10:13Z</time>
      </trkpt>
      <trkpt lat="47.34466" lon="6.37375">
        <ele>273.15</ele>
        <time>2013-09-28T08:10:16Z</time>
      </trkpt>
      <trkpt lat="47.34485" lon="6.37374">
        <ele>273.63</ele>
        <time>2013-09-28T08:10:19Z</time>
      </trkpt>
      <trkpt lat="47.34505" lon="6.37374">
        <ele>273.15</ele>
        <time>2013-09-28T08:10:22Z</time>
      </trkpt>
      <trkpt lat="47.34524" lon="6.37376">
        <ele>272.67</ele>
        <time>2013-09-28T08:10:25Z</time>
      </trkpt>
      <trkpt lat="47.34543" lon="6.3738">
        <ele>273.15</ele>
        <time>2013-09-28T08:10:28Z</time>
      </trkpt>
      <trkpt lat="47.34562" lon="6.37383">
        <ele>273.63</ele>
        <time>2013-09-28T08:10:31Z</time>
      </trkpt>
      <trkpt lat="47.34581" lon="6.37387">
        <ele>273.15</ele>
        <time>2013-09-28T08:10:34Z</time>
      </trkpt>
      <trkpt lat="47.346" lon="6.37394">
        <ele>273.15</ele>
        <time>2013-09-28T08:10:37Z</time>
      </trkpt>
      <trkpt lat="47.3462" lon="6.37401">
        <ele>272.67</ele>
        <time>2013-09-28T08:10:40Z</time>
      </trkpt>
      <trkpt lat="47.3464" lon="6.37408">
        <ele>272.19</ele>
        <time>2013-09-28T08:10:43Z</time>
      </trkpt>
      <trkpt lat="47.34658" lon="6.37414">
        <ele>272.67</ele>
        <time>2013-09-28T08:10:46Z</time>
      </trkpt>
      <trkpt lat="47.34676" lon="6.37417">
        <ele>272.19</ele>
        <time>2013-09-28T08:10:49Z</time>
      </trkpt>
      <trkpt lat="47.34696" lon="6.37421">
        <ele>271.71</ele>
        <time>2013-09-28T08:10:52Z</time>
      </trkpt>
      <trkpt lat="47.34716" lon="6.37424">
        <ele>272.67</ele>
        <time>2013-09-28T08:10:55Z</time>
      </trkpt>
      <trkpt lat="47.34737" lon="6.37426">
        <ele>272.19</ele>
        <time>2013-09-28T08:10:58Z</time>
      </trkpt>
      <trkpt lat="47.34758" lon="6.37426">
        <ele>272.19</ele>
        <time>2013-09-28T08:11:01Z</time>
      </trkpt>
      <trkpt lat="47.34777" lon="6.37427">
        <ele>271.71</ele>
        <time>2013-09-28T08:11:04Z</time>
      </trkpt>
      <trkpt lat="47.34795" lon="6.37427">
        <ele>272.19</ele>
        <time>2013-09-28T08:11:07Z</time>
      </trkpt>
      <trkpt lat="47.34815" lon="6.37426">
        <ele>272.67</ele>
        <time>2013-09-28T08:11:10Z</time>
      </trkpt>
      <trkpt lat="47.34834" lon="6.37423">
        <ele>273.15</ele>
        <time>2013-09-28T08:11:13Z</time>
      </trkpt>
      <trkpt lat="47.34853" lon="6.37419">
        <ele>273.15</ele>
        <time>2013-09-28T08:11:16Z</time>
      </trkpt>
      <trkpt lat="47.34872" lon="6.37414">
        <ele>273.63</ele>
        <time>2013-09-28T08:11:19Z</time>
      </trkpt>
      <trkpt lat="47.34892" lon="6.37409">
        <ele>273.15</ele>
        <time>2013-09-28T08:11:22Z</time>
      </trkpt>
      <trkpt lat="47.34912" lon="6.37403">
        <ele>273.15</ele>
        <time>2013-09-28T08:11:25Z</time>
      </trkpt>
      <trkpt lat="47.34932" lon="6.37395">
        <ele>273.15</ele>
        <time>2013-09-28T08:11:28Z</time>
      </trkpt>
      <trkpt lat="47.34953" lon="6.37387">
        <ele>273.15</ele>
        <time>2013-09-28T08:11:31Z</time>
      </trkpt>
      <trkpt lat="47.34973" lon="6.37378">
        <ele>272.67</ele>
        <time>2013-09-28T08:11:34Z</time>
      </trkpt>
      <trkpt lat="47.34994" lon="6.3737">
        <ele>272.19</ele>
        <time>2013-09-28T08:11:37Z</time>
      </trkpt>
      <trkpt lat="47.35014" lon="6.37363">
        <ele>271.71</ele>
        <time>2013-09-28T08:11:40Z</time>
      </trkpt>
      <trkpt lat="47.35034" lon="6.37356">
        <ele>272.19</ele>
        <time>2013-09-28T08:11:43Z</time>
      </trkpt>
      <trkpt lat="47.35053" lon="6.3735">
        <ele>272.19</ele>
        <time>2013-09-28T08:11:46Z</time>
      </trkpt>
      <trkpt lat="47.35077" lon="6.3735">
        <ele>273.63</ele>
        <time>2013-09-28T08:11:50Z</time>
      </trkpt>
      <trkpt lat="47.35095" lon="6.37367">
        <ele>275.07</ele>
        <time>2013-09-28T08:11:54Z</time>
      </trkpt>
      <trkpt lat="47.35113" lon="6.37374">
        <ele>275.07</ele>
        <time>2013-09-28T08:11:58Z</time>
      </trkpt>
      <trkpt lat="47.3513" lon="6.37352">
        <ele>275.07</ele>
        <time>2013-09-28T08:12:02Z</time>
      </trkpt>
      <trkpt lat="47.3515" lon="6.37348">
        <ele>275.07</ele>
        <time>2013-09-28T08:12:06Z</time>
      </trkpt>
      <trkpt lat="47.35167" lon="6.37361">
        <ele>275.07</ele>
        <time>2013-09-28T08:12:09Z</time>
      </trkpt>
      <trkpt lat="47.35181" lon="6.37378">
        <ele>275.56</ele>
        <time>2013-09-28T08:12:12Z</time>
      </trkpt>
      <trkpt lat="47.35194" lon="6.37397">
        <ele>275.07</ele>
        <time>2013-09-28T08:12:15Z</time>
      </trkpt>
      <trkpt lat="47.35206" lon="6.37418">
        <ele>275.07</ele>
        <time>2013-09-28T08:12:18Z</time>
      </trkpt>
      <trkpt lat="47.35218" lon="6.3744">
        <ele>275.56</ele>
        <time>2013-09-28T08:12:21Z</time>
      </trkpt>
      <trkpt lat="47.35231" lon="6.37469">
        <ele>275.07</ele>
        <time>2013-09-28T08:12:25Z</time>
      </trkpt>
      <trkpt lat="47.35244" lon="6.37496">
        <ele>275.56</ele>
        <time>2013-09-28T08:12:29Z</time>
      </trkpt>
      <trkpt lat="47.35256" lon="6.37526">
        <ele>276.04</ele>
        <time>2013-09-28T08:12:33Z</time>
      </trkpt>
      <trkpt lat="47.35264" lon="6.3755">
        <ele>275.56</ele>
        <time>2013-09-28T08:12:36Z</time>
      </trkpt>
      <trkpt lat="47.35271" lon="6.37577">
        <ele>275.56</ele>
        <time>2013-09-28T08:12:39Z</time>
      </trkpt>
      <trkpt lat="47.35276" lon="6.37604">
        <ele>276.04</ele>
        <time>2013-09-28T08:12:42Z</time>
      </trkpt>
      <trkpt lat="47.35281" lon="6.37631">
        <ele>276.04</ele>
        <time>2013-09-28T08:12:45Z</time>
      </trkpt>
      <trkpt lat="47.35285" lon="6.3766">
        <ele>275.56</ele>
        <time>2013-09-28T08:12:48Z</time>
      </trkpt>
      <trkpt lat="47.35288" lon="6.37689">
        <ele>275.56</ele>
        <time>2013-09-28T08:12:51Z</time>
      </trkpt>
      <trkpt lat="47.35291" lon="6.37718">
        <ele>275.56</ele>
        <time>2013-09-28T08:12:54Z</time>
      </trkpt>
      <trkpt lat="47.35291" lon="6.37744">
        <ele>276.04</ele>
        <time>2013-09-28T08:12:57Z</time>
      </trkpt>
      <trkpt lat="47.35292" lon="6.37772">
        <ele>275.56</ele>
        <time>2013-09-28T08:13:00Z</time>
      </trkpt>
      <trkpt lat="47.3529" lon="6.37801">
        <ele>276.04</ele>
        <time>2013-09-28T08:13:03Z</time>
      </trkpt>
      <trkpt lat="47.35288" lon="6.3783">
        <ele>275.56</ele>
        <time>2013-09-28T08:13:06Z</time>
      </trkpt>
      <trkpt lat="47.35283" lon="6.3786">
        <ele>274.59</ele>
        <time>2013-09-28T08:13:09Z</time>
      </trkpt>
      <trkpt lat="47.35275" lon="6.37889">
        <ele>274.59</ele>
        <time>2013-09-28T08:13:12Z</time>
      </trkpt>
      <trkpt lat="47.35267" lon="6.37918">
        <ele>274.11</ele>
        <time>2013-09-28T08:13:15Z</time>
      </trkpt>
      <trkpt lat="47.3526" lon="6.37948">
        <ele>273.63</ele>
        <time>2013-09-28T08:13:18Z</time>
      </trkpt>
      <trkpt lat="47.35254" lon="6.37977">
        <ele>274.11</ele>
        <time>2013-09-28T08:13:21Z</time>
      </trkpt>
      <trkpt lat="47.35249" lon="6.38006">
        <ele>273.63</ele>
        <time>2013-09-28T08:13:24Z</time>
      </trkpt>
      <trkpt lat="47.35244" lon="6.38035">
        <ele>273.63</ele>
        <time>2013-09-28T08:13:27Z</time>
      </trkpt>
      <trkpt lat="47.35238" lon="6.38062">
        <ele>274.11</ele>
        <time>2013-09-28T08:13:30Z</time>
      </trkpt>
      <trkpt lat="47.35232" lon="6.38091">
        <ele>273.63</ele>
        <time>2013-09-28T08:13:33Z</time>
      </trkpt>
      <trkpt lat="47.35225" lon="6.3812">
        <ele>273.63</ele>
        <time>2013-09-28T08:13:36Z</time>
      </trkpt>
      <trkpt lat="47.35219" lon="6.38149">
        <ele>273.63</ele>
        <time>2013-09-28T08:13:39Z</time>
      </trkpt>
      <trkpt lat="47.35215" lon="6.38178">
        <ele>273.63</ele>
        <time>2013-09-28T08:13:42Z</time>
      </trkpt>
      <trkpt lat="47.35212" lon="6.38209">
        <ele>273.63</ele>
        <time>2013-09-28T08:13:45Z</time>
      </trkpt>
      <trkpt lat="47.35209" lon="6.38239">
        <ele>272.67</ele>
        <time>2013-09-28T08:13:48Z</time>
      </trkpt>
      <trkpt lat="47.35204" lon="6.3827">
        <ele>273.15</ele>
        <time>2013-09-28T08:13:51Z</time>
      </trkpt>
      <trkpt lat="47.35201" lon="6.38302">
        <ele>273.15</ele>
        <time>2013-09-28T08:13:54Z</time>
      </trkpt>
      <trkpt lat="47.35198" lon="6.38333">
        <ele>273.63</ele>
        <time>2013-09-28T08:13:57Z</time>
      </trkpt>
      <trkpt lat="47.35193" lon="6.38363">
        <ele>273.15</ele>
        <time>2013-09-28T08:14:00Z</time>
      </trkpt>
      <trkpt lat="47.35188" lon="6.38392">
        <ele>273.15</ele>
        <time>2013-09-28T08:14:03Z</time>
      </trkpt>
      <trkpt lat="47.35183" lon="6.38422">
        <ele>272.67</ele>
        <time>2013-09-28T08:14:06Z</time>
      </trkpt>
      <trkpt lat="47.35177" lon="6.38453">
        <ele>273.15</ele>
        <time>2013-09-28T08:14:09Z</time>
      </trkpt>
      <trkpt lat="47.35172" lon="6.38485">
        <ele>272.67</ele>
        <time>2013-09-28T08:14:12Z</time>
      </trkpt>
      <trkpt lat="47.3517" lon="6.38517">
        <ele>273.15</ele>
        <time>2013-09-28T08:14:15Z</time>
      </trkpt>
      <trkpt lat="47.35173" lon="6.3855">
        <ele>273.15</ele>
        <time>2013-09-28T08:14:18Z</time>
      </trkpt>
      <trkpt lat="47.35178" lon="6.3858">
        <ele>273.15</ele>
        <time>2013-09-28T08:14:21Z</time>
      </trkpt>
      <trkpt lat="47.35181" lon="6.3861">
        <ele>272.67</ele>
        <time>2013-09-28T08:14:24Z</time>
      </trkpt>
      <trkpt lat="47.35186" lon="6.3864">
        <ele>273.15</ele>
        <time>2013-09-28T08:14:27Z</time>
      </trkpt>
      <trkpt lat="47.35191" lon="6.38669">
        <ele>273.15</ele>
        <time>2013-09-28T08:14:30Z</time>
      </trkpt>
      <trkpt lat="47.35196" lon="6.38698">
        <ele>273.15</ele>
        <time>2013-09-28T08:14:33Z</time>
      </trkpt>
      <trkpt lat="47.35202" lon="6.38727">
        <ele>272.67</ele>
        <time>2013-09-28T08:14:36Z</time>
      </trkpt>
      <trkpt lat="47.35211" lon="6.38754">
        <ele>272.67</ele>
        <time>2013-09-28T08:14:39Z</time>
      </trkpt>
      <trkpt lat="47.35222" lon="6.3878">
        <ele>273.15</ele>
        <time>2013-09-28T08:14:42Z</time>
      </trkpt>
      <trkpt lat="47.35232" lon="6.38807">
        <ele>274.11</ele>
        <time>2013-09-28T08:14:45Z</time>
      </trkpt>
      <trkpt lat="47.35243" lon="6.38831">
        <ele>275.07</ele>
        <time>2013-09-28T08:14:48Z</time>
      </trkpt>
      <trkpt lat="47.35253" lon="6.38856">
        <ele>274.59</ele>
        <time>2013-09-28T08:14:51Z</time>
      </trkpt>
      <trkpt lat="47.35265" lon="6.3888">
        <ele>274.59</ele>
        <time>2013-09-28T08:14:54Z</time>
      </trkpt>
      <trkpt lat="47.35278" lon="6.38905">
        <ele>274.59</ele>
        <time>2013-09-28T08:14:57Z</time>
      </trkpt>
      <trkpt lat="47.35292" lon="6.38931">
        <ele>273.15</ele>
        <time>2013-09-28T08:15:00Z</time>
      </trkpt>
      <trkpt lat="47.35307" lon="6.38955">
        <ele>273.63</ele>
        <time>2013-09-28T08:15:03Z</time>
      </trkpt>
      <trkpt lat="47.35322" lon="6.38977">
        <ele>274.11</ele>
        <time>2013-09-28T08:15:06Z</time>
      </trkpt>
      <trkpt lat="47.35336" lon="6.39001">
        <ele>274.59</ele>
        <time>2013-09-28T08:15:09Z</time>
      </trkpt>
      <trkpt lat="47.35351" lon="6.39028">
        <ele>273.63</ele>
        <time>2013-09-28T08:15:12Z</time>
      </trkpt>
      <trkpt lat="47.35366" lon="6.39052">
        <ele>273.63</ele>
        <time>2013-09-28T08:15:15Z</time>
      </trkpt>
      <trkpt lat="47.35381" lon="6.39076">
        <ele>274.11</ele>
        <time>2013-09-28T08:15:18Z</time>
      </trkpt>
      <trkpt lat="47.35394" lon="6.391">
        <ele>274.11</ele>
        <time>2013-09-28T08:15:21Z</time>
      </trkpt>
      <trkpt lat="47.35407" lon="6.39123">
        <ele>273.63</ele>
        <time>2013-09-28T08:15:24Z</time>
      </trkpt>
      <trkpt lat="47.35426" lon="6.39147">
        <ele>274.11</ele>
        <time>2013-09-28T08:15:27Z</time>
      </trkpt>
      <trkpt lat="47.35443" lon="6.39168">
        <ele>274.11</ele>
        <time>2013-09-28T08:15:30Z</time>
      </trkpt>
      <trkpt lat="47.35461" lon="6.39184">
        <ele>273.63</ele>
        <time>2013-09-28T08:15:33Z</time>
      </trkpt>
      <trkpt lat="47.35481" lon="6.39198">
        <ele>274.11</ele>
        <time>2013-09-28T08:15:36Z</time>
      </trkpt>
      <trkpt lat="47.35499" lon="6.39214">
        <ele>274.59</ele>
        <time>2013-09-28T08:15:39Z</time>
      </trkpt>
      <trkpt lat="47.35517" lon="6.39229">
        <ele>274.11</ele>
        <time>2013-09-28T08:15:42Z</time>
      </trkpt>
      <trkpt lat="47.35535" lon="6.39247">
        <ele>274.11</ele>
        <time>2013-09-28T08:15:45Z</time>
      </trkpt>
      <trkpt lat="47.35555" lon="6.39264">
        <ele>273.15</ele>
        <time>2013-09-28T08:15:48Z</time>
      </trkpt>
      <trkpt lat="47.35576" lon="6.39282">
        <ele>272.19</ele>
        <time>2013-09-28T08:15:51Z</time>
      </trkpt>
      <trkpt lat="47.35595" lon="6.39301">
        <ele>272.19</ele>
        <time>2013-09-28T08:15:54Z</time>
      </trkpt>
      <trkpt lat="47.35614" lon="6.3932">
        <ele>272.67</ele>
        <time>2013-09-28T08:15:57Z</time>
      </trkpt>
      <trkpt lat="47.35632" lon="6.39339">
        <ele>272.67</ele>
        <time>2013-09-28T08:16:00Z</time>
      </trkpt>
      <trkpt lat="47.35649" lon="6.39359">
        <ele>271.71</ele>
        <time>2013-09-28T08:16:03Z</time>
      </trkpt>
      <trkpt lat="47.35666" lon="6.39381">
        <ele>273.15</ele>
        <time>2013-09-28T08:16:06Z</time>
      </trkpt>
      <trkpt lat="47.3568" lon="6.39404">
        <ele>272.67</ele>
        <time>2013-09-28T08:16:09Z</time>
      </trkpt>
      <trkpt lat="47.35692" lon="6.39428">
        <ele>272.19</ele>
        <time>2013-09-28T08:16:12Z</time>
      </trkpt>
      <trkpt lat="47.35703" lon="6.39452">
        <ele>272.67</ele>
        <time>2013-09-28T08:16:15Z</time>
      </trkpt>
      <trkpt lat="47.35713" lon="6.39478">
        <ele>272.67</ele>
        <time>2013-09-28T08:16:18Z</time>
      </trkpt>
      <trkpt lat="47.35722" lon="6.39505">
        <ele>272.67</ele>
        <time>2013-09-28T08:16:21Z</time>
      </trkpt>
      <trkpt lat="47.3573" lon="6.39533">
        <ele>272.67</ele>
        <time>2013-09-28T08:16:24Z</time>
      </trkpt>
      <trkpt lat="47.35738" lon="6.3956">
        <ele>272.67</ele>
        <time>2013-09-28T08:16:27Z</time>
      </trkpt>
      <trkpt lat="47.35745" lon="6.39589">
        <ele>272.67</ele>
        <time>2013-09-28T08:16:30Z</time>
      </trkpt>
      <trkpt lat="47.35751" lon="6.39618">
        <ele>273.15</ele>
        <time>2013-09-28T08:16:33Z</time>
      </trkpt>
      <trkpt lat="47.35757" lon="6.39649">
        <ele>272.67</ele>
        <time>2013-09-28T08:16:36Z</time>
      </trkpt>
      <trkpt lat="47.35761" lon="6.39681">
        <ele>273.15</ele>
        <time>2013-09-28T08:16:39Z</time>
      </trkpt>
      <trkpt lat="47.35763" lon="6.39713">
        <ele>273.15</ele>
        <time>2013-09-28T08:16:42Z</time>
      </trkpt>
      <trkpt lat="47.35764" lon="6.39746">
        <ele>273.15</ele>
        <time>2013-09-28T08:16:45Z</time>
      </trkpt>
      <trkpt lat="47.35765" lon="6.39779">
        <ele>272.67</ele>
        <time>2013-09-28T08:16:48Z</time>
      </trkpt>
      <trkpt lat="47.35765" lon="6.3981">
        <ele>273.15</ele>
        <time>2013-09-28T08:16:51Z</time>
      </trkpt>
      <trkpt lat="47.35764" lon="6.3984">
        <ele>273.15</ele>
        <time>2013-09-28T08:16:54Z</time>
      </trkpt>
      <trkpt lat="47.35763" lon="6.39869">
        <ele>274.11</ele>
        <time>2013-09-28T08:16:57Z</time>
      </trkpt>
      <trkpt lat="47.35758" lon="6.39902">
        <ele>275.07</ele>
        <time>2013-09-28T08:17:01Z</time>
      </trkpt>
      <trkpt lat="47.35748" lon="6.39932">
        <ele>276.04</ele>
        <time>2013-09-28T08:17:05Z</time>
      </trkpt>
      <trkpt lat="47.35747" lon="6.39964">
        <ele>276.04</ele>
        <time>2013-09-28T08:17:09Z</time>
      </trkpt>
      <trkpt lat="47.35748" lon="6.39997">
        <ele>274.59</ele>
        <time>2013-09-28T08:17:13Z</time>
      </trkpt>
      <trkpt lat="47.35742" lon="6.40031">
        <ele>275.07</ele>
        <time>2013-09-28T08:17:17Z</time>
      </trkpt>
      <trkpt lat="47.35736" lon="6.40057">
        <ele>276.04</ele>
        <time>2013-09-28T08:17:20Z</time>
      </trkpt>
      <trkpt lat="47.35728" lon="6.4009">
        <ele>275.56</ele>
        <time>2013-09-28T08:17:24Z</time>
      </trkpt>
      <trkpt lat="47.35722" lon="6.40115">
        <ele>275.56</ele>
        <time>2013-09-28T08:17:27Z</time>
      </trkpt>
      <trkpt lat="47.35714" lon="6.40149">
        <ele>276.04</ele>
        <time>2013-09-28T08:17:31Z</time>
      </trkpt>
      <trkpt lat="47.35706" lon="6.40182">
        <ele>275.56</ele>
        <time>2013-09-28T08:17:35Z</time>
      </trkpt>
      <trkpt lat="47.35699" lon="6.40209">
        <ele>276.04</ele>
        <time>2013-09-28T08:17:38Z</time>
      </trkpt>
      <trkpt lat="47.35691" lon="6.40241">
        <ele>275.07</ele>
        <time>2013-09-28T08:17:42Z</time>
      </trkpt>
      <trkpt lat="47.35683" lon="6.40274">
        <ele>275.07</ele>
        <time>2013-09-28T08:17:46Z</time>
      </trkpt>
      <trkpt lat="47.35675" lon="6.40307">
        <ele>275.07</ele>
        <time>2013-09-28T08:17:50Z</time>
      </trkpt>
      <trkpt lat="47.35671" lon="6.40333">
        <ele>275.07</ele>
        <time>2013-09-28T08:17:53Z</time>
      </trkpt>
      <trkpt lat="47.35667" lon="6.40361">
        <ele>274.11</ele>
        <time>2013-09-28T08:17:56Z</time>
      </trkpt>
      <trkpt lat="47.35664" lon="6.4039">
        <ele>273.15</ele>
        <time>2013-09-28T08:17:59Z</time>
      </trkpt>
      <trkpt lat="47.35659" lon="6.40418">
        <ele>273.63</ele>
        <time>2013-09-28T08:18:02Z</time>
      </trkpt>
      <trkpt lat="47.35656" lon="6.40445">
        <ele>273.63</ele>
        <time>2013-09-28T08:18:05Z</time>
      </trkpt>
      <trkpt lat="47.35654" lon="6.40473">
        <ele>273.63</ele>
        <time>2013-09-28T08:18:08Z</time>
      </trkpt>
      <trkpt lat="47.3565" lon="6.40501">
        <ele>273.63</ele>
        <time>2013-09-28T08:18:11Z</time>
      </trkpt>
      <trkpt lat="47.35647" lon="6.40529">
        <ele>273.63</ele>
        <time>2013-09-28T08:18:14Z</time>
      </trkpt>
      <trkpt lat="47.35644" lon="6.40557">
        <ele>273.63</ele>
        <time>2013-09-28T08:18:17Z</time>
      </trkpt>
      <trkpt lat="47.3564" lon="6.40584">
        <ele>273.63</ele>
        <time>2013-09-28T08:18:20Z</time>
      </trkpt>
      <trkpt lat="47.35638" lon="6.40614">
        <ele>273.15</ele>
        <time>2013-09-28T08:18:23Z</time>
      </trkpt>
      <trkpt lat="47.35637" lon="6.40643">
        <ele>272.67</ele>
        <time>2013-09-28T08:18:26Z</time>
      </trkpt>
      <trkpt lat="47.35635" lon="6.40673">
        <ele>273.15</ele>
        <time>2013-09-28T08:18:29Z</time>
      </trkpt>
      <trkpt lat="47.35632" lon="6.40703">
        <ele>273.15</ele>
        <time>2013-09-28T08:18:32Z</time>
      </trkpt>
      <trkpt lat="47.35632" lon="6.40732">
        <ele>273.15</ele>
        <time>2013-09-28T08:18:35Z</time>
      </trkpt>
      <trkpt lat="47.35631" lon="6.40761">
        <ele>273.63</ele>
        <time>2013-09-28T08:18:38Z</time>
      </trkpt>
      <trkpt lat="47.35632" lon="6.4079">
        <ele>273.15</ele>
        <time>2013-09-28T08:18:41Z</time>
      </trkpt>
      <trkpt lat="47.35634" lon="6.40819">
        <ele>273.15</ele>
        <time>2013-09-28T08:18:44Z</time>
      </trkpt>
      <trkpt lat="47.35637" lon="6.40849">
        <ele>273.15</ele>
        <time>2013-09-28T08:18:47Z</time>
      </trkpt>
      <trkpt lat="47.3564" lon="6.40877">
        <ele>273.15</ele>
        <time>2013-09-28T08:18:50Z</time>
      </trkpt>
      <trkpt lat="47.35642" lon="6.40906">
        <ele>273.63</ele>
        <time>2013-09-28T08:18:53Z</time>
      </trkpt>
      <trkpt lat="47.35645" lon="6.40935">
        <ele>273.63</ele>
        <time>2013-09-28T08:18:56Z</time>
      </trkpt>
      <trkpt lat="47.35648" lon="6.40965">
        <ele>273.63</ele>
        <time>2013-09-28T08:18:59Z</time>
      </trkpt>
      <trkpt lat="47.35652" lon="6.40995">
        <ele>273.15</ele>
        <time>2013-09-28T08:19:02Z</time>
      </trkpt>
      <trkpt lat="47.35655" lon="6.41026">
        <ele>273.63</ele>
        <time>2013-09-28T08:19:05Z</time>
      </trkpt>
      <trkpt lat="47.35659" lon="6.41056">
        <ele>273.15</ele>
        <time>2013-09-28T08:19:08Z</time>
      </trkpt>
      <trkpt lat="47.35664" lon="6.41085">
        <ele>273.15</ele>
        <time>2013-09-28T08:19:11Z</time>
      </trkpt>
      <trkpt lat="47.3567" lon="6.41115">
        <ele>273.15</ele>
        <time>2013-09-28T08:19:14Z</time>
      </trkpt>
      <trkpt lat="47.35675" lon="6.41145">
        <ele>273.15</ele>
        <time>2013-09-28T08:19:17Z</time>
      </trkpt>
      <trkpt lat="47.35681" lon="6.41175">
        <ele>273.63</ele>
        <time>2013-09-28T08:19:20Z</time>
      </trkpt>
      <trkpt lat="47.35686" lon="6.41204">
        <ele>273.63</ele>
        <time>2013-09-28T08:19:23Z</time>
      </trkpt>
      <trkpt lat="47.35691" lon="6.41232">
        <ele>273.63</ele>
        <time>2013-09-28T08:19:26Z</time>
      </trkpt>
      <trkpt lat="47.35697" lon="6.41262">
        <ele>273.15</ele>
        <time>2013-09-28T08:19:29Z</time>
      </trkpt>
      <trkpt lat="47.35704" lon="6.41291">
        <ele>273.63</ele>
        <time>2013-09-28T08:19:32Z</time>
      </trkpt>
      <trkpt lat="47.3571" lon="6.41322">
        <ele>274.11</ele>
        <time>2013-09-28T08:19:35Z</time>
      </trkpt>
      <trkpt lat="47.35716" lon="6.41352">
        <ele>274.11</ele>
        <time>2013-09-28T08:19:38Z</time>
      </trkpt>
      <trkpt lat="47.35722" lon="6.4138">
        <ele>274.11</ele>
        <time>2013-09-28T08:19:41Z</time>
      </trkpt>
      <trkpt lat="47.35728" lon="6.41407">
        <ele>273.63</ele>
        <time>2013-09-28T08:19:44Z</time>
      </trkpt>
      <trkpt lat="47.35736" lon="6.41439">
        <ele>273.63</ele>
        <time>2013-09-28T08:19:48Z</time>
      </trkpt>
      <trkpt lat="47.35741" lon="6.41468">
        <ele>273.63</ele>
        <time>2013-09-28T08:19:52Z</time>
      </trkpt>
      <trkpt lat="47.35746" lon="6.41499">
        <ele>274.59</ele>
        <time>2013-09-28T08:19:56Z</time>
      </trkpt>
      <trkpt lat="47.35751" lon="6.41534">
        <ele>274.11</ele>
        <time>2013-09-28T08:20:00Z</time>
      </trkpt>
      <trkpt lat="47.35754" lon="6.41562">
        <ele>274.59</ele>
        <time>2013-09-28T08:20:03Z</time>
      </trkpt>
      <trkpt lat="47.35758" lon="6.41591">
        <ele>274.59</ele>
        <time>2013-09-28T08:20:06Z</time>
      </trkpt>
      <trkpt lat="47.35762" lon="6.41621">
        <ele>274.11</ele>
        <time>2013-09-28T08:20:09Z</time>
      </trkpt>
      <trkpt lat="47.35767" lon="6.41652">
        <ele>274.11</ele>
        <time>2013-09-28T08:20:12Z</time>
      </trkpt>
      <trkpt lat="47.35771" lon="6.41682">
        <ele>274.59</ele>
        <time>2013-09-28T08:20:15Z</time>
      </trkpt>
      <trkpt lat="47.35779" lon="6.41711">
        <ele>274.11</ele>
        <time>2013-09-28T08:20:18Z</time>
      </trkpt>
      <trkpt lat="47.35788" lon="6.41741">
        <ele>274.59</ele>
        <time>2013-09-28T08:20:21Z</time>
      </trkpt>
      <trkpt lat="47.35797" lon="6.41771">
        <ele>274.59</ele>
        <time>2013-09-28T08:20:24Z</time>
      </trkpt>
      <trkpt lat="47.35807" lon="6.41799">
        <ele>274.11</ele>
        <time>2013-09-28T08:20:27Z</time>
      </trkpt>
      <trkpt lat="47.35817" lon="6.41827">
        <ele>274.11</ele>
        <time>2013-09-28T08:20:30Z</time>
      </trkpt>
      <trkpt lat="47.35827" lon="6.41855">
        <ele>274.11</ele>
        <time>2013-09-28T08:20:33Z</time>
      </trkpt>
      <trkpt lat="47.35841" lon="6.41879">
        <ele>274.11</ele>
        <time>2013-09-28T08:20:36Z</time>
      </trkpt>
      <trkpt lat="47.35861" lon="6.41898">
        <ele>275.07</ele>
        <time>2013-09-28T08:20:39Z</time>
      </trkpt>
      <trkpt lat="47.35883" lon="6.41913">
        <ele>274.59</ele>
        <time>2013-09-28T08:20:42Z</time>
      </trkpt>
      <trkpt lat="47.35905" lon="6.41922">
        <ele>275.07</ele>
        <time>2013-09-28T08:20:45Z</time>
      </trkpt>
      <trkpt lat="47.35927" lon="6.41927">
        <ele>274.59</ele>
        <time>2013-09-28T08:20:48Z</time>
      </trkpt>
      <trkpt lat="47.35949" lon="6.41931">
        <ele>274.59</ele>
        <time>2013-09-28T08:20:51Z</time>
      </trkpt>
      <trkpt lat="47.35972" lon="6.41935">
        <ele>274.59</ele>
        <time>2013-09-28T08:20:54Z</time>
      </trkpt>
      <trkpt lat="47.35994" lon="6.41938">
        <ele>274.11</ele>
        <time>2013-09-28T08:20:57Z</time>
      </trkpt>
      <trkpt lat="47.36015" lon="6.41941">
        <ele>274.11</ele>
        <time>2013-09-28T08:21:00Z</time>
      </trkpt>
      <trkpt lat="47.36036" lon="6.41942">
        <ele>275.07</ele>
        <time>2013-09-28T08:21:03Z</time>
      </trkpt>
      <trkpt lat="47.36058" lon="6.41944">
        <ele>275.07</ele>
        <time>2013-09-28T08:21:06Z</time>
      </trkpt>
      <trkpt lat="47.3608" lon="6.41945">
        <ele>274.59</ele>
        <time>2013-09-28T08:21:09Z</time>
      </trkpt>
      <trkpt lat="47.36102" lon="6.41946">
        <ele>275.07</ele>
        <time>2013-09-28T08:21:12Z</time>
      </trkpt>
      <trkpt lat="47.36124" lon="6.41945">
        <ele>274.59</ele>
        <time>2013-09-28T08:21:15Z</time>
      </trkpt>
      <trkpt lat="47.36146" lon="6.41943">
        <ele>274.11</ele>
        <time>2013-09-28T08:21:18Z</time>
      </trkpt>
      <trkpt lat="47.36169" lon="6.41939">
        <ele>274.11</ele>
        <time>2013-09-28T08:21:21Z</time>
      </trkpt>
      <trkpt lat="47.36191" lon="6.41936">
        <ele>274.11</ele>
        <time>2013-09-28T08:21:24Z</time>
      </trkpt>
      <trkpt lat="47.36213" lon="6.41933">
        <ele>275.07</ele>
        <time>2013-09-28T08:21:27Z</time>
      </trkpt>
      <trkpt lat="47.36234" lon="6.4193">
        <ele>275.56</ele>
        <time>2013-09-28T08:21:30Z</time>
      </trkpt>
      <trkpt lat="47.36256" lon="6.41926">
        <ele>275.56</ele>
        <time>2013-09-28T08:21:33Z</time>
      </trkpt>
      <trkpt lat="47.36278" lon="6.4192">
        <ele>275.56</ele>
        <time>2013-09-28T08:21:36Z</time>
      </trkpt>
      <trkpt lat="47.363" lon="6.41916">
        <ele>276.04</ele>
        <time>2013-09-28T08:21:39Z</time>
      </trkpt>
      <trkpt lat="47.3632" lon="6.41913">
        <ele>276.04</ele>
        <time>2013-09-28T08:21:42Z</time>
      </trkpt>
      <trkpt lat="47.36341" lon="6.41909">
        <ele>276.52</ele>
        <time>2013-09-28T08:21:45Z</time>
      </trkpt>
      <trkpt lat="47.36362" lon="6.41904">
        <ele>276.52</ele>
        <time>2013-09-28T08:21:48Z</time>
      </trkpt>
      <trkpt lat="47.36384" lon="6.41904">
        <ele>276.04</ele>
        <time>2013-09-28T08:21:51Z</time>
      </trkpt>
      <trkpt lat="47.36405" lon="6.41903">
        <ele>277</ele>
        <time>2013-09-28T08:21:54Z</time>
      </trkpt>
      <trkpt lat="47.36427" lon="6.419">
        <ele>276.52</ele>
        <time>2013-09-28T08:21:57Z</time>
      </trkpt>
      <trkpt lat="47.36449" lon="6.41899">
        <ele>277</ele>
        <time>2013-09-28T08:22:00Z</time>
      </trkpt>
      <trkpt lat="47.3647" lon="6.41899">
        <ele>277.48</ele>
        <time>2013-09-28T08:22:03Z</time>
      </trkpt>
      <trkpt lat="47.3649" lon="6.41901">
        <ele>277</ele>
        <time>2013-09-28T08:22:06Z</time>
      </trkpt>
      <trkpt lat="47.36509" lon="6.41903">
        <ele>277</ele>
        <time>2013-09-28T08:22:09Z</time>
      </trkpt>
      <trkpt lat="47.36528" lon="6.41905">
        <ele>276.52</ele>
        <time>2013-09-28T08:22:12Z</time>
      </trkpt>
      <trkpt lat="47.36548" lon="6.41907">
        <ele>277</ele>
        <time>2013-09-28T08:22:15Z</time>
      </trkpt>
      <trkpt lat="47.36567" lon="6.41911">
        <ele>276.52</ele>
        <time>2013-09-28T08:22:18Z</time>
      </trkpt>
      <trkpt lat="47.36586" lon="6.41916">
        <ele>277</ele>
        <time>2013-09-28T08:22:21Z</time>
      </trkpt>
      <trkpt lat="47.36606" lon="6.41925">
        <ele>277</ele>
        <time>2013-09-28T08:22:24Z</time>
      </trkpt>
      <trkpt lat="47.36625" lon="6.41933">
        <ele>277</ele>
        <time>2013-09-28T08:22:27Z</time>
      </trkpt>
      <trkpt lat="47.36643" lon="6.41943">
        <ele>276.52</ele>
        <time>2013-09-28T08:22:30Z</time>
      </trkpt>
      <trkpt lat="47.36662" lon="6.41954">
        <ele>277</ele>
        <time>2013-09-28T08:22:33Z</time>
      </trkpt>
      <trkpt lat="47.36681" lon="6.41964">
        <ele>277</ele>
        <time>2013-09-28T08:22:36Z</time>
      </trkpt>
      <trkpt lat="47.36701" lon="6.41975">
        <ele>279.4</ele>
        <time>2013-09-28T08:22:39Z</time>
      </trkpt>
      <trkpt lat="47.36719" lon="6.41986">
        <ele>277</ele>
        <time>2013-09-28T08:22:42Z</time>
      </trkpt>
      <trkpt lat="47.36738" lon="6.41997">
        <ele>277</ele>
        <time>2013-09-28T08:22:45Z</time>
      </trkpt>
      <trkpt lat="47.36757" lon="6.42007">
        <ele>277.48</ele>
        <time>2013-09-28T08:22:48Z</time>
      </trkpt>
      <trkpt lat="47.36776" lon="6.42018">
        <ele>277</ele>
        <time>2013-09-28T08:22:51Z</time>
      </trkpt>
      <trkpt lat="47.36795" lon="6.42029">
        <ele>276.52</ele>
        <time>2013-09-28T08:22:54Z</time>
      </trkpt>
      <trkpt lat="47.36814" lon="6.4204">
        <ele>277</ele>
        <time>2013-09-28T08:22:57Z</time>
      </trkpt>
      <trkpt lat="47.36833" lon="6.4205">
        <ele>277</ele>
        <time>2013-09-28T08:23:00Z</time>
      </trkpt>
      <trkpt lat="47.36852" lon="6.42062">
        <ele>276.52</ele>
        <time>2013-09-28T08:23:03Z</time>
      </trkpt>
      <trkpt lat="47.36871" lon="6.42074">
        <ele>276.52</ele>
        <time>2013-09-28T08:23:06Z</time>
      </trkpt>
      <trkpt lat="47.36889" lon="6.42087">
        <ele>277</ele>
        <time>2013-09-28T08:23:09Z</time>
      </trkpt>
      <trkpt lat="47.36906" lon="6.42101">
        <ele>277</ele>
        <time>2013-09-28T08:23:12Z</time>
      </trkpt>
      <trkpt lat="47.36924" lon="6.42115">
        <ele>277.48</ele>
        <time>2013-09-28T08:23:15Z</time>
      </trkpt>
      <trkpt lat="47.3694" lon="6.42129">
        <ele>277.48</ele>
        <time>2013-09-28T08:23:18Z</time>
      </trkpt>
      <trkpt lat="47.36956" lon="6.42144">
        <ele>277</ele>
        <time>2013-09-28T08:23:21Z</time>
      </trkpt>
      <trkpt lat="47.36972" lon="6.4216">
        <ele>277</ele>
        <time>2013-09-28T08:23:24Z</time>
      </trkpt>
      <trkpt lat="47.36988" lon="6.42178">
        <ele>277</ele>
        <time>2013-09-28T08:23:27Z</time>
      </trkpt>
      <trkpt lat="47.37004" lon="6.42197">
        <ele>277</ele>
        <time>2013-09-28T08:23:30Z</time>
      </trkpt>
      <trkpt lat="47.37019" lon="6.42217">
        <ele>276.52</ele>
        <time>2013-09-28T08:23:33Z</time>
      </trkpt>
      <trkpt lat="47.37032" lon="6.42237">
        <ele>277</ele>
        <time>2013-09-28T08:23:36Z</time>
      </trkpt>
      <trkpt lat="47.37046" lon="6.42258">
        <ele>277</ele>
        <time>2013-09-28T08:23:39Z</time>
      </trkpt>
      <trkpt lat="47.3706" lon="6.42279">
        <ele>277</ele>
        <time>2013-09-28T08:23:42Z</time>
      </trkpt>
      <trkpt lat="47.37072" lon="6.42301">
        <ele>277.48</ele>
        <time>2013-09-28T08:23:45Z</time>
      </trkpt>
      <trkpt lat="47.37084" lon="6.42323">
        <ele>277.48</ele>
        <time>2013-09-28T08:23:48Z</time>
      </trkpt>
      <trkpt lat="47.37095" lon="6.42346">
        <ele>277</ele>
        <time>2013-09-28T08:23:51Z</time>
      </trkpt>
      <trkpt lat="47.37106" lon="6.42369">
        <ele>276.04</ele>
        <time>2013-09-28T08:23:54Z</time>
      </trkpt>
      <trkpt lat="47.37116" lon="6.42393">
        <ele>276.04</ele>
        <time>2013-09-28T08:23:57Z</time>
      </trkpt>
      <trkpt lat="47.37126" lon="6.42417">
        <ele>276.04</ele>
        <time>2013-09-28T08:24:00Z</time>
      </trkpt>
      <trkpt lat="47.37136" lon="6.42442">
        <ele>276.04</ele>
        <time>2013-09-28T08:24:03Z</time>
      </trkpt>
      <trkpt lat="47.37146" lon="6.42467">
        <ele>276.52</ele>
        <time>2013-09-28T08:24:06Z</time>
      </trkpt>
      <trkpt lat="47.37156" lon="6.42492">
        <ele>277</ele>
        <time>2013-09-28T08:24:09Z</time>
      </trkpt>
      <trkpt lat="47.37164" lon="6.42517">
        <ele>277</ele>
        <time>2013-09-28T08:24:12Z</time>
      </trkpt>
      <trkpt lat="47.37169" lon="6.42545">
        <ele>276.52</ele>
        <time>2013-09-28T08:24:15Z</time>
      </trkpt>
      <trkpt lat="47.37168" lon="6.42574">
        <ele>277</ele>
        <time>2013-09-28T08:24:18Z</time>
      </trkpt>
      <trkpt lat="47.3716" lon="6.42602">
        <ele>276.52</ele>
        <time>2013-09-28T08:24:21Z</time>
      </trkpt>
      <trkpt lat="47.37148" lon="6.42626">
        <ele>276.52</ele>
        <time>2013-09-28T08:24:24Z</time>
      </trkpt>
      <trkpt lat="47.37134" lon="6.42648">
        <ele>277</ele>
        <time>2013-09-28T08:24:27Z</time>
      </trkpt>
      <trkpt lat="47.3712" lon="6.4267">
        <ele>276.52</ele>
        <time>2013-09-28T08:24:30Z</time>
      </trkpt>
      <trkpt lat="47.3711" lon="6.42694">
        <ele>276.52</ele>
        <time>2013-09-28T08:24:33Z</time>
      </trkpt>
      <trkpt lat="47.37093" lon="6.42707">
        <ele>276.52</ele>
        <time>2013-09-28T08:24:36Z</time>
      </trkpt>
      <trkpt lat="47.37072" lon="6.4271">
        <ele>276.52</ele>
        <time>2013-09-28T08:24:39Z</time>
      </trkpt>
      <trkpt lat="47.37053" lon="6.42716">
        <ele>276.52</ele>
        <time>2013-09-28T08:24:42Z</time>
      </trkpt>
      <trkpt lat="47.37033" lon="6.42722">
        <ele>277</ele>
        <time>2013-09-28T08:24:45Z</time>
      </trkpt>
      <trkpt lat="47.37011" lon="6.42722">
        <ele>276.52</ele>
        <time>2013-09-28T08:24:48Z</time>
      </trkpt>
      <trkpt lat="47.3699" lon="6.42718">
        <ele>276.52</ele>
        <time>2013-09-28T08:24:51Z</time>
      </trkpt>
      <trkpt lat="47.36968" lon="6.42715">
        <ele>276.04</ele>
        <time>2013-09-28T08:24:54Z</time>
      </trkpt>
      <trkpt lat="47.36946" lon="6.42717">
        <ele>275.56</ele>
        <time>2013-09-28T08:24:57Z</time>
      </trkpt>
      <trkpt lat="47.36924" lon="6.42725">
        <ele>275.56</ele>
        <time>2013-09-28T08:25:00Z</time>
      </trkpt>
      <trkpt lat="47.36904" lon="6.42738">
        <ele>275.56</ele>
        <time>2013-09-28T08:25:03Z</time>
      </trkpt>
      <trkpt lat="47.36884" lon="6.42752">
        <ele>275.07</ele>
        <time>2013-09-28T08:25:06Z</time>
      </trkpt>
      <trkpt lat="47.36863" lon="6.42762">
        <ele>275.07</ele>
        <time>2013-09-28T08:25:09Z</time>
      </trkpt>
      <trkpt lat="47.36844" lon="6.42772">
        <ele>275.07</ele>
        <time>2013-09-28T08:25:12Z</time>
      </trkpt>
      <trkpt lat="47.36827" lon="6.42785">
        <ele>275.07</ele>
        <time>2013-09-28T08:25:15Z</time>
      </trkpt>
      <trkpt lat="47.3681" lon="6.42803">
        <ele>276.04</ele>
        <time>2013-09-28T08:25:18Z</time>
      </trkpt>
      <trkpt lat="47.36795" lon="6.42826">
        <ele>275.07</ele>
        <time>2013-09-28T08:25:21Z</time>
      </trkpt>
      <trkpt lat="47.36783" lon="6.42853">
        <ele>275.07</ele>
        <time>2013-09-28T08:25:24Z</time>
      </trkpt>
      <trkpt lat="47.36772" lon="6.42883">
        <ele>275.07</ele>
        <time>2013-09-28T08:25:27Z</time>
      </trkpt>
      <trkpt lat="47.36761" lon="6.42915">
        <ele>274.59</ele>
        <time>2013-09-28T08:25:30Z</time>
      </trkpt>
      <trkpt lat="47.36752" lon="6.42949">
        <ele>275.07</ele>
        <time>2013-09-28T08:25:33Z</time>
      </trkpt>
      <trkpt lat="47.36745" lon="6.42982">
        <ele>274.59</ele>
        <time>2013-09-28T08:25:36Z</time>
      </trkpt>
      <trkpt lat="47.36739" lon="6.43013">
        <ele>275.56</ele>
        <time>2013-09-28T08:25:39Z</time>
      </trkpt>
      <trkpt lat="47.36735" lon="6.43044">
        <ele>275.07</ele>
        <time>2013-09-28T08:25:42Z</time>
      </trkpt>
      <trkpt lat="47.3673" lon="6.43077">
        <ele>275.07</ele>
        <time>2013-09-28T08:25:45Z</time>
      </trkpt>
      <trkpt lat="47.36723" lon="6.43108">
        <ele>275.07</ele>
        <time>2013-09-28T08:25:48Z</time>
      </trkpt>
      <trkpt lat="47.36717" lon="6.4314">
        <ele>275.07</ele>
        <time>2013-09-28T08:25:51Z</time>
      </trkpt>
      <trkpt lat="47.36709" lon="6.43173">
        <ele>275.56</ele>
        <time>2013-09-28T08:25:54Z</time>
      </trkpt>
      <trkpt lat="47.36703" lon="6.43208">
        <ele>274.59</ele>
        <time>2013-09-28T08:25:57Z</time>
      </trkpt>
      <trkpt lat="47.36699" lon="6.43242">
        <ele>275.56</ele>
        <time>2013-09-28T08:26:00Z</time>
      </trkpt>
      <trkpt lat="47.36695" lon="6.43275">
        <ele>275.07</ele>
        <time>2013-09-28T08:26:03Z</time>
      </trkpt>
      <trkpt lat="47.36692" lon="6.43308">
        <ele>275.07</ele>
        <time>2013-09-28T08:26:06Z</time>
      </trkpt>
      <trkpt lat="47.36689" lon="6.43342">
        <ele>275.56</ele>
        <time>2013-09-28T08:26:09Z</time>
      </trkpt>
      <trkpt lat="47.36685" lon="6.43376">
        <ele>275.07</ele>
        <time>2013-09-28T08:26:12Z</time>
      </trkpt>
      <trkpt lat="47.36681" lon="6.4341">
        <ele>275.07</ele>
        <time>2013-09-28T08:26:15Z</time>
      </trkpt>
      <trkpt lat="47.36679" lon="6.43444">
        <ele>275.56</ele>
        <time>2013-09-28T08:26:18Z</time>
      </trkpt>
      <trkpt lat="47.36676" lon="6.43479">
        <ele>274.59</ele>
        <time>2013-09-28T08:26:21Z</time>
      </trkpt>
      <trkpt lat="47.36672" lon="6.43513">
        <ele>275.07</ele>
        <time>2013-09-28T08:26:24Z</time>
      </trkpt>
      <trkpt lat="47.3667" lon="6.43547">
        <ele>274.59</ele>
        <time>2013-09-28T08:26:27Z</time>
      </trkpt>
      <trkpt lat="47.36668" lon="6.43581">
        <ele>276.04</ele>
        <time>2013-09-28T08:26:30Z</time>
      </trkpt>
      <trkpt lat="47.36666" lon="6.4361">
        <ele>275.56</ele>
        <time>2013-09-28T08:26:33Z</time>
      </trkpt>
      <trkpt lat="47.36663" lon="6.43637">
        <ele>276.52</ele>
        <time>2013-09-28T08:26:36Z</time>
      </trkpt>
      <trkpt lat="47.36659" lon="6.4367">
        <ele>276.04</ele>
        <time>2013-09-28T08:26:40Z</time>
      </trkpt>
      <trkpt lat="47.36654" lon="6.43699">
        <ele>276.52</ele>
        <time>2013-09-28T08:26:44Z</time>
      </trkpt>
      <trkpt lat="47.36651" lon="6.43727">
        <ele>276.04</ele>
        <time>2013-09-28T08:26:49Z</time>
      </trkpt>
      <trkpt lat="47.36651" lon="6.43753">
        <ele>275.07</ele>
        <time>2013-09-28T08:27:27Z</time>
      </trkpt>
      <trkpt lat="47.36649" lon="6.43782">
        <ele>276.04</ele>
        <time>2013-09-28T08:27:32Z</time>
      </trkpt>
      <trkpt lat="47.36648" lon="6.4381">
        <ele>276.52</ele>
        <time>2013-09-28T08:27:36Z</time>
      </trkpt>
      <trkpt lat="47.36644" lon="6.43841">
        <ele>276.04</ele>
        <time>2013-09-28T08:27:40Z</time>
      </trkpt>
      <trkpt lat="47.36638" lon="6.43872">
        <ele>276.04</ele>
        <time>2013-09-28T08:27:44Z</time>
      </trkpt>
      <trkpt lat="47.36631" lon="6.43905">
        <ele>276.52</ele>
        <time>2013-09-28T08:27:48Z</time>
      </trkpt>
      <trkpt lat="47.36623" lon="6.43932">
        <ele>275.56</ele>
        <time>2013-09-28T08:27:51Z</time>
      </trkpt>
      <trkpt lat="47.36615" lon="6.4396">
        <ele>276.04</ele>
        <time>2013-09-28T08:27:54Z</time>
      </trkpt>
      <trkpt lat="47.36604" lon="6.43987">
        <ele>276.04</ele>
        <time>2013-09-28T08:27:57Z</time>
      </trkpt>
      <trkpt lat="47.36591" lon="6.44013">
        <ele>276.04</ele>
        <time>2013-09-28T08:28:00Z</time>
      </trkpt>
      <trkpt lat="47.36579" lon="6.44038">
        <ele>275.56</ele>
        <time>2013-09-28T08:28:03Z</time>
      </trkpt>
      <trkpt lat="47.36567" lon="6.44064">
        <ele>276.04</ele>
        <time>2013-09-28T08:28:06Z</time>
      </trkpt>
      <trkpt lat="47.36554" lon="6.44089">
        <ele>276.04</ele>
        <time>2013-09-28T08:28:09Z</time>
      </trkpt>
      <trkpt lat="47.36542" lon="6.44115">
        <ele>276.04</ele>
        <time>2013-09-28T08:28:12Z</time>
      </trkpt>
      <trkpt lat="47.3653" lon="6.44141">
        <ele>276.52</ele>
        <time>2013-09-28T08:28:15Z</time>
      </trkpt>
      <trkpt lat="47.36519" lon="6.44166">
        <ele>276.52</ele>
        <time>2013-09-28T08:28:18Z</time>
      </trkpt>
      <trkpt lat="47.36508" lon="6.44193">
        <ele>276.04</ele>
        <time>2013-09-28T08:28:21Z</time>
      </trkpt>
      <trkpt lat="47.36496" lon="6.4422">
        <ele>276.52</ele>
        <time>2013-09-28T08:28:24Z</time>
      </trkpt>
      <trkpt lat="47.36484" lon="6.44246">
        <ele>276.04</ele>
        <time>2013-09-28T08:28:27Z</time>
      </trkpt>
      <trkpt lat="47.3647" lon="6.44269">
        <ele>276.52</ele>
        <time>2013-09-28T08:28:30Z</time>
      </trkpt>
      <trkpt lat="47.36456" lon="6.44292">
        <ele>276.04</ele>
        <time>2013-09-28T08:28:33Z</time>
      </trkpt>
      <trkpt lat="47.36442" lon="6.44318">
        <ele>276.04</ele>
        <time>2013-09-28T08:28:36Z</time>
      </trkpt>
      <trkpt lat="47.36429" lon="6.44344">
        <ele>275.56</ele>
        <time>2013-09-28T08:28:39Z</time>
      </trkpt>
      <trkpt lat="47.36416" lon="6.44369">
        <ele>276.04</ele>
        <time>2013-09-28T08:28:42Z</time>
      </trkpt>
      <trkpt lat="47.36403" lon="6.44391">
        <ele>277.48</ele>
        <time>2013-09-28T08:28:45Z</time>
      </trkpt>
      <trkpt lat="47.36391" lon="6.44416">
        <ele>276.52</ele>
        <time>2013-09-28T08:28:48Z</time>
      </trkpt>
      <trkpt lat="47.3638" lon="6.44442">
        <ele>277</ele>
        <time>2013-09-28T08:28:51Z</time>
      </trkpt>
      <trkpt lat="47.3637" lon="6.44468">
        <ele>276.52</ele>
        <time>2013-09-28T08:28:54Z</time>
      </trkpt>
      <trkpt lat="47.36359" lon="6.44494">
        <ele>276.52</ele>
        <time>2013-09-28T08:28:57Z</time>
      </trkpt>
      <trkpt lat="47.36347" lon="6.44519">
        <ele>276.52</ele>
        <time>2013-09-28T08:29:00Z</time>
      </trkpt>
      <trkpt lat="47.36335" lon="6.44544">
        <ele>276.04</ele>
        <time>2013-09-28T08:29:03Z</time>
      </trkpt>
      <trkpt lat="47.36324" lon="6.44568">
        <ele>276.52</ele>
        <time>2013-09-28T08:29:06Z</time>
      </trkpt>
      <trkpt lat="47.36314" lon="6.44592">
        <ele>277</ele>
        <time>2013-09-28T08:29:09Z</time>
      </trkpt>
      <trkpt lat="47.36304" lon="6.44619">
        <ele>277.48</ele>
        <time>2013-09-28T08:29:12Z</time>
      </trkpt>
      <trkpt lat="47.36293" lon="6.44646">
        <ele>277.48</ele>
        <time>2013-09-28T08:29:15Z</time>
      </trkpt>
      <trkpt lat="47.36282" lon="6.44674">
        <ele>277</ele>
        <time>2013-09-28T08:29:18Z</time>
      </trkpt>
      <trkpt lat="47.36272" lon="6.44701">
        <ele>277.48</ele>
        <time>2013-09-28T08:29:21Z</time>
      </trkpt>
      <trkpt lat="47.36263" lon="6.44729">
        <ele>277.48</ele>
        <time>2013-09-28T08:29:24Z</time>
      </trkpt>
      <trkpt lat="47.36253" lon="6.44755">
        <ele>277.48</ele>
        <time>2013-09-28T08:29:27Z</time>
      </trkpt>
      <trkpt lat="47.36243" lon="6.44783">
        <ele>277.48</ele>
        <time>2013-09-28T08:29:30Z</time>
      </trkpt>
      <trkpt lat="47.36234" lon="6.44809">
        <ele>277.96</ele>
        <time>2013-09-28T08:29:33Z</time>
      </trkpt>
      <trkpt lat="47.36232" lon="6.44839">
        <ele>277.96</ele>
        <time>2013-09-28T08:29:36Z</time>
      </trkpt>
      <trkpt lat="47.36231" lon="6.44867">
        <ele>277.48</ele>
        <time>2013-09-28T08:29:39Z</time>
      </trkpt>
      <trkpt lat="47.36229" lon="6.44896">
        <ele>277.96</ele>
        <time>2013-09-28T08:29:42Z</time>
      </trkpt>
      <trkpt lat="47.36229" lon="6.44926">
        <ele>277.48</ele>
        <time>2013-09-28T08:29:45Z</time>
      </trkpt>
      <trkpt lat="47.36229" lon="6.44956">
        <ele>277.48</ele>
        <time>2013-09-28T08:29:48Z</time>
      </trkpt>
      <trkpt lat="47.36229" lon="6.44985">
        <ele>277.48</ele>
        <time>2013-09-28T08:29:51Z</time>
      </trkpt>
      <trkpt lat="47.36229" lon="6.45015">
        <ele>277.48</ele>
        <time>2013-09-28T08:29:54Z</time>
      </trkpt>
      <trkpt lat="47.36231" lon="6.45046">
        <ele>277.48</ele>
        <time>2013-09-28T08:29:57Z</time>
      </trkpt>
      <trkpt lat="47.36239" lon="6.45074">
        <ele>277.48</ele>
        <time>2013-09-28T08:30:00Z</time>
      </trkpt>
      <trkpt lat="47.36247" lon="6.45101">
        <ele>277.96</ele>
        <time>2013-09-28T08:30:03Z</time>
      </trkpt>
      <trkpt lat="47.36261" lon="6.45125">
        <ele>277.96</ele>
        <time>2013-09-28T08:30:06Z</time>
      </trkpt>
      <trkpt lat="47.3628" lon="6.45149">
        <ele>278.44</ele>
        <time>2013-09-28T08:30:09Z</time>
      </trkpt>
      <trkpt lat="47.36298" lon="6.45169">
        <ele>278.92</ele>
        <time>2013-09-28T08:30:12Z</time>
      </trkpt>
      <trkpt lat="47.36316" lon="6.45191">
        <ele>279.4</ele>
        <time>2013-09-28T08:30:15Z</time>
      </trkpt>
      <trkpt lat="47.36336" lon="6.45211">
        <ele>278.92</ele>
        <time>2013-09-28T08:30:18Z</time>
      </trkpt>
      <trkpt lat="47.36355" lon="6.45233">
        <ele>277.96</ele>
        <time>2013-09-28T08:30:21Z</time>
      </trkpt>
      <trkpt lat="47.36377" lon="6.45248">
        <ele>277.48</ele>
        <time>2013-09-28T08:30:24Z</time>
      </trkpt>
      <trkpt lat="47.364" lon="6.45252">
        <ele>277</ele>
        <time>2013-09-28T08:30:27Z</time>
      </trkpt>
      <trkpt lat="47.36422" lon="6.4526">
        <ele>277.48</ele>
        <time>2013-09-28T08:30:30Z</time>
      </trkpt>
      <trkpt lat="47.36444" lon="6.4527">
        <ele>277.48</ele>
        <time>2013-09-28T08:30:33Z</time>
      </trkpt>
      <trkpt lat="47.36464" lon="6.45276">
        <ele>277.96</ele>
        <time>2013-09-28T08:30:36Z</time>
      </trkpt>
      <trkpt lat="47.36485" lon="6.45282">
        <ele>277.48</ele>
        <time>2013-09-28T08:30:39Z</time>
      </trkpt>
      <trkpt lat="47.36506" lon="6.45289">
        <ele>277.48</ele>
        <time>2013-09-28T08:30:42Z</time>
      </trkpt>
      <trkpt lat="47.36527" lon="6.45296">
        <ele>277.96</ele>
        <time>2013-09-28T08:30:45Z</time>
      </trkpt>
      <trkpt lat="47.36548" lon="6.45302">
        <ele>277.96</ele>
        <time>2013-09-28T08:30:48Z</time>
      </trkpt>
      <trkpt lat="47.36569" lon="6.45307">
        <ele>277.96</ele>
        <time>2013-09-28T08:30:51Z</time>
      </trkpt>
      <trkpt lat="47.36589" lon="6.4531">
        <ele>278.44</ele>
        <time>2013-09-28T08:30:54Z</time>
      </trkpt>
      <trkpt lat="47.36611" lon="6.45312">
        <ele>277.48</ele>
        <time>2013-09-28T08:30:57Z</time>
      </trkpt>
      <trkpt lat="47.36633" lon="6.45313">
        <ele>277.96</ele>
        <time>2013-09-28T08:31:00Z</time>
      </trkpt>
      <trkpt lat="47.36654" lon="6.45315">
        <ele>277.48</ele>
        <time>2013-09-28T08:31:03Z</time>
      </trkpt>
      <trkpt lat="47.36676" lon="6.45315">
        <ele>277.48</ele>
        <time>2013-09-28T08:31:06Z</time>
      </trkpt>
      <trkpt lat="47.36697" lon="6.45316">
        <ele>277.48</ele>
        <time>2013-09-28T08:31:09Z</time>
      </trkpt>
      <trkpt lat="47.36719" lon="6.45316">
        <ele>277.48</ele>
        <time>2013-09-28T08:31:12Z</time>
      </trkpt>
      <trkpt lat="47.36741" lon="6.45317">
        <ele>277</ele>
        <time>2013-09-28T08:31:15Z</time>
      </trkpt>
      <trkpt lat="47.36762" lon="6.45319">
        <ele>277.48</ele>
        <time>2013-09-28T08:31:18Z</time>
      </trkpt>
      <trkpt lat="47.36784" lon="6.45323">
        <ele>277</ele>
        <time>2013-09-28T08:31:21Z</time>
      </trkpt>
      <trkpt lat="47.36805" lon="6.45325">
        <ele>277.48</ele>
        <time>2013-09-28T08:31:24Z</time>
      </trkpt>
      <trkpt lat="47.36827" lon="6.45324">
        <ele>277.48</ele>
        <time>2013-09-28T08:31:27Z</time>
      </trkpt>
      <trkpt lat="47.36849" lon="6.45324">
        <ele>277.48</ele>
        <time>2013-09-28T08:31:30Z</time>
      </trkpt>
      <trkpt lat="47.36869" lon="6.45326">
        <ele>277</ele>
        <time>2013-09-28T08:31:33Z</time>
      </trkpt>
      <trkpt lat="47.36889" lon="6.4533">
        <ele>277.48</ele>
        <time>2013-09-28T08:31:36Z</time>
      </trkpt>
      <trkpt lat="47.36908" lon="6.45336">
        <ele>277.48</ele>
        <time>2013-09-28T08:31:39Z</time>
      </trkpt>
      <trkpt lat="47.36927" lon="6.45344">
        <ele>277</ele>
        <time>2013-09-28T08:31:42Z</time>
      </trkpt>
      <trkpt lat="47.36947" lon="6.45354">
        <ele>277</ele>
        <time>2013-09-28T08:31:45Z</time>
      </trkpt>
      <trkpt lat="47.36967" lon="6.45365">
        <ele>277</ele>
        <time>2013-09-28T08:31:48Z</time>
      </trkpt>
      <trkpt lat="47.36988" lon="6.45377">
        <ele>277</ele>
        <time>2013-09-28T08:31:51Z</time>
      </trkpt>
      <trkpt lat="47.37009" lon="6.45389">
        <ele>277</ele>
        <time>2013-09-28T08:31:54Z</time>
      </trkpt>
      <trkpt lat="47.37029" lon="6.45403">
        <ele>276.04</ele>
        <time>2013-09-28T08:31:57Z</time>
      </trkpt>
      <trkpt lat="47.37048" lon="6.4542">
        <ele>276.52</ele>
        <time>2013-09-28T08:32:00Z</time>
      </trkpt>
      <trkpt lat="47.37066" lon="6.45436">
        <ele>277.48</ele>
        <time>2013-09-28T08:32:03Z</time>
      </trkpt>
      <trkpt lat="47.37082" lon="6.45454">
        <ele>277.96</ele>
        <time>2013-09-28T08:32:06Z</time>
      </trkpt>
      <trkpt lat="47.371" lon="6.4547">
        <ele>276.52</ele>
        <time>2013-09-28T08:32:09Z</time>
      </trkpt>
      <trkpt lat="47.37118" lon="6.45487">
        <ele>277</ele>
        <time>2013-09-28T08:32:12Z</time>
      </trkpt>
      <trkpt lat="47.37136" lon="6.45504">
        <ele>276.52</ele>
        <time>2013-09-28T08:32:15Z</time>
      </trkpt>
      <trkpt lat="47.37154" lon="6.4552">
        <ele>277.96</ele>
        <time>2013-09-28T08:32:18Z</time>
      </trkpt>
      <trkpt lat="47.37172" lon="6.45538">
        <ele>277</ele>
        <time>2013-09-28T08:32:21Z</time>
      </trkpt>
      <trkpt lat="47.3719" lon="6.45555">
        <ele>276.52</ele>
        <time>2013-09-28T08:32:24Z</time>
      </trkpt>
      <trkpt lat="47.37207" lon="6.45574">
        <ele>276.52</ele>
        <time>2013-09-28T08:32:27Z</time>
      </trkpt>
      <trkpt lat="47.37223" lon="6.45593">
        <ele>277</ele>
        <time>2013-09-28T08:32:30Z</time>
      </trkpt>
      <trkpt lat="47.3724" lon="6.45614">
        <ele>276.52</ele>
        <time>2013-09-28T08:32:33Z</time>
      </trkpt>
      <trkpt lat="47.37255" lon="6.45637">
        <ele>276.52</ele>
        <time>2013-09-28T08:32:36Z</time>
      </trkpt>
      <trkpt lat="47.37271" lon="6.45658">
        <ele>276.52</ele>
        <time>2013-09-28T08:32:39Z</time>
      </trkpt>
      <trkpt lat="47.37287" lon="6.45678">
        <ele>277.48</ele>
        <time>2013-09-28T08:32:42Z</time>
      </trkpt>
      <trkpt lat="47.37304" lon="6.45699">
        <ele>277</ele>
        <time>2013-09-28T08:32:45Z</time>
      </trkpt>
      <trkpt lat="47.37318" lon="6.45723">
        <ele>277</ele>
        <time>2013-09-28T08:32:48Z</time>
      </trkpt>
      <trkpt lat="47.37329" lon="6.45749">
        <ele>277</ele>
        <time>2013-09-28T08:32:51Z</time>
      </trkpt>
      <trkpt lat="47.37337" lon="6.45776">
        <ele>277</ele>
        <time>2013-09-28T08:32:54Z</time>
      </trkpt>
      <trkpt lat="47.37343" lon="6.45806">
        <ele>277.48</ele>
        <time>2013-09-28T08:32:57Z</time>
      </trkpt>
      <trkpt lat="47.37348" lon="6.45837">
        <ele>277.48</ele>
        <time>2013-09-28T08:33:00Z</time>
      </trkpt>
      <trkpt lat="47.37353" lon="6.45868">
        <ele>277.48</ele>
        <time>2013-09-28T08:33:03Z</time>
      </trkpt>
      <trkpt lat="47.37358" lon="6.45896">
        <ele>277.96</ele>
        <time>2013-09-28T08:33:06Z</time>
      </trkpt>
      <trkpt lat="47.37354" lon="6.45924">
        <ele>278.44</ele>
        <time>2013-09-28T08:33:10Z</time>
      </trkpt>
      <trkpt lat="47.37332" lon="6.45931">
        <ele>280.36</ele>
        <time>2013-09-28T08:33:15Z</time>
      </trkpt>
      <trkpt lat="47.37309" lon="6.4594">
        <ele>281.8</ele>
        <time>2013-09-28T08:33:19Z</time>
      </trkpt>
      <trkpt lat="47.37286" lon="6.45953">
        <ele>283.25</ele>
        <time>2013-09-28T08:33:23Z</time>
      </trkpt>
      <trkpt lat="47.37267" lon="6.45975">
        <ele>284.69</ele>
        <time>2013-09-28T08:33:27Z</time>
      </trkpt>
      <trkpt lat="47.37253" lon="6.46001">
        <ele>286.61</ele>
        <time>2013-09-28T08:33:31Z</time>
      </trkpt>
      <trkpt lat="47.3724" lon="6.46027">
        <ele>287.09</ele>
        <time>2013-09-28T08:33:35Z</time>
      </trkpt>
      <trkpt lat="47.37227" lon="6.46052">
        <ele>287.57</ele>
        <time>2013-09-28T08:33:39Z</time>
      </trkpt>
      <trkpt lat="47.37214" lon="6.46077">
        <ele>288.53</ele>
        <time>2013-09-28T08:33:43Z</time>
      </trkpt>
      <trkpt lat="47.37201" lon="6.46102">
        <ele>289.97</ele>
        <time>2013-09-28T08:33:47Z</time>
      </trkpt>
      <trkpt lat="47.37188" lon="6.46129">
        <ele>291.42</ele>
        <time>2013-09-28T08:33:52Z</time>
      </trkpt>
      <trkpt lat="47.37178" lon="6.46153">
        <ele>292.86</ele>
        <time>2013-09-28T08:33:57Z</time>
      </trkpt>
      <trkpt lat="47.37167" lon="6.46182">
        <ele>293.82</ele>
        <time>2013-09-28T08:34:02Z</time>
      </trkpt>
      <trkpt lat="47.37157" lon="6.46211">
        <ele>293.34</ele>
        <time>2013-09-28T08:34:07Z</time>
      </trkpt>
      <trkpt lat="47.37148" lon="6.4624">
        <ele>293.82</ele>
        <time>2013-09-28T08:34:12Z</time>
      </trkpt>
      <trkpt lat="47.37138" lon="6.46269">
        <ele>293.82</ele>
        <time>2013-09-28T08:34:17Z</time>
      </trkpt>
      <trkpt lat="47.37127" lon="6.46297">
        <ele>294.3</ele>
        <time>2013-09-28T08:34:22Z</time>
      </trkpt>
      <trkpt lat="47.37114" lon="6.46323">
        <ele>294.78</ele>
        <time>2013-09-28T08:34:27Z</time>
      </trkpt>
      <trkpt lat="47.37101" lon="6.46347">
        <ele>294.3</ele>
        <time>2013-09-28T08:34:32Z</time>
      </trkpt>
      <trkpt lat="47.37087" lon="6.46365">
        <ele>295.26</ele>
        <time>2013-09-28T08:34:38Z</time>
      </trkpt>
      <trkpt lat="47.3707" lon="6.46383">
        <ele>295.74</ele>
        <time>2013-09-28T08:34:45Z</time>
      </trkpt>
      <trkpt lat="47.37052" lon="6.46397">
        <ele>295.74</ele>
        <time>2013-09-28T08:34:52Z</time>
      </trkpt>
      <trkpt lat="47.37034" lon="6.4641">
        <ele>296.7</ele>
        <time>2013-09-28T08:35:01Z</time>
      </trkpt>
      <trkpt lat="47.37017" lon="6.46421">
        <ele>297.18</ele>
        <time>2013-09-28T08:35:13Z</time>
      </trkpt>
      <trkpt lat="47.37029" lon="6.46413">
        <ele>297.18</ele>
        <time>2013-09-28T08:35:33Z</time>
      </trkpt>
      <trkpt lat="47.37003" lon="6.4643">
        <ele>298.15</ele>
        <time>2013-09-28T08:35:39Z</time>
      </trkpt>
      <trkpt lat="47.36984" lon="6.46442">
        <ele>298.63</ele>
        <time>2013-09-28T08:35:44Z</time>
      </trkpt>
      <trkpt lat="47.36964" lon="6.46456">
        <ele>298.63</ele>
        <time>2013-09-28T08:35:49Z</time>
      </trkpt>
      <trkpt lat="47.36945" lon="6.4647">
        <ele>299.59</ele>
        <time>2013-09-28T08:35:54Z</time>
      </trkpt>
      <trkpt lat="47.36929" lon="6.46485">
        <ele>300.55</ele>
        <time>2013-09-28T08:35:58Z</time>
      </trkpt>
      <trkpt lat="47.36912" lon="6.46506">
        <ele>301.51</ele>
        <time>2013-09-28T08:36:03Z</time>
      </trkpt>
      <trkpt lat="47.36898" lon="6.46528">
        <ele>302.95</ele>
        <time>2013-09-28T08:36:08Z</time>
      </trkpt>
      <trkpt lat="47.36884" lon="6.4655">
        <ele>303.91</ele>
        <time>2013-09-28T08:36:13Z</time>
      </trkpt>
      <trkpt lat="47.36871" lon="6.46573">
        <ele>304.88</ele>
        <time>2013-09-28T08:36:18Z</time>
      </trkpt>
      <trkpt lat="47.36858" lon="6.46596">
        <ele>306.32</ele>
        <time>2013-09-28T08:36:23Z</time>
      </trkpt>
      <trkpt lat="47.36845" lon="6.46617">
        <ele>307.28</ele>
        <time>2013-09-28T08:36:28Z</time>
      </trkpt>
      <trkpt lat="47.36831" lon="6.46642">
        <ele>309.68</ele>
        <time>2013-09-28T08:36:34Z</time>
      </trkpt>
      <trkpt lat="47.36819" lon="6.46662">
        <ele>309.68</ele>
        <time>2013-09-28T08:36:39Z</time>
      </trkpt>
      <trkpt lat="47.36806" lon="6.46683">
        <ele>310.16</ele>
        <time>2013-09-28T08:36:44Z</time>
      </trkpt>
      <trkpt lat="47.36794" lon="6.46704">
        <ele>311.6</ele>
        <time>2013-09-28T08:36:49Z</time>
      </trkpt>
      <trkpt lat="47.36783" lon="6.46727">
        <ele>312.57</ele>
        <time>2013-09-28T08:36:54Z</time>
      </trkpt>
      <trkpt lat="47.36774" lon="6.46753">
        <ele>313.53</ele>
        <time>2013-09-28T08:36:59Z</time>
      </trkpt>
      <trkpt lat="47.36768" lon="6.46778">
        <ele>314.49</ele>
        <time>2013-09-28T08:37:04Z</time>
      </trkpt>
      <trkpt lat="47.3676" lon="6.46803">
        <ele>316.89</ele>
        <time>2013-09-28T08:37:10Z</time>
      </trkpt>
      <trkpt lat="47.36759" lon="6.46833">
        <ele>315.93</ele>
        <time>2013-09-28T08:37:16Z</time>
      </trkpt>
      <trkpt lat="47.36762" lon="6.46863">
        <ele>315.45</ele>
        <time>2013-09-28T08:37:22Z</time>
      </trkpt>
      <trkpt lat="47.36766" lon="6.46893">
        <ele>315.45</ele>
        <time>2013-09-28T08:37:28Z</time>
      </trkpt>
      <trkpt lat="47.3677" lon="6.4692">
        <ele>315.45</ele>
        <time>2013-09-28T08:37:32Z</time>
      </trkpt>
      <trkpt lat="47.36774" lon="6.4695">
        <ele>315.45</ele>
        <time>2013-09-28T08:37:36Z</time>
      </trkpt>
      <trkpt lat="47.36778" lon="6.46979">
        <ele>315.45</ele>
        <time>2013-09-28T08:37:40Z</time>
      </trkpt>
      <trkpt lat="47.36779" lon="6.47009">
        <ele>315.45</ele>
        <time>2013-09-28T08:37:44Z</time>
      </trkpt>
      <trkpt lat="47.36779" lon="6.47036">
        <ele>316.89</ele>
        <time>2013-09-28T08:37:48Z</time>
      </trkpt>
      <trkpt lat="47.3678" lon="6.47063">
        <ele>316.89</ele>
        <time>2013-09-28T08:37:52Z</time>
      </trkpt>
      <trkpt lat="47.36779" lon="6.4709">
        <ele>317.37</ele>
        <time>2013-09-28T08:37:56Z</time>
      </trkpt>
      <trkpt lat="47.36778" lon="6.47123">
        <ele>318.33</ele>
        <time>2013-09-28T08:38:01Z</time>
      </trkpt>
      <trkpt lat="47.36776" lon="6.4715">
        <ele>318.81</ele>
        <time>2013-09-28T08:38:05Z</time>
      </trkpt>
      <trkpt lat="47.36773" lon="6.47177">
        <ele>319.78</ele>
        <time>2013-09-28T08:38:09Z</time>
      </trkpt>
      <trkpt lat="47.36771" lon="6.47206">
        <ele>320.26</ele>
        <time>2013-09-28T08:38:13Z</time>
      </trkpt>
      <trkpt lat="47.36767" lon="6.47236">
        <ele>320.74</ele>
        <time>2013-09-28T08:38:17Z</time>
      </trkpt>
      <trkpt lat="47.36764" lon="6.47266">
        <ele>320.74</ele>
        <time>2013-09-28T08:38:21Z</time>
      </trkpt>
      <trkpt lat="47.36762" lon="6.47297">
        <ele>321.22</ele>
        <time>2013-09-28T08:38:25Z</time>
      </trkpt>
      <trkpt lat="47.36758" lon="6.47327">
        <ele>321.22</ele>
        <time>2013-09-28T08:38:29Z</time>
      </trkpt>
      <trkpt lat="47.36754" lon="6.47357">
        <ele>321.22</ele>
        <time>2013-09-28T08:38:33Z</time>
      </trkpt>
      <trkpt lat="47.36748" lon="6.47389">
        <ele>320.74</ele>
        <time>2013-09-28T08:38:37Z</time>
      </trkpt>
      <trkpt lat="47.36741" lon="6.47412">
        <ele>321.22</ele>
        <time>2013-09-28T08:38:40Z</time>
      </trkpt>
      <trkpt lat="47.36734" lon="6.47445">
        <ele>321.22</ele>
        <time>2013-09-28T08:38:44Z</time>
      </trkpt>
      <trkpt lat="47.36732" lon="6.47474">
        <ele>322.18</ele>
        <time>2013-09-28T08:38:48Z</time>
      </trkpt>
      <trkpt lat="47.3673" lon="6.47502">
        <ele>323.14</ele>
        <time>2013-09-28T08:38:52Z</time>
      </trkpt>
      <trkpt lat="47.36728" lon="6.4753">
        <ele>324.1</ele>
        <time>2013-09-28T08:38:56Z</time>
      </trkpt>
      <trkpt lat="47.36724" lon="6.47557">
        <ele>324.58</ele>
        <time>2013-09-28T08:39:00Z</time>
      </trkpt>
      <trkpt lat="47.36723" lon="6.47587">
        <ele>324.1</ele>
        <time>2013-09-28T08:39:04Z</time>
      </trkpt>
      <trkpt lat="47.36721" lon="6.4762">
        <ele>323.62</ele>
        <time>2013-09-28T08:39:08Z</time>
      </trkpt>
      <trkpt lat="47.36721" lon="6.47648">
        <ele>322.66</ele>
        <time>2013-09-28T08:39:11Z</time>
      </trkpt>
      <trkpt lat="47.36718" lon="6.47678">
        <ele>321.22</ele>
        <time>2013-09-28T08:39:14Z</time>
      </trkpt>
      <trkpt lat="47.36715" lon="6.47714">
        <ele>319.78</ele>
        <time>2013-09-28T08:39:17Z</time>
      </trkpt>
      <trkpt lat="47.36715" lon="6.47751">
        <ele>319.3</ele>
        <time>2013-09-28T08:39:20Z</time>
      </trkpt>
      <trkpt lat="47.36718" lon="6.47782">
        <ele>318.81</ele>
        <time>2013-09-28T08:39:23Z</time>
      </trkpt>
      <trkpt lat="47.36721" lon="6.47808">
        <ele>318.33</ele>
        <time>2013-09-28T08:39:25Z</time>
      </trkpt>
      <trkpt lat="47.36725" lon="6.4784">
        <ele>318.33</ele>
        <time>2013-09-28T08:39:28Z</time>
      </trkpt>
      <trkpt lat="47.36728" lon="6.4787">
        <ele>318.33</ele>
        <time>2013-09-28T08:39:31Z</time>
      </trkpt>
      <trkpt lat="47.36731" lon="6.47898">
        <ele>318.81</ele>
        <time>2013-09-28T08:39:34Z</time>
      </trkpt>
      <trkpt lat="47.36733" lon="6.47926">
        <ele>317.85</ele>
        <time>2013-09-28T08:39:37Z</time>
      </trkpt>
      <trkpt lat="47.36739" lon="6.47956">
        <ele>316.41</ele>
        <time>2013-09-28T08:39:40Z</time>
      </trkpt>
      <trkpt lat="47.36751" lon="6.47985">
        <ele>315.45</ele>
        <time>2013-09-28T08:39:43Z</time>
      </trkpt>
      <trkpt lat="47.36763" lon="6.48014">
        <ele>314.49</ele>
        <time>2013-09-28T08:39:46Z</time>
      </trkpt>
      <trkpt lat="47.36769" lon="6.48046">
        <ele>313.53</ele>
        <time>2013-09-28T08:39:49Z</time>
      </trkpt>
      <trkpt lat="47.3677" lon="6.48076">
        <ele>313.53</ele>
        <time>2013-09-28T08:39:52Z</time>
      </trkpt>
      <trkpt lat="47.3677" lon="6.48105">
        <ele>313.53</ele>
        <time>2013-09-28T08:39:55Z</time>
      </trkpt>
      <trkpt lat="47.36768" lon="6.48132">
        <ele>313.53</ele>
        <time>2013-09-28T08:39:58Z</time>
      </trkpt>
      <trkpt lat="47.36764" lon="6.48164">
        <ele>313.05</ele>
        <time>2013-09-28T08:40:02Z</time>
      </trkpt>
      <trkpt lat="47.3676" lon="6.48196">
        <ele>311.6</ele>
        <time>2013-09-28T08:40:06Z</time>
      </trkpt>
      <trkpt lat="47.36754" lon="6.48222">
        <ele>311.12</ele>
        <time>2013-09-28T08:40:09Z</time>
      </trkpt>
      <trkpt lat="47.36746" lon="6.48251">
        <ele>310.64</ele>
        <time>2013-09-28T08:40:12Z</time>
      </trkpt>
      <trkpt lat="47.36736" lon="6.48282">
        <ele>309.2</ele>
        <time>2013-09-28T08:40:15Z</time>
      </trkpt>
      <trkpt lat="47.36726" lon="6.48315">
        <ele>307.76</ele>
        <time>2013-09-28T08:40:18Z</time>
      </trkpt>
      <trkpt lat="47.36722" lon="6.4835">
        <ele>306.8</ele>
        <time>2013-09-28T08:40:21Z</time>
      </trkpt>
      <trkpt lat="47.36728" lon="6.48377">
        <ele>305.36</ele>
        <time>2013-09-28T08:40:24Z</time>
      </trkpt>
      <trkpt lat="47.36746" lon="6.48382">
        <ele>303.91</ele>
        <time>2013-09-28T08:40:30Z</time>
      </trkpt>
      <trkpt lat="47.36758" lon="6.48406">
        <ele>301.99</ele>
        <time>2013-09-28T08:40:33Z</time>
      </trkpt>
      <trkpt lat="47.3677" lon="6.48438">
        <ele>300.07</ele>
        <time>2013-09-28T08:40:36Z</time>
      </trkpt>
      <trkpt lat="47.36777" lon="6.48463">
        <ele>298.15</ele>
        <time>2013-09-28T08:40:38Z</time>
      </trkpt>
      <trkpt lat="47.3678" lon="6.48491">
        <ele>296.22</ele>
        <time>2013-09-28T08:40:40Z</time>
      </trkpt>
      <trkpt lat="47.36783" lon="6.4852">
        <ele>295.26</ele>
        <time>2013-09-28T08:40:42Z</time>
      </trkpt>
      <trkpt lat="47.36784" lon="6.48548">
        <ele>293.82</ele>
        <time>2013-09-28T08:40:44Z</time>
      </trkpt>
      <trkpt lat="47.36783" lon="6.48578">
        <ele>290.94</ele>
        <time>2013-09-28T08:40:46Z</time>
      </trkpt>
      <trkpt lat="47.36781" lon="6.48609">
        <ele>288.53</ele>
        <time>2013-09-28T08:40:48Z</time>
      </trkpt>
      <trkpt lat="47.3678" lon="6.4864">
        <ele>287.09</ele>
        <time>2013-09-28T08:40:50Z</time>
      </trkpt>
      <trkpt lat="47.36779" lon="6.4867">
        <ele>285.65</ele>
        <time>2013-09-28T08:40:52Z</time>
      </trkpt>
      <trkpt lat="47.3678" lon="6.48697">
        <ele>283.25</ele>
        <time>2013-09-28T08:40:54Z</time>
      </trkpt>
      <trkpt lat="47.36781" lon="6.48726">
        <ele>281.8</ele>
        <time>2013-09-28T08:40:57Z</time>
      </trkpt>
      <trkpt lat="47.36786" lon="6.48753">
        <ele>281.32</ele>
        <time>2013-09-28T08:41:00Z</time>
      </trkpt>
      <trkpt lat="47.36791" lon="6.48783">
        <ele>281.32</ele>
        <time>2013-09-28T08:41:03Z</time>
      </trkpt>
      <trkpt lat="47.36796" lon="6.48812">
        <ele>281.32</ele>
        <time>2013-09-28T08:41:05Z</time>
      </trkpt>
      <trkpt lat="47.36799" lon="6.48837">
        <ele>280.84</ele>
        <time>2013-09-28T08:41:08Z</time>
      </trkpt>
      <trkpt lat="47.36804" lon="6.48867">
        <ele>280.84</ele>
        <time>2013-09-28T08:41:12Z</time>
      </trkpt>
      <trkpt lat="47.36808" lon="6.48897">
        <ele>280.84</ele>
        <time>2013-09-28T08:41:15Z</time>
      </trkpt>
      <trkpt lat="47.36813" lon="6.48923">
        <ele>280.84</ele>
        <time>2013-09-28T08:41:18Z</time>
      </trkpt>
      <trkpt lat="47.36818" lon="6.48951">
        <ele>280.84</ele>
        <time>2013-09-28T08:41:21Z</time>
      </trkpt>
      <trkpt lat="47.36824" lon="6.48978">
        <ele>281.32</ele>
        <time>2013-09-28T08:41:24Z</time>
      </trkpt>
      <trkpt lat="47.36829" lon="6.49005">
        <ele>280.84</ele>
        <time>2013-09-28T08:41:27Z</time>
      </trkpt>
      <trkpt lat="47.36833" lon="6.49033">
        <ele>280.84</ele>
        <time>2013-09-28T08:41:30Z</time>
      </trkpt>
      <trkpt lat="47.36837" lon="6.4906">
        <ele>280.84</ele>
        <time>2013-09-28T08:41:33Z</time>
      </trkpt>
      <trkpt lat="47.36842" lon="6.49087">
        <ele>280.84</ele>
        <time>2013-09-28T08:41:36Z</time>
      </trkpt>
      <trkpt lat="47.36846" lon="6.49112">
        <ele>281.32</ele>
        <time>2013-09-28T08:41:39Z</time>
      </trkpt>
      <trkpt lat="47.36846" lon="6.49145">
        <ele>281.32</ele>
        <time>2013-09-28T08:41:43Z</time>
      </trkpt>
      <trkpt lat="47.36851" lon="6.49172">
        <ele>281.32</ele>
        <time>2013-09-28T08:41:46Z</time>
      </trkpt>
      <trkpt lat="47.36858" lon="6.49199">
        <ele>281.8</ele>
        <time>2013-09-28T08:41:50Z</time>
      </trkpt>
      <trkpt lat="47.36865" lon="6.49226">
        <ele>281.32</ele>
        <time>2013-09-28T08:41:53Z</time>
      </trkpt>
      <trkpt lat="47.36873" lon="6.49254">
        <ele>281.32</ele>
        <time>2013-09-28T08:41:56Z</time>
      </trkpt>
      <trkpt lat="47.36881" lon="6.4928">
        <ele>281.8</ele>
        <time>2013-09-28T08:42:00Z</time>
      </trkpt>
      <trkpt lat="47.36889" lon="6.49306">
        <ele>282.28</ele>
        <time>2013-09-28T08:42:03Z</time>
      </trkpt>
      <trkpt lat="47.36897" lon="6.4933">
        <ele>282.28</ele>
        <time>2013-09-28T08:42:06Z</time>
      </trkpt>
      <trkpt lat="47.36905" lon="6.49356">
        <ele>282.28</ele>
        <time>2013-09-28T08:42:09Z</time>
      </trkpt>
      <trkpt lat="47.36914" lon="6.4938">
        <ele>282.28</ele>
        <time>2013-09-28T08:42:13Z</time>
      </trkpt>
      <trkpt lat="47.36923" lon="6.49405">
        <ele>282.77</ele>
        <time>2013-09-28T08:42:16Z</time>
      </trkpt>
      <trkpt lat="47.36932" lon="6.4943">
        <ele>282.77</ele>
        <time>2013-09-28T08:42:19Z</time>
      </trkpt>
      <trkpt lat="47.3694" lon="6.49455">
        <ele>283.73</ele>
        <time>2013-09-28T08:42:23Z</time>
      </trkpt>
      <trkpt lat="47.3695" lon="6.49482">
        <ele>283.73</ele>
        <time>2013-09-28T08:42:26Z</time>
      </trkpt>
      <trkpt lat="47.36958" lon="6.49508">
        <ele>284.21</ele>
        <time>2013-09-28T08:42:29Z</time>
      </trkpt>
      <trkpt lat="47.36968" lon="6.49533">
        <ele>285.17</ele>
        <time>2013-09-28T08:42:33Z</time>
      </trkpt>
      <trkpt lat="47.36976" lon="6.49559">
        <ele>285.17</ele>
        <time>2013-09-28T08:42:36Z</time>
      </trkpt>
      <trkpt lat="47.36982" lon="6.49584">
        <ele>285.65</ele>
        <time>2013-09-28T08:42:39Z</time>
      </trkpt>
      <trkpt lat="47.36993" lon="6.49607">
        <ele>286.13</ele>
        <time>2013-09-28T08:42:43Z</time>
      </trkpt>
      <trkpt lat="47.37004" lon="6.4963">
        <ele>286.13</ele>
        <time>2013-09-28T08:42:46Z</time>
      </trkpt>
      <trkpt lat="47.37016" lon="6.49651">
        <ele>285.65</ele>
        <time>2013-09-28T08:42:49Z</time>
      </trkpt>
      <trkpt lat="47.37028" lon="6.49673">
        <ele>285.17</ele>
        <time>2013-09-28T08:42:52Z</time>
      </trkpt>
      <trkpt lat="47.37039" lon="6.49694">
        <ele>285.17</ele>
        <time>2013-09-28T08:42:55Z</time>
      </trkpt>
      <trkpt lat="47.37051" lon="6.49716">
        <ele>285.65</ele>
        <time>2013-09-28T08:42:58Z</time>
      </trkpt>
      <trkpt lat="47.37063" lon="6.49738">
        <ele>285.17</ele>
        <time>2013-09-28T08:43:01Z</time>
      </trkpt>
      <trkpt lat="47.37074" lon="6.4976">
        <ele>284.69</ele>
        <time>2013-09-28T08:43:04Z</time>
      </trkpt>
      <trkpt lat="47.37085" lon="6.4978">
        <ele>285.17</ele>
        <time>2013-09-28T08:43:07Z</time>
      </trkpt>
      <trkpt lat="47.37095" lon="6.49802">
        <ele>285.17</ele>
        <time>2013-09-28T08:43:10Z</time>
      </trkpt>
      <trkpt lat="47.37107" lon="6.49827">
        <ele>285.65</ele>
        <time>2013-09-28T08:43:13Z</time>
      </trkpt>
      <trkpt lat="47.37117" lon="6.49849">
        <ele>284.69</ele>
        <time>2013-09-28T08:43:16Z</time>
      </trkpt>
      <trkpt lat="47.37128" lon="6.49871">
        <ele>285.17</ele>
        <time>2013-09-28T08:43:19Z</time>
      </trkpt>
      <trkpt lat="47.37137" lon="6.49895">
        <ele>286.61</ele>
        <time>2013-09-28T08:43:22Z</time>
      </trkpt>
      <trkpt lat="47.37146" lon="6.49922">
        <ele>287.57</ele>
        <time>2013-09-28T08:43:26Z</time>
      </trkpt>
      <trkpt lat="47.37153" lon="6.49945">
        <ele>289.01</ele>
        <time>2013-09-28T08:43:29Z</time>
      </trkpt>
      <trkpt lat="47.37163" lon="6.49971">
        <ele>289.97</ele>
        <time>2013-09-28T08:43:33Z</time>
      </trkpt>
      <trkpt lat="47.37178" lon="6.49995">
        <ele>290.46</ele>
        <time>2013-09-28T08:43:37Z</time>
      </trkpt>
      <trkpt lat="47.37193" lon="6.50016">
        <ele>290.94</ele>
        <time>2013-09-28T08:43:41Z</time>
      </trkpt>
      <trkpt lat="47.3721" lon="6.50038">
        <ele>289.97</ele>
        <time>2013-09-28T08:43:45Z</time>
      </trkpt>
      <trkpt lat="47.37226" lon="6.50055">
        <ele>289.01</ele>
        <time>2013-09-28T08:43:48Z</time>
      </trkpt>
      <trkpt lat="47.37246" lon="6.50069">
        <ele>287.57</ele>
        <time>2013-09-28T08:43:51Z</time>
      </trkpt>
      <trkpt lat="47.37267" lon="6.50084">
        <ele>287.09</ele>
        <time>2013-09-28T08:43:54Z</time>
      </trkpt>
      <trkpt lat="47.37285" lon="6.50098">
        <ele>286.13</ele>
        <time>2013-09-28T08:43:57Z</time>
      </trkpt>
      <trkpt lat="47.37292" lon="6.50126">
        <ele>286.13</ele>
        <time>2013-09-28T08:44:01Z</time>
      </trkpt>
      <trkpt lat="47.3728" lon="6.50151">
        <ele>287.09</ele>
        <time>2013-09-28T08:44:07Z</time>
      </trkpt>
      <trkpt lat="47.37262" lon="6.50173">
        <ele>288.05</ele>
        <time>2013-09-28T08:44:12Z</time>
      </trkpt>
      <trkpt lat="47.37246" lon="6.50201">
        <ele>289.49</ele>
        <time>2013-09-28T08:44:17Z</time>
      </trkpt>
      <trkpt lat="47.37235" lon="6.50232">
        <ele>289.97</ele>
        <time>2013-09-28T08:44:22Z</time>
      </trkpt>
      <trkpt lat="47.37229" lon="6.5026">
        <ele>290.46</ele>
        <time>2013-09-28T08:44:27Z</time>
      </trkpt>
      <trkpt lat="47.37221" lon="6.50286">
        <ele>290.94</ele>
        <time>2013-09-28T08:44:32Z</time>
      </trkpt>
      <trkpt lat="47.37216" lon="6.50313">
        <ele>291.42</ele>
        <time>2013-09-28T08:44:37Z</time>
      </trkpt>
      <trkpt lat="47.37214" lon="6.5034">
        <ele>291.9</ele>
        <time>2013-09-28T08:44:42Z</time>
      </trkpt>
      <trkpt lat="47.3722" lon="6.50363">
        <ele>292.38</ele>
        <time>2013-09-28T08:44:48Z</time>
      </trkpt>
      <trkpt lat="47.37235" lon="6.50346">
        <ele>293.34</ele>
        <time>2013-09-28T08:44:54Z</time>
      </trkpt>
      <trkpt lat="47.37248" lon="6.50325">
        <ele>294.78</ele>
        <time>2013-09-28T08:44:59Z</time>
      </trkpt>
      <trkpt lat="47.37254" lon="6.50302">
        <ele>296.7</ele>
        <time>2013-09-28T08:45:05Z</time>
      </trkpt>
      <trkpt lat="47.37201" lon="6.50251">
        <ele>298.63</ele>
        <time>2013-09-28T08:45:11Z</time>
      </trkpt>
      <trkpt lat="47.37236" lon="6.50235">
        <ele>300.55</ele>
        <time>2013-09-28T08:45:18Z</time>
      </trkpt>
      <trkpt lat="47.37271" lon="6.5022">
        <ele>302.95</ele>
        <time>2013-09-28T08:45:25Z</time>
      </trkpt>
      <trkpt lat="47.37294" lon="6.50206">
        <ele>304.88</ele>
        <time>2013-09-28T08:45:32Z</time>
      </trkpt>
      <trkpt lat="47.37316" lon="6.50204">
        <ele>306.8</ele>
        <time>2013-09-28T08:45:39Z</time>
      </trkpt>
      <trkpt lat="47.37338" lon="6.50211">
        <ele>308.72</ele>
        <time>2013-09-28T08:45:46Z</time>
      </trkpt>
      <trkpt lat="47.37359" lon="6.50226">
        <ele>310.16</ele>
        <time>2013-09-28T08:45:55Z</time>
      </trkpt>
      <trkpt lat="47.3738" lon="6.50243">
        <ele>311.12</ele>
        <time>2013-09-28T08:46:04Z</time>
      </trkpt>
      <trkpt lat="47.37402" lon="6.50258">
        <ele>313.05</ele>
        <time>2013-09-28T08:46:12Z</time>
      </trkpt>
      <trkpt lat="47.37417" lon="6.50272">
        <ele>313.53</ele>
        <time>2013-09-28T08:46:18Z</time>
      </trkpt>
      <trkpt lat="47.37443" lon="6.5029">
        <ele>315.45</ele>
        <time>2013-09-28T08:46:24Z</time>
      </trkpt>
      <trkpt lat="47.37465" lon="6.50311">
        <ele>317.37</ele>
        <time>2013-09-28T08:46:30Z</time>
      </trkpt>
      <trkpt lat="47.3748" lon="6.50333">
        <ele>319.3</ele>
        <time>2013-09-28T08:46:36Z</time>
      </trkpt>
      <trkpt lat="47.37493" lon="6.50351">
        <ele>320.74</ele>
        <time>2013-09-28T08:46:42Z</time>
      </trkpt>
      <trkpt lat="47.37508" lon="6.50369">
        <ele>322.18</ele>
        <time>2013-09-28T08:46:48Z</time>
      </trkpt>
      <trkpt lat="47.37524" lon="6.50384">
        <ele>322.66</ele>
        <time>2013-09-28T08:46:54Z</time>
      </trkpt>
      <trkpt lat="47.37541" lon="6.50401">
        <ele>323.62</ele>
        <time>2013-09-28T08:47:01Z</time>
      </trkpt>
      <trkpt lat="47.37558" lon="6.50415">
        <ele>325.06</ele>
        <time>2013-09-28T08:47:07Z</time>
      </trkpt>
      <trkpt lat="47.37574" lon="6.50428">
        <ele>326.99</ele>
        <time>2013-09-28T08:47:13Z</time>
      </trkpt>
      <trkpt lat="47.3759" lon="6.50444">
        <ele>328.91</ele>
        <time>2013-09-28T08:47:19Z</time>
      </trkpt>
      <trkpt lat="47.37606" lon="6.5046">
        <ele>330.35</ele>
        <time>2013-09-28T08:47:25Z</time>
      </trkpt>
      <trkpt lat="47.37621" lon="6.50478">
        <ele>330.83</ele>
        <time>2013-09-28T08:47:31Z</time>
      </trkpt>
      <trkpt lat="47.37636" lon="6.50494">
        <ele>331.79</ele>
        <time>2013-09-28T08:47:38Z</time>
      </trkpt>
      <trkpt lat="47.3765" lon="6.50511">
        <ele>332.27</ele>
        <time>2013-09-28T08:47:45Z</time>
      </trkpt>
      <trkpt lat="47.37663" lon="6.50529">
        <ele>331.79</ele>
        <time>2013-09-28T08:47:52Z</time>
      </trkpt>
      <trkpt lat="47.37677" lon="6.50549">
        <ele>331.79</ele>
        <time>2013-09-28T08:47:58Z</time>
      </trkpt>
      <trkpt lat="47.37688" lon="6.50575">
        <ele>330.83</ele>
        <time>2013-09-28T08:48:03Z</time>
      </trkpt>
      <trkpt lat="47.37698" lon="6.50604">
        <ele>330.35</ele>
        <time>2013-09-28T08:48:08Z</time>
      </trkpt>
      <trkpt lat="47.37704" lon="6.50631">
        <ele>331.31</ele>
        <time>2013-09-28T08:48:13Z</time>
      </trkpt>
      <trkpt lat="47.37709" lon="6.50658">
        <ele>332.75</ele>
        <time>2013-09-28T08:48:18Z</time>
      </trkpt>
      <trkpt lat="47.37715" lon="6.50686">
        <ele>334.2</ele>
        <time>2013-09-28T08:48:23Z</time>
      </trkpt>
      <trkpt lat="47.3772" lon="6.50715">
        <ele>336.12</ele>
        <time>2013-09-28T08:48:29Z</time>
      </trkpt>
      <trkpt lat="47.37721" lon="6.50745">
        <ele>338.04</ele>
        <time>2013-09-28T08:48:35Z</time>
      </trkpt>
      <trkpt lat="47.37718" lon="6.50772">
        <ele>338.52</ele>
        <time>2013-09-28T08:48:40Z</time>
      </trkpt>
      <trkpt lat="47.37718" lon="6.50803">
        <ele>340.44</ele>
        <time>2013-09-28T08:48:46Z</time>
      </trkpt>
      <trkpt lat="47.37717" lon="6.50831">
        <ele>341.41</ele>
        <time>2013-09-28T08:48:51Z</time>
      </trkpt>
      <trkpt lat="47.37717" lon="6.50859">
        <ele>342.37</ele>
        <time>2013-09-28T08:48:56Z</time>
      </trkpt>
      <trkpt lat="47.37722" lon="6.50889">
        <ele>343.81</ele>
        <time>2013-09-28T08:49:02Z</time>
      </trkpt>
      <trkpt lat="47.37732" lon="6.50919">
        <ele>344.29</ele>
        <time>2013-09-28T08:49:08Z</time>
      </trkpt>
      <trkpt lat="47.37748" lon="6.50935">
        <ele>343.81</ele>
        <time>2013-09-28T08:49:13Z</time>
      </trkpt>
      <trkpt lat="47.37769" lon="6.50934">
        <ele>346.21</ele>
        <time>2013-09-28T08:49:19Z</time>
      </trkpt>
      <trkpt lat="47.37766" lon="6.50935">
        <ele>345.73</ele>
        <time>2013-09-28T08:49:33Z</time>
      </trkpt>
      <trkpt lat="47.37768" lon="6.50933">
        <ele>346.69</ele>
        <time>2013-09-28T08:49:47Z</time>
      </trkpt>
      <trkpt lat="47.37791" lon="6.50929">
        <ele>347.17</ele>
        <time>2013-09-28T08:49:54Z</time>
      </trkpt>
      <trkpt lat="47.37812" lon="6.50929">
        <ele>347.17</ele>
        <time>2013-09-28T08:50:00Z</time>
      </trkpt>
      <trkpt lat="47.37834" lon="6.50931">
        <ele>345.73</ele>
        <time>2013-09-28T08:50:05Z</time>
      </trkpt>
      <trkpt lat="47.37854" lon="6.50931">
        <ele>345.73</ele>
        <time>2013-09-28T08:50:09Z</time>
      </trkpt>
      <trkpt lat="47.37874" lon="6.50931">
        <ele>345.73</ele>
        <time>2013-09-28T08:50:13Z</time>
      </trkpt>
      <trkpt lat="47.37894" lon="6.5093">
        <ele>346.21</ele>
        <time>2013-09-28T08:50:17Z</time>
      </trkpt>
      <trkpt lat="47.37914" lon="6.50929">
        <ele>346.21</ele>
        <time>2013-09-28T08:50:21Z</time>
      </trkpt>
      <trkpt lat="47.37933" lon="6.50927">
        <ele>346.69</ele>
        <time>2013-09-28T08:50:25Z</time>
      </trkpt>
      <trkpt lat="47.37956" lon="6.50924">
        <ele>345.73</ele>
        <time>2013-09-28T08:50:30Z</time>
      </trkpt>
      <trkpt lat="47.37977" lon="6.50919">
        <ele>345.73</ele>
        <time>2013-09-28T08:50:34Z</time>
      </trkpt>
      <trkpt lat="47.38" lon="6.50913">
        <ele>345.25</ele>
        <time>2013-09-28T08:50:38Z</time>
      </trkpt>
      <trkpt lat="47.38023" lon="6.50907">
        <ele>345.25</ele>
        <time>2013-09-28T08:50:42Z</time>
      </trkpt>
      <trkpt lat="47.38046" lon="6.50901">
        <ele>344.77</ele>
        <time>2013-09-28T08:50:46Z</time>
      </trkpt>
      <trkpt lat="47.38069" lon="6.50893">
        <ele>343.81</ele>
        <time>2013-09-28T08:50:50Z</time>
      </trkpt>
      <trkpt lat="47.38091" lon="6.50881">
        <ele>343.81</ele>
        <time>2013-09-28T08:50:54Z</time>
      </trkpt>
      <trkpt lat="47.38113" lon="6.50869">
        <ele>343.33</ele>
        <time>2013-09-28T08:50:58Z</time>
      </trkpt>
      <trkpt lat="47.38134" lon="6.50864">
        <ele>342.85</ele>
        <time>2013-09-28T08:51:02Z</time>
      </trkpt>
      <trkpt lat="47.38158" lon="6.50862">
        <ele>341.89</ele>
        <time>2013-09-28T08:51:06Z</time>
      </trkpt>
      <trkpt lat="47.38176" lon="6.50856">
        <ele>341.89</ele>
        <time>2013-09-28T08:51:09Z</time>
      </trkpt>
      <trkpt lat="47.38199" lon="6.50847">
        <ele>340.92</ele>
        <time>2013-09-28T08:51:13Z</time>
      </trkpt>
      <trkpt lat="47.38219" lon="6.50839">
        <ele>339.48</ele>
        <time>2013-09-28T08:51:17Z</time>
      </trkpt>
      <trkpt lat="47.38238" lon="6.50842">
        <ele>339</ele>
        <time>2013-09-28T08:51:24Z</time>
      </trkpt>
      <trkpt lat="47.38239" lon="6.50843">
        <ele>339</ele>
        <time>2013-09-28T08:52:28Z</time>
      </trkpt>
      <trkpt lat="47.38236" lon="6.50871">
        <ele>339.96</ele>
        <time>2013-09-28T08:52:36Z</time>
      </trkpt>
      <trkpt lat="47.38242" lon="6.50873">
        <ele>340.44</ele>
        <time>2013-09-28T08:59:18Z</time>
      </trkpt>
      <trkpt lat="47.38232" lon="6.50899">
        <ele>339</ele>
        <time>2013-09-28T08:59:31Z</time>
      </trkpt>
      <trkpt lat="47.38221" lon="6.50925">
        <ele>339.96</ele>
        <time>2013-09-28T08:59:38Z</time>
      </trkpt>
      <trkpt lat="47.3821" lon="6.50953">
        <ele>339.96</ele>
        <time>2013-09-28T08:59:45Z</time>
      </trkpt>
      <trkpt lat="47.38199" lon="6.5098">
        <ele>339</ele>
        <time>2013-09-28T08:59:52Z</time>
      </trkpt>
      <trkpt lat="47.3819" lon="6.51006">
        <ele>339.96</ele>
        <time>2013-09-28T08:59:58Z</time>
      </trkpt>
      <trkpt lat="47.38182" lon="6.51032">
        <ele>339.96</ele>
        <time>2013-09-28T09:00:03Z</time>
      </trkpt>
      <trkpt lat="47.38174" lon="6.51062">
        <ele>339.96</ele>
        <time>2013-09-28T09:00:08Z</time>
      </trkpt>
      <trkpt lat="47.38171" lon="6.51093">
        <ele>339.48</ele>
        <time>2013-09-28T09:00:13Z</time>
      </trkpt>
      <trkpt lat="47.38181" lon="6.51118">
        <ele>339</ele>
        <time>2013-09-28T09:00:19Z</time>
      </trkpt>
      <trkpt lat="47.38201" lon="6.51135">
        <ele>338.52</ele>
        <time>2013-09-28T09:00:24Z</time>
      </trkpt>
      <trkpt lat="47.3822" lon="6.51153">
        <ele>337.56</ele>
        <time>2013-09-28T09:00:28Z</time>
      </trkpt>
      <trkpt lat="47.38237" lon="6.51178">
        <ele>337.08</ele>
        <time>2013-09-28T09:00:32Z</time>
      </trkpt>
      <trkpt lat="47.38255" lon="6.51203">
        <ele>336.6</ele>
        <time>2013-09-28T09:00:36Z</time>
      </trkpt>
      <trkpt lat="47.38269" lon="6.51223">
        <ele>336.6</ele>
        <time>2013-09-28T09:00:40Z</time>
      </trkpt>
      <trkpt lat="47.38284" lon="6.51241">
        <ele>337.08</ele>
        <time>2013-09-28T09:00:45Z</time>
      </trkpt>
      <trkpt lat="47.38302" lon="6.51258">
        <ele>337.08</ele>
        <time>2013-09-28T09:00:52Z</time>
      </trkpt>
      <trkpt lat="47.38316" lon="6.51275">
        <ele>337.08</ele>
        <time>2013-09-28T09:00:59Z</time>
      </trkpt>
      <trkpt lat="47.3833" lon="6.51293">
        <ele>338.04</ele>
        <time>2013-09-28T09:01:06Z</time>
      </trkpt>
      <trkpt lat="47.38345" lon="6.51313">
        <ele>338.52</ele>
        <time>2013-09-28T09:01:13Z</time>
      </trkpt>
      <trkpt lat="47.38357" lon="6.51333">
        <ele>339.48</ele>
        <time>2013-09-28T09:01:21Z</time>
      </trkpt>
      <trkpt lat="47.38371" lon="6.51357">
        <ele>339.48</ele>
        <time>2013-09-28T09:01:29Z</time>
      </trkpt>
      <trkpt lat="47.38382" lon="6.51377">
        <ele>339.96</ele>
        <time>2013-09-28T09:01:34Z</time>
      </trkpt>
      <trkpt lat="47.38396" lon="6.51401">
        <ele>340.44</ele>
        <time>2013-09-28T09:01:40Z</time>
      </trkpt>
      <trkpt lat="47.38409" lon="6.51423">
        <ele>341.41</ele>
        <time>2013-09-28T09:01:45Z</time>
      </trkpt>
      <trkpt lat="47.38423" lon="6.51444">
        <ele>340.92</ele>
        <time>2013-09-28T09:01:50Z</time>
      </trkpt>
      <trkpt lat="47.3844" lon="6.51464">
        <ele>341.41</ele>
        <time>2013-09-28T09:01:55Z</time>
      </trkpt>
      <trkpt lat="47.38456" lon="6.51484">
        <ele>341.89</ele>
        <time>2013-09-28T09:02:00Z</time>
      </trkpt>
      <trkpt lat="47.38471" lon="6.51504">
        <ele>342.37</ele>
        <time>2013-09-28T09:02:05Z</time>
      </trkpt>
      <trkpt lat="47.38484" lon="6.51525">
        <ele>342.37</ele>
        <time>2013-09-28T09:02:10Z</time>
      </trkpt>
      <trkpt lat="47.38497" lon="6.51546">
        <ele>342.85</ele>
        <time>2013-09-28T09:02:15Z</time>
      </trkpt>
      <trkpt lat="47.3851" lon="6.51567">
        <ele>344.29</ele>
        <time>2013-09-28T09:02:20Z</time>
      </trkpt>
      <trkpt lat="47.38524" lon="6.51588">
        <ele>346.21</ele>
        <time>2013-09-28T09:02:25Z</time>
      </trkpt>
      <trkpt lat="47.38538" lon="6.51608">
        <ele>347.17</ele>
        <time>2013-09-28T09:02:31Z</time>
      </trkpt>
      <trkpt lat="47.38554" lon="6.51628">
        <ele>348.62</ele>
        <time>2013-09-28T09:02:37Z</time>
      </trkpt>
      <trkpt lat="47.38568" lon="6.51648">
        <ele>350.06</ele>
        <time>2013-09-28T09:02:43Z</time>
      </trkpt>
      <trkpt lat="47.38582" lon="6.51668">
        <ele>351.5</ele>
        <time>2013-09-28T09:02:49Z</time>
      </trkpt>
      <trkpt lat="47.38594" lon="6.5169">
        <ele>353.9</ele>
        <time>2013-09-28T09:02:55Z</time>
      </trkpt>
      <trkpt lat="47.38603" lon="6.51715">
        <ele>355.83</ele>
        <time>2013-09-28T09:03:01Z</time>
      </trkpt>
      <trkpt lat="47.38611" lon="6.5174">
        <ele>357.75</ele>
        <time>2013-09-28T09:03:07Z</time>
      </trkpt>
      <trkpt lat="47.38618" lon="6.51766">
        <ele>358.71</ele>
        <time>2013-09-28T09:03:15Z</time>
      </trkpt>
      <trkpt lat="47.3862" lon="6.51792">
        <ele>359.19</ele>
        <time>2013-09-28T09:03:29Z</time>
      </trkpt>
      <trkpt lat="47.38622" lon="6.5182">
        <ele>359.19</ele>
        <time>2013-09-28T09:03:38Z</time>
      </trkpt>
      <trkpt lat="47.38623" lon="6.51849">
        <ele>360.15</ele>
        <time>2013-09-28T09:03:46Z</time>
      </trkpt>
      <trkpt lat="47.38625" lon="6.51876">
        <ele>360.63</ele>
        <time>2013-09-28T09:03:53Z</time>
      </trkpt>
      <trkpt lat="47.38627" lon="6.51905">
        <ele>361.11</ele>
        <time>2013-09-28T09:04:01Z</time>
      </trkpt>
      <trkpt lat="47.38629" lon="6.51936">
        <ele>361.11</ele>
        <time>2013-09-28T09:04:09Z</time>
      </trkpt>
      <trkpt lat="47.38631" lon="6.51964">
        <ele>362.07</ele>
        <time>2013-09-28T09:04:16Z</time>
      </trkpt>
      <trkpt lat="47.38633" lon="6.51992">
        <ele>362.55</ele>
        <time>2013-09-28T09:04:23Z</time>
      </trkpt>
      <trkpt lat="47.38636" lon="6.52019">
        <ele>362.55</ele>
        <time>2013-09-28T09:04:29Z</time>
      </trkpt>
      <trkpt lat="47.38641" lon="6.52047">
        <ele>363.52</ele>
        <time>2013-09-28T09:04:35Z</time>
      </trkpt>
      <trkpt lat="47.38645" lon="6.52073">
        <ele>364</ele>
        <time>2013-09-28T09:04:40Z</time>
      </trkpt>
      <trkpt lat="47.38649" lon="6.52099">
        <ele>364.48</ele>
        <time>2013-09-28T09:04:45Z</time>
      </trkpt>
      <trkpt lat="47.38654" lon="6.52126">
        <ele>364.48</ele>
        <time>2013-09-28T09:04:50Z</time>
      </trkpt>
      <trkpt lat="47.38659" lon="6.52153">
        <ele>364.96</ele>
        <time>2013-09-28T09:04:55Z</time>
      </trkpt>
      <trkpt lat="47.38662" lon="6.52182">
        <ele>365.92</ele>
        <time>2013-09-28T09:05:00Z</time>
      </trkpt>
      <trkpt lat="47.38667" lon="6.5221">
        <ele>366.88</ele>
        <time>2013-09-28T09:05:05Z</time>
      </trkpt>
      <trkpt lat="47.3867" lon="6.52239">
        <ele>367.36</ele>
        <time>2013-09-28T09:05:10Z</time>
      </trkpt>
      <trkpt lat="47.38674" lon="6.52267">
        <ele>368.32</ele>
        <time>2013-09-28T09:05:15Z</time>
      </trkpt>
      <trkpt lat="47.38678" lon="6.52295">
        <ele>369.28</ele>
        <time>2013-09-28T09:05:20Z</time>
      </trkpt>
      <trkpt lat="47.38682" lon="6.52323">
        <ele>369.28</ele>
        <time>2013-09-28T09:05:25Z</time>
      </trkpt>
      <trkpt lat="47.38687" lon="6.52351">
        <ele>370.24</ele>
        <time>2013-09-28T09:05:30Z</time>
      </trkpt>
      <trkpt lat="47.38694" lon="6.52378">
        <ele>371.21</ele>
        <time>2013-09-28T09:05:35Z</time>
      </trkpt>
      <trkpt lat="47.38701" lon="6.52404">
        <ele>372.17</ele>
        <time>2013-09-28T09:05:40Z</time>
      </trkpt>
      <trkpt lat="47.38708" lon="6.52427">
        <ele>373.13</ele>
        <time>2013-09-28T09:05:45Z</time>
      </trkpt>
      <trkpt lat="47.38716" lon="6.52454">
        <ele>375.05</ele>
        <time>2013-09-28T09:05:51Z</time>
      </trkpt>
      <trkpt lat="47.38725" lon="6.52479">
        <ele>376.97</ele>
        <time>2013-09-28T09:05:57Z</time>
      </trkpt>
      <trkpt lat="47.38732" lon="6.52503">
        <ele>378.9</ele>
        <time>2013-09-28T09:06:03Z</time>
      </trkpt>
      <trkpt lat="47.38739" lon="6.52527">
        <ele>380.82</ele>
        <time>2013-09-28T09:06:10Z</time>
      </trkpt>
      <trkpt lat="47.38747" lon="6.52554">
        <ele>382.74</ele>
        <time>2013-09-28T09:06:17Z</time>
      </trkpt>
      <trkpt lat="47.38754" lon="6.52582">
        <ele>384.66</ele>
        <time>2013-09-28T09:06:24Z</time>
      </trkpt>
      <trkpt lat="47.38762" lon="6.52608">
        <ele>386.11</ele>
        <time>2013-09-28T09:06:31Z</time>
      </trkpt>
      <trkpt lat="47.3877" lon="6.52633">
        <ele>388.03</ele>
        <time>2013-09-28T09:06:38Z</time>
      </trkpt>
      <trkpt lat="47.38776" lon="6.5266">
        <ele>389.47</ele>
        <time>2013-09-28T09:06:45Z</time>
      </trkpt>
      <trkpt lat="47.38783" lon="6.52688">
        <ele>390.91</ele>
        <time>2013-09-28T09:06:51Z</time>
      </trkpt>
      <trkpt lat="47.38789" lon="6.52716">
        <ele>391.87</ele>
        <time>2013-09-28T09:06:57Z</time>
      </trkpt>
      <trkpt lat="47.38796" lon="6.52746">
        <ele>392.36</ele>
        <time>2013-09-28T09:07:03Z</time>
      </trkpt>
      <trkpt lat="47.38804" lon="6.52774">
        <ele>393.8</ele>
        <time>2013-09-28T09:07:09Z</time>
      </trkpt>
      <trkpt lat="47.38811" lon="6.52799">
        <ele>395.72</ele>
        <time>2013-09-28T09:07:14Z</time>
      </trkpt>
      <trkpt lat="47.38819" lon="6.52824">
        <ele>396.2</ele>
        <time>2013-09-28T09:07:19Z</time>
      </trkpt>
      <trkpt lat="47.38827" lon="6.52849">
        <ele>397.16</ele>
        <time>2013-09-28T09:07:24Z</time>
      </trkpt>
      <trkpt lat="47.38836" lon="6.52874">
        <ele>398.12</ele>
        <time>2013-09-28T09:07:29Z</time>
      </trkpt>
      <trkpt lat="47.38846" lon="6.52899">
        <ele>399.08</ele>
        <time>2013-09-28T09:07:34Z</time>
      </trkpt>
      <trkpt lat="47.38857" lon="6.52923">
        <ele>400.05</ele>
        <time>2013-09-28T09:07:39Z</time>
      </trkpt>
      <trkpt lat="47.38869" lon="6.52944">
        <ele>400.05</ele>
        <time>2013-09-28T09:07:44Z</time>
      </trkpt>
      <trkpt lat="47.38878" lon="6.52969">
        <ele>400.05</ele>
        <time>2013-09-28T09:07:49Z</time>
      </trkpt>
      <trkpt lat="47.38888" lon="6.52995">
        <ele>401.01</ele>
        <time>2013-09-28T09:07:55Z</time>
      </trkpt>
      <trkpt lat="47.38893" lon="6.53026">
        <ele>401.49</ele>
        <time>2013-09-28T09:08:02Z</time>
      </trkpt>
      <trkpt lat="47.38897" lon="6.5306">
        <ele>402.45</ele>
        <time>2013-09-28T09:08:09Z</time>
      </trkpt>
      <trkpt lat="47.389" lon="6.53093">
        <ele>402.93</ele>
        <time>2013-09-28T09:08:15Z</time>
      </trkpt>
      <trkpt lat="47.389" lon="6.53124">
        <ele>403.41</ele>
        <time>2013-09-28T09:08:21Z</time>
      </trkpt>
      <trkpt lat="47.389" lon="6.53151">
        <ele>404.37</ele>
        <time>2013-09-28T09:08:27Z</time>
      </trkpt>
      <trkpt lat="47.38898" lon="6.5318">
        <ele>404.85</ele>
        <time>2013-09-28T09:08:33Z</time>
      </trkpt>
      <trkpt lat="47.38895" lon="6.53206">
        <ele>404.85</ele>
        <time>2013-09-28T09:08:38Z</time>
      </trkpt>
      <trkpt lat="47.38893" lon="6.53236">
        <ele>406.29</ele>
        <time>2013-09-28T09:08:44Z</time>
      </trkpt>
      <trkpt lat="47.38889" lon="6.53267">
        <ele>407.26</ele>
        <time>2013-09-28T09:08:50Z</time>
      </trkpt>
      <trkpt lat="47.38886" lon="6.53294">
        <ele>409.18</ele>
        <time>2013-09-28T09:08:55Z</time>
      </trkpt>
      <trkpt lat="47.38883" lon="6.53321">
        <ele>410.14</ele>
        <time>2013-09-28T09:09:00Z</time>
      </trkpt>
      <trkpt lat="47.38879" lon="6.53348">
        <ele>411.58</ele>
        <time>2013-09-28T09:09:05Z</time>
      </trkpt>
      <trkpt lat="47.38873" lon="6.53376">
        <ele>413.5</ele>
        <time>2013-09-28T09:09:11Z</time>
      </trkpt>
      <trkpt lat="47.38869" lon="6.53404">
        <ele>415.43</ele>
        <time>2013-09-28T09:09:17Z</time>
      </trkpt>
      <trkpt lat="47.38863" lon="6.53431">
        <ele>417.83</ele>
        <time>2013-09-28T09:09:23Z</time>
      </trkpt>
      <trkpt lat="47.38858" lon="6.53459">
        <ele>418.79</ele>
        <time>2013-09-28T09:09:29Z</time>
      </trkpt>
      <trkpt lat="47.38852" lon="6.53488">
        <ele>419.75</ele>
        <time>2013-09-28T09:09:35Z</time>
      </trkpt>
      <trkpt lat="47.38848" lon="6.53515">
        <ele>420.23</ele>
        <time>2013-09-28T09:09:41Z</time>
      </trkpt>
      <trkpt lat="47.38842" lon="6.53545">
        <ele>419.75</ele>
        <time>2013-09-28T09:09:48Z</time>
      </trkpt>
      <trkpt lat="47.38834" lon="6.53573">
        <ele>420.23</ele>
        <time>2013-09-28T09:09:54Z</time>
      </trkpt>
      <trkpt lat="47.38828" lon="6.53603">
        <ele>420.23</ele>
        <time>2013-09-28T09:10:00Z</time>
      </trkpt>
      <trkpt lat="47.38818" lon="6.53632">
        <ele>419.75</ele>
        <time>2013-09-28T09:10:06Z</time>
      </trkpt>
      <trkpt lat="47.38805" lon="6.53657">
        <ele>419.75</ele>
        <time>2013-09-28T09:10:12Z</time>
      </trkpt>
      <trkpt lat="47.38806" lon="6.5369">
        <ele>419.27</ele>
        <time>2013-09-28T09:10:17Z</time>
      </trkpt>
      <trkpt lat="47.38804" lon="6.5372">
        <ele>417.83</ele>
        <time>2013-09-28T09:10:21Z</time>
      </trkpt>
      <trkpt lat="47.38802" lon="6.53756">
        <ele>417.35</ele>
        <time>2013-09-28T09:10:25Z</time>
      </trkpt>
      <trkpt lat="47.38802" lon="6.53789">
        <ele>417.35</ele>
        <time>2013-09-28T09:10:29Z</time>
      </trkpt>
      <trkpt lat="47.38802" lon="6.53816">
        <ele>417.35</ele>
        <time>2013-09-28T09:10:33Z</time>
      </trkpt>
      <trkpt lat="47.38799" lon="6.53843">
        <ele>418.31</ele>
        <time>2013-09-28T09:10:38Z</time>
      </trkpt>
      <trkpt lat="47.38797" lon="6.5387">
        <ele>419.75</ele>
        <time>2013-09-28T09:10:44Z</time>
      </trkpt>
      <trkpt lat="47.38793" lon="6.53898">
        <ele>419.75</ele>
        <time>2013-09-28T09:10:54Z</time>
      </trkpt>
      <trkpt lat="47.3879" lon="6.53927">
        <ele>421.19</ele>
        <time>2013-09-28T09:11:01Z</time>
      </trkpt>
      <trkpt lat="47.38786" lon="6.53954">
        <ele>422.64</ele>
        <time>2013-09-28T09:11:07Z</time>
      </trkpt>
      <trkpt lat="47.38782" lon="6.53982">
        <ele>424.08</ele>
        <time>2013-09-28T09:11:13Z</time>
      </trkpt>
      <trkpt lat="47.38778" lon="6.54012">
        <ele>426.48</ele>
        <time>2013-09-28T09:11:20Z</time>
      </trkpt>
      <trkpt lat="47.38775" lon="6.54039">
        <ele>428.89</ele>
        <time>2013-09-28T09:11:27Z</time>
      </trkpt>
      <trkpt lat="47.3877" lon="6.54065">
        <ele>430.33</ele>
        <time>2013-09-28T09:11:34Z</time>
      </trkpt>
      <trkpt lat="47.38765" lon="6.54092">
        <ele>432.73</ele>
        <time>2013-09-28T09:11:41Z</time>
      </trkpt>
      <trkpt lat="47.38761" lon="6.5412">
        <ele>434.17</ele>
        <time>2013-09-28T09:11:49Z</time>
      </trkpt>
      <trkpt lat="47.38758" lon="6.54149">
        <ele>436.1</ele>
        <time>2013-09-28T09:11:56Z</time>
      </trkpt>
      <trkpt lat="47.38757" lon="6.54175">
        <ele>437.54</ele>
        <time>2013-09-28T09:12:02Z</time>
      </trkpt>
      <trkpt lat="47.38755" lon="6.54202">
        <ele>438.5</ele>
        <time>2013-09-28T09:12:08Z</time>
      </trkpt>
      <trkpt lat="47.38755" lon="6.54231">
        <ele>438.98</ele>
        <time>2013-09-28T09:12:14Z</time>
      </trkpt>
      <trkpt lat="47.38754" lon="6.54258">
        <ele>440.42</ele>
        <time>2013-09-28T09:12:20Z</time>
      </trkpt>
      <trkpt lat="47.38755" lon="6.54287">
        <ele>441.38</ele>
        <time>2013-09-28T09:12:27Z</time>
      </trkpt>
      <trkpt lat="47.38759" lon="6.54317">
        <ele>441.38</ele>
        <time>2013-09-28T09:12:33Z</time>
      </trkpt>
      <trkpt lat="47.38764" lon="6.54348">
        <ele>441.38</ele>
        <time>2013-09-28T09:12:38Z</time>
      </trkpt>
      <trkpt lat="47.38771" lon="6.54376">
        <ele>440.9</ele>
        <time>2013-09-28T09:12:42Z</time>
      </trkpt>
      <trkpt lat="47.3878" lon="6.54409">
        <ele>439.46</ele>
        <time>2013-09-28T09:12:46Z</time>
      </trkpt>
      <trkpt lat="47.38788" lon="6.54439">
        <ele>438.02</ele>
        <time>2013-09-28T09:12:49Z</time>
      </trkpt>
      <trkpt lat="47.38797" lon="6.54473">
        <ele>436.58</ele>
        <time>2013-09-28T09:12:52Z</time>
      </trkpt>
      <trkpt lat="47.38806" lon="6.54508">
        <ele>436.1</ele>
        <time>2013-09-28T09:12:55Z</time>
      </trkpt>
      <trkpt lat="47.38816" lon="6.54543">
        <ele>436.1</ele>
        <time>2013-09-28T09:12:58Z</time>
      </trkpt>
      <trkpt lat="47.38826" lon="6.54575">
        <ele>437.06</ele>
        <time>2013-09-28T09:13:01Z</time>
      </trkpt>
      <trkpt lat="47.38833" lon="6.54603">
        <ele>437.06</ele>
        <time>2013-09-28T09:13:04Z</time>
      </trkpt>
      <trkpt lat="47.38838" lon="6.54628">
        <ele>437.54</ele>
        <time>2013-09-28T09:13:07Z</time>
      </trkpt>
      <trkpt lat="47.38841" lon="6.54656">
        <ele>438.98</ele>
        <time>2013-09-28T09:13:11Z</time>
      </trkpt>
      <trkpt lat="47.38842" lon="6.54684">
        <ele>440.9</ele>
        <time>2013-09-28T09:13:15Z</time>
      </trkpt>
      <trkpt lat="47.38841" lon="6.54713">
        <ele>442.34</ele>
        <time>2013-09-28T09:13:19Z</time>
      </trkpt>
      <trkpt lat="47.38839" lon="6.54745">
        <ele>444.27</ele>
        <time>2013-09-28T09:13:24Z</time>
      </trkpt>
      <trkpt lat="47.38838" lon="6.54776">
        <ele>446.67</ele>
        <time>2013-09-28T09:13:30Z</time>
      </trkpt>
      <trkpt lat="47.38838" lon="6.54808">
        <ele>448.11</ele>
        <time>2013-09-28T09:13:36Z</time>
      </trkpt>
      <trkpt lat="47.38836" lon="6.54834">
        <ele>449.07</ele>
        <time>2013-09-28T09:13:41Z</time>
      </trkpt>
      <trkpt lat="47.38836" lon="6.54863">
        <ele>449.07</ele>
        <time>2013-09-28T09:13:46Z</time>
      </trkpt>
      <trkpt lat="47.38835" lon="6.54895">
        <ele>448.59</ele>
        <time>2013-09-28T09:13:51Z</time>
      </trkpt>
      <trkpt lat="47.38835" lon="6.54924">
        <ele>436.1</ele>
        <time>2013-09-28T09:13:56Z</time>
      </trkpt>
      <trkpt lat="47.38834" lon="6.54954">
        <ele>449.07</ele>
        <time>2013-09-28T09:14:01Z</time>
      </trkpt>
      <trkpt lat="47.38833" lon="6.54982">
        <ele>448.59</ele>
        <time>2013-09-28T09:14:06Z</time>
      </trkpt>
      <trkpt lat="47.38834" lon="6.55011">
        <ele>449.55</ele>
        <time>2013-09-28T09:14:11Z</time>
      </trkpt>
      <trkpt lat="47.38834" lon="6.55038">
        <ele>450.52</ele>
        <time>2013-09-28T09:14:16Z</time>
      </trkpt>
      <trkpt lat="47.38834" lon="6.55065">
        <ele>450.52</ele>
        <time>2013-09-28T09:14:21Z</time>
      </trkpt>
      <trkpt lat="47.38832" lon="6.55095">
        <ele>451</ele>
        <time>2013-09-28T09:14:27Z</time>
      </trkpt>
      <trkpt lat="47.3883" lon="6.55124">
        <ele>451.96</ele>
        <time>2013-09-28T09:14:33Z</time>
      </trkpt>
      <trkpt lat="47.38828" lon="6.55154">
        <ele>452.92</ele>
        <time>2013-09-28T09:14:39Z</time>
      </trkpt>
      <trkpt lat="47.38825" lon="6.55185">
        <ele>453.88</ele>
        <time>2013-09-28T09:14:45Z</time>
      </trkpt>
      <trkpt lat="47.38823" lon="6.55211">
        <ele>455.32</ele>
        <time>2013-09-28T09:14:50Z</time>
      </trkpt>
      <trkpt lat="47.3882" lon="6.55239">
        <ele>457.24</ele>
        <time>2013-09-28T09:14:56Z</time>
      </trkpt>
      <trkpt lat="47.38817" lon="6.55267">
        <ele>458.69</ele>
        <time>2013-09-28T09:15:02Z</time>
      </trkpt>
      <trkpt lat="47.38814" lon="6.55296">
        <ele>460.61</ele>
        <time>2013-09-28T09:15:08Z</time>
      </trkpt>
      <trkpt lat="47.38812" lon="6.55324">
        <ele>462.05</ele>
        <time>2013-09-28T09:15:14Z</time>
      </trkpt>
      <trkpt lat="47.38808" lon="6.55352">
        <ele>463.97</ele>
        <time>2013-09-28T09:15:20Z</time>
      </trkpt>
      <trkpt lat="47.38804" lon="6.55382">
        <ele>464.45</ele>
        <time>2013-09-28T09:15:26Z</time>
      </trkpt>
      <trkpt lat="47.388" lon="6.55409">
        <ele>464.93</ele>
        <time>2013-09-28T09:15:31Z</time>
      </trkpt>
      <trkpt lat="47.38795" lon="6.55438">
        <ele>464.93</ele>
        <time>2013-09-28T09:15:36Z</time>
      </trkpt>
      <trkpt lat="47.38789" lon="6.55465">
        <ele>464.45</ele>
        <time>2013-09-28T09:15:40Z</time>
      </trkpt>
      <trkpt lat="47.38784" lon="6.55496">
        <ele>463.49</ele>
        <time>2013-09-28T09:15:44Z</time>
      </trkpt>
      <trkpt lat="47.38783" lon="6.55532">
        <ele>463.01</ele>
        <time>2013-09-28T09:15:48Z</time>
      </trkpt>
      <trkpt lat="47.38784" lon="6.55567">
        <ele>463.01</ele>
        <time>2013-09-28T09:15:52Z</time>
      </trkpt>
      <trkpt lat="47.38785" lon="6.55598">
        <ele>462.53</ele>
        <time>2013-09-28T09:15:56Z</time>
      </trkpt>
      <trkpt lat="47.38789" lon="6.55628">
        <ele>462.05</ele>
        <time>2013-09-28T09:16:00Z</time>
      </trkpt>
      <trkpt lat="47.38797" lon="6.55655">
        <ele>461.57</ele>
        <time>2013-09-28T09:16:04Z</time>
      </trkpt>
      <trkpt lat="47.38807" lon="6.55681">
        <ele>461.57</ele>
        <time>2013-09-28T09:16:08Z</time>
      </trkpt>
      <trkpt lat="47.38818" lon="6.55707">
        <ele>460.61</ele>
        <time>2013-09-28T09:16:12Z</time>
      </trkpt>
      <trkpt lat="47.38828" lon="6.55737">
        <ele>460.13</ele>
        <time>2013-09-28T09:16:16Z</time>
      </trkpt>
      <trkpt lat="47.38827" lon="6.55767">
        <ele>458.69</ele>
        <time>2013-09-28T09:16:19Z</time>
      </trkpt>
      <trkpt lat="47.38821" lon="6.55795">
        <ele>458.21</ele>
        <time>2013-09-28T09:16:22Z</time>
      </trkpt>
      <trkpt lat="47.38816" lon="6.55822">
        <ele>457.72</ele>
        <time>2013-09-28T09:16:25Z</time>
      </trkpt>
      <trkpt lat="47.38813" lon="6.55854">
        <ele>457.72</ele>
        <time>2013-09-28T09:16:29Z</time>
      </trkpt>
      <trkpt lat="47.3881" lon="6.55881">
        <ele>458.69</ele>
        <time>2013-09-28T09:16:33Z</time>
      </trkpt>
      <trkpt lat="47.38805" lon="6.55907">
        <ele>458.69</ele>
        <time>2013-09-28T09:16:38Z</time>
      </trkpt>
      <trkpt lat="47.38802" lon="6.5593">
        <ele>458.69</ele>
        <time>2013-09-28T09:17:23Z</time>
      </trkpt>
      <trkpt lat="47.38805" lon="6.55957">
        <ele>459.17</ele>
        <time>2013-09-28T09:17:32Z</time>
      </trkpt>
      <trkpt lat="47.38808" lon="6.55989">
        <ele>459.65</ele>
        <time>2013-09-28T09:17:38Z</time>
      </trkpt>
      <trkpt lat="47.3881" lon="6.56017">
        <ele>460.13</ele>
        <time>2013-09-28T09:17:43Z</time>
      </trkpt>
      <trkpt lat="47.38812" lon="6.56044">
        <ele>459.65</ele>
        <time>2013-09-28T09:17:49Z</time>
      </trkpt>
      <trkpt lat="47.38813" lon="6.56072">
        <ele>460.61</ele>
        <time>2013-09-28T09:17:55Z</time>
      </trkpt>
      <trkpt lat="47.38813" lon="6.561">
        <ele>460.61</ele>
        <time>2013-09-28T09:18:00Z</time>
      </trkpt>
      <trkpt lat="47.38809" lon="6.56126">
        <ele>461.57</ele>
        <time>2013-09-28T09:18:05Z</time>
      </trkpt>
      <trkpt lat="47.38804" lon="6.56153">
        <ele>462.53</ele>
        <time>2013-09-28T09:18:10Z</time>
      </trkpt>
      <trkpt lat="47.388" lon="6.56182">
        <ele>463.49</ele>
        <time>2013-09-28T09:18:15Z</time>
      </trkpt>
      <trkpt lat="47.38797" lon="6.56213">
        <ele>463.49</ele>
        <time>2013-09-28T09:18:21Z</time>
      </trkpt>
      <trkpt lat="47.38793" lon="6.5624">
        <ele>464.45</ele>
        <time>2013-09-28T09:18:26Z</time>
      </trkpt>
      <trkpt lat="47.38786" lon="6.56268">
        <ele>465.42</ele>
        <time>2013-09-28T09:18:32Z</time>
      </trkpt>
      <trkpt lat="47.38776" lon="6.56292">
        <ele>464.45</ele>
        <time>2013-09-28T09:18:37Z</time>
      </trkpt>
      <trkpt lat="47.38765" lon="6.56314">
        <ele>463.97</ele>
        <time>2013-09-28T09:18:41Z</time>
      </trkpt>
      <trkpt lat="47.38751" lon="6.56341">
        <ele>463.01</ele>
        <time>2013-09-28T09:18:45Z</time>
      </trkpt>
      <trkpt lat="47.38738" lon="6.56363">
        <ele>462.05</ele>
        <time>2013-09-28T09:18:48Z</time>
      </trkpt>
      <trkpt lat="47.38725" lon="6.56385">
        <ele>461.09</ele>
        <time>2013-09-28T09:18:51Z</time>
      </trkpt>
      <trkpt lat="47.38711" lon="6.56413">
        <ele>459.65</ele>
        <time>2013-09-28T09:18:55Z</time>
      </trkpt>
      <trkpt lat="47.38706" lon="6.56445">
        <ele>460.13</ele>
        <time>2013-09-28T09:18:59Z</time>
      </trkpt>
      <trkpt lat="47.38707" lon="6.56475">
        <ele>458.69</ele>
        <time>2013-09-28T09:19:03Z</time>
      </trkpt>
      <trkpt lat="47.38707" lon="6.56503">
        <ele>458.69</ele>
        <time>2013-09-28T09:19:07Z</time>
      </trkpt>
      <trkpt lat="47.38706" lon="6.56511">
        <ele>460.61</ele>
        <time>2013-09-28T09:24:19Z</time>
      </trkpt>
      <trkpt lat="47.3871" lon="6.56534">
        <ele>461.09</ele>
        <time>2013-09-28T09:25:16Z</time>
      </trkpt>
      <trkpt lat="47.38719" lon="6.56557">
        <ele>460.61</ele>
        <time>2013-09-28T09:25:25Z</time>
      </trkpt>
      <trkpt lat="47.38722" lon="6.56584">
        <ele>460.13</ele>
        <time>2013-09-28T09:25:32Z</time>
      </trkpt>
      <trkpt lat="47.38722" lon="6.56611">
        <ele>460.13</ele>
        <time>2013-09-28T09:25:38Z</time>
      </trkpt>
      <trkpt lat="47.3872" lon="6.5664">
        <ele>460.13</ele>
        <time>2013-09-28T09:25:46Z</time>
      </trkpt>
      <trkpt lat="47.38718" lon="6.56667">
        <ele>460.61</ele>
        <time>2013-09-28T09:25:54Z</time>
      </trkpt>
      <trkpt lat="47.38717" lon="6.56696">
        <ele>461.57</ele>
        <time>2013-09-28T09:26:01Z</time>
      </trkpt>
      <trkpt lat="47.38716" lon="6.56723">
        <ele>462.05</ele>
        <time>2013-09-28T09:26:08Z</time>
      </trkpt>
      <trkpt lat="47.38715" lon="6.56751">
        <ele>463.01</ele>
        <time>2013-09-28T09:26:17Z</time>
      </trkpt>
      <trkpt lat="47.38714" lon="6.5678">
        <ele>463.97</ele>
        <time>2013-09-28T09:26:26Z</time>
      </trkpt>
      <trkpt lat="47.38715" lon="6.5681">
        <ele>465.42</ele>
        <time>2013-09-28T09:26:35Z</time>
      </trkpt>
      <trkpt lat="47.38716" lon="6.56839">
        <ele>466.38</ele>
        <time>2013-09-28T09:26:43Z</time>
      </trkpt>
      <trkpt lat="47.3872" lon="6.56869">
        <ele>466.86</ele>
        <time>2013-09-28T09:26:51Z</time>
      </trkpt>
      <trkpt lat="47.38723" lon="6.56897">
        <ele>467.82</ele>
        <time>2013-09-28T09:26:58Z</time>
      </trkpt>
      <trkpt lat="47.38725" lon="6.56924">
        <ele>468.3</ele>
        <time>2013-09-28T09:27:05Z</time>
      </trkpt>
      <trkpt lat="47.38728" lon="6.56951">
        <ele>469.26</ele>
        <time>2013-09-28T09:27:12Z</time>
      </trkpt>
      <trkpt lat="47.38734" lon="6.56977">
        <ele>470.22</ele>
        <time>2013-09-28T09:27:19Z</time>
      </trkpt>
      <trkpt lat="47.38741" lon="6.57004">
        <ele>471.18</ele>
        <time>2013-09-28T09:27:27Z</time>
      </trkpt>
      <trkpt lat="47.38749" lon="6.57028">
        <ele>471.66</ele>
        <time>2013-09-28T09:27:34Z</time>
      </trkpt>
      <trkpt lat="47.38757" lon="6.57056">
        <ele>473.59</ele>
        <time>2013-09-28T09:27:41Z</time>
      </trkpt>
      <trkpt lat="47.3876" lon="6.57083">
        <ele>474.55</ele>
        <time>2013-09-28T09:27:47Z</time>
      </trkpt>
      <trkpt lat="47.38761" lon="6.57112">
        <ele>475.51</ele>
        <time>2013-09-28T09:27:53Z</time>
      </trkpt>
      <trkpt lat="47.3876" lon="6.57143">
        <ele>476.95</ele>
        <time>2013-09-28T09:27:59Z</time>
      </trkpt>
      <trkpt lat="47.38761" lon="6.5717">
        <ele>477.43</ele>
        <time>2013-09-28T09:28:04Z</time>
      </trkpt>
      <trkpt lat="47.38761" lon="6.57197">
        <ele>477.91</ele>
        <time>2013-09-28T09:28:09Z</time>
      </trkpt>
      <trkpt lat="47.38763" lon="6.57226">
        <ele>478.87</ele>
        <time>2013-09-28T09:28:14Z</time>
      </trkpt>
      <trkpt lat="47.3877" lon="6.57255">
        <ele>480.32</ele>
        <time>2013-09-28T09:28:19Z</time>
      </trkpt>
      <trkpt lat="47.38779" lon="6.57282">
        <ele>479.84</ele>
        <time>2013-09-28T09:28:24Z</time>
      </trkpt>
      <trkpt lat="47.38792" lon="6.57304">
        <ele>479.35</ele>
        <time>2013-09-28T09:28:29Z</time>
      </trkpt>
      <trkpt lat="47.38805" lon="6.57325">
        <ele>477.91</ele>
        <time>2013-09-28T09:28:33Z</time>
      </trkpt>
      <trkpt lat="47.38818" lon="6.57353">
        <ele>476.95</ele>
        <time>2013-09-28T09:28:37Z</time>
      </trkpt>
      <trkpt lat="47.38829" lon="6.57381">
        <ele>476.47</ele>
        <time>2013-09-28T09:28:41Z</time>
      </trkpt>
      <trkpt lat="47.38839" lon="6.57407">
        <ele>475.51</ele>
        <time>2013-09-28T09:28:45Z</time>
      </trkpt>
      <trkpt lat="47.38847" lon="6.57432">
        <ele>475.99</ele>
        <time>2013-09-28T09:28:49Z</time>
      </trkpt>
      <trkpt lat="47.38856" lon="6.57459">
        <ele>475.51</ele>
        <time>2013-09-28T09:28:53Z</time>
      </trkpt>
      <trkpt lat="47.38865" lon="6.57488">
        <ele>475.03</ele>
        <time>2013-09-28T09:28:57Z</time>
      </trkpt>
      <trkpt lat="47.38875" lon="6.57518">
        <ele>473.59</ele>
        <time>2013-09-28T09:29:01Z</time>
      </trkpt>
      <trkpt lat="47.38883" lon="6.57542">
        <ele>472.63</ele>
        <time>2013-09-28T09:29:04Z</time>
      </trkpt>
      <trkpt lat="47.38894" lon="6.57568">
        <ele>471.18</ele>
        <time>2013-09-28T09:29:07Z</time>
      </trkpt>
      <trkpt lat="47.38905" lon="6.57597">
        <ele>469.26</ele>
        <time>2013-09-28T09:29:10Z</time>
      </trkpt>
      <trkpt lat="47.38915" lon="6.57628">
        <ele>468.3</ele>
        <time>2013-09-28T09:29:13Z</time>
      </trkpt>
      <trkpt lat="47.38927" lon="6.57657">
        <ele>466.38</ele>
        <time>2013-09-28T09:29:16Z</time>
      </trkpt>
      <trkpt lat="47.38942" lon="6.57685">
        <ele>464.93</ele>
        <time>2013-09-28T09:29:19Z</time>
      </trkpt>
      <trkpt lat="47.38964" lon="6.57712">
        <ele>460.61</ele>
        <time>2013-09-28T09:29:22Z</time>
      </trkpt>
      <trkpt lat="47.3898" lon="6.57731">
        <ele>458.69</ele>
        <time>2013-09-28T09:29:24Z</time>
      </trkpt>
      <trkpt lat="47.38996" lon="6.5775">
        <ele>457.72</ele>
        <time>2013-09-28T09:29:26Z</time>
      </trkpt>
      <trkpt lat="47.39013" lon="6.57771">
        <ele>456.28</ele>
        <time>2013-09-28T09:29:28Z</time>
      </trkpt>
      <trkpt lat="47.39027" lon="6.57797">
        <ele>454.36</ele>
        <time>2013-09-28T09:29:30Z</time>
      </trkpt>
      <trkpt lat="47.39039" lon="6.57827">
        <ele>452.92</ele>
        <time>2013-09-28T09:29:32Z</time>
      </trkpt>
      <trkpt lat="47.39049" lon="6.57856">
        <ele>452.92</ele>
        <time>2013-09-28T09:29:34Z</time>
      </trkpt>
      <trkpt lat="47.39056" lon="6.57882">
        <ele>451.48</ele>
        <time>2013-09-28T09:29:36Z</time>
      </trkpt>
      <trkpt lat="47.39052" lon="6.57924">
        <ele>450.03</ele>
        <time>2013-09-28T09:29:38Z</time>
      </trkpt>
      <trkpt lat="47.39054" lon="6.57959">
        <ele>448.11</ele>
        <time>2013-09-28T09:29:40Z</time>
      </trkpt>
      <trkpt lat="47.39059" lon="6.57991">
        <ele>448.11</ele>
        <time>2013-09-28T09:29:42Z</time>
      </trkpt>
      <trkpt lat="47.39072" lon="6.58018">
        <ele>443.31</ele>
        <time>2013-09-28T09:29:44Z</time>
      </trkpt>
      <trkpt lat="47.3909" lon="6.58038">
        <ele>441.38</ele>
        <time>2013-09-28T09:29:46Z</time>
      </trkpt>
      <trkpt lat="47.39111" lon="6.58057">
        <ele>438.5</ele>
        <time>2013-09-28T09:29:48Z</time>
      </trkpt>
      <trkpt lat="47.39137" lon="6.58073">
        <ele>438.98</ele>
        <time>2013-09-28T09:29:50Z</time>
      </trkpt>
      <trkpt lat="47.39161" lon="6.58091">
        <ele>438.5</ele>
        <time>2013-09-28T09:29:52Z</time>
      </trkpt>
      <trkpt lat="47.39181" lon="6.58112">
        <ele>436.1</ele>
        <time>2013-09-28T09:29:54Z</time>
      </trkpt>
      <trkpt lat="47.39204" lon="6.5813">
        <ele>432.73</ele>
        <time>2013-09-28T09:29:56Z</time>
      </trkpt>
      <trkpt lat="47.39225" lon="6.58146">
        <ele>429.37</ele>
        <time>2013-09-28T09:29:58Z</time>
      </trkpt>
      <trkpt lat="47.39245" lon="6.58154">
        <ele>426.96</ele>
        <time>2013-09-28T09:30:00Z</time>
      </trkpt>
      <trkpt lat="47.39259" lon="6.58169">
        <ele>424.08</ele>
        <time>2013-09-28T09:30:02Z</time>
      </trkpt>
      <trkpt lat="47.39266" lon="6.58193">
        <ele>421.19</ele>
        <time>2013-09-28T09:30:05Z</time>
      </trkpt>
      <trkpt lat="47.39274" lon="6.58209">
        <ele>419.75</ele>
        <time>2013-09-28T09:30:26Z</time>
      </trkpt>
      <trkpt lat="47.39294" lon="6.58208">
        <ele>418.79</ele>
        <time>2013-09-28T09:30:31Z</time>
      </trkpt>
      <trkpt lat="47.39315" lon="6.58204">
        <ele>418.31</ele>
        <time>2013-09-28T09:30:34Z</time>
      </trkpt>
      <trkpt lat="47.39335" lon="6.58201">
        <ele>416.87</ele>
        <time>2013-09-28T09:30:37Z</time>
      </trkpt>
      <trkpt lat="47.39355" lon="6.58199">
        <ele>415.91</ele>
        <time>2013-09-28T09:30:40Z</time>
      </trkpt>
      <trkpt lat="47.39375" lon="6.58197">
        <ele>414.47</ele>
        <time>2013-09-28T09:30:43Z</time>
      </trkpt>
      <trkpt lat="47.39394" lon="6.58194">
        <ele>413.5</ele>
        <time>2013-09-28T09:30:45Z</time>
      </trkpt>
      <trkpt lat="47.39414" lon="6.5819">
        <ele>412.54</ele>
        <time>2013-09-28T09:30:47Z</time>
      </trkpt>
      <trkpt lat="47.39434" lon="6.58186">
        <ele>411.58</ele>
        <time>2013-09-28T09:30:50Z</time>
      </trkpt>
      <trkpt lat="47.39454" lon="6.58183">
        <ele>410.62</ele>
        <time>2013-09-28T09:30:52Z</time>
      </trkpt>
      <trkpt lat="47.39472" lon="6.5818">
        <ele>409.18</ele>
        <time>2013-09-28T09:30:54Z</time>
      </trkpt>
      <trkpt lat="47.39492" lon="6.58179">
        <ele>408.22</ele>
        <time>2013-09-28T09:30:56Z</time>
      </trkpt>
      <trkpt lat="47.39512" lon="6.58181">
        <ele>406.77</ele>
        <time>2013-09-28T09:30:58Z</time>
      </trkpt>
      <trkpt lat="47.3953" lon="6.58187">
        <ele>405.33</ele>
        <time>2013-09-28T09:31:00Z</time>
      </trkpt>
      <trkpt lat="47.39549" lon="6.58199">
        <ele>403.89</ele>
        <time>2013-09-28T09:31:02Z</time>
      </trkpt>
      <trkpt lat="47.39568" lon="6.58216">
        <ele>402.93</ele>
        <time>2013-09-28T09:31:04Z</time>
      </trkpt>
      <trkpt lat="47.39586" lon="6.58235">
        <ele>401.97</ele>
        <time>2013-09-28T09:31:06Z</time>
      </trkpt>
      <trkpt lat="47.39601" lon="6.58255">
        <ele>401.01</ele>
        <time>2013-09-28T09:31:08Z</time>
      </trkpt>
      <trkpt lat="47.39616" lon="6.58277">
        <ele>400.05</ele>
        <time>2013-09-28T09:31:10Z</time>
      </trkpt>
      <trkpt lat="47.39629" lon="6.583">
        <ele>398.6</ele>
        <time>2013-09-28T09:31:12Z</time>
      </trkpt>
      <trkpt lat="47.39642" lon="6.58323">
        <ele>397.64</ele>
        <time>2013-09-28T09:31:14Z</time>
      </trkpt>
      <trkpt lat="47.39654" lon="6.58347">
        <ele>396.68</ele>
        <time>2013-09-28T09:31:16Z</time>
      </trkpt>
      <trkpt lat="47.39665" lon="6.58372">
        <ele>396.2</ele>
        <time>2013-09-28T09:31:18Z</time>
      </trkpt>
      <trkpt lat="47.39678" lon="6.58396">
        <ele>393.8</ele>
        <time>2013-09-28T09:31:20Z</time>
      </trkpt>
      <trkpt lat="47.39692" lon="6.58419">
        <ele>391.87</ele>
        <time>2013-09-28T09:31:22Z</time>
      </trkpt>
      <trkpt lat="47.3971" lon="6.58439">
        <ele>389.95</ele>
        <time>2013-09-28T09:31:24Z</time>
      </trkpt>
      <trkpt lat="47.39729" lon="6.58452">
        <ele>388.51</ele>
        <time>2013-09-28T09:31:26Z</time>
      </trkpt>
      <trkpt lat="47.3975" lon="6.58461">
        <ele>387.55</ele>
        <time>2013-09-28T09:31:28Z</time>
      </trkpt>
      <trkpt lat="47.3977" lon="6.58465">
        <ele>387.07</ele>
        <time>2013-09-28T09:31:30Z</time>
      </trkpt>
      <trkpt lat="47.39791" lon="6.58464">
        <ele>386.11</ele>
        <time>2013-09-28T09:31:32Z</time>
      </trkpt>
      <trkpt lat="47.39811" lon="6.58462">
        <ele>385.63</ele>
        <time>2013-09-28T09:31:34Z</time>
      </trkpt>
      <trkpt lat="47.39832" lon="6.5846">
        <ele>384.66</ele>
        <time>2013-09-28T09:31:36Z</time>
      </trkpt>
      <trkpt lat="47.39852" lon="6.58459">
        <ele>383.7</ele>
        <time>2013-09-28T09:31:37Z</time>
      </trkpt>
      <trkpt lat="47.39872" lon="6.5846">
        <ele>382.26</ele>
        <time>2013-09-28T09:31:39Z</time>
      </trkpt>
      <trkpt lat="47.3989" lon="6.58462">
        <ele>381.3</ele>
        <time>2013-09-28T09:31:41Z</time>
      </trkpt>
      <trkpt lat="47.39911" lon="6.58466">
        <ele>381.3</ele>
        <time>2013-09-28T09:31:43Z</time>
      </trkpt>
      <trkpt lat="47.39931" lon="6.58474">
        <ele>380.34</ele>
        <time>2013-09-28T09:31:45Z</time>
      </trkpt>
      <trkpt lat="47.39951" lon="6.58483">
        <ele>379.38</ele>
        <time>2013-09-28T09:31:47Z</time>
      </trkpt>
      <trkpt lat="47.39969" lon="6.58494">
        <ele>378.9</ele>
        <time>2013-09-28T09:31:49Z</time>
      </trkpt>
      <trkpt lat="47.39985" lon="6.58504">
        <ele>379.38</ele>
        <time>2013-09-28T09:31:51Z</time>
      </trkpt>
      <trkpt lat="47.40002" lon="6.58512">
        <ele>378.42</ele>
        <time>2013-09-28T09:31:53Z</time>
      </trkpt>
      <trkpt lat="47.40024" lon="6.58519">
        <ele>377.94</ele>
        <time>2013-09-28T09:31:56Z</time>
      </trkpt>
      <trkpt lat="47.40044" lon="6.58521">
        <ele>376.49</ele>
        <time>2013-09-28T09:31:58Z</time>
      </trkpt>
      <trkpt lat="47.40068" lon="6.58523">
        <ele>375.05</ele>
        <time>2013-09-28T09:32:00Z</time>
      </trkpt>
      <trkpt lat="47.4009" lon="6.58525">
        <ele>374.09</ele>
        <time>2013-09-28T09:32:03Z</time>
      </trkpt>
      <trkpt lat="47.4011" lon="6.58528">
        <ele>373.61</ele>
        <time>2013-09-28T09:32:05Z</time>
      </trkpt>
      <trkpt lat="47.4013" lon="6.58532">
        <ele>372.17</ele>
        <time>2013-09-28T09:32:07Z</time>
      </trkpt>
      <trkpt lat="47.4015" lon="6.58536">
        <ele>372.17</ele>
        <time>2013-09-28T09:32:09Z</time>
      </trkpt>
      <trkpt lat="47.40169" lon="6.58541">
        <ele>370.73</ele>
        <time>2013-09-28T09:32:11Z</time>
      </trkpt>
      <trkpt lat="47.40189" lon="6.5855">
        <ele>370.73</ele>
        <time>2013-09-28T09:32:13Z</time>
      </trkpt>
      <trkpt lat="47.40209" lon="6.5856">
        <ele>370.73</ele>
        <time>2013-09-28T09:32:16Z</time>
      </trkpt>
      <trkpt lat="47.40227" lon="6.58567">
        <ele>370.24</ele>
        <time>2013-09-28T09:32:18Z</time>
      </trkpt>
      <trkpt lat="47.40248" lon="6.58573">
        <ele>369.76</ele>
        <time>2013-09-28T09:32:21Z</time>
      </trkpt>
      <trkpt lat="47.40269" lon="6.58574">
        <ele>369.28</ele>
        <time>2013-09-28T09:32:23Z</time>
      </trkpt>
      <trkpt lat="47.40291" lon="6.58572">
        <ele>368.32</ele>
        <time>2013-09-28T09:32:25Z</time>
      </trkpt>
      <trkpt lat="47.40314" lon="6.58571">
        <ele>367.84</ele>
        <time>2013-09-28T09:32:28Z</time>
      </trkpt>
      <trkpt lat="47.40332" lon="6.58571">
        <ele>367.36</ele>
        <time>2013-09-28T09:32:30Z</time>
      </trkpt>
      <trkpt lat="47.40351" lon="6.58572">
        <ele>366.88</ele>
        <time>2013-09-28T09:32:32Z</time>
      </trkpt>
      <trkpt lat="47.4037" lon="6.58576">
        <ele>366.4</ele>
        <time>2013-09-28T09:32:35Z</time>
      </trkpt>
      <trkpt lat="47.40389" lon="6.58581">
        <ele>365.92</ele>
        <time>2013-09-28T09:32:37Z</time>
      </trkpt>
      <trkpt lat="47.40407" lon="6.58586">
        <ele>365.44</ele>
        <time>2013-09-28T09:32:39Z</time>
      </trkpt>
      <trkpt lat="47.40426" lon="6.5859">
        <ele>365.44</ele>
        <time>2013-09-28T09:32:42Z</time>
      </trkpt>
      <trkpt lat="47.40442" lon="6.58608">
        <ele>365.44</ele>
        <time>2013-09-28T09:32:46Z</time>
      </trkpt>
      <trkpt lat="47.40432" lon="6.58637">
        <ele>365.44</ele>
        <time>2013-09-28T09:32:50Z</time>
      </trkpt>
      <trkpt lat="47.40421" lon="6.5866">
        <ele>366.88</ele>
        <time>2013-09-28T09:32:55Z</time>
      </trkpt>
      <trkpt lat="47.40413" lon="6.58684">
        <ele>368.8</ele>
        <time>2013-09-28T09:33:01Z</time>
      </trkpt>
      <trkpt lat="47.40414" lon="6.58713">
        <ele>370.73</ele>
        <time>2013-09-28T09:33:08Z</time>
      </trkpt>
      <trkpt lat="47.40426" lon="6.58736">
        <ele>372.65</ele>
        <time>2013-09-28T09:33:16Z</time>
      </trkpt>
      <trkpt lat="47.40431" lon="6.58764">
        <ele>374.57</ele>
        <time>2013-09-28T09:33:24Z</time>
      </trkpt>
      <trkpt lat="47.40434" lon="6.58797">
        <ele>376.97</ele>
        <time>2013-09-28T09:33:33Z</time>
      </trkpt>
      <trkpt lat="47.40439" lon="6.58823">
        <ele>379.38</ele>
        <time>2013-09-28T09:33:40Z</time>
      </trkpt>
      <trkpt lat="47.40438" lon="6.5886">
        <ele>380.82</ele>
        <time>2013-09-28T09:33:47Z</time>
      </trkpt>
      <trkpt lat="47.4044" lon="6.58891">
        <ele>382.26</ele>
        <time>2013-09-28T09:33:54Z</time>
      </trkpt>
      <trkpt lat="47.40444" lon="6.58925">
        <ele>384.18</ele>
        <time>2013-09-28T09:34:01Z</time>
      </trkpt>
      <trkpt lat="47.40448" lon="6.58954">
        <ele>384.66</ele>
        <time>2013-09-28T09:34:07Z</time>
      </trkpt>
      <trkpt lat="47.40454" lon="6.58994">
        <ele>384.66</ele>
        <time>2013-09-28T09:34:14Z</time>
      </trkpt>
      <trkpt lat="47.40455" lon="6.5904">
        <ele>384.66</ele>
        <time>2013-09-28T09:34:21Z</time>
      </trkpt>
      <trkpt lat="47.4046" lon="6.59076">
        <ele>385.63</ele>
        <time>2013-09-28T09:34:27Z</time>
      </trkpt>
      <trkpt lat="47.40463" lon="6.59109">
        <ele>386.11</ele>
        <time>2013-09-28T09:34:33Z</time>
      </trkpt>
      <trkpt lat="47.40466" lon="6.59144">
        <ele>387.07</ele>
        <time>2013-09-28T09:34:40Z</time>
      </trkpt>
      <trkpt lat="47.4047" lon="6.59181">
        <ele>388.03</ele>
        <time>2013-09-28T09:34:47Z</time>
      </trkpt>
      <trkpt lat="47.40479" lon="6.59211">
        <ele>389.47</ele>
        <time>2013-09-28T09:34:53Z</time>
      </trkpt>
      <trkpt lat="47.40489" lon="6.59239">
        <ele>390.43</ele>
        <time>2013-09-28T09:34:59Z</time>
      </trkpt>
      <trkpt lat="47.40502" lon="6.59273">
        <ele>391.87</ele>
        <time>2013-09-28T09:35:06Z</time>
      </trkpt>
      <trkpt lat="47.40515" lon="6.59303">
        <ele>393.32</ele>
        <time>2013-09-28T09:35:12Z</time>
      </trkpt>
      <trkpt lat="47.40523" lon="6.59332">
        <ele>394.28</ele>
        <time>2013-09-28T09:35:19Z</time>
      </trkpt>
      <trkpt lat="47.40532" lon="6.59364">
        <ele>395.24</ele>
        <time>2013-09-28T09:35:26Z</time>
      </trkpt>
      <trkpt lat="47.40544" lon="6.5939">
        <ele>396.68</ele>
        <time>2013-09-28T09:35:33Z</time>
      </trkpt>
      <trkpt lat="47.40559" lon="6.59416">
        <ele>397.64</ele>
        <time>2013-09-28T09:35:40Z</time>
      </trkpt>
      <trkpt lat="47.40577" lon="6.5942">
        <ele>399.08</ele>
        <time>2013-09-28T09:35:46Z</time>
      </trkpt>
      <trkpt lat="47.40598" lon="6.59409">
        <ele>401.49</ele>
        <time>2013-09-28T09:35:53Z</time>
      </trkpt>
      <trkpt lat="47.40617" lon="6.59401">
        <ele>404.37</ele>
        <time>2013-09-28T09:36:00Z</time>
      </trkpt>
      <trkpt lat="47.40637" lon="6.59395">
        <ele>404.85</ele>
        <time>2013-09-28T09:36:06Z</time>
      </trkpt>
      <trkpt lat="47.40658" lon="6.59389">
        <ele>405.33</ele>
        <time>2013-09-28T09:36:12Z</time>
      </trkpt>
      <trkpt lat="47.40678" lon="6.59387">
        <ele>406.29</ele>
        <time>2013-09-28T09:36:18Z</time>
      </trkpt>
      <trkpt lat="47.40699" lon="6.59379">
        <ele>406.29</ele>
        <time>2013-09-28T09:36:24Z</time>
      </trkpt>
      <trkpt lat="47.40719" lon="6.59374">
        <ele>406.77</ele>
        <time>2013-09-28T09:36:29Z</time>
      </trkpt>
      <trkpt lat="47.40739" lon="6.59366">
        <ele>407.26</ele>
        <time>2013-09-28T09:36:35Z</time>
      </trkpt>
      <trkpt lat="47.40758" lon="6.59362">
        <ele>407.26</ele>
        <time>2013-09-28T09:36:41Z</time>
      </trkpt>
      <trkpt lat="47.40777" lon="6.59358">
        <ele>406.29</ele>
        <time>2013-09-28T09:36:46Z</time>
      </trkpt>
      <trkpt lat="47.40799" lon="6.59356">
        <ele>405.33</ele>
        <time>2013-09-28T09:36:52Z</time>
      </trkpt>
      <trkpt lat="47.40824" lon="6.59354">
        <ele>404.85</ele>
        <time>2013-09-28T09:36:58Z</time>
      </trkpt>
      <trkpt lat="47.40847" lon="6.5935">
        <ele>404.37</ele>
        <time>2013-09-28T09:37:03Z</time>
      </trkpt>
      <trkpt lat="47.40871" lon="6.59346">
        <ele>403.89</ele>
        <time>2013-09-28T09:37:07Z</time>
      </trkpt>
      <trkpt lat="47.40896" lon="6.59345">
        <ele>403.41</ele>
        <time>2013-09-28T09:37:11Z</time>
      </trkpt>
      <trkpt lat="47.4092" lon="6.59343">
        <ele>403.41</ele>
        <time>2013-09-28T09:37:15Z</time>
      </trkpt>
      <trkpt lat="47.40942" lon="6.59344">
        <ele>402.93</ele>
        <time>2013-09-28T09:37:18Z</time>
      </trkpt>
      <trkpt lat="47.40963" lon="6.59348">
        <ele>401.97</ele>
        <time>2013-09-28T09:37:22Z</time>
      </trkpt>
      <trkpt lat="47.40986" lon="6.5935">
        <ele>401.49</ele>
        <time>2013-09-28T09:37:25Z</time>
      </trkpt>
      <trkpt lat="47.41008" lon="6.59352">
        <ele>401.01</ele>
        <time>2013-09-28T09:37:29Z</time>
      </trkpt>
      <trkpt lat="47.41028" lon="6.59354">
        <ele>400.05</ele>
        <time>2013-09-28T09:37:32Z</time>
      </trkpt>
      <trkpt lat="47.41054" lon="6.59358">
        <ele>399.57</ele>
        <time>2013-09-28T09:37:36Z</time>
      </trkpt>
      <trkpt lat="47.41079" lon="6.59362">
        <ele>399.08</ele>
        <time>2013-09-28T09:37:40Z</time>
      </trkpt>
      <trkpt lat="47.41104" lon="6.59366">
        <ele>398.6</ele>
        <time>2013-09-28T09:37:44Z</time>
      </trkpt>
      <trkpt lat="47.41131" lon="6.59369">
        <ele>399.08</ele>
        <time>2013-09-28T09:37:48Z</time>
      </trkpt>
      <trkpt lat="47.41154" lon="6.59368">
        <ele>400.05</ele>
        <time>2013-09-28T09:37:52Z</time>
      </trkpt>
      <trkpt lat="47.4118" lon="6.59363">
        <ele>401.49</ele>
        <time>2013-09-28T09:37:57Z</time>
      </trkpt>
      <trkpt lat="47.41202" lon="6.59364">
        <ele>401.97</ele>
        <time>2013-09-28T09:38:01Z</time>
      </trkpt>
      <trkpt lat="47.41223" lon="6.59369">
        <ele>401.97</ele>
        <time>2013-09-28T09:38:05Z</time>
      </trkpt>
      <trkpt lat="47.41247" lon="6.59376">
        <ele>401.97</ele>
        <time>2013-09-28T09:38:11Z</time>
      </trkpt>
      <trkpt lat="47.41269" lon="6.59384">
        <ele>401.97</ele>
        <time>2013-09-28T09:38:16Z</time>
      </trkpt>
      <trkpt lat="47.41291" lon="6.59394">
        <ele>401.49</ele>
        <time>2013-09-28T09:38:21Z</time>
      </trkpt>
      <trkpt lat="47.41314" lon="6.59409">
        <ele>400.05</ele>
        <time>2013-09-28T09:38:27Z</time>
      </trkpt>
      <trkpt lat="47.41337" lon="6.59423">
        <ele>399.08</ele>
        <time>2013-09-28T09:38:31Z</time>
      </trkpt>
      <trkpt lat="47.41365" lon="6.59432">
        <ele>397.64</ele>
        <time>2013-09-28T09:38:35Z</time>
      </trkpt>
      <trkpt lat="47.41388" lon="6.5944">
        <ele>396.68</ele>
        <time>2013-09-28T09:38:38Z</time>
      </trkpt>
      <trkpt lat="47.41412" lon="6.59448">
        <ele>395.24</ele>
        <time>2013-09-28T09:38:41Z</time>
      </trkpt>
      <trkpt lat="47.41438" lon="6.5946">
        <ele>393.8</ele>
        <time>2013-09-28T09:38:44Z</time>
      </trkpt>
      <trkpt lat="47.41455" lon="6.59472">
        <ele>392.84</ele>
        <time>2013-09-28T09:38:46Z</time>
      </trkpt>
      <trkpt lat="47.41476" lon="6.59493">
        <ele>391.87</ele>
        <time>2013-09-28T09:38:50Z</time>
      </trkpt>
      <trkpt lat="47.41494" lon="6.5952">
        <ele>390.43</ele>
        <time>2013-09-28T09:38:53Z</time>
      </trkpt>
      <trkpt lat="47.41512" lon="6.59536">
        <ele>388.03</ele>
        <time>2013-09-28T09:38:56Z</time>
      </trkpt>
      <trkpt lat="47.41536" lon="6.59557">
        <ele>386.59</ele>
        <time>2013-09-28T09:38:58Z</time>
      </trkpt>
      <trkpt lat="47.41554" lon="6.59569">
        <ele>385.15</ele>
        <time>2013-09-28T09:39:00Z</time>
      </trkpt>
      <trkpt lat="47.41573" lon="6.59582">
        <ele>384.18</ele>
        <time>2013-09-28T09:39:02Z</time>
      </trkpt>
      <trkpt lat="47.4159" lon="6.59598">
        <ele>383.22</ele>
        <time>2013-09-28T09:39:04Z</time>
      </trkpt>
      <trkpt lat="47.41606" lon="6.59613">
        <ele>381.78</ele>
        <time>2013-09-28T09:39:06Z</time>
      </trkpt>
      <trkpt lat="47.4163" lon="6.59631">
        <ele>380.82</ele>
        <time>2013-09-28T09:39:09Z</time>
      </trkpt>
      <trkpt lat="47.41659" lon="6.59639">
        <ele>378.9</ele>
        <time>2013-09-28T09:39:12Z</time>
      </trkpt>
      <trkpt lat="47.4168" lon="6.59639">
        <ele>378.42</ele>
        <time>2013-09-28T09:39:14Z</time>
      </trkpt>
      <trkpt lat="47.41707" lon="6.59639">
        <ele>375.53</ele>
        <time>2013-09-28T09:39:17Z</time>
      </trkpt>
      <trkpt lat="47.41728" lon="6.59636">
        <ele>375.05</ele>
        <time>2013-09-28T09:39:19Z</time>
      </trkpt>
      <trkpt lat="47.41748" lon="6.59635">
        <ele>374.57</ele>
        <time>2013-09-28T09:39:21Z</time>
      </trkpt>
      <trkpt lat="47.41777" lon="6.59639">
        <ele>374.09</ele>
        <time>2013-09-28T09:39:24Z</time>
      </trkpt>
      <trkpt lat="47.41803" lon="6.59642">
        <ele>374.09</ele>
        <time>2013-09-28T09:39:27Z</time>
      </trkpt>
      <trkpt lat="47.41825" lon="6.59647">
        <ele>373.61</ele>
        <time>2013-09-28T09:39:30Z</time>
      </trkpt>
      <trkpt lat="47.41845" lon="6.59647">
        <ele>374.09</ele>
        <time>2013-09-28T09:39:33Z</time>
      </trkpt>
      <trkpt lat="47.41868" lon="6.59632">
        <ele>373.13</ele>
        <time>2013-09-28T09:39:37Z</time>
      </trkpt>
      <trkpt lat="47.41882" lon="6.59604">
        <ele>374.09</ele>
        <time>2013-09-28T09:39:41Z</time>
      </trkpt>
      <trkpt lat="47.41891" lon="6.59573">
        <ele>374.09</ele>
        <time>2013-09-28T09:39:45Z</time>
      </trkpt>
      <trkpt lat="47.41901" lon="6.59545">
        <ele>375.53</ele>
        <time>2013-09-28T09:39:49Z</time>
      </trkpt>
      <trkpt lat="47.41913" lon="6.59524">
        <ele>375.53</ele>
        <time>2013-09-28T09:39:53Z</time>
      </trkpt>
      <trkpt lat="47.4193" lon="6.59514">
        <ele>376.49</ele>
        <time>2013-09-28T09:39:57Z</time>
      </trkpt>
      <trkpt lat="47.41949" lon="6.59514">
        <ele>376.97</ele>
        <time>2013-09-28T09:40:01Z</time>
      </trkpt>
      <trkpt lat="47.41971" lon="6.59519">
        <ele>376.97</ele>
        <time>2013-09-28T09:40:06Z</time>
      </trkpt>
      <trkpt lat="47.41994" lon="6.59523">
        <ele>377.94</ele>
        <time>2013-09-28T09:40:11Z</time>
      </trkpt>
      <trkpt lat="47.42016" lon="6.5953">
        <ele>378.9</ele>
        <time>2013-09-28T09:40:16Z</time>
      </trkpt>
      <trkpt lat="47.42035" lon="6.59535">
        <ele>379.38</ele>
        <time>2013-09-28T09:40:23Z</time>
      </trkpt>
      <trkpt lat="47.42024" lon="6.59531">
        <ele>379.38</ele>
        <time>2013-09-28T09:40:38Z</time>
      </trkpt>
      <trkpt lat="47.42003" lon="6.59526">
        <ele>378.42</ele>
        <time>2013-09-28T09:40:43Z</time>
      </trkpt>
      <trkpt lat="47.41991" lon="6.59546">
        <ele>377.94</ele>
        <time>2013-09-28T09:40:47Z</time>
      </trkpt>
      <trkpt lat="47.41988" lon="6.59581">
        <ele>376.49</ele>
        <time>2013-09-28T09:40:51Z</time>
      </trkpt>
      <trkpt lat="47.41983" lon="6.59608">
        <ele>376.01</ele>
        <time>2013-09-28T09:40:54Z</time>
      </trkpt>
      <trkpt lat="47.41978" lon="6.59639">
        <ele>374.09</ele>
        <time>2013-09-28T09:40:57Z</time>
      </trkpt>
      <trkpt lat="47.41972" lon="6.59672">
        <ele>371.69</ele>
        <time>2013-09-28T09:41:00Z</time>
      </trkpt>
      <trkpt lat="47.41968" lon="6.59706">
        <ele>370.73</ele>
        <time>2013-09-28T09:41:03Z</time>
      </trkpt>
      <trkpt lat="47.41965" lon="6.59737">
        <ele>369.76</ele>
        <time>2013-09-28T09:41:06Z</time>
      </trkpt>
      <trkpt lat="47.41962" lon="6.59767">
        <ele>369.28</ele>
        <time>2013-09-28T09:41:09Z</time>
      </trkpt>
      <trkpt lat="47.41958" lon="6.59798">
        <ele>367.84</ele>
        <time>2013-09-28T09:41:12Z</time>
      </trkpt>
      <trkpt lat="47.41953" lon="6.59831">
        <ele>367.36</ele>
        <time>2013-09-28T09:41:15Z</time>
      </trkpt>
      <trkpt lat="47.41948" lon="6.59864">
        <ele>365.92</ele>
        <time>2013-09-28T09:41:18Z</time>
      </trkpt>
      <trkpt lat="47.41943" lon="6.59898">
        <ele>364</ele>
        <time>2013-09-28T09:41:21Z</time>
      </trkpt>
      <trkpt lat="47.41937" lon="6.59934">
        <ele>361.59</ele>
        <time>2013-09-28T09:41:24Z</time>
      </trkpt>
      <trkpt lat="47.41934" lon="6.5996">
        <ele>359.67</ele>
        <time>2013-09-28T09:41:30Z</time>
      </trkpt>
      <trkpt lat="47.41941" lon="6.59935">
        <ele>361.11</ele>
        <time>2013-09-28T09:41:49Z</time>
      </trkpt>
      <trkpt lat="47.41954" lon="6.59957">
        <ele>359.67</ele>
        <time>2013-09-28T09:42:02Z</time>
      </trkpt>
      <trkpt lat="47.41961" lon="6.59986">
        <ele>359.67</ele>
        <time>2013-09-28T09:42:13Z</time>
      </trkpt>
      <trkpt lat="47.4197" lon="6.6002">
        <ele>359.67</ele>
        <time>2013-09-28T09:42:27Z</time>
      </trkpt>
      <trkpt lat="47.41967" lon="6.60078">
        <ele>359.19</ele>
        <time>2013-09-28T09:43:11Z</time>
      </trkpt>
      <trkpt lat="47.41974" lon="6.60116">
        <ele>361.11</ele>
        <time>2013-09-28T09:43:56Z</time>
      </trkpt>
      <trkpt lat="47.4197" lon="6.60163">
        <ele>360.15</ele>
        <time>2013-09-28T09:44:11Z</time>
      </trkpt>
      <trkpt lat="47.41975" lon="6.60195">
        <ele>360.63</ele>
        <time>2013-09-28T09:44:36Z</time>
      </trkpt>
      <trkpt lat="47.41983" lon="6.60247">
        <ele>359.67</ele>
        <time>2013-09-28T09:44:51Z</time>
      </trkpt>
      <trkpt lat="47.4197" lon="6.60263">
        <ele>357.75</ele>
        <time>2013-09-28T09:45:31Z</time>
      </trkpt>
      <trkpt lat="47.41939" lon="6.60268">
        <ele>352.94</ele>
        <time>2013-09-28T09:46:53Z</time>
      </trkpt>
      <trkpt lat="47.41928" lon="6.60303">
        <ele>351.02</ele>
        <time>2013-09-28T09:47:46Z</time>
      </trkpt>
      <trkpt lat="47.4193" lon="6.60345">
        <ele>351.5</ele>
        <time>2013-09-28T09:48:02Z</time>
      </trkpt>
      <trkpt lat="47.41919" lon="6.6038">
        <ele>345.73</ele>
        <time>2013-09-28T09:48:37Z</time>
      </trkpt>
      <trkpt lat="47.41906" lon="6.60398">
        <ele>344.29</ele>
        <time>2013-09-28T09:49:01Z</time>
      </trkpt>
      <trkpt lat="47.41898" lon="6.60425">
        <ele>344.29</ele>
        <time>2013-09-28T09:49:53Z</time>
      </trkpt>
      <trkpt lat="47.41895" lon="6.60453">
        <ele>343.33</ele>
        <time>2013-09-28T09:50:19Z</time>
      </trkpt>
      <trkpt lat="47.41896" lon="6.60478">
        <ele>341.89</ele>
        <time>2013-09-28T09:51:38Z</time>
      </trkpt>
      <trkpt lat="47.41884" lon="6.6049">
        <ele>343.33</ele>
        <time>2013-09-28T09:51:51Z</time>
      </trkpt>
      <trkpt lat="47.41879" lon="6.60535">
        <ele>348.13</ele>
        <time>2013-09-28T09:52:31Z</time>
      </trkpt>
      <trkpt lat="47.41879" lon="6.60565">
        <ele>348.62</ele>
        <time>2013-09-28T09:53:13Z</time>
      </trkpt>
      <trkpt lat="47.41874" lon="6.60595">
        <ele>348.62</ele>
        <time>2013-09-28T09:53:25Z</time>
      </trkpt>
      <trkpt lat="47.41867" lon="6.60621">
        <ele>349.1</ele>
        <time>2013-09-28T09:53:35Z</time>
      </trkpt>
      <trkpt lat="47.41869" lon="6.6065">
        <ele>349.58</ele>
        <time>2013-09-28T09:53:45Z</time>
      </trkpt>
      <trkpt lat="47.41867" lon="6.60677">
        <ele>349.58</ele>
        <time>2013-09-28T09:53:58Z</time>
      </trkpt>
      <trkpt lat="47.41862" lon="6.60703">
        <ele>349.58</ele>
        <time>2013-09-28T09:54:11Z</time>
      </trkpt>
      <trkpt lat="47.4186" lon="6.60731">
        <ele>349.1</ele>
        <time>2013-09-28T09:54:21Z</time>
      </trkpt>
      <trkpt lat="47.41847" lon="6.60733">
        <ele>350.54</ele>
        <time>2013-09-28T09:55:16Z</time>
      </trkpt>
      <trkpt lat="47.41841" lon="6.60765">
        <ele>350.06</ele>
        <time>2013-09-28T09:55:39Z</time>
      </trkpt>
      <trkpt lat="47.41837" lon="6.60794">
        <ele>348.13</ele>
        <time>2013-09-28T09:55:44Z</time>
      </trkpt>
      <trkpt lat="47.41832" lon="6.60822">
        <ele>347.17</ele>
        <time>2013-09-28T09:55:48Z</time>
      </trkpt>
      <trkpt lat="47.41827" lon="6.60852">
        <ele>346.69</ele>
        <time>2013-09-28T09:55:53Z</time>
      </trkpt>
      <trkpt lat="47.41824" lon="6.60878">
        <ele>345.25</ele>
        <time>2013-09-28T09:55:58Z</time>
      </trkpt>
      <trkpt lat="47.41835" lon="6.609">
        <ele>343.33</ele>
        <time>2013-09-28T09:56:04Z</time>
      </trkpt>
      <trkpt lat="47.41863" lon="6.60908">
        <ele>340.92</ele>
        <time>2013-09-28T09:56:09Z</time>
      </trkpt>
      <trkpt lat="47.41892" lon="6.60912">
        <ele>337.56</ele>
        <time>2013-09-28T09:56:13Z</time>
      </trkpt>
      <trkpt lat="47.41914" lon="6.60918">
        <ele>335.64</ele>
        <time>2013-09-28T09:56:16Z</time>
      </trkpt>
      <trkpt lat="47.41933" lon="6.60923">
        <ele>334.2</ele>
        <time>2013-09-28T09:56:19Z</time>
      </trkpt>
      <trkpt lat="47.41956" lon="6.60919">
        <ele>331.31</ele>
        <time>2013-09-28T09:56:23Z</time>
      </trkpt>
      <trkpt lat="47.41974" lon="6.60905">
        <ele>329.39</ele>
        <time>2013-09-28T09:56:27Z</time>
      </trkpt>
      <trkpt lat="47.41997" lon="6.60897">
        <ele>326.99</ele>
        <time>2013-09-28T09:56:31Z</time>
      </trkpt>
      <trkpt lat="47.42016" lon="6.60899">
        <ele>325.54</ele>
        <time>2013-09-28T09:56:34Z</time>
      </trkpt>
      <trkpt lat="47.42038" lon="6.60895">
        <ele>324.58</ele>
        <time>2013-09-28T09:56:38Z</time>
      </trkpt>
      <trkpt lat="47.42061" lon="6.60878">
        <ele>324.1</ele>
        <time>2013-09-28T09:56:43Z</time>
      </trkpt>
      <trkpt lat="47.42077" lon="6.60861">
        <ele>323.62</ele>
        <time>2013-09-28T09:56:47Z</time>
      </trkpt>
      <trkpt lat="47.42093" lon="6.60846">
        <ele>323.14</ele>
        <time>2013-09-28T09:56:51Z</time>
      </trkpt>
      <trkpt lat="47.42108" lon="6.60828">
        <ele>322.18</ele>
        <time>2013-09-28T09:56:55Z</time>
      </trkpt>
      <trkpt lat="47.42124" lon="6.60813">
        <ele>322.18</ele>
        <time>2013-09-28T09:56:59Z</time>
      </trkpt>
      <trkpt lat="47.42141" lon="6.608">
        <ele>321.22</ele>
        <time>2013-09-28T09:57:03Z</time>
      </trkpt>
      <trkpt lat="47.42159" lon="6.60786">
        <ele>321.22</ele>
        <time>2013-09-28T09:57:07Z</time>
      </trkpt>
      <trkpt lat="47.42177" lon="6.60776">
        <ele>321.22</ele>
        <time>2013-09-28T09:57:11Z</time>
      </trkpt>
      <trkpt lat="47.42196" lon="6.60773">
        <ele>320.74</ele>
        <time>2013-09-28T09:57:15Z</time>
      </trkpt>
      <trkpt lat="47.42216" lon="6.60774">
        <ele>320.74</ele>
        <time>2013-09-28T09:57:19Z</time>
      </trkpt>
      <trkpt lat="47.42236" lon="6.60775">
        <ele>319.78</ele>
        <time>2013-09-28T09:57:23Z</time>
      </trkpt>
      <trkpt lat="47.42257" lon="6.60779">
        <ele>319.78</ele>
        <time>2013-09-28T09:57:27Z</time>
      </trkpt>
      <trkpt lat="47.42278" lon="6.60781">
        <ele>318.81</ele>
        <time>2013-09-28T09:57:31Z</time>
      </trkpt>
      <trkpt lat="47.42301" lon="6.60782">
        <ele>318.81</ele>
        <time>2013-09-28T09:57:35Z</time>
      </trkpt>
      <trkpt lat="47.42324" lon="6.60779">
        <ele>318.33</ele>
        <time>2013-09-28T09:57:39Z</time>
      </trkpt>
      <trkpt lat="47.42347" lon="6.60775">
        <ele>319.3</ele>
        <time>2013-09-28T09:57:43Z</time>
      </trkpt>
      <trkpt lat="47.42369" lon="6.60773">
        <ele>318.81</ele>
        <time>2013-09-28T09:57:47Z</time>
      </trkpt>
      <trkpt lat="47.4239" lon="6.60769">
        <ele>318.33</ele>
        <time>2013-09-28T09:57:51Z</time>
      </trkpt>
      <trkpt lat="47.4241" lon="6.60757">
        <ele>318.33</ele>
        <time>2013-09-28T09:57:55Z</time>
      </trkpt>
      <trkpt lat="47.4243" lon="6.60742">
        <ele>317.37</ele>
        <time>2013-09-28T09:57:59Z</time>
      </trkpt>
      <trkpt lat="47.42449" lon="6.6073">
        <ele>316.89</ele>
        <time>2013-09-28T09:58:03Z</time>
      </trkpt>
      <trkpt lat="47.42468" lon="6.60718">
        <ele>317.37</ele>
        <time>2013-09-28T09:58:07Z</time>
      </trkpt>
      <trkpt lat="47.42488" lon="6.60706">
        <ele>317.37</ele>
        <time>2013-09-28T09:58:11Z</time>
      </trkpt>
      <trkpt lat="47.42508" lon="6.60696">
        <ele>317.37</ele>
        <time>2013-09-28T09:58:15Z</time>
      </trkpt>
      <trkpt lat="47.42529" lon="6.60683">
        <ele>316.89</ele>
        <time>2013-09-28T09:58:19Z</time>
      </trkpt>
      <trkpt lat="47.4255" lon="6.60669">
        <ele>316.41</ele>
        <time>2013-09-28T09:58:23Z</time>
      </trkpt>
      <trkpt lat="47.42567" lon="6.60656">
        <ele>316.89</ele>
        <time>2013-09-28T09:58:26Z</time>
      </trkpt>
      <trkpt lat="47.42587" lon="6.60642">
        <ele>316.41</ele>
        <time>2013-09-28T09:58:30Z</time>
      </trkpt>
      <trkpt lat="47.42611" lon="6.60634">
        <ele>315.45</ele>
        <time>2013-09-28T09:58:34Z</time>
      </trkpt>
      <trkpt lat="47.4263" lon="6.6063">
        <ele>314.49</ele>
        <time>2013-09-28T09:58:37Z</time>
      </trkpt>
      <trkpt lat="47.4265" lon="6.60627">
        <ele>314.49</ele>
        <time>2013-09-28T09:58:40Z</time>
      </trkpt>
      <trkpt lat="47.4267" lon="6.60623">
        <ele>314.01</ele>
        <time>2013-09-28T09:58:43Z</time>
      </trkpt>
      <trkpt lat="47.42691" lon="6.60619">
        <ele>313.05</ele>
        <time>2013-09-28T09:58:46Z</time>
      </trkpt>
      <trkpt lat="47.4271" lon="6.60615">
        <ele>312.57</ele>
        <time>2013-09-28T09:58:49Z</time>
      </trkpt>
      <trkpt lat="47.42734" lon="6.60615">
        <ele>312.57</ele>
        <time>2013-09-28T09:58:53Z</time>
      </trkpt>
      <trkpt lat="47.42758" lon="6.60621">
        <ele>312.57</ele>
        <time>2013-09-28T09:58:57Z</time>
      </trkpt>
      <trkpt lat="47.42776" lon="6.60627">
        <ele>312.09</ele>
        <time>2013-09-28T09:59:00Z</time>
      </trkpt>
      <trkpt lat="47.42795" lon="6.60634">
        <ele>311.12</ele>
        <time>2013-09-28T09:59:03Z</time>
      </trkpt>
      <trkpt lat="47.42817" lon="6.60643">
        <ele>310.64</ele>
        <time>2013-09-28T09:59:07Z</time>
      </trkpt>
      <trkpt lat="47.42836" lon="6.6065">
        <ele>310.64</ele>
        <time>2013-09-28T09:59:10Z</time>
      </trkpt>
      <trkpt lat="47.42858" lon="6.60659">
        <ele>310.64</ele>
        <time>2013-09-28T09:59:14Z</time>
      </trkpt>
      <trkpt lat="47.42856" lon="6.60679">
        <ele>311.12</ele>
        <time>2013-09-28T09:59:23Z</time>
      </trkpt>
      <trkpt lat="47.42838" lon="6.60696">
        <ele>312.09</ele>
        <time>2013-09-28T09:59:29Z</time>
      </trkpt>
      <trkpt lat="47.42836" lon="6.60702">
        <ele>312.57</ele>
        <time>2013-09-28T09:59:39Z</time>
      </trkpt>
      <trkpt lat="47.42852" lon="6.60686">
        <ele>311.6</ele>
        <time>2013-09-28T09:59:44Z</time>
      </trkpt>
      <trkpt lat="47.4287" lon="6.60701">
        <ele>309.68</ele>
        <time>2013-09-28T09:59:48Z</time>
      </trkpt>
      <trkpt lat="47.42876" lon="6.60737">
        <ele>308.72</ele>
        <time>2013-09-28T09:59:52Z</time>
      </trkpt>
      <trkpt lat="47.42881" lon="6.60772">
        <ele>308.72</ele>
        <time>2013-09-28T09:59:56Z</time>
      </trkpt>
      <trkpt lat="47.42879" lon="6.60806">
        <ele>308.72</ele>
        <time>2013-09-28T10:00:00Z</time>
      </trkpt>
      <trkpt lat="47.42874" lon="6.60837">
        <ele>308.24</ele>
        <time>2013-09-28T10:00:04Z</time>
      </trkpt>
      <trkpt lat="47.42869" lon="6.60867">
        <ele>308.24</ele>
        <time>2013-09-28T10:00:08Z</time>
      </trkpt>
      <trkpt lat="47.42865" lon="6.60899">
        <ele>308.72</ele>
        <time>2013-09-28T10:00:12Z</time>
      </trkpt>
      <trkpt lat="47.42862" lon="6.60931">
        <ele>308.24</ele>
        <time>2013-09-28T10:00:16Z</time>
      </trkpt>
      <trkpt lat="47.42858" lon="6.6096">
        <ele>307.76</ele>
        <time>2013-09-28T10:00:20Z</time>
      </trkpt>
      <trkpt lat="47.42855" lon="6.60988">
        <ele>307.76</ele>
        <time>2013-09-28T10:00:24Z</time>
      </trkpt>
      <trkpt lat="47.42852" lon="6.61017">
        <ele>307.76</ele>
        <time>2013-09-28T10:00:28Z</time>
      </trkpt>
      <trkpt lat="47.42849" lon="6.61047">
        <ele>307.76</ele>
        <time>2013-09-28T10:00:32Z</time>
      </trkpt>
      <trkpt lat="47.42845" lon="6.61078">
        <ele>307.76</ele>
        <time>2013-09-28T10:00:36Z</time>
      </trkpt>
      <trkpt lat="47.4284" lon="6.6111">
        <ele>308.24</ele>
        <time>2013-09-28T10:00:40Z</time>
      </trkpt>
      <trkpt lat="47.42831" lon="6.61139">
        <ele>307.76</ele>
        <time>2013-09-28T10:00:44Z</time>
      </trkpt>
      <trkpt lat="47.42821" lon="6.61165">
        <ele>308.24</ele>
        <time>2013-09-28T10:00:48Z</time>
      </trkpt>
      <trkpt lat="47.4281" lon="6.61191">
        <ele>308.24</ele>
        <time>2013-09-28T10:00:52Z</time>
      </trkpt>
      <trkpt lat="47.42799" lon="6.61217">
        <ele>307.76</ele>
        <time>2013-09-28T10:00:56Z</time>
      </trkpt>
      <trkpt lat="47.42789" lon="6.61242">
        <ele>307.76</ele>
        <time>2013-09-28T10:01:00Z</time>
      </trkpt>
      <trkpt lat="47.42777" lon="6.6127">
        <ele>308.72</ele>
        <time>2013-09-28T10:01:05Z</time>
      </trkpt>
      <trkpt lat="47.42768" lon="6.61301">
        <ele>307.76</ele>
        <time>2013-09-28T10:01:10Z</time>
      </trkpt>
      <trkpt lat="47.42762" lon="6.61329">
        <ele>308.24</ele>
        <time>2013-09-28T10:01:14Z</time>
      </trkpt>
      <trkpt lat="47.42758" lon="6.6136">
        <ele>309.2</ele>
        <time>2013-09-28T10:01:18Z</time>
      </trkpt>
      <trkpt lat="47.42756" lon="6.61389">
        <ele>309.68</ele>
        <time>2013-09-28T10:01:22Z</time>
      </trkpt>
      <trkpt lat="47.42749" lon="6.61415">
        <ele>310.64</ele>
        <time>2013-09-28T10:01:28Z</time>
      </trkpt>
      <trkpt lat="47.42741" lon="6.61444">
        <ele>310.64</ele>
        <time>2013-09-28T10:01:34Z</time>
      </trkpt>
      <trkpt lat="47.42731" lon="6.61472">
        <ele>310.16</ele>
        <time>2013-09-28T10:01:39Z</time>
      </trkpt>
      <trkpt lat="47.42723" lon="6.61503">
        <ele>310.64</ele>
        <time>2013-09-28T10:01:44Z</time>
      </trkpt>
      <trkpt lat="47.42715" lon="6.61529">
        <ele>310.64</ele>
        <time>2013-09-28T10:01:48Z</time>
      </trkpt>
      <trkpt lat="47.42707" lon="6.61555">
        <ele>310.16</ele>
        <time>2013-09-28T10:01:52Z</time>
      </trkpt>
      <trkpt lat="47.427" lon="6.61583">
        <ele>310.16</ele>
        <time>2013-09-28T10:01:56Z</time>
      </trkpt>
      <trkpt lat="47.42693" lon="6.61611">
        <ele>310.64</ele>
        <time>2013-09-28T10:02:00Z</time>
      </trkpt>
      <trkpt lat="47.42685" lon="6.6164">
        <ele>310.64</ele>
        <time>2013-09-28T10:02:04Z</time>
      </trkpt>
      <trkpt lat="47.42678" lon="6.6167">
        <ele>310.16</ele>
        <time>2013-09-28T10:02:08Z</time>
      </trkpt>
      <trkpt lat="47.4267" lon="6.61701">
        <ele>310.16</ele>
        <time>2013-09-28T10:02:12Z</time>
      </trkpt>
      <trkpt lat="47.42664" lon="6.61732">
        <ele>310.64</ele>
        <time>2013-09-28T10:02:16Z</time>
      </trkpt>
      <trkpt lat="47.42658" lon="6.61764">
        <ele>310.64</ele>
        <time>2013-09-28T10:02:20Z</time>
      </trkpt>
      <trkpt lat="47.42651" lon="6.61796">
        <ele>310.64</ele>
        <time>2013-09-28T10:02:24Z</time>
      </trkpt>
      <trkpt lat="47.42645" lon="6.61827">
        <ele>310.64</ele>
        <time>2013-09-28T10:02:28Z</time>
      </trkpt>
      <trkpt lat="47.4264" lon="6.6186">
        <ele>310.64</ele>
        <time>2013-09-28T10:02:32Z</time>
      </trkpt>
      <trkpt lat="47.42635" lon="6.61893">
        <ele>310.16</ele>
        <time>2013-09-28T10:02:36Z</time>
      </trkpt>
      <trkpt lat="47.4263" lon="6.61927">
        <ele>310.16</ele>
        <time>2013-09-28T10:02:40Z</time>
      </trkpt>
      <trkpt lat="47.42628" lon="6.61954">
        <ele>310.64</ele>
        <time>2013-09-28T10:02:43Z</time>
      </trkpt>
      <trkpt lat="47.42625" lon="6.61989">
        <ele>310.64</ele>
        <time>2013-09-28T10:02:47Z</time>
      </trkpt>
      <trkpt lat="47.42623" lon="6.62024">
        <ele>310.64</ele>
        <time>2013-09-28T10:02:51Z</time>
      </trkpt>
      <trkpt lat="47.42622" lon="6.62051">
        <ele>311.12</ele>
        <time>2013-09-28T10:02:54Z</time>
      </trkpt>
      <trkpt lat="47.42622" lon="6.62078">
        <ele>310.16</ele>
        <time>2013-09-28T10:02:57Z</time>
      </trkpt>
      <trkpt lat="47.42622" lon="6.62105">
        <ele>310.64</ele>
        <time>2013-09-28T10:03:00Z</time>
      </trkpt>
      <trkpt lat="47.42623" lon="6.62132">
        <ele>310.64</ele>
        <time>2013-09-28T10:03:03Z</time>
      </trkpt>
      <trkpt lat="47.42624" lon="6.62159">
        <ele>311.12</ele>
        <time>2013-09-28T10:03:06Z</time>
      </trkpt>
      <trkpt lat="47.42626" lon="6.62186">
        <ele>311.12</ele>
        <time>2013-09-28T10:03:09Z</time>
      </trkpt>
      <trkpt lat="47.42628" lon="6.62221">
        <ele>311.12</ele>
        <time>2013-09-28T10:03:13Z</time>
      </trkpt>
      <trkpt lat="47.4263" lon="6.62256">
        <ele>311.12</ele>
        <time>2013-09-28T10:03:17Z</time>
      </trkpt>
      <trkpt lat="47.42633" lon="6.62291">
        <ele>310.64</ele>
        <time>2013-09-28T10:03:21Z</time>
      </trkpt>
      <trkpt lat="47.42637" lon="6.62325">
        <ele>310.64</ele>
        <time>2013-09-28T10:03:25Z</time>
      </trkpt>
      <trkpt lat="47.4264" lon="6.6236">
        <ele>311.12</ele>
        <time>2013-09-28T10:03:29Z</time>
      </trkpt>
      <trkpt lat="47.42643" lon="6.62386">
        <ele>310.16</ele>
        <time>2013-09-28T10:03:32Z</time>
      </trkpt>
      <trkpt lat="47.42647" lon="6.62413">
        <ele>311.12</ele>
        <time>2013-09-28T10:03:35Z</time>
      </trkpt>
      <trkpt lat="47.42653" lon="6.62447">
        <ele>307.28</ele>
        <time>2013-09-28T10:03:39Z</time>
      </trkpt>
      <trkpt lat="47.42657" lon="6.62474">
        <ele>309.68</ele>
        <time>2013-09-28T10:03:42Z</time>
      </trkpt>
      <trkpt lat="47.42662" lon="6.62509">
        <ele>311.12</ele>
        <time>2013-09-28T10:03:46Z</time>
      </trkpt>
      <trkpt lat="47.42667" lon="6.62535">
        <ele>310.64</ele>
        <time>2013-09-28T10:03:49Z</time>
      </trkpt>
      <trkpt lat="47.42674" lon="6.62568">
        <ele>310.64</ele>
        <time>2013-09-28T10:03:53Z</time>
      </trkpt>
      <trkpt lat="47.4268" lon="6.62601">
        <ele>311.12</ele>
        <time>2013-09-28T10:03:57Z</time>
      </trkpt>
      <trkpt lat="47.42688" lon="6.62634">
        <ele>310.64</ele>
        <time>2013-09-28T10:04:01Z</time>
      </trkpt>
      <trkpt lat="47.42696" lon="6.62667">
        <ele>310.64</ele>
        <time>2013-09-28T10:04:05Z</time>
      </trkpt>
      <trkpt lat="47.42704" lon="6.62701">
        <ele>310.64</ele>
        <time>2013-09-28T10:04:09Z</time>
      </trkpt>
      <trkpt lat="47.42714" lon="6.62733">
        <ele>310.64</ele>
        <time>2013-09-28T10:04:13Z</time>
      </trkpt>
      <trkpt lat="47.42725" lon="6.62764">
        <ele>311.12</ele>
        <time>2013-09-28T10:04:17Z</time>
      </trkpt>
      <trkpt lat="47.42736" lon="6.62793">
        <ele>310.64</ele>
        <time>2013-09-28T10:04:21Z</time>
      </trkpt>
      <trkpt lat="47.42749" lon="6.62821">
        <ele>311.12</ele>
        <time>2013-09-28T10:04:25Z</time>
      </trkpt>
      <trkpt lat="47.42762" lon="6.62849">
        <ele>310.64</ele>
        <time>2013-09-28T10:04:29Z</time>
      </trkpt>
      <trkpt lat="47.42776" lon="6.62876">
        <ele>311.12</ele>
        <time>2013-09-28T10:04:33Z</time>
      </trkpt>
      <trkpt lat="47.42791" lon="6.62902">
        <ele>311.6</ele>
        <time>2013-09-28T10:04:37Z</time>
      </trkpt>
      <trkpt lat="47.42806" lon="6.62927">
        <ele>311.6</ele>
        <time>2013-09-28T10:04:41Z</time>
      </trkpt>
      <trkpt lat="47.42822" lon="6.6295">
        <ele>311.12</ele>
        <time>2013-09-28T10:04:45Z</time>
      </trkpt>
      <trkpt lat="47.42839" lon="6.6297">
        <ele>310.64</ele>
        <time>2013-09-28T10:04:49Z</time>
      </trkpt>
      <trkpt lat="47.42858" lon="6.62991">
        <ele>310.64</ele>
        <time>2013-09-28T10:04:53Z</time>
      </trkpt>
      <trkpt lat="47.42876" lon="6.6301">
        <ele>311.6</ele>
        <time>2013-09-28T10:04:57Z</time>
      </trkpt>
      <trkpt lat="47.42894" lon="6.63027">
        <ele>310.64</ele>
        <time>2013-09-28T10:05:01Z</time>
      </trkpt>
      <trkpt lat="47.42914" lon="6.63045">
        <ele>311.12</ele>
        <time>2013-09-28T10:05:05Z</time>
      </trkpt>
      <trkpt lat="47.42933" lon="6.63061">
        <ele>310.64</ele>
        <time>2013-09-28T10:05:09Z</time>
      </trkpt>
      <trkpt lat="47.42953" lon="6.63076">
        <ele>311.12</ele>
        <time>2013-09-28T10:05:13Z</time>
      </trkpt>
      <trkpt lat="47.42973" lon="6.63092">
        <ele>310.64</ele>
        <time>2013-09-28T10:05:17Z</time>
      </trkpt>
      <trkpt lat="47.42992" lon="6.63107">
        <ele>311.12</ele>
        <time>2013-09-28T10:05:21Z</time>
      </trkpt>
      <trkpt lat="47.43012" lon="6.63119">
        <ele>312.09</ele>
        <time>2013-09-28T10:05:25Z</time>
      </trkpt>
      <trkpt lat="47.43032" lon="6.6313">
        <ele>312.09</ele>
        <time>2013-09-28T10:05:29Z</time>
      </trkpt>
      <trkpt lat="47.43053" lon="6.63139">
        <ele>311.12</ele>
        <time>2013-09-28T10:05:33Z</time>
      </trkpt>
      <trkpt lat="47.43072" lon="6.63145">
        <ele>311.12</ele>
        <time>2013-09-28T10:05:36Z</time>
      </trkpt>
      <trkpt lat="47.4309" lon="6.63151">
        <ele>311.12</ele>
        <time>2013-09-28T10:05:39Z</time>
      </trkpt>
      <trkpt lat="47.43113" lon="6.63159">
        <ele>310.64</ele>
        <time>2013-09-28T10:05:43Z</time>
      </trkpt>
      <trkpt lat="47.43131" lon="6.63164">
        <ele>310.64</ele>
        <time>2013-09-28T10:05:46Z</time>
      </trkpt>
      <trkpt lat="47.43154" lon="6.6317">
        <ele>310.64</ele>
        <time>2013-09-28T10:05:50Z</time>
      </trkpt>
      <trkpt lat="47.43178" lon="6.63173">
        <ele>311.12</ele>
        <time>2013-09-28T10:05:54Z</time>
      </trkpt>
      <trkpt lat="47.43201" lon="6.63175">
        <ele>311.12</ele>
        <time>2013-09-28T10:05:58Z</time>
      </trkpt>
      <trkpt lat="47.43224" lon="6.63175">
        <ele>311.12</ele>
        <time>2013-09-28T10:06:02Z</time>
      </trkpt>
      <trkpt lat="47.43248" lon="6.63175">
        <ele>310.64</ele>
        <time>2013-09-28T10:06:06Z</time>
      </trkpt>
      <trkpt lat="47.43272" lon="6.63173">
        <ele>311.12</ele>
        <time>2013-09-28T10:06:10Z</time>
      </trkpt>
      <trkpt lat="47.43296" lon="6.63168">
        <ele>309.68</ele>
        <time>2013-09-28T10:06:14Z</time>
      </trkpt>
      <trkpt lat="47.43315" lon="6.63164">
        <ele>310.64</ele>
        <time>2013-09-28T10:06:17Z</time>
      </trkpt>
      <trkpt lat="47.43338" lon="6.63158">
        <ele>310.64</ele>
        <time>2013-09-28T10:06:21Z</time>
      </trkpt>
      <trkpt lat="47.43356" lon="6.63153">
        <ele>310.64</ele>
        <time>2013-09-28T10:06:24Z</time>
      </trkpt>
      <trkpt lat="47.43375" lon="6.63147">
        <ele>310.64</ele>
        <time>2013-09-28T10:06:27Z</time>
      </trkpt>
      <trkpt lat="47.43393" lon="6.6314">
        <ele>310.64</ele>
        <time>2013-09-28T10:06:30Z</time>
      </trkpt>
      <trkpt lat="47.43411" lon="6.63133">
        <ele>311.12</ele>
        <time>2013-09-28T10:06:33Z</time>
      </trkpt>
      <trkpt lat="47.43428" lon="6.63125">
        <ele>311.6</ele>
        <time>2013-09-28T10:06:36Z</time>
      </trkpt>
      <trkpt lat="47.43446" lon="6.63117">
        <ele>311.12</ele>
        <time>2013-09-28T10:06:39Z</time>
      </trkpt>
      <trkpt lat="47.43464" lon="6.63108">
        <ele>310.64</ele>
        <time>2013-09-28T10:06:42Z</time>
      </trkpt>
      <trkpt lat="47.43481" lon="6.63098">
        <ele>310.64</ele>
        <time>2013-09-28T10:06:45Z</time>
      </trkpt>
      <trkpt lat="47.43498" lon="6.63088">
        <ele>309.68</ele>
        <time>2013-09-28T10:06:48Z</time>
      </trkpt>
      <trkpt lat="47.4352" lon="6.63075">
        <ele>310.64</ele>
        <time>2013-09-28T10:06:52Z</time>
      </trkpt>
      <trkpt lat="47.43542" lon="6.63062">
        <ele>309.68</ele>
        <time>2013-09-28T10:06:56Z</time>
      </trkpt>
      <trkpt lat="47.43564" lon="6.63049">
        <ele>311.12</ele>
        <time>2013-09-28T10:07:00Z</time>
      </trkpt>
      <trkpt lat="47.43585" lon="6.63034">
        <ele>310.64</ele>
        <time>2013-09-28T10:07:04Z</time>
      </trkpt>
      <trkpt lat="47.43607" lon="6.6302">
        <ele>310.16</ele>
        <time>2013-09-28T10:07:08Z</time>
      </trkpt>
      <trkpt lat="47.43629" lon="6.63006">
        <ele>310.64</ele>
        <time>2013-09-28T10:07:12Z</time>
      </trkpt>
      <trkpt lat="47.4365" lon="6.62992">
        <ele>311.12</ele>
        <time>2013-09-28T10:07:16Z</time>
      </trkpt>
      <trkpt lat="47.43672" lon="6.62979">
        <ele>311.12</ele>
        <time>2013-09-28T10:07:20Z</time>
      </trkpt>
      <trkpt lat="47.43693" lon="6.62966">
        <ele>310.64</ele>
        <time>2013-09-28T10:07:24Z</time>
      </trkpt>
      <trkpt lat="47.43715" lon="6.62951">
        <ele>310.64</ele>
        <time>2013-09-28T10:07:28Z</time>
      </trkpt>
      <trkpt lat="47.43737" lon="6.62937">
        <ele>311.12</ele>
        <time>2013-09-28T10:07:32Z</time>
      </trkpt>
      <trkpt lat="47.43758" lon="6.62923">
        <ele>311.6</ele>
        <time>2013-09-28T10:07:36Z</time>
      </trkpt>
      <trkpt lat="47.43781" lon="6.62909">
        <ele>310.64</ele>
        <time>2013-09-28T10:07:40Z</time>
      </trkpt>
      <trkpt lat="47.43798" lon="6.62899">
        <ele>311.12</ele>
        <time>2013-09-28T10:07:43Z</time>
      </trkpt>
      <trkpt lat="47.43815" lon="6.62887">
        <ele>312.57</ele>
        <time>2013-09-28T10:07:47Z</time>
      </trkpt>
      <trkpt lat="47.43832" lon="6.62869">
        <ele>311.6</ele>
        <time>2013-09-28T10:07:51Z</time>
      </trkpt>
      <trkpt lat="47.43853" lon="6.62854">
        <ele>311.12</ele>
        <time>2013-09-28T10:07:55Z</time>
      </trkpt>
      <trkpt lat="47.43874" lon="6.62842">
        <ele>311.12</ele>
        <time>2013-09-28T10:07:59Z</time>
      </trkpt>
      <trkpt lat="47.43897" lon="6.62829">
        <ele>311.12</ele>
        <time>2013-09-28T10:08:03Z</time>
      </trkpt>
      <trkpt lat="47.4392" lon="6.62818">
        <ele>310.64</ele>
        <time>2013-09-28T10:08:07Z</time>
      </trkpt>
      <trkpt lat="47.43938" lon="6.62813">
        <ele>310.64</ele>
        <time>2013-09-28T10:08:10Z</time>
      </trkpt>
      <trkpt lat="47.43961" lon="6.62817">
        <ele>311.12</ele>
        <time>2013-09-28T10:08:14Z</time>
      </trkpt>
      <trkpt lat="47.43985" lon="6.62825">
        <ele>311.12</ele>
        <time>2013-09-28T10:08:18Z</time>
      </trkpt>
      <trkpt lat="47.44009" lon="6.62834">
        <ele>310.64</ele>
        <time>2013-09-28T10:08:22Z</time>
      </trkpt>
      <trkpt lat="47.44027" lon="6.6284">
        <ele>311.12</ele>
        <time>2013-09-28T10:08:25Z</time>
      </trkpt>
      <trkpt lat="47.4405" lon="6.62848">
        <ele>310.64</ele>
        <time>2013-09-28T10:08:29Z</time>
      </trkpt>
      <trkpt lat="47.44071" lon="6.62858">
        <ele>311.12</ele>
        <time>2013-09-28T10:08:33Z</time>
      </trkpt>
      <trkpt lat="47.44091" lon="6.62874">
        <ele>311.12</ele>
        <time>2013-09-28T10:08:37Z</time>
      </trkpt>
      <trkpt lat="47.44114" lon="6.62882">
        <ele>310.64</ele>
        <time>2013-09-28T10:08:41Z</time>
      </trkpt>
      <trkpt lat="47.44136" lon="6.62889">
        <ele>311.12</ele>
        <time>2013-09-28T10:08:45Z</time>
      </trkpt>
      <trkpt lat="47.44159" lon="6.62896">
        <ele>311.12</ele>
        <time>2013-09-28T10:08:49Z</time>
      </trkpt>
      <trkpt lat="47.44184" lon="6.62896">
        <ele>310.64</ele>
        <time>2013-09-28T10:08:53Z</time>
      </trkpt>
      <trkpt lat="47.44203" lon="6.62898">
        <ele>311.12</ele>
        <time>2013-09-28T10:08:56Z</time>
      </trkpt>
      <trkpt lat="47.44226" lon="6.62903">
        <ele>310.64</ele>
        <time>2013-09-28T10:09:00Z</time>
      </trkpt>
      <trkpt lat="47.44244" lon="6.62909">
        <ele>310.64</ele>
        <time>2013-09-28T10:09:03Z</time>
      </trkpt>
      <trkpt lat="47.44267" lon="6.62915">
        <ele>310.64</ele>
        <time>2013-09-28T10:09:07Z</time>
      </trkpt>
      <trkpt lat="47.4429" lon="6.62923">
        <ele>310.64</ele>
        <time>2013-09-28T10:09:11Z</time>
      </trkpt>
      <trkpt lat="47.44312" lon="6.62933">
        <ele>310.64</ele>
        <time>2013-09-28T10:09:15Z</time>
      </trkpt>
      <trkpt lat="47.44334" lon="6.62944">
        <ele>310.64</ele>
        <time>2013-09-28T10:09:19Z</time>
      </trkpt>
      <trkpt lat="47.44357" lon="6.62955">
        <ele>310.64</ele>
        <time>2013-09-28T10:09:23Z</time>
      </trkpt>
      <trkpt lat="47.4438" lon="6.62965">
        <ele>310.64</ele>
        <time>2013-09-28T10:09:27Z</time>
      </trkpt>
      <trkpt lat="47.44404" lon="6.62976">
        <ele>310.64</ele>
        <time>2013-09-28T10:09:31Z</time>
      </trkpt>
      <trkpt lat="47.44427" lon="6.62987">
        <ele>310.64</ele>
        <time>2013-09-28T10:09:35Z</time>
      </trkpt>
      <trkpt lat="47.4445" lon="6.62999">
        <ele>310.64</ele>
        <time>2013-09-28T10:09:39Z</time>
      </trkpt>
      <trkpt lat="47.44471" lon="6.63011">
        <ele>310.64</ele>
        <time>2013-09-28T10:09:43Z</time>
      </trkpt>
      <trkpt lat="47.44496" lon="6.63025">
        <ele>311.12</ele>
        <time>2013-09-28T10:09:47Z</time>
      </trkpt>
      <trkpt lat="47.44521" lon="6.63037">
        <ele>310.64</ele>
        <time>2013-09-28T10:09:51Z</time>
      </trkpt>
      <trkpt lat="47.44545" lon="6.6305">
        <ele>310.64</ele>
        <time>2013-09-28T10:09:55Z</time>
      </trkpt>
      <trkpt lat="47.44569" lon="6.63057">
        <ele>311.12</ele>
        <time>2013-09-28T10:09:59Z</time>
      </trkpt>
      <trkpt lat="47.4459" lon="6.63065">
        <ele>310.64</ele>
        <time>2013-09-28T10:10:03Z</time>
      </trkpt>
      <trkpt lat="47.44609" lon="6.63085">
        <ele>310.64</ele>
        <time>2013-09-28T10:10:07Z</time>
      </trkpt>
      <trkpt lat="47.44627" lon="6.63111">
        <ele>311.12</ele>
        <time>2013-09-28T10:10:11Z</time>
      </trkpt>
      <trkpt lat="47.44641" lon="6.63141">
        <ele>310.64</ele>
        <time>2013-09-28T10:10:15Z</time>
      </trkpt>
      <trkpt lat="47.44648" lon="6.63174">
        <ele>310.64</ele>
        <time>2013-09-28T10:10:19Z</time>
      </trkpt>
      <trkpt lat="47.44651" lon="6.63209">
        <ele>311.12</ele>
        <time>2013-09-28T10:10:23Z</time>
      </trkpt>
      <trkpt lat="47.44653" lon="6.63235">
        <ele>310.64</ele>
        <time>2013-09-28T10:10:26Z</time>
      </trkpt>
      <trkpt lat="47.44655" lon="6.6327">
        <ele>311.12</ele>
        <time>2013-09-28T10:10:30Z</time>
      </trkpt>
      <trkpt lat="47.44656" lon="6.63305">
        <ele>311.12</ele>
        <time>2013-09-28T10:10:34Z</time>
      </trkpt>
      <trkpt lat="47.44659" lon="6.63339">
        <ele>310.64</ele>
        <time>2013-09-28T10:10:38Z</time>
      </trkpt>
      <trkpt lat="47.44661" lon="6.63366">
        <ele>310.64</ele>
        <time>2013-09-28T10:10:41Z</time>
      </trkpt>
      <trkpt lat="47.44664" lon="6.63393">
        <ele>310.16</ele>
        <time>2013-09-28T10:10:44Z</time>
      </trkpt>
      <trkpt lat="47.44666" lon="6.6342">
        <ele>310.64</ele>
        <time>2013-09-28T10:10:47Z</time>
      </trkpt>
      <trkpt lat="47.44667" lon="6.63447">
        <ele>310.64</ele>
        <time>2013-09-28T10:10:50Z</time>
      </trkpt>
      <trkpt lat="47.44669" lon="6.63473">
        <ele>310.64</ele>
        <time>2013-09-28T10:10:53Z</time>
      </trkpt>
      <trkpt lat="47.44672" lon="6.63501">
        <ele>310.64</ele>
        <time>2013-09-28T10:10:56Z</time>
      </trkpt>
      <trkpt lat="47.44674" lon="6.63527">
        <ele>310.64</ele>
        <time>2013-09-28T10:10:59Z</time>
      </trkpt>
      <trkpt lat="47.44676" lon="6.63554">
        <ele>310.16</ele>
        <time>2013-09-28T10:11:02Z</time>
      </trkpt>
      <trkpt lat="47.44678" lon="6.63581">
        <ele>310.16</ele>
        <time>2013-09-28T10:11:05Z</time>
      </trkpt>
      <trkpt lat="47.4468" lon="6.63609">
        <ele>310.64</ele>
        <time>2013-09-28T10:11:08Z</time>
      </trkpt>
      <trkpt lat="47.44683" lon="6.63635">
        <ele>310.64</ele>
        <time>2013-09-28T10:11:11Z</time>
      </trkpt>
      <trkpt lat="47.44684" lon="6.63662">
        <ele>310.16</ele>
        <time>2013-09-28T10:11:14Z</time>
      </trkpt>
      <trkpt lat="47.44686" lon="6.63689">
        <ele>310.16</ele>
        <time>2013-09-28T10:11:17Z</time>
      </trkpt>
      <trkpt lat="47.44688" lon="6.63716">
        <ele>310.16</ele>
        <time>2013-09-28T10:11:20Z</time>
      </trkpt>
      <trkpt lat="47.4469" lon="6.63743">
        <ele>310.16</ele>
        <time>2013-09-28T10:11:23Z</time>
      </trkpt>
      <trkpt lat="47.44693" lon="6.63772">
        <ele>310.16</ele>
        <time>2013-09-28T10:11:26Z</time>
      </trkpt>
      <trkpt lat="47.44695" lon="6.638">
        <ele>310.16</ele>
        <time>2013-09-28T10:11:29Z</time>
      </trkpt>
      <trkpt lat="47.44698" lon="6.63828">
        <ele>310.64</ele>
        <time>2013-09-28T10:11:32Z</time>
      </trkpt>
      <trkpt lat="47.447" lon="6.63857">
        <ele>310.16</ele>
        <time>2013-09-28T10:11:35Z</time>
      </trkpt>
      <trkpt lat="47.44702" lon="6.63884">
        <ele>310.16</ele>
        <time>2013-09-28T10:11:38Z</time>
      </trkpt>
      <trkpt lat="47.44704" lon="6.63912">
        <ele>310.64</ele>
        <time>2013-09-28T10:11:41Z</time>
      </trkpt>
      <trkpt lat="47.44706" lon="6.63939">
        <ele>310.16</ele>
        <time>2013-09-28T10:11:44Z</time>
      </trkpt>
      <trkpt lat="47.44708" lon="6.63967">
        <ele>310.16</ele>
        <time>2013-09-28T10:11:47Z</time>
      </trkpt>
      <trkpt lat="47.4471" lon="6.63993">
        <ele>308.24</ele>
        <time>2013-09-28T10:11:50Z</time>
      </trkpt>
      <trkpt lat="47.44712" lon="6.64019">
        <ele>310.16</ele>
        <time>2013-09-28T10:11:53Z</time>
      </trkpt>
      <trkpt lat="47.44715" lon="6.64046">
        <ele>309.68</ele>
        <time>2013-09-28T10:11:56Z</time>
      </trkpt>
      <trkpt lat="47.44717" lon="6.64072">
        <ele>309.68</ele>
        <time>2013-09-28T10:11:59Z</time>
      </trkpt>
      <trkpt lat="47.44719" lon="6.64108">
        <ele>310.16</ele>
        <time>2013-09-28T10:12:03Z</time>
      </trkpt>
      <trkpt lat="47.44722" lon="6.64143">
        <ele>310.16</ele>
        <time>2013-09-28T10:12:07Z</time>
      </trkpt>
      <trkpt lat="47.44724" lon="6.64169">
        <ele>310.64</ele>
        <time>2013-09-28T10:12:10Z</time>
      </trkpt>
      <trkpt lat="47.44726" lon="6.64196">
        <ele>309.68</ele>
        <time>2013-09-28T10:12:13Z</time>
      </trkpt>
      <trkpt lat="47.44729" lon="6.64231">
        <ele>309.68</ele>
        <time>2013-09-28T10:12:17Z</time>
      </trkpt>
      <trkpt lat="47.44732" lon="6.64266">
        <ele>309.68</ele>
        <time>2013-09-28T10:12:21Z</time>
      </trkpt>
      <trkpt lat="47.44733" lon="6.64301">
        <ele>310.16</ele>
        <time>2013-09-28T10:12:25Z</time>
      </trkpt>
      <trkpt lat="47.44737" lon="6.64336">
        <ele>309.68</ele>
        <time>2013-09-28T10:12:29Z</time>
      </trkpt>
      <trkpt lat="47.44738" lon="6.64362">
        <ele>310.16</ele>
        <time>2013-09-28T10:12:32Z</time>
      </trkpt>
      <trkpt lat="47.44741" lon="6.64397">
        <ele>310.16</ele>
        <time>2013-09-28T10:12:36Z</time>
      </trkpt>
      <trkpt lat="47.44744" lon="6.64432">
        <ele>310.16</ele>
        <time>2013-09-28T10:12:40Z</time>
      </trkpt>
      <trkpt lat="47.44746" lon="6.64467">
        <ele>310.16</ele>
        <time>2013-09-28T10:12:44Z</time>
      </trkpt>
      <trkpt lat="47.44749" lon="6.645">
        <ele>310.16</ele>
        <time>2013-09-28T10:12:48Z</time>
      </trkpt>
      <trkpt lat="47.44752" lon="6.64535">
        <ele>310.16</ele>
        <time>2013-09-28T10:12:52Z</time>
      </trkpt>
      <trkpt lat="47.44754" lon="6.64569">
        <ele>303.91</ele>
        <time>2013-09-28T10:12:56Z</time>
      </trkpt>
      <trkpt lat="47.44758" lon="6.64603">
        <ele>310.16</ele>
        <time>2013-09-28T10:13:00Z</time>
      </trkpt>
      <trkpt lat="47.4476" lon="6.64636">
        <ele>310.16</ele>
        <time>2013-09-28T10:13:04Z</time>
      </trkpt>
      <trkpt lat="47.44762" lon="6.64671">
        <ele>310.64</ele>
        <time>2013-09-28T10:13:08Z</time>
      </trkpt>
      <trkpt lat="47.44766" lon="6.64705">
        <ele>310.16</ele>
        <time>2013-09-28T10:13:12Z</time>
      </trkpt>
      <trkpt lat="47.44769" lon="6.64738">
        <ele>310.16</ele>
        <time>2013-09-28T10:13:16Z</time>
      </trkpt>
      <trkpt lat="47.44772" lon="6.64772">
        <ele>310.16</ele>
        <time>2013-09-28T10:13:20Z</time>
      </trkpt>
      <trkpt lat="47.44775" lon="6.64806">
        <ele>310.16</ele>
        <time>2013-09-28T10:13:24Z</time>
      </trkpt>
      <trkpt lat="47.44777" lon="6.6484">
        <ele>310.16</ele>
        <time>2013-09-28T10:13:28Z</time>
      </trkpt>
      <trkpt lat="47.44779" lon="6.64867">
        <ele>310.16</ele>
        <time>2013-09-28T10:13:31Z</time>
      </trkpt>
      <trkpt lat="47.44782" lon="6.64901">
        <ele>310.16</ele>
        <time>2013-09-28T10:13:35Z</time>
      </trkpt>
      <trkpt lat="47.44786" lon="6.64932">
        <ele>310.64</ele>
        <time>2013-09-28T10:13:39Z</time>
      </trkpt>
      <trkpt lat="47.44791" lon="6.64961">
        <ele>310.16</ele>
        <time>2013-09-28T10:13:43Z</time>
      </trkpt>
      <trkpt lat="47.44795" lon="6.64988">
        <ele>311.6</ele>
        <time>2013-09-28T10:13:47Z</time>
      </trkpt>
      <trkpt lat="47.44796" lon="6.65016">
        <ele>312.09</ele>
        <time>2013-09-28T10:13:54Z</time>
      </trkpt>
      <trkpt lat="47.44793" lon="6.65016">
        <ele>312.09</ele>
        <time>2013-09-28T10:15:44Z</time>
      </trkpt>
      <trkpt lat="47.44793" lon="6.65037">
        <ele>311.6</ele>
        <time>2013-09-28T10:16:08Z</time>
      </trkpt>
      <trkpt lat="47.44795" lon="6.65064">
        <ele>312.09</ele>
        <time>2013-09-28T10:16:46Z</time>
      </trkpt>
      <trkpt lat="47.44796" lon="6.6509">
        <ele>312.09</ele>
        <time>2013-09-28T10:16:55Z</time>
      </trkpt>
      <trkpt lat="47.44798" lon="6.65119">
        <ele>312.09</ele>
        <time>2013-09-28T10:17:01Z</time>
      </trkpt>
      <trkpt lat="47.44799" lon="6.65157">
        <ele>312.57</ele>
        <time>2013-09-28T10:17:06Z</time>
      </trkpt>
      <trkpt lat="47.44802" lon="6.65189">
        <ele>313.05</ele>
        <time>2013-09-28T10:17:09Z</time>
      </trkpt>
      <trkpt lat="47.44806" lon="6.65224">
        <ele>313.05</ele>
        <time>2013-09-28T10:17:12Z</time>
      </trkpt>
      <trkpt lat="47.44809" lon="6.6526">
        <ele>313.53</ele>
        <time>2013-09-28T10:17:15Z</time>
      </trkpt>
      <trkpt lat="47.44812" lon="6.65296">
        <ele>313.05</ele>
        <time>2013-09-28T10:17:18Z</time>
      </trkpt>
      <trkpt lat="47.44815" lon="6.65322">
        <ele>312.09</ele>
        <time>2013-09-28T10:17:22Z</time>
      </trkpt>
      <trkpt lat="47.44816" lon="6.6535">
        <ele>312.09</ele>
        <time>2013-09-28T10:17:40Z</time>
      </trkpt>
      <trkpt lat="47.44818" lon="6.65382">
        <ele>312.09</ele>
        <time>2013-09-28T10:17:45Z</time>
      </trkpt>
      <trkpt lat="47.4482" lon="6.65412">
        <ele>312.57</ele>
        <time>2013-09-28T10:17:49Z</time>
      </trkpt>
      <trkpt lat="47.44823" lon="6.65445">
        <ele>312.09</ele>
        <time>2013-09-28T10:17:53Z</time>
      </trkpt>
      <trkpt lat="47.44826" lon="6.65479">
        <ele>312.57</ele>
        <time>2013-09-28T10:17:57Z</time>
      </trkpt>
      <trkpt lat="47.44828" lon="6.65512">
        <ele>312.09</ele>
        <time>2013-09-28T10:18:01Z</time>
      </trkpt>
      <trkpt lat="47.44831" lon="6.65547">
        <ele>312.09</ele>
        <time>2013-09-28T10:18:05Z</time>
      </trkpt>
      <trkpt lat="47.44833" lon="6.65582">
        <ele>311.6</ele>
        <time>2013-09-28T10:18:09Z</time>
      </trkpt>
      <trkpt lat="47.44835" lon="6.65609">
        <ele>312.57</ele>
        <time>2013-09-28T10:18:12Z</time>
      </trkpt>
      <trkpt lat="47.44838" lon="6.65636">
        <ele>312.09</ele>
        <time>2013-09-28T10:18:15Z</time>
      </trkpt>
      <trkpt lat="47.4484" lon="6.6567">
        <ele>312.09</ele>
        <time>2013-09-28T10:18:19Z</time>
      </trkpt>
      <trkpt lat="47.44843" lon="6.65702">
        <ele>312.09</ele>
        <time>2013-09-28T10:18:23Z</time>
      </trkpt>
      <trkpt lat="47.44845" lon="6.65731">
        <ele>311.6</ele>
        <time>2013-09-28T10:18:27Z</time>
      </trkpt>
      <trkpt lat="47.44847" lon="6.6576">
        <ele>312.09</ele>
        <time>2013-09-28T10:18:31Z</time>
      </trkpt>
      <trkpt lat="47.4485" lon="6.65789">
        <ele>312.09</ele>
        <time>2013-09-28T10:18:35Z</time>
      </trkpt>
      <trkpt lat="47.44852" lon="6.65819">
        <ele>312.09</ele>
        <time>2013-09-28T10:18:39Z</time>
      </trkpt>
      <trkpt lat="47.44854" lon="6.65848">
        <ele>311.6</ele>
        <time>2013-09-28T10:18:43Z</time>
      </trkpt>
      <trkpt lat="47.44857" lon="6.65877">
        <ele>312.09</ele>
        <time>2013-09-28T10:18:47Z</time>
      </trkpt>
      <trkpt lat="47.44859" lon="6.65908">
        <ele>312.09</ele>
        <time>2013-09-28T10:18:51Z</time>
      </trkpt>
      <trkpt lat="47.44861" lon="6.65939">
        <ele>311.6</ele>
        <time>2013-09-28T10:18:55Z</time>
      </trkpt>
      <trkpt lat="47.44863" lon="6.65971">
        <ele>312.09</ele>
        <time>2013-09-28T10:18:59Z</time>
      </trkpt>
      <trkpt lat="47.44866" lon="6.66002">
        <ele>311.12</ele>
        <time>2013-09-28T10:19:03Z</time>
      </trkpt>
      <trkpt lat="47.44868" lon="6.66032">
        <ele>311.6</ele>
        <time>2013-09-28T10:19:07Z</time>
      </trkpt>
      <trkpt lat="47.4487" lon="6.66063">
        <ele>311.6</ele>
        <time>2013-09-28T10:19:11Z</time>
      </trkpt>
      <trkpt lat="47.44873" lon="6.66094">
        <ele>312.09</ele>
        <time>2013-09-28T10:19:15Z</time>
      </trkpt>
      <trkpt lat="47.44875" lon="6.66125">
        <ele>311.6</ele>
        <time>2013-09-28T10:19:19Z</time>
      </trkpt>
      <trkpt lat="47.44877" lon="6.66157">
        <ele>311.6</ele>
        <time>2013-09-28T10:19:23Z</time>
      </trkpt>
      <trkpt lat="47.44879" lon="6.66189">
        <ele>311.6</ele>
        <time>2013-09-28T10:19:27Z</time>
      </trkpt>
      <trkpt lat="47.44882" lon="6.6622">
        <ele>311.6</ele>
        <time>2013-09-28T10:19:31Z</time>
      </trkpt>
      <trkpt lat="47.44884" lon="6.66252">
        <ele>311.6</ele>
        <time>2013-09-28T10:19:35Z</time>
      </trkpt>
      <trkpt lat="47.44887" lon="6.66281">
        <ele>311.6</ele>
        <time>2013-09-28T10:19:39Z</time>
      </trkpt>
      <trkpt lat="47.44889" lon="6.66309">
        <ele>311.6</ele>
        <time>2013-09-28T10:19:43Z</time>
      </trkpt>
      <trkpt lat="47.44891" lon="6.66342">
        <ele>311.12</ele>
        <time>2013-09-28T10:19:48Z</time>
      </trkpt>
      <trkpt lat="47.44894" lon="6.66374">
        <ele>311.12</ele>
        <time>2013-09-28T10:19:53Z</time>
      </trkpt>
      <trkpt lat="47.44896" lon="6.66405">
        <ele>311.6</ele>
        <time>2013-09-28T10:19:58Z</time>
      </trkpt>
      <trkpt lat="47.44898" lon="6.66434">
        <ele>311.6</ele>
        <time>2013-09-28T10:20:02Z</time>
      </trkpt>
      <trkpt lat="47.44901" lon="6.66465">
        <ele>312.09</ele>
        <time>2013-09-28T10:20:06Z</time>
      </trkpt>
      <trkpt lat="47.44903" lon="6.66498">
        <ele>311.6</ele>
        <time>2013-09-28T10:20:10Z</time>
      </trkpt>
      <trkpt lat="47.44906" lon="6.66533">
        <ele>311.12</ele>
        <time>2013-09-28T10:20:14Z</time>
      </trkpt>
      <trkpt lat="47.44909" lon="6.66568">
        <ele>311.12</ele>
        <time>2013-09-28T10:20:18Z</time>
      </trkpt>
      <trkpt lat="47.44911" lon="6.66602">
        <ele>311.12</ele>
        <time>2013-09-28T10:20:22Z</time>
      </trkpt>
      <trkpt lat="47.44913" lon="6.66637">
        <ele>311.12</ele>
        <time>2013-09-28T10:20:26Z</time>
      </trkpt>
      <trkpt lat="47.44915" lon="6.66663">
        <ele>311.12</ele>
        <time>2013-09-28T10:20:29Z</time>
      </trkpt>
      <trkpt lat="47.44918" lon="6.66698">
        <ele>311.12</ele>
        <time>2013-09-28T10:20:33Z</time>
      </trkpt>
      <trkpt lat="47.44922" lon="6.66732">
        <ele>311.12</ele>
        <time>2013-09-28T10:20:37Z</time>
      </trkpt>
      <trkpt lat="47.44923" lon="6.66759">
        <ele>311.12</ele>
        <time>2013-09-28T10:20:40Z</time>
      </trkpt>
      <trkpt lat="47.44925" lon="6.66785">
        <ele>311.12</ele>
        <time>2013-09-28T10:20:43Z</time>
      </trkpt>
      <trkpt lat="47.44927" lon="6.66812">
        <ele>311.12</ele>
        <time>2013-09-28T10:20:46Z</time>
      </trkpt>
      <trkpt lat="47.4493" lon="6.66839">
        <ele>311.6</ele>
        <time>2013-09-28T10:20:49Z</time>
      </trkpt>
      <trkpt lat="47.44932" lon="6.66866">
        <ele>311.12</ele>
        <time>2013-09-28T10:20:52Z</time>
      </trkpt>
      <trkpt lat="47.44934" lon="6.66893">
        <ele>311.6</ele>
        <time>2013-09-28T10:20:55Z</time>
      </trkpt>
      <trkpt lat="47.44936" lon="6.6692">
        <ele>311.12</ele>
        <time>2013-09-28T10:20:58Z</time>
      </trkpt>
      <trkpt lat="47.44938" lon="6.66947">
        <ele>310.64</ele>
        <time>2013-09-28T10:21:01Z</time>
      </trkpt>
      <trkpt lat="47.44941" lon="6.66974">
        <ele>311.12</ele>
        <time>2013-09-28T10:21:04Z</time>
      </trkpt>
      <trkpt lat="47.44943" lon="6.67001">
        <ele>311.12</ele>
        <time>2013-09-28T10:21:07Z</time>
      </trkpt>
      <trkpt lat="47.44944" lon="6.67027">
        <ele>311.6</ele>
        <time>2013-09-28T10:21:10Z</time>
      </trkpt>
      <trkpt lat="47.44946" lon="6.67054">
        <ele>311.6</ele>
        <time>2013-09-28T10:21:13Z</time>
      </trkpt>
      <trkpt lat="47.44948" lon="6.67081">
        <ele>312.09</ele>
        <time>2013-09-28T10:21:16Z</time>
      </trkpt>
      <trkpt lat="47.44951" lon="6.67108">
        <ele>311.6</ele>
        <time>2013-09-28T10:21:19Z</time>
      </trkpt>
      <trkpt lat="47.44954" lon="6.67143">
        <ele>311.12</ele>
        <time>2013-09-28T10:21:23Z</time>
      </trkpt>
      <trkpt lat="47.44956" lon="6.6717">
        <ele>311.12</ele>
        <time>2013-09-28T10:21:26Z</time>
      </trkpt>
      <trkpt lat="47.44958" lon="6.67197">
        <ele>311.12</ele>
        <time>2013-09-28T10:21:29Z</time>
      </trkpt>
      <trkpt lat="47.4496" lon="6.67224">
        <ele>311.12</ele>
        <time>2013-09-28T10:21:32Z</time>
      </trkpt>
      <trkpt lat="47.44963" lon="6.6726">
        <ele>311.6</ele>
        <time>2013-09-28T10:21:36Z</time>
      </trkpt>
      <trkpt lat="47.44965" lon="6.67286">
        <ele>311.12</ele>
        <time>2013-09-28T10:21:39Z</time>
      </trkpt>
      <trkpt lat="47.44967" lon="6.67313">
        <ele>310.64</ele>
        <time>2013-09-28T10:21:42Z</time>
      </trkpt>
      <trkpt lat="47.44968" lon="6.6734">
        <ele>311.12</ele>
        <time>2013-09-28T10:21:45Z</time>
      </trkpt>
      <trkpt lat="47.4497" lon="6.67367">
        <ele>311.12</ele>
        <time>2013-09-28T10:21:48Z</time>
      </trkpt>
      <trkpt lat="47.44973" lon="6.67394">
        <ele>311.12</ele>
        <time>2013-09-28T10:21:51Z</time>
      </trkpt>
      <trkpt lat="47.44975" lon="6.67421">
        <ele>311.12</ele>
        <time>2013-09-28T10:21:54Z</time>
      </trkpt>
      <trkpt lat="47.44978" lon="6.67448">
        <ele>310.64</ele>
        <time>2013-09-28T10:21:57Z</time>
      </trkpt>
      <trkpt lat="47.44981" lon="6.67475">
        <ele>311.12</ele>
        <time>2013-09-28T10:22:00Z</time>
      </trkpt>
      <trkpt lat="47.44984" lon="6.67509">
        <ele>312.09</ele>
        <time>2013-09-28T10:22:04Z</time>
      </trkpt>
      <trkpt lat="47.44988" lon="6.67539">
        <ele>313.05</ele>
        <time>2013-09-28T10:22:08Z</time>
      </trkpt>
      <trkpt lat="47.44991" lon="6.67569">
        <ele>313.05</ele>
        <time>2013-09-28T10:22:12Z</time>
      </trkpt>
      <trkpt lat="47.44992" lon="6.67602">
        <ele>313.53</ele>
        <time>2013-09-28T10:22:16Z</time>
      </trkpt>
      <trkpt lat="47.44993" lon="6.67636">
        <ele>313.05</ele>
        <time>2013-09-28T10:22:20Z</time>
      </trkpt>
      <trkpt lat="47.44996" lon="6.67672">
        <ele>313.53</ele>
        <time>2013-09-28T10:22:24Z</time>
      </trkpt>
      <trkpt lat="47.44998" lon="6.67699">
        <ele>313.05</ele>
        <time>2013-09-28T10:22:27Z</time>
      </trkpt>
      <trkpt lat="47.45" lon="6.67726">
        <ele>312.57</ele>
        <time>2013-09-28T10:22:30Z</time>
      </trkpt>
      <trkpt lat="47.45002" lon="6.67754">
        <ele>313.05</ele>
        <time>2013-09-28T10:22:33Z</time>
      </trkpt>
      <trkpt lat="47.45004" lon="6.67781">
        <ele>313.53</ele>
        <time>2013-09-28T10:22:36Z</time>
      </trkpt>
      <trkpt lat="47.45007" lon="6.67816">
        <ele>312.57</ele>
        <time>2013-09-28T10:22:40Z</time>
      </trkpt>
      <trkpt lat="47.45009" lon="6.67843">
        <ele>312.57</ele>
        <time>2013-09-28T10:22:43Z</time>
      </trkpt>
      <trkpt lat="47.45012" lon="6.6787">
        <ele>313.53</ele>
        <time>2013-09-28T10:22:46Z</time>
      </trkpt>
      <trkpt lat="47.45015" lon="6.67897">
        <ele>313.05</ele>
        <time>2013-09-28T10:22:49Z</time>
      </trkpt>
      <trkpt lat="47.45019" lon="6.67924">
        <ele>313.53</ele>
        <time>2013-09-28T10:22:52Z</time>
      </trkpt>
      <trkpt lat="47.45023" lon="6.67951">
        <ele>313.53</ele>
        <time>2013-09-28T10:22:55Z</time>
      </trkpt>
      <trkpt lat="47.45028" lon="6.67978">
        <ele>313.53</ele>
        <time>2013-09-28T10:22:58Z</time>
      </trkpt>
      <trkpt lat="47.45033" lon="6.68004">
        <ele>313.53</ele>
        <time>2013-09-28T10:23:01Z</time>
      </trkpt>
      <trkpt lat="47.45038" lon="6.68031">
        <ele>313.05</ele>
        <time>2013-09-28T10:23:04Z</time>
      </trkpt>
      <trkpt lat="47.45043" lon="6.68057">
        <ele>313.53</ele>
        <time>2013-09-28T10:23:07Z</time>
      </trkpt>
      <trkpt lat="47.45049" lon="6.68083">
        <ele>313.05</ele>
        <time>2013-09-28T10:23:10Z</time>
      </trkpt>
      <trkpt lat="47.45056" lon="6.68108">
        <ele>313.05</ele>
        <time>2013-09-28T10:23:13Z</time>
      </trkpt>
      <trkpt lat="47.45063" lon="6.68135">
        <ele>313.05</ele>
        <time>2013-09-28T10:23:16Z</time>
      </trkpt>
      <trkpt lat="47.45071" lon="6.6816">
        <ele>313.53</ele>
        <time>2013-09-28T10:23:19Z</time>
      </trkpt>
      <trkpt lat="47.45079" lon="6.68185">
        <ele>312.09</ele>
        <time>2013-09-28T10:23:22Z</time>
      </trkpt>
      <trkpt lat="47.45087" lon="6.6821">
        <ele>313.05</ele>
        <time>2013-09-28T10:23:25Z</time>
      </trkpt>
      <trkpt lat="47.45095" lon="6.68235">
        <ele>313.05</ele>
        <time>2013-09-28T10:23:28Z</time>
      </trkpt>
      <trkpt lat="47.45104" lon="6.68259">
        <ele>313.53</ele>
        <time>2013-09-28T10:23:31Z</time>
      </trkpt>
      <trkpt lat="47.45113" lon="6.68282">
        <ele>313.53</ele>
        <time>2013-09-28T10:23:34Z</time>
      </trkpt>
      <trkpt lat="47.45122" lon="6.68305">
        <ele>312.57</ele>
        <time>2013-09-28T10:23:37Z</time>
      </trkpt>
      <trkpt lat="47.45132" lon="6.68328">
        <ele>312.57</ele>
        <time>2013-09-28T10:23:40Z</time>
      </trkpt>
      <trkpt lat="47.45142" lon="6.68351">
        <ele>313.05</ele>
        <time>2013-09-28T10:23:43Z</time>
      </trkpt>
      <trkpt lat="47.45153" lon="6.68374">
        <ele>313.53</ele>
        <time>2013-09-28T10:23:46Z</time>
      </trkpt>
      <trkpt lat="47.45164" lon="6.68397">
        <ele>312.57</ele>
        <time>2013-09-28T10:23:49Z</time>
      </trkpt>
      <trkpt lat="47.45176" lon="6.6842">
        <ele>313.05</ele>
        <time>2013-09-28T10:23:52Z</time>
      </trkpt>
      <trkpt lat="47.45187" lon="6.68443">
        <ele>313.53</ele>
        <time>2013-09-28T10:23:55Z</time>
      </trkpt>
      <trkpt lat="47.45199" lon="6.68465">
        <ele>313.05</ele>
        <time>2013-09-28T10:23:58Z</time>
      </trkpt>
      <trkpt lat="47.45211" lon="6.68486">
        <ele>312.57</ele>
        <time>2013-09-28T10:24:01Z</time>
      </trkpt>
      <trkpt lat="47.45224" lon="6.68507">
        <ele>313.05</ele>
        <time>2013-09-28T10:24:04Z</time>
      </trkpt>
      <trkpt lat="47.45237" lon="6.68528">
        <ele>313.05</ele>
        <time>2013-09-28T10:24:07Z</time>
      </trkpt>
      <trkpt lat="47.45251" lon="6.68548">
        <ele>313.05</ele>
        <time>2013-09-28T10:24:10Z</time>
      </trkpt>
      <trkpt lat="47.45264" lon="6.68568">
        <ele>312.57</ele>
        <time>2013-09-28T10:24:13Z</time>
      </trkpt>
      <trkpt lat="47.45279" lon="6.68587">
        <ele>313.05</ele>
        <time>2013-09-28T10:24:16Z</time>
      </trkpt>
      <trkpt lat="47.45293" lon="6.68606">
        <ele>312.57</ele>
        <time>2013-09-28T10:24:19Z</time>
      </trkpt>
      <trkpt lat="47.45307" lon="6.68624">
        <ele>313.05</ele>
        <time>2013-09-28T10:24:22Z</time>
      </trkpt>
      <trkpt lat="47.45322" lon="6.68642">
        <ele>312.57</ele>
        <time>2013-09-28T10:24:25Z</time>
      </trkpt>
      <trkpt lat="47.45337" lon="6.68659">
        <ele>313.05</ele>
        <time>2013-09-28T10:24:28Z</time>
      </trkpt>
      <trkpt lat="47.45352" lon="6.68675">
        <ele>313.05</ele>
        <time>2013-09-28T10:24:31Z</time>
      </trkpt>
      <trkpt lat="47.45367" lon="6.68691">
        <ele>313.05</ele>
        <time>2013-09-28T10:24:34Z</time>
      </trkpt>
      <trkpt lat="47.45382" lon="6.68707">
        <ele>313.05</ele>
        <time>2013-09-28T10:24:37Z</time>
      </trkpt>
      <trkpt lat="47.45396" lon="6.68723">
        <ele>313.05</ele>
        <time>2013-09-28T10:24:40Z</time>
      </trkpt>
      <trkpt lat="47.45416" lon="6.68745">
        <ele>313.05</ele>
        <time>2013-09-28T10:24:44Z</time>
      </trkpt>
      <trkpt lat="47.45435" lon="6.68765">
        <ele>312.57</ele>
        <time>2013-09-28T10:24:48Z</time>
      </trkpt>
      <trkpt lat="47.45455" lon="6.68786">
        <ele>313.05</ele>
        <time>2013-09-28T10:24:52Z</time>
      </trkpt>
      <trkpt lat="47.45469" lon="6.68803">
        <ele>312.57</ele>
        <time>2013-09-28T10:24:55Z</time>
      </trkpt>
      <trkpt lat="47.45488" lon="6.68823">
        <ele>313.05</ele>
        <time>2013-09-28T10:24:59Z</time>
      </trkpt>
      <trkpt lat="47.45505" lon="6.68841">
        <ele>313.05</ele>
        <time>2013-09-28T10:25:03Z</time>
      </trkpt>
      <trkpt lat="47.45519" lon="6.68857">
        <ele>312.57</ele>
        <time>2013-09-28T10:25:08Z</time>
      </trkpt>
      <trkpt lat="47.45508" lon="6.68878">
        <ele>312.09</ele>
        <time>2013-09-28T10:25:23Z</time>
      </trkpt>
      <trkpt lat="47.45505" lon="6.68905">
        <ele>312.09</ele>
        <time>2013-09-28T10:25:28Z</time>
      </trkpt>
      <trkpt lat="47.45521" lon="6.68928">
        <ele>312.09</ele>
        <time>2013-09-28T10:25:33Z</time>
      </trkpt>
      <trkpt lat="47.45537" lon="6.68943">
        <ele>312.09</ele>
        <time>2013-09-28T10:25:37Z</time>
      </trkpt>
      <trkpt lat="47.45553" lon="6.68958">
        <ele>312.57</ele>
        <time>2013-09-28T10:25:41Z</time>
      </trkpt>
      <trkpt lat="47.4557" lon="6.68975">
        <ele>312.57</ele>
        <time>2013-09-28T10:25:45Z</time>
      </trkpt>
      <trkpt lat="47.45589" lon="6.68989">
        <ele>312.57</ele>
        <time>2013-09-28T10:25:49Z</time>
      </trkpt>
      <trkpt lat="47.45607" lon="6.69007">
        <ele>312.57</ele>
        <time>2013-09-28T10:25:53Z</time>
      </trkpt>
      <trkpt lat="47.45623" lon="6.69029">
        <ele>312.09</ele>
        <time>2013-09-28T10:25:57Z</time>
      </trkpt>
      <trkpt lat="47.45638" lon="6.69051">
        <ele>312.57</ele>
        <time>2013-09-28T10:26:01Z</time>
      </trkpt>
      <trkpt lat="47.45655" lon="6.69072">
        <ele>313.05</ele>
        <time>2013-09-28T10:26:05Z</time>
      </trkpt>
      <trkpt lat="47.45668" lon="6.69095">
        <ele>311.6</ele>
        <time>2013-09-28T10:26:09Z</time>
      </trkpt>
      <trkpt lat="47.45681" lon="6.69114">
        <ele>311.6</ele>
        <time>2013-09-28T10:26:13Z</time>
      </trkpt>
      <trkpt lat="47.45696" lon="6.69134">
        <ele>311.6</ele>
        <time>2013-09-28T10:26:17Z</time>
      </trkpt>
      <trkpt lat="47.45708" lon="6.69156">
        <ele>312.09</ele>
        <time>2013-09-28T10:26:21Z</time>
      </trkpt>
      <trkpt lat="47.4572" lon="6.69178">
        <ele>312.09</ele>
        <time>2013-09-28T10:26:25Z</time>
      </trkpt>
      <trkpt lat="47.45736" lon="6.69193">
        <ele>312.09</ele>
        <time>2013-09-28T10:26:29Z</time>
      </trkpt>
      <trkpt lat="47.45752" lon="6.69206">
        <ele>312.09</ele>
        <time>2013-09-28T10:26:33Z</time>
      </trkpt>
      <trkpt lat="47.45767" lon="6.69222">
        <ele>311.6</ele>
        <time>2013-09-28T10:26:37Z</time>
      </trkpt>
      <trkpt lat="47.45783" lon="6.69239">
        <ele>312.09</ele>
        <time>2013-09-28T10:26:41Z</time>
      </trkpt>
      <trkpt lat="47.45796" lon="6.69257">
        <ele>312.09</ele>
        <time>2013-09-28T10:26:45Z</time>
      </trkpt>
      <trkpt lat="47.45811" lon="6.69281">
        <ele>312.57</ele>
        <time>2013-09-28T10:26:50Z</time>
      </trkpt>
      <trkpt lat="47.45826" lon="6.69302">
        <ele>312.09</ele>
        <time>2013-09-28T10:26:56Z</time>
      </trkpt>
      <trkpt lat="47.45837" lon="6.69323">
        <ele>312.09</ele>
        <time>2013-09-28T10:27:02Z</time>
      </trkpt>
      <trkpt lat="47.45847" lon="6.69351">
        <ele>312.57</ele>
        <time>2013-09-28T10:27:08Z</time>
      </trkpt>
      <trkpt lat="47.45856" lon="6.69378">
        <ele>312.57</ele>
        <time>2013-09-28T10:27:14Z</time>
      </trkpt>
      <trkpt lat="47.45863" lon="6.69404">
        <ele>313.05</ele>
        <time>2013-09-28T10:27:22Z</time>
      </trkpt>
      <trkpt lat="47.45871" lon="6.69428">
        <ele>313.05</ele>
        <time>2013-09-28T10:27:29Z</time>
      </trkpt>
      <trkpt lat="47.45876" lon="6.69454">
        <ele>314.01</ele>
        <time>2013-09-28T10:27:38Z</time>
      </trkpt>
      <trkpt lat="47.45872" lon="6.69442">
        <ele>313.53</ele>
        <time>2013-09-28T10:27:55Z</time>
      </trkpt>
      <trkpt lat="47.45849" lon="6.69423">
        <ele>313.53</ele>
        <time>2013-09-28T10:28:03Z</time>
      </trkpt>
      <trkpt lat="47.45832" lon="6.69403">
        <ele>313.53</ele>
        <time>2013-09-28T10:28:08Z</time>
      </trkpt>
      <trkpt lat="47.45815" lon="6.69384">
        <ele>313.53</ele>
        <time>2013-09-28T10:28:13Z</time>
      </trkpt>
      <trkpt lat="47.45799" lon="6.6937">
        <ele>313.05</ele>
        <time>2013-09-28T10:28:17Z</time>
      </trkpt>
      <trkpt lat="47.45783" lon="6.69355">
        <ele>314.01</ele>
        <time>2013-09-28T10:28:21Z</time>
      </trkpt>
      <trkpt lat="47.45766" lon="6.6934">
        <ele>313.05</ele>
        <time>2013-09-28T10:28:25Z</time>
      </trkpt>
      <trkpt lat="47.45749" lon="6.69324">
        <ele>312.09</ele>
        <time>2013-09-28T10:28:29Z</time>
      </trkpt>
      <trkpt lat="47.45729" lon="6.69308">
        <ele>312.57</ele>
        <time>2013-09-28T10:28:33Z</time>
      </trkpt>
      <trkpt lat="47.45709" lon="6.6929">
        <ele>312.09</ele>
        <time>2013-09-28T10:28:37Z</time>
      </trkpt>
      <trkpt lat="47.45689" lon="6.69271">
        <ele>311.6</ele>
        <time>2013-09-28T10:28:41Z</time>
      </trkpt>
      <trkpt lat="47.45669" lon="6.69251">
        <ele>312.09</ele>
        <time>2013-09-28T10:28:45Z</time>
      </trkpt>
      <trkpt lat="47.45652" lon="6.69234">
        <ele>311.6</ele>
        <time>2013-09-28T10:28:49Z</time>
      </trkpt>
      <trkpt lat="47.45636" lon="6.69215">
        <ele>312.09</ele>
        <time>2013-09-28T10:28:53Z</time>
      </trkpt>
      <trkpt lat="47.4562" lon="6.69196">
        <ele>312.57</ele>
        <time>2013-09-28T10:28:57Z</time>
      </trkpt>
      <trkpt lat="47.45602" lon="6.69174">
        <ele>311.6</ele>
        <time>2013-09-28T10:29:01Z</time>
      </trkpt>
      <trkpt lat="47.45588" lon="6.69158">
        <ele>312.09</ele>
        <time>2013-09-28T10:29:04Z</time>
      </trkpt>
      <trkpt lat="47.4557" lon="6.69135">
        <ele>312.09</ele>
        <time>2013-09-28T10:29:08Z</time>
      </trkpt>
      <trkpt lat="47.45551" lon="6.69114">
        <ele>312.09</ele>
        <time>2013-09-28T10:29:12Z</time>
      </trkpt>
      <trkpt lat="47.45534" lon="6.69095">
        <ele>312.09</ele>
        <time>2013-09-28T10:29:16Z</time>
      </trkpt>
      <trkpt lat="47.45514" lon="6.69079">
        <ele>312.09</ele>
        <time>2013-09-28T10:29:20Z</time>
      </trkpt>
      <trkpt lat="47.45493" lon="6.69065">
        <ele>311.6</ele>
        <time>2013-09-28T10:29:24Z</time>
      </trkpt>
      <trkpt lat="47.45472" lon="6.69052">
        <ele>312.09</ele>
        <time>2013-09-28T10:29:28Z</time>
      </trkpt>
      <trkpt lat="47.45453" lon="6.69039">
        <ele>311.6</ele>
        <time>2013-09-28T10:29:32Z</time>
      </trkpt>
      <trkpt lat="47.45437" lon="6.69019">
        <ele>311.6</ele>
        <time>2013-09-28T10:29:36Z</time>
      </trkpt>
      <trkpt lat="47.45421" lon="6.68995">
        <ele>311.12</ele>
        <time>2013-09-28T10:29:40Z</time>
      </trkpt>
      <trkpt lat="47.45408" lon="6.68972">
        <ele>311.12</ele>
        <time>2013-09-28T10:29:44Z</time>
      </trkpt>
      <trkpt lat="47.45417" lon="6.6895">
        <ele>311.6</ele>
        <time>2013-09-28T10:29:50Z</time>
      </trkpt>
      <trkpt lat="47.45434" lon="6.68934">
        <ele>311.12</ele>
        <time>2013-09-28T10:29:56Z</time>
      </trkpt>
      <trkpt lat="47.45451" lon="6.6892">
        <ele>311.6</ele>
        <time>2013-09-28T10:30:03Z</time>
      </trkpt>
      <trkpt lat="47.45446" lon="6.68915">
        <ele>311.12</ele>
        <time>2013-09-28T10:30:13Z</time>
      </trkpt>
      <trkpt lat="47.45429" lon="6.68933">
        <ele>311.12</ele>
        <time>2013-09-28T10:30:18Z</time>
      </trkpt>
      <trkpt lat="47.45412" lon="6.68947">
        <ele>311.12</ele>
        <time>2013-09-28T10:30:22Z</time>
      </trkpt>
      <trkpt lat="47.45404" lon="6.68974">
        <ele>311.12</ele>
        <time>2013-09-28T10:30:28Z</time>
      </trkpt>
      <trkpt lat="47.45417" lon="6.69">
        <ele>311.12</ele>
        <time>2013-09-28T10:30:34Z</time>
      </trkpt>
      <trkpt lat="47.45431" lon="6.69024">
        <ele>311.12</ele>
        <time>2013-09-28T10:30:39Z</time>
      </trkpt>
      <trkpt lat="47.45447" lon="6.69041">
        <ele>312.09</ele>
        <time>2013-09-28T10:30:43Z</time>
      </trkpt>
      <trkpt lat="47.45466" lon="6.69055">
        <ele>311.6</ele>
        <time>2013-09-28T10:30:47Z</time>
      </trkpt>
      <trkpt lat="47.45486" lon="6.69068">
        <ele>312.09</ele>
        <time>2013-09-28T10:30:51Z</time>
      </trkpt>
      <trkpt lat="47.45506" lon="6.69082">
        <ele>312.09</ele>
        <time>2013-09-28T10:30:55Z</time>
      </trkpt>
      <trkpt lat="47.45525" lon="6.69096">
        <ele>312.09</ele>
        <time>2013-09-28T10:30:59Z</time>
      </trkpt>
      <trkpt lat="47.45545" lon="6.69111">
        <ele>312.57</ele>
        <time>2013-09-28T10:31:03Z</time>
      </trkpt>
      <trkpt lat="47.45562" lon="6.69129">
        <ele>312.09</ele>
        <time>2013-09-28T10:31:07Z</time>
      </trkpt>
      <trkpt lat="47.45579" lon="6.69147">
        <ele>312.57</ele>
        <time>2013-09-28T10:31:11Z</time>
      </trkpt>
      <trkpt lat="47.45594" lon="6.69167">
        <ele>312.57</ele>
        <time>2013-09-28T10:31:15Z</time>
      </trkpt>
      <trkpt lat="47.4561" lon="6.69185">
        <ele>312.57</ele>
        <time>2013-09-28T10:31:19Z</time>
      </trkpt>
      <trkpt lat="47.45626" lon="6.69206">
        <ele>312.09</ele>
        <time>2013-09-28T10:31:23Z</time>
      </trkpt>
      <trkpt lat="47.45642" lon="6.69224">
        <ele>312.57</ele>
        <time>2013-09-28T10:31:27Z</time>
      </trkpt>
      <trkpt lat="47.45658" lon="6.69244">
        <ele>312.57</ele>
        <time>2013-09-28T10:31:31Z</time>
      </trkpt>
      <trkpt lat="47.45675" lon="6.69263">
        <ele>313.05</ele>
        <time>2013-09-28T10:31:35Z</time>
      </trkpt>
      <trkpt lat="47.45692" lon="6.69279">
        <ele>312.57</ele>
        <time>2013-09-28T10:31:39Z</time>
      </trkpt>
      <trkpt lat="47.4571" lon="6.69296">
        <ele>313.05</ele>
        <time>2013-09-28T10:31:43Z</time>
      </trkpt>
      <trkpt lat="47.45729" lon="6.69312">
        <ele>313.05</ele>
        <time>2013-09-28T10:31:47Z</time>
      </trkpt>
      <trkpt lat="47.45746" lon="6.69328">
        <ele>313.53</ele>
        <time>2013-09-28T10:31:51Z</time>
      </trkpt>
      <trkpt lat="47.45765" lon="6.69345">
        <ele>313.53</ele>
        <time>2013-09-28T10:31:55Z</time>
      </trkpt>
      <trkpt lat="47.45784" lon="6.69361">
        <ele>313.05</ele>
        <time>2013-09-28T10:31:59Z</time>
      </trkpt>
      <trkpt lat="47.45802" lon="6.69379">
        <ele>313.53</ele>
        <time>2013-09-28T10:32:03Z</time>
      </trkpt>
      <trkpt lat="47.4582" lon="6.69397">
        <ele>313.53</ele>
        <time>2013-09-28T10:32:07Z</time>
      </trkpt>
      <trkpt lat="47.45837" lon="6.69418">
        <ele>313.53</ele>
        <time>2013-09-28T10:32:11Z</time>
      </trkpt>
      <trkpt lat="47.45854" lon="6.69441">
        <ele>314.01</ele>
        <time>2013-09-28T10:32:15Z</time>
      </trkpt>
      <trkpt lat="47.45869" lon="6.69466">
        <ele>314.01</ele>
        <time>2013-09-28T10:32:19Z</time>
      </trkpt>
      <trkpt lat="47.45882" lon="6.69492">
        <ele>314.01</ele>
        <time>2013-09-28T10:32:23Z</time>
      </trkpt>
      <trkpt lat="47.45894" lon="6.69518">
        <ele>314.01</ele>
        <time>2013-09-28T10:32:27Z</time>
      </trkpt>
      <trkpt lat="47.45904" lon="6.69546">
        <ele>314.97</ele>
        <time>2013-09-28T10:32:31Z</time>
      </trkpt>
      <trkpt lat="47.45911" lon="6.69572">
        <ele>316.41</ele>
        <time>2013-09-28T10:32:35Z</time>
      </trkpt>
      <trkpt lat="47.45918" lon="6.69596">
        <ele>315.93</ele>
        <time>2013-09-28T10:32:39Z</time>
      </trkpt>
      <trkpt lat="47.45925" lon="6.69622">
        <ele>315.93</ele>
        <time>2013-09-28T10:32:43Z</time>
      </trkpt>
      <trkpt lat="47.45932" lon="6.69648">
        <ele>316.89</ele>
        <time>2013-09-28T10:32:47Z</time>
      </trkpt>
      <trkpt lat="47.45937" lon="6.69675">
        <ele>316.89</ele>
        <time>2013-09-28T10:32:51Z</time>
      </trkpt>
      <trkpt lat="47.45942" lon="6.69702">
        <ele>317.37</ele>
        <time>2013-09-28T10:32:55Z</time>
      </trkpt>
      <trkpt lat="47.45945" lon="6.69728">
        <ele>318.33</ele>
        <time>2013-09-28T10:32:59Z</time>
      </trkpt>
      <trkpt lat="47.4595" lon="6.69761">
        <ele>318.81</ele>
        <time>2013-09-28T10:33:04Z</time>
      </trkpt>
      <trkpt lat="47.45954" lon="6.69794">
        <ele>319.3</ele>
        <time>2013-09-28T10:33:09Z</time>
      </trkpt>
      <trkpt lat="47.45958" lon="6.69821">
        <ele>320.26</ele>
        <time>2013-09-28T10:33:13Z</time>
      </trkpt>
      <trkpt lat="47.45958" lon="6.69854">
        <ele>320.74</ele>
        <time>2013-09-28T10:33:18Z</time>
      </trkpt>
      <trkpt lat="47.45955" lon="6.69886">
        <ele>322.66</ele>
        <time>2013-09-28T10:33:23Z</time>
      </trkpt>
      <trkpt lat="47.45952" lon="6.69918">
        <ele>323.14</ele>
        <time>2013-09-28T10:33:28Z</time>
      </trkpt>
      <trkpt lat="47.45948" lon="6.69949">
        <ele>325.06</ele>
        <time>2013-09-28T10:33:33Z</time>
      </trkpt>
      <trkpt lat="47.45944" lon="6.6998">
        <ele>325.06</ele>
        <time>2013-09-28T10:33:38Z</time>
      </trkpt>
      <trkpt lat="47.4594" lon="6.70013">
        <ele>325.54</ele>
        <time>2013-09-28T10:33:43Z</time>
      </trkpt>
      <trkpt lat="47.45938" lon="6.70044">
        <ele>325.54</ele>
        <time>2013-09-28T10:33:48Z</time>
      </trkpt>
      <trkpt lat="47.45937" lon="6.70078">
        <ele>326.02</ele>
        <time>2013-09-28T10:33:53Z</time>
      </trkpt>
      <trkpt lat="47.45939" lon="6.70106">
        <ele>326.5</ele>
        <time>2013-09-28T10:33:57Z</time>
      </trkpt>
      <trkpt lat="47.45942" lon="6.70138">
        <ele>327.47</ele>
        <time>2013-09-28T10:34:02Z</time>
      </trkpt>
      <trkpt lat="47.45948" lon="6.7017">
        <ele>327.95</ele>
        <time>2013-09-28T10:34:07Z</time>
      </trkpt>
      <trkpt lat="47.45955" lon="6.70199">
        <ele>328.43</ele>
        <time>2013-09-28T10:34:12Z</time>
      </trkpt>
      <trkpt lat="47.45961" lon="6.70226">
        <ele>329.39</ele>
        <time>2013-09-28T10:34:17Z</time>
      </trkpt>
      <trkpt lat="47.45967" lon="6.70254">
        <ele>330.35</ele>
        <time>2013-09-28T10:34:22Z</time>
      </trkpt>
      <trkpt lat="47.45973" lon="6.70282">
        <ele>330.35</ele>
        <time>2013-09-28T10:34:27Z</time>
      </trkpt>
      <trkpt lat="47.45979" lon="6.70311">
        <ele>330.83</ele>
        <time>2013-09-28T10:34:32Z</time>
      </trkpt>
      <trkpt lat="47.45985" lon="6.7034">
        <ele>331.31</ele>
        <time>2013-09-28T10:34:37Z</time>
      </trkpt>
      <trkpt lat="47.45992" lon="6.7037">
        <ele>332.75</ele>
        <time>2013-09-28T10:34:42Z</time>
      </trkpt>
      <trkpt lat="47.45999" lon="6.70399">
        <ele>333.23</ele>
        <time>2013-09-28T10:34:47Z</time>
      </trkpt>
      <trkpt lat="47.46008" lon="6.70426">
        <ele>333.71</ele>
        <time>2013-09-28T10:34:52Z</time>
      </trkpt>
      <trkpt lat="47.46015" lon="6.70456">
        <ele>334.2</ele>
        <time>2013-09-28T10:34:57Z</time>
      </trkpt>
      <trkpt lat="47.46024" lon="6.70484">
        <ele>335.16</ele>
        <time>2013-09-28T10:35:02Z</time>
      </trkpt>
      <trkpt lat="47.46034" lon="6.70512">
        <ele>335.16</ele>
        <time>2013-09-28T10:35:07Z</time>
      </trkpt>
      <trkpt lat="47.46042" lon="6.70543">
        <ele>336.6</ele>
        <time>2013-09-28T10:35:12Z</time>
      </trkpt>
      <trkpt lat="47.46047" lon="6.70572">
        <ele>337.56</ele>
        <time>2013-09-28T10:35:17Z</time>
      </trkpt>
      <trkpt lat="47.46051" lon="6.70601">
        <ele>337.56</ele>
        <time>2013-09-28T10:35:22Z</time>
      </trkpt>
      <trkpt lat="47.46054" lon="6.70633">
        <ele>338.04</ele>
        <time>2013-09-28T10:35:27Z</time>
      </trkpt>
      <trkpt lat="47.46057" lon="6.70664">
        <ele>338.04</ele>
        <time>2013-09-28T10:35:32Z</time>
      </trkpt>
      <trkpt lat="47.46059" lon="6.70691">
        <ele>338.04</ele>
        <time>2013-09-28T10:35:36Z</time>
      </trkpt>
      <trkpt lat="47.46055" lon="6.7072">
        <ele>339</ele>
        <time>2013-09-28T10:35:40Z</time>
      </trkpt>
      <trkpt lat="47.4605" lon="6.70747">
        <ele>339</ele>
        <time>2013-09-28T10:35:44Z</time>
      </trkpt>
      <trkpt lat="47.46046" lon="6.70774">
        <ele>339</ele>
        <time>2013-09-28T10:35:48Z</time>
      </trkpt>
      <trkpt lat="47.46047" lon="6.70802">
        <ele>339</ele>
        <time>2013-09-28T10:35:52Z</time>
      </trkpt>
      <trkpt lat="47.46048" lon="6.7083">
        <ele>339</ele>
        <time>2013-09-28T10:35:56Z</time>
      </trkpt>
      <trkpt lat="47.46051" lon="6.70863">
        <ele>339.96</ele>
        <time>2013-09-28T10:36:01Z</time>
      </trkpt>
      <trkpt lat="47.46058" lon="6.70889">
        <ele>340.44</ele>
        <time>2013-09-28T10:36:05Z</time>
      </trkpt>
      <trkpt lat="47.46067" lon="6.70919">
        <ele>341.41</ele>
        <time>2013-09-28T10:36:10Z</time>
      </trkpt>
      <trkpt lat="47.46075" lon="6.70947">
        <ele>342.85</ele>
        <time>2013-09-28T10:36:15Z</time>
      </trkpt>
      <trkpt lat="47.46084" lon="6.70972">
        <ele>344.29</ele>
        <time>2013-09-28T10:36:20Z</time>
      </trkpt>
      <trkpt lat="47.46093" lon="6.70997">
        <ele>345.25</ele>
        <time>2013-09-28T10:36:25Z</time>
      </trkpt>
      <trkpt lat="47.46103" lon="6.7102">
        <ele>346.69</ele>
        <time>2013-09-28T10:36:30Z</time>
      </trkpt>
      <trkpt lat="47.46113" lon="6.71044">
        <ele>348.13</ele>
        <time>2013-09-28T10:36:35Z</time>
      </trkpt>
      <trkpt lat="47.46123" lon="6.71067">
        <ele>349.1</ele>
        <time>2013-09-28T10:36:40Z</time>
      </trkpt>
      <trkpt lat="47.46135" lon="6.71089">
        <ele>350.06</ele>
        <time>2013-09-28T10:36:45Z</time>
      </trkpt>
      <trkpt lat="47.46146" lon="6.71112">
        <ele>351.02</ele>
        <time>2013-09-28T10:36:50Z</time>
      </trkpt>
      <trkpt lat="47.46158" lon="6.71135">
        <ele>351.98</ele>
        <time>2013-09-28T10:36:55Z</time>
      </trkpt>
      <trkpt lat="47.4617" lon="6.71158">
        <ele>353.42</ele>
        <time>2013-09-28T10:37:00Z</time>
      </trkpt>
      <trkpt lat="47.46182" lon="6.71182">
        <ele>353.9</ele>
        <time>2013-09-28T10:37:05Z</time>
      </trkpt>
      <trkpt lat="47.46193" lon="6.71205">
        <ele>355.83</ele>
        <time>2013-09-28T10:37:10Z</time>
      </trkpt>
      <trkpt lat="47.46206" lon="6.7123">
        <ele>356.79</ele>
        <time>2013-09-28T10:37:16Z</time>
      </trkpt>
      <trkpt lat="47.46218" lon="6.71254">
        <ele>358.71</ele>
        <time>2013-09-28T10:37:22Z</time>
      </trkpt>
      <trkpt lat="47.46232" lon="6.71277">
        <ele>359.67</ele>
        <time>2013-09-28T10:37:28Z</time>
      </trkpt>
      <trkpt lat="47.46244" lon="6.71301">
        <ele>361.11</ele>
        <time>2013-09-28T10:37:34Z</time>
      </trkpt>
      <trkpt lat="47.46257" lon="6.71324">
        <ele>363.52</ele>
        <time>2013-09-28T10:37:40Z</time>
      </trkpt>
      <trkpt lat="47.46265" lon="6.71346">
        <ele>364</ele>
        <time>2013-09-28T10:37:48Z</time>
      </trkpt>
      <trkpt lat="47.4627" lon="6.71372">
        <ele>364</ele>
        <time>2013-09-28T10:38:01Z</time>
      </trkpt>
      <trkpt lat="47.46268" lon="6.71397">
        <ele>363.52</ele>
        <time>2013-09-28T10:38:14Z</time>
      </trkpt>
      <trkpt lat="47.46265" lon="6.71425">
        <ele>363.52</ele>
        <time>2013-09-28T10:38:29Z</time>
      </trkpt>
      <trkpt lat="47.46257" lon="6.71453">
        <ele>363.52</ele>
        <time>2013-09-28T10:38:36Z</time>
      </trkpt>
      <trkpt lat="47.46249" lon="6.7148">
        <ele>363.04</ele>
        <time>2013-09-28T10:38:42Z</time>
      </trkpt>
      <trkpt lat="47.46247" lon="6.71508">
        <ele>363.52</ele>
        <time>2013-09-28T10:38:47Z</time>
      </trkpt>
      <trkpt lat="47.46247" lon="6.7154">
        <ele>363.52</ele>
        <time>2013-09-28T10:38:52Z</time>
      </trkpt>
      <trkpt lat="47.46247" lon="6.71569">
        <ele>362.55</ele>
        <time>2013-09-28T10:38:56Z</time>
      </trkpt>
      <trkpt lat="47.46249" lon="6.716">
        <ele>362.07</ele>
        <time>2013-09-28T10:39:00Z</time>
      </trkpt>
      <trkpt lat="47.46254" lon="6.71631">
        <ele>362.55</ele>
        <time>2013-09-28T10:39:04Z</time>
      </trkpt>
      <trkpt lat="47.46259" lon="6.7166">
        <ele>362.55</ele>
        <time>2013-09-28T10:39:08Z</time>
      </trkpt>
      <trkpt lat="47.46266" lon="6.71689">
        <ele>362.55</ele>
        <time>2013-09-28T10:39:12Z</time>
      </trkpt>
      <trkpt lat="47.46277" lon="6.71716">
        <ele>362.07</ele>
        <time>2013-09-28T10:39:16Z</time>
      </trkpt>
      <trkpt lat="47.46289" lon="6.71743">
        <ele>361.11</ele>
        <time>2013-09-28T10:39:20Z</time>
      </trkpt>
      <trkpt lat="47.46302" lon="6.71772">
        <ele>360.63</ele>
        <time>2013-09-28T10:39:24Z</time>
      </trkpt>
      <trkpt lat="47.46307" lon="6.71799">
        <ele>360.63</ele>
        <time>2013-09-28T10:39:27Z</time>
      </trkpt>
      <trkpt lat="47.46312" lon="6.71825">
        <ele>360.63</ele>
        <time>2013-09-28T10:39:30Z</time>
      </trkpt>
      <trkpt lat="47.46318" lon="6.71857">
        <ele>360.15</ele>
        <time>2013-09-28T10:39:34Z</time>
      </trkpt>
      <trkpt lat="47.46324" lon="6.71888">
        <ele>359.67</ele>
        <time>2013-09-28T10:39:38Z</time>
      </trkpt>
      <trkpt lat="47.46331" lon="6.71919">
        <ele>360.63</ele>
        <time>2013-09-28T10:39:42Z</time>
      </trkpt>
      <trkpt lat="47.46341" lon="6.71948">
        <ele>360.15</ele>
        <time>2013-09-28T10:39:46Z</time>
      </trkpt>
      <trkpt lat="47.46353" lon="6.71974">
        <ele>360.63</ele>
        <time>2013-09-28T10:39:50Z</time>
      </trkpt>
      <trkpt lat="47.46365" lon="6.71997">
        <ele>360.15</ele>
        <time>2013-09-28T10:39:54Z</time>
      </trkpt>
      <trkpt lat="47.46375" lon="6.72022">
        <ele>361.11</ele>
        <time>2013-09-28T10:39:58Z</time>
      </trkpt>
      <trkpt lat="47.46386" lon="6.72049">
        <ele>361.11</ele>
        <time>2013-09-28T10:40:03Z</time>
      </trkpt>
      <trkpt lat="47.46404" lon="6.72056">
        <ele>360.63</ele>
        <time>2013-09-28T10:40:09Z</time>
      </trkpt>
      <trkpt lat="47.46426" lon="6.7204">
        <ele>359.67</ele>
        <time>2013-09-28T10:40:14Z</time>
      </trkpt>
      <trkpt lat="47.46444" lon="6.7203">
        <ele>359.19</ele>
        <time>2013-09-28T10:40:18Z</time>
      </trkpt>
      <trkpt lat="47.46449" lon="6.72032">
        <ele>359.19</ele>
        <time>2013-09-28T10:40:29Z</time>
      </trkpt>
      <trkpt lat="47.46431" lon="6.7204">
        <ele>359.67</ele>
        <time>2013-09-28T10:40:35Z</time>
      </trkpt>
      <trkpt lat="47.46412" lon="6.7205">
        <ele>359.67</ele>
        <time>2013-09-28T10:40:40Z</time>
      </trkpt>
      <trkpt lat="47.46397" lon="6.72066">
        <ele>360.63</ele>
        <time>2013-09-28T10:40:47Z</time>
      </trkpt>
      <trkpt lat="47.46407" lon="6.7209">
        <ele>361.11</ele>
        <time>2013-09-28T10:40:53Z</time>
      </trkpt>
      <trkpt lat="47.4642" lon="6.72112">
        <ele>362.55</ele>
        <time>2013-09-28T10:40:58Z</time>
      </trkpt>
      <trkpt lat="47.46431" lon="6.72134">
        <ele>363.04</ele>
        <time>2013-09-28T10:41:03Z</time>
      </trkpt>
      <trkpt lat="47.46444" lon="6.72161">
        <ele>364</ele>
        <time>2013-09-28T10:41:09Z</time>
      </trkpt>
      <trkpt lat="47.46456" lon="6.72184">
        <ele>364.96</ele>
        <time>2013-09-28T10:41:14Z</time>
      </trkpt>
      <trkpt lat="47.46473" lon="6.7219">
        <ele>366.4</ele>
        <time>2013-09-28T10:41:19Z</time>
      </trkpt>
      <trkpt lat="47.46492" lon="6.72179">
        <ele>366.4</ele>
        <time>2013-09-28T10:41:25Z</time>
      </trkpt>
      <trkpt lat="47.4651" lon="6.72167">
        <ele>366.88</ele>
        <time>2013-09-28T10:41:32Z</time>
      </trkpt>
      <trkpt lat="47.46531" lon="6.72159">
        <ele>366.88</ele>
        <time>2013-09-28T10:41:39Z</time>
      </trkpt>
      <trkpt lat="47.46551" lon="6.72152">
        <ele>367.84</ele>
        <time>2013-09-28T10:41:45Z</time>
      </trkpt>
      <trkpt lat="47.4657" lon="6.72147">
        <ele>368.8</ele>
        <time>2013-09-28T10:41:50Z</time>
      </trkpt>
      <trkpt lat="47.4659" lon="6.72144">
        <ele>369.76</ele>
        <time>2013-09-28T10:41:55Z</time>
      </trkpt>
      <trkpt lat="47.46608" lon="6.72152">
        <ele>371.69</ele>
        <time>2013-09-28T10:42:00Z</time>
      </trkpt>
      <trkpt lat="47.46619" lon="6.72177">
        <ele>371.69</ele>
        <time>2013-09-28T10:42:05Z</time>
      </trkpt>
      <trkpt lat="47.46629" lon="6.72203">
        <ele>372.65</ele>
        <time>2013-09-28T10:42:10Z</time>
      </trkpt>
      <trkpt lat="47.46637" lon="6.72232">
        <ele>373.13</ele>
        <time>2013-09-28T10:42:16Z</time>
      </trkpt>
      <trkpt lat="47.46646" lon="6.72262">
        <ele>373.61</ele>
        <time>2013-09-28T10:42:22Z</time>
      </trkpt>
      <trkpt lat="47.46652" lon="6.7229">
        <ele>374.09</ele>
        <time>2013-09-28T10:42:27Z</time>
      </trkpt>
      <trkpt lat="47.46661" lon="6.72319">
        <ele>374.57</ele>
        <time>2013-09-28T10:42:32Z</time>
      </trkpt>
      <trkpt lat="47.46671" lon="6.72344">
        <ele>374.57</ele>
        <time>2013-09-28T10:42:37Z</time>
      </trkpt>
      <trkpt lat="47.46683" lon="6.72364">
        <ele>374.09</ele>
        <time>2013-09-28T10:42:41Z</time>
      </trkpt>
      <trkpt lat="47.46697" lon="6.72388">
        <ele>373.13</ele>
        <time>2013-09-28T10:42:45Z</time>
      </trkpt>
      <trkpt lat="47.46714" lon="6.72415">
        <ele>371.21</ele>
        <time>2013-09-28T10:42:49Z</time>
      </trkpt>
      <trkpt lat="47.46729" lon="6.72437">
        <ele>370.24</ele>
        <time>2013-09-28T10:42:52Z</time>
      </trkpt>
      <trkpt lat="47.46747" lon="6.72459">
        <ele>368.8</ele>
        <time>2013-09-28T10:42:55Z</time>
      </trkpt>
      <trkpt lat="47.46768" lon="6.72477">
        <ele>366.4</ele>
        <time>2013-09-28T10:42:58Z</time>
      </trkpt>
      <trkpt lat="47.46793" lon="6.72492">
        <ele>364.96</ele>
        <time>2013-09-28T10:43:01Z</time>
      </trkpt>
      <trkpt lat="47.4681" lon="6.72503">
        <ele>363.52</ele>
        <time>2013-09-28T10:43:03Z</time>
      </trkpt>
      <trkpt lat="47.46827" lon="6.72517">
        <ele>363.04</ele>
        <time>2013-09-28T10:43:05Z</time>
      </trkpt>
      <trkpt lat="47.46843" lon="6.72531">
        <ele>359.19</ele>
        <time>2013-09-28T10:43:07Z</time>
      </trkpt>
      <trkpt lat="47.46859" lon="6.72546">
        <ele>360.63</ele>
        <time>2013-09-28T10:43:09Z</time>
      </trkpt>
      <trkpt lat="47.46875" lon="6.72562">
        <ele>360.15</ele>
        <time>2013-09-28T10:43:11Z</time>
      </trkpt>
      <trkpt lat="47.46891" lon="6.72577">
        <ele>357.75</ele>
        <time>2013-09-28T10:43:13Z</time>
      </trkpt>
      <trkpt lat="47.46907" lon="6.72593">
        <ele>355.83</ele>
        <time>2013-09-28T10:43:15Z</time>
      </trkpt>
      <trkpt lat="47.46925" lon="6.7261">
        <ele>353.9</ele>
        <time>2013-09-28T10:43:17Z</time>
      </trkpt>
      <trkpt lat="47.46943" lon="6.72627">
        <ele>351.98</ele>
        <time>2013-09-28T10:43:19Z</time>
      </trkpt>
      <trkpt lat="47.46962" lon="6.72645">
        <ele>350.54</ele>
        <time>2013-09-28T10:43:21Z</time>
      </trkpt>
      <trkpt lat="47.46981" lon="6.72663">
        <ele>349.1</ele>
        <time>2013-09-28T10:43:23Z</time>
      </trkpt>
      <trkpt lat="47.46999" lon="6.72683">
        <ele>346.69</ele>
        <time>2013-09-28T10:43:25Z</time>
      </trkpt>
      <trkpt lat="47.47016" lon="6.72707">
        <ele>344.77</ele>
        <time>2013-09-28T10:43:27Z</time>
      </trkpt>
      <trkpt lat="47.47031" lon="6.72734">
        <ele>342.85</ele>
        <time>2013-09-28T10:43:29Z</time>
      </trkpt>
      <trkpt lat="47.47047" lon="6.7276">
        <ele>340.92</ele>
        <time>2013-09-28T10:43:31Z</time>
      </trkpt>
      <trkpt lat="47.47067" lon="6.72782">
        <ele>339.48</ele>
        <time>2013-09-28T10:43:33Z</time>
      </trkpt>
      <trkpt lat="47.47087" lon="6.72802">
        <ele>338.52</ele>
        <time>2013-09-28T10:43:35Z</time>
      </trkpt>
      <trkpt lat="47.47107" lon="6.7282">
        <ele>336.12</ele>
        <time>2013-09-28T10:43:37Z</time>
      </trkpt>
      <trkpt lat="47.47127" lon="6.72838">
        <ele>335.16</ele>
        <time>2013-09-28T10:43:39Z</time>
      </trkpt>
      <trkpt lat="47.47147" lon="6.72854">
        <ele>334.68</ele>
        <time>2013-09-28T10:43:41Z</time>
      </trkpt>
      <trkpt lat="47.47166" lon="6.72868">
        <ele>333.71</ele>
        <time>2013-09-28T10:43:43Z</time>
      </trkpt>
      <trkpt lat="47.47184" lon="6.7288">
        <ele>333.23</ele>
        <time>2013-09-28T10:43:45Z</time>
      </trkpt>
      <trkpt lat="47.47203" lon="6.72887">
        <ele>333.23</ele>
        <time>2013-09-28T10:43:47Z</time>
      </trkpt>
      <trkpt lat="47.47221" lon="6.72893">
        <ele>332.75</ele>
        <time>2013-09-28T10:43:49Z</time>
      </trkpt>
      <trkpt lat="47.47239" lon="6.729">
        <ele>330.83</ele>
        <time>2013-09-28T10:43:51Z</time>
      </trkpt>
      <trkpt lat="47.47255" lon="6.72912">
        <ele>330.83</ele>
        <time>2013-09-28T10:43:53Z</time>
      </trkpt>
      <trkpt lat="47.47269" lon="6.72928">
        <ele>329.87</ele>
        <time>2013-09-28T10:43:55Z</time>
      </trkpt>
      <trkpt lat="47.47283" lon="6.72946">
        <ele>329.39</ele>
        <time>2013-09-28T10:43:57Z</time>
      </trkpt>
      <trkpt lat="47.47303" lon="6.72971">
        <ele>328.43</ele>
        <time>2013-09-28T10:44:00Z</time>
      </trkpt>
      <trkpt lat="47.4732" lon="6.72998">
        <ele>327.47</ele>
        <time>2013-09-28T10:44:03Z</time>
      </trkpt>
      <trkpt lat="47.47332" lon="6.73021">
        <ele>324.58</ele>
        <time>2013-09-28T10:44:06Z</time>
      </trkpt>
      <trkpt lat="47.47345" lon="6.73027">
        <ele>324.1</ele>
        <time>2013-09-28T10:44:24Z</time>
      </trkpt>
      <trkpt lat="47.47367" lon="6.73027">
        <ele>323.62</ele>
        <time>2013-09-28T10:44:31Z</time>
      </trkpt>
      <trkpt lat="47.47387" lon="6.73034">
        <ele>322.66</ele>
        <time>2013-09-28T10:44:35Z</time>
      </trkpt>
      <trkpt lat="47.47409" lon="6.73047">
        <ele>321.22</ele>
        <time>2013-09-28T10:44:39Z</time>
      </trkpt>
      <trkpt lat="47.47425" lon="6.73056">
        <ele>318.81</ele>
        <time>2013-09-28T10:44:48Z</time>
      </trkpt>
      <trkpt lat="47.47446" lon="6.7306">
        <ele>318.33</ele>
        <time>2013-09-28T10:44:53Z</time>
      </trkpt>
      <trkpt lat="47.47459" lon="6.73081">
        <ele>317.85</ele>
        <time>2013-09-28T10:44:57Z</time>
      </trkpt>
      <trkpt lat="47.47469" lon="6.73105">
        <ele>319.3</ele>
        <time>2013-09-28T10:45:02Z</time>
      </trkpt>
      <trkpt lat="47.47469" lon="6.73135">
        <ele>321.22</ele>
        <time>2013-09-28T10:45:08Z</time>
      </trkpt>
      <trkpt lat="47.47467" lon="6.73165">
        <ele>321.7</ele>
        <time>2013-09-28T10:45:14Z</time>
      </trkpt>
      <trkpt lat="47.47463" lon="6.73193">
        <ele>320.26</ele>
        <time>2013-09-28T10:45:19Z</time>
      </trkpt>
      <trkpt lat="47.47457" lon="6.7322">
        <ele>319.3</ele>
        <time>2013-09-28T10:45:23Z</time>
      </trkpt>
      <trkpt lat="47.47443" lon="6.73241">
        <ele>317.85</ele>
        <time>2013-09-28T10:45:27Z</time>
      </trkpt>
      <trkpt lat="47.47448" lon="6.73266">
        <ele>317.37</ele>
        <time>2013-09-28T10:45:33Z</time>
      </trkpt>
      <trkpt lat="47.47459" lon="6.73289">
        <ele>317.37</ele>
        <time>2013-09-28T10:45:38Z</time>
      </trkpt>
      <trkpt lat="47.47466" lon="6.73316">
        <ele>316.89</ele>
        <time>2013-09-28T10:45:42Z</time>
      </trkpt>
      <trkpt lat="47.47474" lon="6.73345">
        <ele>316.41</ele>
        <time>2013-09-28T10:45:46Z</time>
      </trkpt>
      <trkpt lat="47.47487" lon="6.73368">
        <ele>315.93</ele>
        <time>2013-09-28T10:45:50Z</time>
      </trkpt>
      <trkpt lat="47.47506" lon="6.73373">
        <ele>316.41</ele>
        <time>2013-09-28T10:45:54Z</time>
      </trkpt>
      <trkpt lat="47.47516" lon="6.73398">
        <ele>315.93</ele>
        <time>2013-09-28T10:45:58Z</time>
      </trkpt>
      <trkpt lat="47.47524" lon="6.73427">
        <ele>316.41</ele>
        <time>2013-09-28T10:46:02Z</time>
      </trkpt>
      <trkpt lat="47.4753" lon="6.73456">
        <ele>315.93</ele>
        <time>2013-09-28T10:46:06Z</time>
      </trkpt>
      <trkpt lat="47.47536" lon="6.73486">
        <ele>315.93</ele>
        <time>2013-09-28T10:46:10Z</time>
      </trkpt>
      <trkpt lat="47.47541" lon="6.73516">
        <ele>315.93</ele>
        <time>2013-09-28T10:46:14Z</time>
      </trkpt>
      <trkpt lat="47.47545" lon="6.73543">
        <ele>315.93</ele>
        <time>2013-09-28T10:46:18Z</time>
      </trkpt>
      <trkpt lat="47.47551" lon="6.73572">
        <ele>316.41</ele>
        <time>2013-09-28T10:46:23Z</time>
      </trkpt>
      <trkpt lat="47.47563" lon="6.73591">
        <ele>315.93</ele>
        <time>2013-09-28T10:46:29Z</time>
      </trkpt>
      <trkpt lat="47.47575" lon="6.73615">
        <ele>316.89</ele>
        <time>2013-09-28T10:46:34Z</time>
      </trkpt>
      <trkpt lat="47.47578" lon="6.73644">
        <ele>316.89</ele>
        <time>2013-09-28T10:46:38Z</time>
      </trkpt>
      <trkpt lat="47.47584" lon="6.73673">
        <ele>317.37</ele>
        <time>2013-09-28T10:46:42Z</time>
      </trkpt>
      <trkpt lat="47.47589" lon="6.73704">
        <ele>316.89</ele>
        <time>2013-09-28T10:46:46Z</time>
      </trkpt>
      <trkpt lat="47.47595" lon="6.73736">
        <ele>316.89</ele>
        <time>2013-09-28T10:46:50Z</time>
      </trkpt>
      <trkpt lat="47.47601" lon="6.73768">
        <ele>316.89</ele>
        <time>2013-09-28T10:46:54Z</time>
      </trkpt>
      <trkpt lat="47.47607" lon="6.73798">
        <ele>315.93</ele>
        <time>2013-09-28T10:46:58Z</time>
      </trkpt>
      <trkpt lat="47.47613" lon="6.73831">
        <ele>316.89</ele>
        <time>2013-09-28T10:47:02Z</time>
      </trkpt>
      <trkpt lat="47.4762" lon="6.73864">
        <ele>316.89</ele>
        <time>2013-09-28T10:47:06Z</time>
      </trkpt>
      <trkpt lat="47.47626" lon="6.73897">
        <ele>316.89</ele>
        <time>2013-09-28T10:47:10Z</time>
      </trkpt>
      <trkpt lat="47.47631" lon="6.73924">
        <ele>316.41</ele>
        <time>2013-09-28T10:47:13Z</time>
      </trkpt>
      <trkpt lat="47.47636" lon="6.7395">
        <ele>316.89</ele>
        <time>2013-09-28T10:47:16Z</time>
      </trkpt>
      <trkpt lat="47.47642" lon="6.73977">
        <ele>316.89</ele>
        <time>2013-09-28T10:47:19Z</time>
      </trkpt>
      <trkpt lat="47.47647" lon="6.74002">
        <ele>317.37</ele>
        <time>2013-09-28T10:47:22Z</time>
      </trkpt>
      <trkpt lat="47.47652" lon="6.74028">
        <ele>316.89</ele>
        <time>2013-09-28T10:47:25Z</time>
      </trkpt>
      <trkpt lat="47.47659" lon="6.74054">
        <ele>316.89</ele>
        <time>2013-09-28T10:47:28Z</time>
      </trkpt>
      <trkpt lat="47.47663" lon="6.74082">
        <ele>316.89</ele>
        <time>2013-09-28T10:47:31Z</time>
      </trkpt>
      <trkpt lat="47.47668" lon="6.74109">
        <ele>316.41</ele>
        <time>2013-09-28T10:47:34Z</time>
      </trkpt>
      <trkpt lat="47.47674" lon="6.74137">
        <ele>316.89</ele>
        <time>2013-09-28T10:47:37Z</time>
      </trkpt>
      <trkpt lat="47.4768" lon="6.74163">
        <ele>316.89</ele>
        <time>2013-09-28T10:47:40Z</time>
      </trkpt>
      <trkpt lat="47.47685" lon="6.7419">
        <ele>317.37</ele>
        <time>2013-09-28T10:47:43Z</time>
      </trkpt>
      <trkpt lat="47.4769" lon="6.74217">
        <ele>317.37</ele>
        <time>2013-09-28T10:47:46Z</time>
      </trkpt>
      <trkpt lat="47.47694" lon="6.74244">
        <ele>317.37</ele>
        <time>2013-09-28T10:47:49Z</time>
      </trkpt>
      <trkpt lat="47.47699" lon="6.74271">
        <ele>317.37</ele>
        <time>2013-09-28T10:47:52Z</time>
      </trkpt>
      <trkpt lat="47.47702" lon="6.74297">
        <ele>317.37</ele>
        <time>2013-09-28T10:47:55Z</time>
      </trkpt>
      <trkpt lat="47.47706" lon="6.74325">
        <ele>317.37</ele>
        <time>2013-09-28T10:47:58Z</time>
      </trkpt>
      <trkpt lat="47.4771" lon="6.74352">
        <ele>317.85</ele>
        <time>2013-09-28T10:48:01Z</time>
      </trkpt>
      <trkpt lat="47.47714" lon="6.74379">
        <ele>316.89</ele>
        <time>2013-09-28T10:48:04Z</time>
      </trkpt>
      <trkpt lat="47.47716" lon="6.74407">
        <ele>317.37</ele>
        <time>2013-09-28T10:48:07Z</time>
      </trkpt>
      <trkpt lat="47.47719" lon="6.74434">
        <ele>317.37</ele>
        <time>2013-09-28T10:48:10Z</time>
      </trkpt>
      <trkpt lat="47.47722" lon="6.7446">
        <ele>316.89</ele>
        <time>2013-09-28T10:48:13Z</time>
      </trkpt>
      <trkpt lat="47.47726" lon="6.74486">
        <ele>316.41</ele>
        <time>2013-09-28T10:48:16Z</time>
      </trkpt>
      <trkpt lat="47.4773" lon="6.7452">
        <ele>316.89</ele>
        <time>2013-09-28T10:48:20Z</time>
      </trkpt>
      <trkpt lat="47.47726" lon="6.74553">
        <ele>316.89</ele>
        <time>2013-09-28T10:48:24Z</time>
      </trkpt>
      <trkpt lat="47.47728" lon="6.74587">
        <ele>317.37</ele>
        <time>2013-09-28T10:48:28Z</time>
      </trkpt>
      <trkpt lat="47.47729" lon="6.74621">
        <ele>316.89</ele>
        <time>2013-09-28T10:48:32Z</time>
      </trkpt>
      <trkpt lat="47.47729" lon="6.74648">
        <ele>317.37</ele>
        <time>2013-09-28T10:48:35Z</time>
      </trkpt>
      <trkpt lat="47.47729" lon="6.74675">
        <ele>317.37</ele>
        <time>2013-09-28T10:48:38Z</time>
      </trkpt>
      <trkpt lat="47.47729" lon="6.74702">
        <ele>316.89</ele>
        <time>2013-09-28T10:48:41Z</time>
      </trkpt>
      <trkpt lat="47.47728" lon="6.74729">
        <ele>317.37</ele>
        <time>2013-09-28T10:48:44Z</time>
      </trkpt>
      <trkpt lat="47.47727" lon="6.74756">
        <ele>317.37</ele>
        <time>2013-09-28T10:48:47Z</time>
      </trkpt>
      <trkpt lat="47.47726" lon="6.74782">
        <ele>317.37</ele>
        <time>2013-09-28T10:48:50Z</time>
      </trkpt>
      <trkpt lat="47.47726" lon="6.7481">
        <ele>316.89</ele>
        <time>2013-09-28T10:48:53Z</time>
      </trkpt>
      <trkpt lat="47.47725" lon="6.74838">
        <ele>316.89</ele>
        <time>2013-09-28T10:48:56Z</time>
      </trkpt>
      <trkpt lat="47.47723" lon="6.74865">
        <ele>317.37</ele>
        <time>2013-09-28T10:48:59Z</time>
      </trkpt>
      <trkpt lat="47.47723" lon="6.74892">
        <ele>316.41</ele>
        <time>2013-09-28T10:49:02Z</time>
      </trkpt>
      <trkpt lat="47.47722" lon="6.74919">
        <ele>316.89</ele>
        <time>2013-09-28T10:49:05Z</time>
      </trkpt>
      <trkpt lat="47.47721" lon="6.74946">
        <ele>316.41</ele>
        <time>2013-09-28T10:49:08Z</time>
      </trkpt>
      <trkpt lat="47.47719" lon="6.74982">
        <ele>316.41</ele>
        <time>2013-09-28T10:49:12Z</time>
      </trkpt>
      <trkpt lat="47.47718" lon="6.75009">
        <ele>316.89</ele>
        <time>2013-09-28T10:49:15Z</time>
      </trkpt>
      <trkpt lat="47.47717" lon="6.75036">
        <ele>316.41</ele>
        <time>2013-09-28T10:49:18Z</time>
      </trkpt>
      <trkpt lat="47.47716" lon="6.75071">
        <ele>316.89</ele>
        <time>2013-09-28T10:49:22Z</time>
      </trkpt>
      <trkpt lat="47.47715" lon="6.75098">
        <ele>316.41</ele>
        <time>2013-09-28T10:49:25Z</time>
      </trkpt>
      <trkpt lat="47.47714" lon="6.75125">
        <ele>316.89</ele>
        <time>2013-09-28T10:49:28Z</time>
      </trkpt>
      <trkpt lat="47.47714" lon="6.75152">
        <ele>316.89</ele>
        <time>2013-09-28T10:49:31Z</time>
      </trkpt>
      <trkpt lat="47.47714" lon="6.7518">
        <ele>316.89</ele>
        <time>2013-09-28T10:49:34Z</time>
      </trkpt>
      <trkpt lat="47.47712" lon="6.75208">
        <ele>316.89</ele>
        <time>2013-09-28T10:49:37Z</time>
      </trkpt>
      <trkpt lat="47.47712" lon="6.75235">
        <ele>316.89</ele>
        <time>2013-09-28T10:49:40Z</time>
      </trkpt>
      <trkpt lat="47.47712" lon="6.75262">
        <ele>316.89</ele>
        <time>2013-09-28T10:49:43Z</time>
      </trkpt>
      <trkpt lat="47.4771" lon="6.75297">
        <ele>316.89</ele>
        <time>2013-09-28T10:49:47Z</time>
      </trkpt>
      <trkpt lat="47.4771" lon="6.75325">
        <ele>316.89</ele>
        <time>2013-09-28T10:49:50Z</time>
      </trkpt>
      <trkpt lat="47.4771" lon="6.75353">
        <ele>316.41</ele>
        <time>2013-09-28T10:49:53Z</time>
      </trkpt>
      <trkpt lat="47.47709" lon="6.75382">
        <ele>316.89</ele>
        <time>2013-09-28T10:49:56Z</time>
      </trkpt>
      <trkpt lat="47.47709" lon="6.7541">
        <ele>316.89</ele>
        <time>2013-09-28T10:49:59Z</time>
      </trkpt>
      <trkpt lat="47.47708" lon="6.75438">
        <ele>316.89</ele>
        <time>2013-09-28T10:50:02Z</time>
      </trkpt>
      <trkpt lat="47.47707" lon="6.75466">
        <ele>316.89</ele>
        <time>2013-09-28T10:50:05Z</time>
      </trkpt>
      <trkpt lat="47.47706" lon="6.75493">
        <ele>316.89</ele>
        <time>2013-09-28T10:50:08Z</time>
      </trkpt>
      <trkpt lat="47.47704" lon="6.7552">
        <ele>316.41</ele>
        <time>2013-09-28T10:50:11Z</time>
      </trkpt>
      <trkpt lat="47.47703" lon="6.75548">
        <ele>316.89</ele>
        <time>2013-09-28T10:50:14Z</time>
      </trkpt>
      <trkpt lat="47.47703" lon="6.75576">
        <ele>316.89</ele>
        <time>2013-09-28T10:50:17Z</time>
      </trkpt>
      <trkpt lat="47.47703" lon="6.75604">
        <ele>316.89</ele>
        <time>2013-09-28T10:50:20Z</time>
      </trkpt>
      <trkpt lat="47.47702" lon="6.75633">
        <ele>315.45</ele>
        <time>2013-09-28T10:50:23Z</time>
      </trkpt>
      <trkpt lat="47.47699" lon="6.75666">
        <ele>316.89</ele>
        <time>2013-09-28T10:50:27Z</time>
      </trkpt>
      <trkpt lat="47.47699" lon="6.75698">
        <ele>318.33</ele>
        <time>2013-09-28T10:50:31Z</time>
      </trkpt>
      <trkpt lat="47.47699" lon="6.75726">
        <ele>318.33</ele>
        <time>2013-09-28T10:50:38Z</time>
      </trkpt>
      <trkpt lat="47.47699" lon="6.75757">
        <ele>317.85</ele>
        <time>2013-09-28T10:50:43Z</time>
      </trkpt>
      <trkpt lat="47.47699" lon="6.75787">
        <ele>317.37</ele>
        <time>2013-09-28T10:50:47Z</time>
      </trkpt>
      <trkpt lat="47.47698" lon="6.75814">
        <ele>318.33</ele>
        <time>2013-09-28T10:50:51Z</time>
      </trkpt>
      <trkpt lat="47.47695" lon="6.75843">
        <ele>317.85</ele>
        <time>2013-09-28T10:50:55Z</time>
      </trkpt>
      <trkpt lat="47.47694" lon="6.75875">
        <ele>318.33</ele>
        <time>2013-09-28T10:50:59Z</time>
      </trkpt>
      <trkpt lat="47.47693" lon="6.75909">
        <ele>318.81</ele>
        <time>2013-09-28T10:51:03Z</time>
      </trkpt>
      <trkpt lat="47.47689" lon="6.75942">
        <ele>318.81</ele>
        <time>2013-09-28T10:51:07Z</time>
      </trkpt>
      <trkpt lat="47.47679" lon="6.75969">
        <ele>319.3</ele>
        <time>2013-09-28T10:51:11Z</time>
      </trkpt>
      <trkpt lat="47.47667" lon="6.75997">
        <ele>318.81</ele>
        <time>2013-09-28T10:51:15Z</time>
      </trkpt>
      <trkpt lat="47.47662" lon="6.76031">
        <ele>318.81</ele>
        <time>2013-09-28T10:51:19Z</time>
      </trkpt>
      <trkpt lat="47.47666" lon="6.76065">
        <ele>318.81</ele>
        <time>2013-09-28T10:51:23Z</time>
      </trkpt>
      <trkpt lat="47.47677" lon="6.76088">
        <ele>318.81</ele>
        <time>2013-09-28T10:51:26Z</time>
      </trkpt>
      <trkpt lat="47.47694" lon="6.76115">
        <ele>318.81</ele>
        <time>2013-09-28T10:51:30Z</time>
      </trkpt>
      <trkpt lat="47.47707" lon="6.76133">
        <ele>317.85</ele>
        <time>2013-09-28T10:51:33Z</time>
      </trkpt>
      <trkpt lat="47.47723" lon="6.76159">
        <ele>317.37</ele>
        <time>2013-09-28T10:51:37Z</time>
      </trkpt>
      <trkpt lat="47.4774" lon="6.76183">
        <ele>318.33</ele>
        <time>2013-09-28T10:51:41Z</time>
      </trkpt>
      <trkpt lat="47.47757" lon="6.76208">
        <ele>318.81</ele>
        <time>2013-09-28T10:51:45Z</time>
      </trkpt>
      <trkpt lat="47.47772" lon="6.76234">
        <ele>318.81</ele>
        <time>2013-09-28T10:51:49Z</time>
      </trkpt>
      <trkpt lat="47.47786" lon="6.76252">
        <ele>318.81</ele>
        <time>2013-09-28T10:51:52Z</time>
      </trkpt>
      <trkpt lat="47.47803" lon="6.76262">
        <ele>318.33</ele>
        <time>2013-09-28T10:51:55Z</time>
      </trkpt>
      <trkpt lat="47.47821" lon="6.76271">
        <ele>318.33</ele>
        <time>2013-09-28T10:51:58Z</time>
      </trkpt>
      <trkpt lat="47.47837" lon="6.76285">
        <ele>318.33</ele>
        <time>2013-09-28T10:52:01Z</time>
      </trkpt>
      <trkpt lat="47.47851" lon="6.76304">
        <ele>317.85</ele>
        <time>2013-09-28T10:52:04Z</time>
      </trkpt>
      <trkpt lat="47.47866" lon="6.76332">
        <ele>318.81</ele>
        <time>2013-09-28T10:52:08Z</time>
      </trkpt>
      <trkpt lat="47.4788" lon="6.76359">
        <ele>318.33</ele>
        <time>2013-09-28T10:52:12Z</time>
      </trkpt>
      <trkpt lat="47.47894" lon="6.76386">
        <ele>318.33</ele>
        <time>2013-09-28T10:52:16Z</time>
      </trkpt>
      <trkpt lat="47.47906" lon="6.76415">
        <ele>318.81</ele>
        <time>2013-09-28T10:52:20Z</time>
      </trkpt>
      <trkpt lat="47.47916" lon="6.76446">
        <ele>318.33</ele>
        <time>2013-09-28T10:52:24Z</time>
      </trkpt>
      <trkpt lat="47.47923" lon="6.76471">
        <ele>318.33</ele>
        <time>2013-09-28T10:52:27Z</time>
      </trkpt>
      <trkpt lat="47.47931" lon="6.76504">
        <ele>318.81</ele>
        <time>2013-09-28T10:52:31Z</time>
      </trkpt>
      <trkpt lat="47.47938" lon="6.76538">
        <ele>318.81</ele>
        <time>2013-09-28T10:52:35Z</time>
      </trkpt>
      <trkpt lat="47.47944" lon="6.76564">
        <ele>319.3</ele>
        <time>2013-09-28T10:52:38Z</time>
      </trkpt>
      <trkpt lat="47.47952" lon="6.76592">
        <ele>318.81</ele>
        <time>2013-09-28T10:52:42Z</time>
      </trkpt>
      <trkpt lat="47.47966" lon="6.76611">
        <ele>316.89</ele>
        <time>2013-09-28T10:52:46Z</time>
      </trkpt>
      <trkpt lat="47.47974" lon="6.76637">
        <ele>317.85</ele>
        <time>2013-09-28T10:52:50Z</time>
      </trkpt>
      <trkpt lat="47.47978" lon="6.76663">
        <ele>318.81</ele>
        <time>2013-09-28T10:52:54Z</time>
      </trkpt>
      <trkpt lat="47.47977" lon="6.76663">
        <ele>317.85</ele>
        <time>2013-09-28T10:53:16Z</time>
      </trkpt>
      <trkpt lat="47.47969" lon="6.76637">
        <ele>319.3</ele>
        <time>2013-09-28T10:53:22Z</time>
      </trkpt>
      <trkpt lat="47.47972" lon="6.76616">
        <ele>319.78</ele>
        <time>2013-09-28T10:53:30Z</time>
      </trkpt>
      <trkpt lat="47.4799" lon="6.76604">
        <ele>320.26</ele>
        <time>2013-09-28T10:53:36Z</time>
      </trkpt>
      <trkpt lat="47.48011" lon="6.76592">
        <ele>320.26</ele>
        <time>2013-09-28T10:53:41Z</time>
      </trkpt>
      <trkpt lat="47.48029" lon="6.76579">
        <ele>320.26</ele>
        <time>2013-09-28T10:53:45Z</time>
      </trkpt>
      <trkpt lat="47.48046" lon="6.76564">
        <ele>319.78</ele>
        <time>2013-09-28T10:53:49Z</time>
      </trkpt>
      <trkpt lat="47.48064" lon="6.76547">
        <ele>319.3</ele>
        <time>2013-09-28T10:53:53Z</time>
      </trkpt>
      <trkpt lat="47.48082" lon="6.76529">
        <ele>319.78</ele>
        <time>2013-09-28T10:53:57Z</time>
      </trkpt>
      <trkpt lat="47.481" lon="6.76511">
        <ele>319.78</ele>
        <time>2013-09-28T10:54:01Z</time>
      </trkpt>
      <trkpt lat="47.48115" lon="6.76528">
        <ele>319.3</ele>
        <time>2013-09-28T10:54:06Z</time>
      </trkpt>
      <trkpt lat="47.48119" lon="6.76557">
        <ele>318.33</ele>
        <time>2013-09-28T10:54:11Z</time>
      </trkpt>
      <trkpt lat="47.48105" lon="6.76581">
        <ele>318.33</ele>
        <time>2013-09-28T10:54:15Z</time>
      </trkpt>
      <trkpt lat="47.48098" lon="6.76611">
        <ele>318.33</ele>
        <time>2013-09-28T10:54:19Z</time>
      </trkpt>
      <trkpt lat="47.48111" lon="6.76645">
        <ele>319.78</ele>
        <time>2013-09-28T10:54:23Z</time>
      </trkpt>
      <trkpt lat="47.48126" lon="6.76669">
        <ele>318.81</ele>
        <time>2013-09-28T10:54:26Z</time>
      </trkpt>
      <trkpt lat="47.48139" lon="6.7669">
        <ele>318.81</ele>
        <time>2013-09-28T10:54:29Z</time>
      </trkpt>
      <trkpt lat="47.48149" lon="6.76714">
        <ele>318.33</ele>
        <time>2013-09-28T10:54:32Z</time>
      </trkpt>
      <trkpt lat="47.48163" lon="6.76744">
        <ele>317.85</ele>
        <time>2013-09-28T10:54:36Z</time>
      </trkpt>
      <trkpt lat="47.4818" lon="6.76767">
        <ele>317.85</ele>
        <time>2013-09-28T10:54:40Z</time>
      </trkpt>
      <trkpt lat="47.482" lon="6.76784">
        <ele>318.33</ele>
        <time>2013-09-28T10:54:44Z</time>
      </trkpt>
      <trkpt lat="47.48223" lon="6.76794">
        <ele>318.33</ele>
        <time>2013-09-28T10:54:48Z</time>
      </trkpt>
      <trkpt lat="47.4824" lon="6.76803">
        <ele>318.33</ele>
        <time>2013-09-28T10:54:51Z</time>
      </trkpt>
      <trkpt lat="47.48259" lon="6.76824">
        <ele>318.81</ele>
        <time>2013-09-28T10:54:55Z</time>
      </trkpt>
      <trkpt lat="47.48274" lon="6.76847">
        <ele>318.33</ele>
        <time>2013-09-28T10:54:59Z</time>
      </trkpt>
      <trkpt lat="47.4829" lon="6.76868">
        <ele>317.85</ele>
        <time>2013-09-28T10:55:03Z</time>
      </trkpt>
      <trkpt lat="47.48309" lon="6.76886">
        <ele>318.33</ele>
        <time>2013-09-28T10:55:07Z</time>
      </trkpt>
      <trkpt lat="47.48328" lon="6.76903">
        <ele>317.85</ele>
        <time>2013-09-28T10:55:11Z</time>
      </trkpt>
      <trkpt lat="47.48349" lon="6.76916">
        <ele>317.85</ele>
        <time>2013-09-28T10:55:15Z</time>
      </trkpt>
      <trkpt lat="47.4837" lon="6.7693">
        <ele>317.85</ele>
        <time>2013-09-28T10:55:19Z</time>
      </trkpt>
      <trkpt lat="47.48392" lon="6.76943">
        <ele>318.33</ele>
        <time>2013-09-28T10:55:23Z</time>
      </trkpt>
      <trkpt lat="47.48414" lon="6.76955">
        <ele>318.33</ele>
        <time>2013-09-28T10:55:27Z</time>
      </trkpt>
      <trkpt lat="47.48434" lon="6.76964">
        <ele>317.85</ele>
        <time>2013-09-28T10:55:31Z</time>
      </trkpt>
      <trkpt lat="47.48454" lon="6.7698">
        <ele>317.85</ele>
        <time>2013-09-28T10:55:35Z</time>
      </trkpt>
      <trkpt lat="47.48475" lon="6.76993">
        <ele>317.85</ele>
        <time>2013-09-28T10:55:39Z</time>
      </trkpt>
      <trkpt lat="47.48495" lon="6.77006">
        <ele>317.85</ele>
        <time>2013-09-28T10:55:43Z</time>
      </trkpt>
      <trkpt lat="47.48515" lon="6.77021">
        <ele>317.85</ele>
        <time>2013-09-28T10:55:47Z</time>
      </trkpt>
      <trkpt lat="47.48536" lon="6.77037">
        <ele>318.81</ele>
        <time>2013-09-28T10:55:51Z</time>
      </trkpt>
      <trkpt lat="47.48557" lon="6.77049">
        <ele>319.3</ele>
        <time>2013-09-28T10:55:55Z</time>
      </trkpt>
      <trkpt lat="47.48575" lon="6.77057">
        <ele>319.3</ele>
        <time>2013-09-28T10:55:59Z</time>
      </trkpt>
      <trkpt lat="47.48595" lon="6.77067">
        <ele>319.3</ele>
        <time>2013-09-28T10:56:03Z</time>
      </trkpt>
      <trkpt lat="47.48615" lon="6.77081">
        <ele>319.3</ele>
        <time>2013-09-28T10:56:07Z</time>
      </trkpt>
      <trkpt lat="47.48634" lon="6.77093">
        <ele>319.3</ele>
        <time>2013-09-28T10:56:11Z</time>
      </trkpt>
      <trkpt lat="47.4865" lon="6.7711">
        <ele>318.33</ele>
        <time>2013-09-28T10:56:14Z</time>
      </trkpt>
      <trkpt lat="47.48665" lon="6.77128">
        <ele>318.81</ele>
        <time>2013-09-28T10:56:17Z</time>
      </trkpt>
      <trkpt lat="47.4868" lon="6.77144">
        <ele>318.33</ele>
        <time>2013-09-28T10:56:20Z</time>
      </trkpt>
      <trkpt lat="47.48699" lon="6.77164">
        <ele>318.33</ele>
        <time>2013-09-28T10:56:24Z</time>
      </trkpt>
      <trkpt lat="47.48719" lon="6.77179">
        <ele>318.81</ele>
        <time>2013-09-28T10:56:28Z</time>
      </trkpt>
      <trkpt lat="47.48739" lon="6.77196">
        <ele>318.33</ele>
        <time>2013-09-28T10:56:32Z</time>
      </trkpt>
      <trkpt lat="47.48755" lon="6.77208">
        <ele>318.81</ele>
        <time>2013-09-28T10:56:35Z</time>
      </trkpt>
      <trkpt lat="47.48772" lon="6.7722">
        <ele>318.81</ele>
        <time>2013-09-28T10:56:38Z</time>
      </trkpt>
      <trkpt lat="47.48788" lon="6.77233">
        <ele>318.33</ele>
        <time>2013-09-28T10:56:41Z</time>
      </trkpt>
      <trkpt lat="47.48804" lon="6.77245">
        <ele>318.33</ele>
        <time>2013-09-28T10:56:44Z</time>
      </trkpt>
      <trkpt lat="47.4882" lon="6.77257">
        <ele>322.18</ele>
        <time>2013-09-28T10:56:47Z</time>
      </trkpt>
      <trkpt lat="47.48842" lon="6.77273">
        <ele>319.3</ele>
        <time>2013-09-28T10:56:51Z</time>
      </trkpt>
      <trkpt lat="47.48865" lon="6.77285">
        <ele>319.3</ele>
        <time>2013-09-28T10:56:55Z</time>
      </trkpt>
      <trkpt lat="47.48883" lon="6.77291">
        <ele>318.33</ele>
        <time>2013-09-28T10:56:58Z</time>
      </trkpt>
      <trkpt lat="47.48902" lon="6.77296">
        <ele>318.81</ele>
        <time>2013-09-28T10:57:01Z</time>
      </trkpt>
      <trkpt lat="47.4892" lon="6.77304">
        <ele>318.81</ele>
        <time>2013-09-28T10:57:04Z</time>
      </trkpt>
      <trkpt lat="47.48938" lon="6.77311">
        <ele>318.33</ele>
        <time>2013-09-28T10:57:07Z</time>
      </trkpt>
      <trkpt lat="47.48956" lon="6.77318">
        <ele>318.33</ele>
        <time>2013-09-28T10:57:10Z</time>
      </trkpt>
      <trkpt lat="47.48974" lon="6.77321">
        <ele>318.33</ele>
        <time>2013-09-28T10:57:13Z</time>
      </trkpt>
      <trkpt lat="47.48992" lon="6.77322">
        <ele>318.33</ele>
        <time>2013-09-28T10:57:16Z</time>
      </trkpt>
      <trkpt lat="47.4901" lon="6.77324">
        <ele>318.81</ele>
        <time>2013-09-28T10:57:19Z</time>
      </trkpt>
      <trkpt lat="47.49028" lon="6.77325">
        <ele>318.33</ele>
        <time>2013-09-28T10:57:22Z</time>
      </trkpt>
      <trkpt lat="47.49052" lon="6.77326">
        <ele>319.3</ele>
        <time>2013-09-28T10:57:26Z</time>
      </trkpt>
      <trkpt lat="47.4907" lon="6.77327">
        <ele>317.37</ele>
        <time>2013-09-28T10:57:29Z</time>
      </trkpt>
      <trkpt lat="47.49094" lon="6.77329">
        <ele>318.81</ele>
        <time>2013-09-28T10:57:33Z</time>
      </trkpt>
      <trkpt lat="47.49115" lon="6.7733">
        <ele>318.33</ele>
        <time>2013-09-28T10:57:37Z</time>
      </trkpt>
      <trkpt lat="47.49136" lon="6.77331">
        <ele>318.33</ele>
        <time>2013-09-28T10:57:41Z</time>
      </trkpt>
      <trkpt lat="47.49158" lon="6.77332">
        <ele>317.85</ele>
        <time>2013-09-28T10:57:45Z</time>
      </trkpt>
      <trkpt lat="47.49181" lon="6.77334">
        <ele>317.85</ele>
        <time>2013-09-28T10:57:49Z</time>
      </trkpt>
      <trkpt lat="47.49203" lon="6.77336">
        <ele>317.85</ele>
        <time>2013-09-28T10:57:53Z</time>
      </trkpt>
      <trkpt lat="47.49225" lon="6.77338">
        <ele>317.85</ele>
        <time>2013-09-28T10:57:57Z</time>
      </trkpt>
      <trkpt lat="47.49247" lon="6.77336">
        <ele>317.37</ele>
        <time>2013-09-28T10:58:01Z</time>
      </trkpt>
      <trkpt lat="47.49269" lon="6.77326">
        <ele>317.37</ele>
        <time>2013-09-28T10:58:05Z</time>
      </trkpt>
      <trkpt lat="47.49288" lon="6.77327">
        <ele>317.37</ele>
        <time>2013-09-28T10:58:08Z</time>
      </trkpt>
      <trkpt lat="47.49307" lon="6.77329">
        <ele>316.41</ele>
        <time>2013-09-28T10:58:11Z</time>
      </trkpt>
      <trkpt lat="47.49325" lon="6.77333">
        <ele>316.89</ele>
        <time>2013-09-28T10:58:14Z</time>
      </trkpt>
      <trkpt lat="47.49343" lon="6.77344">
        <ele>317.85</ele>
        <time>2013-09-28T10:58:18Z</time>
      </trkpt>
      <trkpt lat="47.49363" lon="6.77347">
        <ele>317.85</ele>
        <time>2013-09-28T10:58:22Z</time>
      </trkpt>
      <trkpt lat="47.49385" lon="6.77348">
        <ele>317.37</ele>
        <time>2013-09-28T10:58:26Z</time>
      </trkpt>
      <trkpt lat="47.49406" lon="6.7735">
        <ele>317.85</ele>
        <time>2013-09-28T10:58:30Z</time>
      </trkpt>
      <trkpt lat="47.49428" lon="6.77351">
        <ele>317.85</ele>
        <time>2013-09-28T10:58:34Z</time>
      </trkpt>
      <trkpt lat="47.49449" lon="6.77352">
        <ele>318.33</ele>
        <time>2013-09-28T10:58:38Z</time>
      </trkpt>
      <trkpt lat="47.4947" lon="6.77354">
        <ele>317.85</ele>
        <time>2013-09-28T10:58:42Z</time>
      </trkpt>
      <trkpt lat="47.49491" lon="6.77356">
        <ele>317.85</ele>
        <time>2013-09-28T10:58:46Z</time>
      </trkpt>
      <trkpt lat="47.49515" lon="6.77358">
        <ele>317.85</ele>
        <time>2013-09-28T10:58:50Z</time>
      </trkpt>
      <trkpt lat="47.49534" lon="6.77359">
        <ele>317.85</ele>
        <time>2013-09-28T10:58:53Z</time>
      </trkpt>
      <trkpt lat="47.49552" lon="6.77361">
        <ele>318.81</ele>
        <time>2013-09-28T10:58:56Z</time>
      </trkpt>
      <trkpt lat="47.49571" lon="6.77362">
        <ele>317.85</ele>
        <time>2013-09-28T10:58:59Z</time>
      </trkpt>
      <trkpt lat="47.4959" lon="6.77362">
        <ele>318.81</ele>
        <time>2013-09-28T10:59:02Z</time>
      </trkpt>
      <trkpt lat="47.49608" lon="6.77359">
        <ele>318.81</ele>
        <time>2013-09-28T10:59:05Z</time>
      </trkpt>
      <trkpt lat="47.49631" lon="6.77354">
        <ele>318.81</ele>
        <time>2013-09-28T10:59:09Z</time>
      </trkpt>
      <trkpt lat="47.49654" lon="6.77348">
        <ele>318.81</ele>
        <time>2013-09-28T10:59:13Z</time>
      </trkpt>
      <trkpt lat="47.49678" lon="6.77342">
        <ele>320.26</ele>
        <time>2013-09-28T10:59:17Z</time>
      </trkpt>
      <trkpt lat="47.49701" lon="6.77336">
        <ele>318.81</ele>
        <time>2013-09-28T10:59:21Z</time>
      </trkpt>
      <trkpt lat="47.49725" lon="6.77331">
        <ele>318.81</ele>
        <time>2013-09-28T10:59:25Z</time>
      </trkpt>
      <trkpt lat="47.49747" lon="6.77317">
        <ele>318.81</ele>
        <time>2013-09-28T10:59:29Z</time>
      </trkpt>
      <trkpt lat="47.4977" lon="6.77309">
        <ele>319.3</ele>
        <time>2013-09-28T10:59:33Z</time>
      </trkpt>
      <trkpt lat="47.49788" lon="6.77308">
        <ele>318.81</ele>
        <time>2013-09-28T10:59:36Z</time>
      </trkpt>
      <trkpt lat="47.49811" lon="6.77306">
        <ele>319.3</ele>
        <time>2013-09-28T10:59:40Z</time>
      </trkpt>
      <trkpt lat="47.49831" lon="6.77304">
        <ele>319.3</ele>
        <time>2013-09-28T10:59:44Z</time>
      </trkpt>
      <trkpt lat="47.49851" lon="6.77302">
        <ele>318.81</ele>
        <time>2013-09-28T10:59:47Z</time>
      </trkpt>
      <trkpt lat="47.49874" lon="6.77298">
        <ele>319.78</ele>
        <time>2013-09-28T10:59:51Z</time>
      </trkpt>
      <trkpt lat="47.49897" lon="6.77292">
        <ele>319.78</ele>
        <time>2013-09-28T10:59:55Z</time>
      </trkpt>
      <trkpt lat="47.49918" lon="6.77282">
        <ele>319.3</ele>
        <time>2013-09-28T10:59:59Z</time>
      </trkpt>
      <trkpt lat="47.49939" lon="6.77268">
        <ele>319.78</ele>
        <time>2013-09-28T11:00:03Z</time>
      </trkpt>
      <trkpt lat="47.49959" lon="6.77255">
        <ele>319.3</ele>
        <time>2013-09-28T11:00:07Z</time>
      </trkpt>
      <trkpt lat="47.4998" lon="6.77243">
        <ele>319.3</ele>
        <time>2013-09-28T11:00:11Z</time>
      </trkpt>
      <trkpt lat="47.50002" lon="6.77233">
        <ele>319.3</ele>
        <time>2013-09-28T11:00:15Z</time>
      </trkpt>
      <trkpt lat="47.50018" lon="6.77244">
        <ele>319.78</ele>
        <time>2013-09-28T11:00:20Z</time>
      </trkpt>
      <trkpt lat="47.50024" lon="6.77277">
        <ele>320.74</ele>
        <time>2013-09-28T11:00:25Z</time>
      </trkpt>
      <trkpt lat="47.50031" lon="6.77306">
        <ele>320.74</ele>
        <time>2013-09-28T11:00:29Z</time>
      </trkpt>
      <trkpt lat="47.50037" lon="6.77338">
        <ele>321.22</ele>
        <time>2013-09-28T11:00:33Z</time>
      </trkpt>
      <trkpt lat="47.50052" lon="6.77365">
        <ele>319.78</ele>
        <time>2013-09-28T11:00:37Z</time>
      </trkpt>
      <trkpt lat="47.50066" lon="6.77386">
        <ele>319.3</ele>
        <time>2013-09-28T11:00:40Z</time>
      </trkpt>
      <trkpt lat="47.50084" lon="6.77382">
        <ele>318.81</ele>
        <time>2013-09-28T11:00:43Z</time>
      </trkpt>
      <trkpt lat="47.50103" lon="6.77376">
        <ele>318.33</ele>
        <time>2013-09-28T11:00:47Z</time>
      </trkpt>
      <trkpt lat="47.50119" lon="6.77381">
        <ele>318.33</ele>
        <time>2013-09-28T11:01:04Z</time>
      </trkpt>
      <trkpt lat="47.50118" lon="6.77377">
        <ele>319.3</ele>
        <time>2013-09-28T11:01:26Z</time>
      </trkpt>
      <trkpt lat="47.50137" lon="6.77371">
        <ele>317.85</ele>
        <time>2013-09-28T11:01:34Z</time>
      </trkpt>
      <trkpt lat="47.50156" lon="6.77375">
        <ele>317.85</ele>
        <time>2013-09-28T11:01:38Z</time>
      </trkpt>
      <trkpt lat="47.50173" lon="6.77387">
        <ele>318.33</ele>
        <time>2013-09-28T11:01:42Z</time>
      </trkpt>
      <trkpt lat="47.50191" lon="6.77397">
        <ele>317.85</ele>
        <time>2013-09-28T11:01:46Z</time>
      </trkpt>
      <trkpt lat="47.50209" lon="6.77408">
        <ele>317.85</ele>
        <time>2013-09-28T11:01:50Z</time>
      </trkpt>
      <trkpt lat="47.50229" lon="6.77422">
        <ele>317.37</ele>
        <time>2013-09-28T11:01:54Z</time>
      </trkpt>
      <trkpt lat="47.50243" lon="6.77446">
        <ele>317.85</ele>
        <time>2013-09-28T11:01:58Z</time>
      </trkpt>
      <trkpt lat="47.5026" lon="6.77463">
        <ele>317.85</ele>
        <time>2013-09-28T11:02:02Z</time>
      </trkpt>
      <trkpt lat="47.50278" lon="6.7748">
        <ele>317.85</ele>
        <time>2013-09-28T11:02:06Z</time>
      </trkpt>
      <trkpt lat="47.50298" lon="6.77497">
        <ele>317.85</ele>
        <time>2013-09-28T11:02:10Z</time>
      </trkpt>
      <trkpt lat="47.50317" lon="6.77514">
        <ele>317.85</ele>
        <time>2013-09-28T11:02:14Z</time>
      </trkpt>
      <trkpt lat="47.50334" lon="6.7753">
        <ele>318.81</ele>
        <time>2013-09-28T11:02:18Z</time>
      </trkpt>
      <trkpt lat="47.5035" lon="6.77544">
        <ele>319.78</ele>
        <time>2013-09-28T11:02:22Z</time>
      </trkpt>
      <trkpt lat="47.50367" lon="6.77555">
        <ele>319.78</ele>
        <time>2013-09-28T11:02:26Z</time>
      </trkpt>
      <trkpt lat="47.50388" lon="6.77567">
        <ele>318.81</ele>
        <time>2013-09-28T11:02:31Z</time>
      </trkpt>
      <trkpt lat="47.50404" lon="6.77585">
        <ele>319.3</ele>
        <time>2013-09-28T11:02:35Z</time>
      </trkpt>
      <trkpt lat="47.50419" lon="6.77603">
        <ele>319.3</ele>
        <time>2013-09-28T11:02:39Z</time>
      </trkpt>
      <trkpt lat="47.50434" lon="6.77623">
        <ele>319.3</ele>
        <time>2013-09-28T11:02:43Z</time>
      </trkpt>
      <trkpt lat="47.50448" lon="6.77647">
        <ele>319.3</ele>
        <time>2013-09-28T11:02:47Z</time>
      </trkpt>
      <trkpt lat="47.50461" lon="6.77673">
        <ele>318.81</ele>
        <time>2013-09-28T11:02:51Z</time>
      </trkpt>
      <trkpt lat="47.50474" lon="6.777">
        <ele>319.3</ele>
        <time>2013-09-28T11:02:55Z</time>
      </trkpt>
      <trkpt lat="47.50486" lon="6.7773">
        <ele>319.3</ele>
        <time>2013-09-28T11:02:59Z</time>
      </trkpt>
      <trkpt lat="47.50497" lon="6.77761">
        <ele>318.81</ele>
        <time>2013-09-28T11:03:03Z</time>
      </trkpt>
      <trkpt lat="47.50508" lon="6.77793">
        <ele>319.3</ele>
        <time>2013-09-28T11:03:07Z</time>
      </trkpt>
      <trkpt lat="47.50517" lon="6.77825">
        <ele>318.81</ele>
        <time>2013-09-28T11:03:11Z</time>
      </trkpt>
      <trkpt lat="47.50524" lon="6.77856">
        <ele>319.3</ele>
        <time>2013-09-28T11:03:15Z</time>
      </trkpt>
      <trkpt lat="47.50531" lon="6.77889">
        <ele>319.78</ele>
        <time>2013-09-28T11:03:19Z</time>
      </trkpt>
      <trkpt lat="47.50538" lon="6.77922">
        <ele>319.78</ele>
        <time>2013-09-28T11:03:23Z</time>
      </trkpt>
      <trkpt lat="47.50542" lon="6.77954">
        <ele>319.3</ele>
        <time>2013-09-28T11:03:27Z</time>
      </trkpt>
      <trkpt lat="47.50548" lon="6.77987">
        <ele>319.78</ele>
        <time>2013-09-28T11:03:31Z</time>
      </trkpt>
      <trkpt lat="47.50555" lon="6.78019">
        <ele>319.78</ele>
        <time>2013-09-28T11:03:35Z</time>
      </trkpt>
      <trkpt lat="47.50555" lon="6.78054">
        <ele>319.3</ele>
        <time>2013-09-28T11:03:39Z</time>
      </trkpt>
      <trkpt lat="47.5055" lon="6.78091">
        <ele>320.26</ele>
        <time>2013-09-28T11:03:43Z</time>
      </trkpt>
      <trkpt lat="47.50542" lon="6.78124">
        <ele>319.3</ele>
        <time>2013-09-28T11:03:47Z</time>
      </trkpt>
      <trkpt lat="47.50533" lon="6.78157">
        <ele>319.78</ele>
        <time>2013-09-28T11:03:51Z</time>
      </trkpt>
      <trkpt lat="47.50525" lon="6.78191">
        <ele>319.3</ele>
        <time>2013-09-28T11:03:55Z</time>
      </trkpt>
      <trkpt lat="47.50518" lon="6.78225">
        <ele>319.3</ele>
        <time>2013-09-28T11:03:59Z</time>
      </trkpt>
      <trkpt lat="47.50511" lon="6.78259">
        <ele>319.3</ele>
        <time>2013-09-28T11:04:03Z</time>
      </trkpt>
      <trkpt lat="47.50505" lon="6.78294">
        <ele>319.3</ele>
        <time>2013-09-28T11:04:07Z</time>
      </trkpt>
      <trkpt lat="47.50501" lon="6.78326">
        <ele>319.78</ele>
        <time>2013-09-28T11:04:11Z</time>
      </trkpt>
      <trkpt lat="47.50494" lon="6.78358">
        <ele>319.78</ele>
        <time>2013-09-28T11:04:15Z</time>
      </trkpt>
      <trkpt lat="47.50489" lon="6.78388">
        <ele>319.78</ele>
        <time>2013-09-28T11:04:19Z</time>
      </trkpt>
      <trkpt lat="47.50484" lon="6.78415">
        <ele>320.26</ele>
        <time>2013-09-28T11:04:23Z</time>
      </trkpt>
      <trkpt lat="47.50477" lon="6.78442">
        <ele>320.26</ele>
        <time>2013-09-28T11:04:27Z</time>
      </trkpt>
      <trkpt lat="47.5047" lon="6.78473">
        <ele>321.22</ele>
        <time>2013-09-28T11:04:31Z</time>
      </trkpt>
      <trkpt lat="47.50463" lon="6.78504">
        <ele>321.22</ele>
        <time>2013-09-28T11:04:35Z</time>
      </trkpt>
      <trkpt lat="47.50457" lon="6.78534">
        <ele>321.22</ele>
        <time>2013-09-28T11:04:39Z</time>
      </trkpt>
      <trkpt lat="47.50449" lon="6.78564">
        <ele>320.74</ele>
        <time>2013-09-28T11:04:43Z</time>
      </trkpt>
      <trkpt lat="47.50441" lon="6.78595">
        <ele>320.74</ele>
        <time>2013-09-28T11:04:48Z</time>
      </trkpt>
      <trkpt lat="47.50433" lon="6.78622">
        <ele>315.93</ele>
        <time>2013-09-28T11:04:53Z</time>
      </trkpt>
      <trkpt lat="47.50426" lon="6.78653">
        <ele>320.74</ele>
        <time>2013-09-28T11:04:59Z</time>
      </trkpt>
      <trkpt lat="47.50421" lon="6.78684">
        <ele>320.74</ele>
        <time>2013-09-28T11:05:04Z</time>
      </trkpt>
      <trkpt lat="47.50416" lon="6.78716">
        <ele>320.74</ele>
        <time>2013-09-28T11:05:09Z</time>
      </trkpt>
      <trkpt lat="47.50412" lon="6.78748">
        <ele>320.74</ele>
        <time>2013-09-28T11:05:14Z</time>
      </trkpt>
      <trkpt lat="47.50408" lon="6.78782">
        <ele>320.74</ele>
        <time>2013-09-28T11:05:19Z</time>
      </trkpt>
      <trkpt lat="47.50405" lon="6.78811">
        <ele>320.74</ele>
        <time>2013-09-28T11:05:23Z</time>
      </trkpt>
      <trkpt lat="47.50402" lon="6.78838">
        <ele>320.74</ele>
        <time>2013-09-28T11:05:27Z</time>
      </trkpt>
      <trkpt lat="47.504" lon="6.78868">
        <ele>321.22</ele>
        <time>2013-09-28T11:05:31Z</time>
      </trkpt>
      <trkpt lat="47.504" lon="6.789">
        <ele>320.74</ele>
        <time>2013-09-28T11:05:35Z</time>
      </trkpt>
      <trkpt lat="47.50401" lon="6.78932">
        <ele>321.22</ele>
        <time>2013-09-28T11:05:39Z</time>
      </trkpt>
      <trkpt lat="47.50403" lon="6.78963">
        <ele>321.22</ele>
        <time>2013-09-28T11:05:43Z</time>
      </trkpt>
      <trkpt lat="47.50406" lon="6.78996">
        <ele>321.22</ele>
        <time>2013-09-28T11:05:47Z</time>
      </trkpt>
      <trkpt lat="47.50408" lon="6.79028">
        <ele>321.22</ele>
        <time>2013-09-28T11:05:51Z</time>
      </trkpt>
      <trkpt lat="47.50411" lon="6.79059">
        <ele>321.7</ele>
        <time>2013-09-28T11:05:55Z</time>
      </trkpt>
      <trkpt lat="47.50414" lon="6.7909">
        <ele>321.22</ele>
        <time>2013-09-28T11:05:59Z</time>
      </trkpt>
      <trkpt lat="47.5042" lon="6.79119">
        <ele>321.7</ele>
        <time>2013-09-28T11:06:03Z</time>
      </trkpt>
      <trkpt lat="47.50431" lon="6.7914">
        <ele>321.7</ele>
        <time>2013-09-28T11:06:07Z</time>
      </trkpt>
      <trkpt lat="47.50442" lon="6.79165">
        <ele>321.7</ele>
        <time>2013-09-28T11:06:11Z</time>
      </trkpt>
      <trkpt lat="47.50449" lon="6.79195">
        <ele>321.7</ele>
        <time>2013-09-28T11:06:15Z</time>
      </trkpt>
      <trkpt lat="47.50454" lon="6.79225">
        <ele>321.7</ele>
        <time>2013-09-28T11:06:19Z</time>
      </trkpt>
      <trkpt lat="47.50459" lon="6.79255">
        <ele>322.18</ele>
        <time>2013-09-28T11:06:23Z</time>
      </trkpt>
      <trkpt lat="47.50465" lon="6.79285">
        <ele>322.18</ele>
        <time>2013-09-28T11:06:27Z</time>
      </trkpt>
      <trkpt lat="47.5047" lon="6.79315">
        <ele>322.18</ele>
        <time>2013-09-28T11:06:31Z</time>
      </trkpt>
      <trkpt lat="47.50473" lon="6.79344">
        <ele>322.18</ele>
        <time>2013-09-28T11:06:35Z</time>
      </trkpt>
      <trkpt lat="47.50477" lon="6.79372">
        <ele>321.7</ele>
        <time>2013-09-28T11:06:39Z</time>
      </trkpt>
      <trkpt lat="47.50481" lon="6.79401">
        <ele>322.18</ele>
        <time>2013-09-28T11:06:43Z</time>
      </trkpt>
      <trkpt lat="47.50484" lon="6.7943">
        <ele>322.18</ele>
        <time>2013-09-28T11:06:47Z</time>
      </trkpt>
      <trkpt lat="47.50481" lon="6.79458">
        <ele>321.22</ele>
        <time>2013-09-28T11:06:51Z</time>
      </trkpt>
      <trkpt lat="47.50482" lon="6.7949">
        <ele>321.7</ele>
        <time>2013-09-28T11:06:56Z</time>
      </trkpt>
      <trkpt lat="47.50485" lon="6.79523">
        <ele>321.7</ele>
        <time>2013-09-28T11:07:01Z</time>
      </trkpt>
      <trkpt lat="47.50489" lon="6.79552">
        <ele>321.7</ele>
        <time>2013-09-28T11:07:05Z</time>
      </trkpt>
      <trkpt lat="47.50493" lon="6.79581">
        <ele>322.18</ele>
        <time>2013-09-28T11:07:09Z</time>
      </trkpt>
      <trkpt lat="47.50498" lon="6.79612">
        <ele>321.7</ele>
        <time>2013-09-28T11:07:14Z</time>
      </trkpt>
      <trkpt lat="47.50509" lon="6.7961">
        <ele>321.22</ele>
        <time>2013-09-28T11:08:21Z</time>
      </trkpt>
      <trkpt lat="47.50526" lon="6.79607">
        <ele>320.74</ele>
        <time>2013-09-28T11:08:53Z</time>
      </trkpt>
      <trkpt lat="47.50543" lon="6.79618">
        <ele>320.26</ele>
        <time>2013-09-28T11:08:58Z</time>
      </trkpt>
      <trkpt lat="47.50561" lon="6.79608">
        <ele>319.78</ele>
        <time>2013-09-28T11:09:03Z</time>
      </trkpt>
      <trkpt lat="47.50571" lon="6.79579">
        <ele>319.78</ele>
        <time>2013-09-28T11:09:09Z</time>
      </trkpt>
      <trkpt lat="47.5057" lon="6.79552">
        <ele>320.26</ele>
        <time>2013-09-28T11:09:14Z</time>
      </trkpt>
      <trkpt lat="47.50571" lon="6.79525">
        <ele>320.74</ele>
        <time>2013-09-28T11:09:21Z</time>
      </trkpt>
      <trkpt lat="47.50583" lon="6.79502">
        <ele>321.22</ele>
        <time>2013-09-28T11:09:27Z</time>
      </trkpt>
      <trkpt lat="47.50588" lon="6.79473">
        <ele>321.7</ele>
        <time>2013-09-28T11:09:32Z</time>
      </trkpt>
      <trkpt lat="47.50603" lon="6.79449">
        <ele>321.7</ele>
        <time>2013-09-28T11:09:37Z</time>
      </trkpt>
      <trkpt lat="47.50619" lon="6.79429">
        <ele>321.7</ele>
        <time>2013-09-28T11:09:42Z</time>
      </trkpt>
      <trkpt lat="47.50637" lon="6.79415">
        <ele>321.7</ele>
        <time>2013-09-28T11:09:48Z</time>
      </trkpt>
      <trkpt lat="47.50651" lon="6.794">
        <ele>321.7</ele>
        <time>2013-09-28T11:09:57Z</time>
      </trkpt>
      <trkpt lat="47.50668" lon="6.7938">
        <ele>321.7</ele>
        <time>2013-09-28T11:10:03Z</time>
      </trkpt>
      <trkpt lat="47.50685" lon="6.79361">
        <ele>322.18</ele>
        <time>2013-09-28T11:10:08Z</time>
      </trkpt>
      <trkpt lat="47.50703" lon="6.79341">
        <ele>322.66</ele>
        <time>2013-09-28T11:10:13Z</time>
      </trkpt>
      <trkpt lat="47.5072" lon="6.79326">
        <ele>323.14</ele>
        <time>2013-09-28T11:10:17Z</time>
      </trkpt>
      <trkpt lat="47.50735" lon="6.79309">
        <ele>323.14</ele>
        <time>2013-09-28T11:10:21Z</time>
      </trkpt>
      <trkpt lat="47.50739" lon="6.79286">
        <ele>320.74</ele>
        <time>2013-09-28T11:10:29Z</time>
      </trkpt>
      <trkpt lat="47.50746" lon="6.79262">
        <ele>320.26</ele>
        <time>2013-09-28T11:10:37Z</time>
      </trkpt>
      <trkpt lat="47.50742" lon="6.79254">
        <ele>321.22</ele>
        <time>2013-09-28T11:18:25Z</time>
      </trkpt>
      <trkpt lat="47.50752" lon="6.79263">
        <ele>320.74</ele>
        <time>2013-09-28T11:20:31Z</time>
      </trkpt>
      <trkpt lat="47.50754" lon="6.79291">
        <ele>320.74</ele>
        <time>2013-09-28T11:20:37Z</time>
      </trkpt>
      <trkpt lat="47.50746" lon="6.79323">
        <ele>321.7</ele>
        <time>2013-09-28T11:20:42Z</time>
      </trkpt>
      <trkpt lat="47.50728" lon="6.79342">
        <ele>321.7</ele>
        <time>2013-09-28T11:20:46Z</time>
      </trkpt>
      <trkpt lat="47.50704" lon="6.79358">
        <ele>322.18</ele>
        <time>2013-09-28T11:20:50Z</time>
      </trkpt>
      <trkpt lat="47.50686" lon="6.79373">
        <ele>323.14</ele>
        <time>2013-09-28T11:20:54Z</time>
      </trkpt>
      <trkpt lat="47.50667" lon="6.79387">
        <ele>322.66</ele>
        <time>2013-09-28T11:20:58Z</time>
      </trkpt>
      <trkpt lat="47.50649" lon="6.79407">
        <ele>322.66</ele>
        <time>2013-09-28T11:21:02Z</time>
      </trkpt>
      <trkpt lat="47.50631" lon="6.79428">
        <ele>321.7</ele>
        <time>2013-09-28T11:21:06Z</time>
      </trkpt>
      <trkpt lat="47.50613" lon="6.79447">
        <ele>322.66</ele>
        <time>2013-09-28T11:21:10Z</time>
      </trkpt>
      <trkpt lat="47.50597" lon="6.79471">
        <ele>322.66</ele>
        <time>2013-09-28T11:21:14Z</time>
      </trkpt>
      <trkpt lat="47.50585" lon="6.79498">
        <ele>322.66</ele>
        <time>2013-09-28T11:21:18Z</time>
      </trkpt>
      <trkpt lat="47.50576" lon="6.79525">
        <ele>321.22</ele>
        <time>2013-09-28T11:21:22Z</time>
      </trkpt>
      <trkpt lat="47.50573" lon="6.79555">
        <ele>321.7</ele>
        <time>2013-09-28T11:21:26Z</time>
      </trkpt>
      <trkpt lat="47.50575" lon="6.79584">
        <ele>321.22</ele>
        <time>2013-09-28T11:21:30Z</time>
      </trkpt>
      <trkpt lat="47.50569" lon="6.79609">
        <ele>321.22</ele>
        <time>2013-09-28T11:21:34Z</time>
      </trkpt>
      <trkpt lat="47.50548" lon="6.79619">
        <ele>321.7</ele>
        <time>2013-09-28T11:21:38Z</time>
      </trkpt>
      <trkpt lat="47.50528" lon="6.79607">
        <ele>321.7</ele>
        <time>2013-09-28T11:21:42Z</time>
      </trkpt>
      <trkpt lat="47.50506" lon="6.79614">
        <ele>322.66</ele>
        <time>2013-09-28T11:21:47Z</time>
      </trkpt>
      <trkpt lat="47.50504" lon="6.79642">
        <ele>323.14</ele>
        <time>2013-09-28T11:21:52Z</time>
      </trkpt>
      <trkpt lat="47.50507" lon="6.79672">
        <ele>323.14</ele>
        <time>2013-09-28T11:21:56Z</time>
      </trkpt>
      <trkpt lat="47.5051" lon="6.79703">
        <ele>323.14</ele>
        <time>2013-09-28T11:22:00Z</time>
      </trkpt>
      <trkpt lat="47.50514" lon="6.79734">
        <ele>323.14</ele>
        <time>2013-09-28T11:22:04Z</time>
      </trkpt>
      <trkpt lat="47.50516" lon="6.79765">
        <ele>323.14</ele>
        <time>2013-09-28T11:22:08Z</time>
      </trkpt>
      <trkpt lat="47.50518" lon="6.79794">
        <ele>323.14</ele>
        <time>2013-09-28T11:22:12Z</time>
      </trkpt>
      <trkpt lat="47.5052" lon="6.79821">
        <ele>323.14</ele>
        <time>2013-09-28T11:22:16Z</time>
      </trkpt>
      <trkpt lat="47.5052" lon="6.79852">
        <ele>324.1</ele>
        <time>2013-09-28T11:22:21Z</time>
      </trkpt>
      <trkpt lat="47.50519" lon="6.79881">
        <ele>324.1</ele>
        <time>2013-09-28T11:22:25Z</time>
      </trkpt>
      <trkpt lat="47.50521" lon="6.79913">
        <ele>324.58</ele>
        <time>2013-09-28T11:22:29Z</time>
      </trkpt>
      <trkpt lat="47.50519" lon="6.79945">
        <ele>324.1</ele>
        <time>2013-09-28T11:22:33Z</time>
      </trkpt>
      <trkpt lat="47.50517" lon="6.79979">
        <ele>323.62</ele>
        <time>2013-09-28T11:22:37Z</time>
      </trkpt>
      <trkpt lat="47.50515" lon="6.80012">
        <ele>324.1</ele>
        <time>2013-09-28T11:22:41Z</time>
      </trkpt>
      <trkpt lat="47.50514" lon="6.80045">
        <ele>323.62</ele>
        <time>2013-09-28T11:22:45Z</time>
      </trkpt>
      <trkpt lat="47.50513" lon="6.8008">
        <ele>324.1</ele>
        <time>2013-09-28T11:22:49Z</time>
      </trkpt>
      <trkpt lat="47.50511" lon="6.80116">
        <ele>324.1</ele>
        <time>2013-09-28T11:22:53Z</time>
      </trkpt>
      <trkpt lat="47.50509" lon="6.80152">
        <ele>324.1</ele>
        <time>2013-09-28T11:22:57Z</time>
      </trkpt>
      <trkpt lat="47.50507" lon="6.80179">
        <ele>324.1</ele>
        <time>2013-09-28T11:23:00Z</time>
      </trkpt>
      <trkpt lat="47.50505" lon="6.80214">
        <ele>323.62</ele>
        <time>2013-09-28T11:23:04Z</time>
      </trkpt>
      <trkpt lat="47.50504" lon="6.80245">
        <ele>324.1</ele>
        <time>2013-09-28T11:23:08Z</time>
      </trkpt>
      <trkpt lat="47.50502" lon="6.80279">
        <ele>323.62</ele>
        <time>2013-09-28T11:23:12Z</time>
      </trkpt>
      <trkpt lat="47.50501" lon="6.80313">
        <ele>323.62</ele>
        <time>2013-09-28T11:23:16Z</time>
      </trkpt>
      <trkpt lat="47.50503" lon="6.80347">
        <ele>323.62</ele>
        <time>2013-09-28T11:23:20Z</time>
      </trkpt>
      <trkpt lat="47.50504" lon="6.80379">
        <ele>323.14</ele>
        <time>2013-09-28T11:23:24Z</time>
      </trkpt>
      <trkpt lat="47.50507" lon="6.80405">
        <ele>323.62</ele>
        <time>2013-09-28T11:23:28Z</time>
      </trkpt>
      <trkpt lat="47.50528" lon="6.80409">
        <ele>322.66</ele>
        <time>2013-09-28T11:23:33Z</time>
      </trkpt>
      <trkpt lat="47.50543" lon="6.80427">
        <ele>325.54</ele>
        <time>2013-09-28T11:23:39Z</time>
      </trkpt>
      <trkpt lat="47.50546" lon="6.8045">
        <ele>327.47</ele>
        <time>2013-09-28T11:23:46Z</time>
      </trkpt>
      <trkpt lat="47.50563" lon="6.8045">
        <ele>328.43</ele>
        <time>2013-09-28T11:23:52Z</time>
      </trkpt>
      <trkpt lat="47.50568" lon="6.80478">
        <ele>327.47</ele>
        <time>2013-09-28T11:23:58Z</time>
      </trkpt>
      <trkpt lat="47.50551" lon="6.80491">
        <ele>327.47</ele>
        <time>2013-09-28T11:24:04Z</time>
      </trkpt>
      <trkpt lat="47.50526" lon="6.80489">
        <ele>326.99</ele>
        <time>2013-09-28T11:24:10Z</time>
      </trkpt>
      <trkpt lat="47.50504" lon="6.80489">
        <ele>327.47</ele>
        <time>2013-09-28T11:24:15Z</time>
      </trkpt>
      <trkpt lat="47.50483" lon="6.80487">
        <ele>327.47</ele>
        <time>2013-09-28T11:24:20Z</time>
      </trkpt>
      <trkpt lat="47.50463" lon="6.80486">
        <ele>327.47</ele>
        <time>2013-09-28T11:24:25Z</time>
      </trkpt>
      <trkpt lat="47.5045" lon="6.80469">
        <ele>324.58</ele>
        <time>2013-09-28T11:24:31Z</time>
      </trkpt>
      <trkpt lat="47.50437" lon="6.8048">
        <ele>324.1</ele>
        <time>2013-09-28T11:24:38Z</time>
      </trkpt>
      <trkpt lat="47.50435" lon="6.80515">
        <ele>324.1</ele>
        <time>2013-09-28T11:24:43Z</time>
      </trkpt>
      <trkpt lat="47.50441" lon="6.80566">
        <ele>323.62</ele>
        <time>2013-09-28T11:24:47Z</time>
      </trkpt>
      <trkpt lat="47.50457" lon="6.80619">
        <ele>323.62</ele>
        <time>2013-09-28T11:24:51Z</time>
      </trkpt>
      <trkpt lat="47.50458" lon="6.80656">
        <ele>324.1</ele>
        <time>2013-09-28T11:24:55Z</time>
      </trkpt>
      <trkpt lat="47.50458" lon="6.80691">
        <ele>324.1</ele>
        <time>2013-09-28T11:24:59Z</time>
      </trkpt>
      <trkpt lat="47.50456" lon="6.80718">
        <ele>324.58</ele>
        <time>2013-09-28T11:25:02Z</time>
      </trkpt>
      <trkpt lat="47.50455" lon="6.80753">
        <ele>324.58</ele>
        <time>2013-09-28T11:25:06Z</time>
      </trkpt>
      <trkpt lat="47.50452" lon="6.80787">
        <ele>324.58</ele>
        <time>2013-09-28T11:25:10Z</time>
      </trkpt>
      <trkpt lat="47.50448" lon="6.80822">
        <ele>325.54</ele>
        <time>2013-09-28T11:25:14Z</time>
      </trkpt>
      <trkpt lat="47.5045" lon="6.80848">
        <ele>325.06</ele>
        <time>2013-09-28T11:25:17Z</time>
      </trkpt>
      <trkpt lat="47.50452" lon="6.80877">
        <ele>325.06</ele>
        <time>2013-09-28T11:25:20Z</time>
      </trkpt>
      <trkpt lat="47.50451" lon="6.80906">
        <ele>324.58</ele>
        <time>2013-09-28T11:25:23Z</time>
      </trkpt>
      <trkpt lat="47.5045" lon="6.80934">
        <ele>324.58</ele>
        <time>2013-09-28T11:25:26Z</time>
      </trkpt>
      <trkpt lat="47.50448" lon="6.80962">
        <ele>324.58</ele>
        <time>2013-09-28T11:25:29Z</time>
      </trkpt>
      <trkpt lat="47.50446" lon="6.8099">
        <ele>324.1</ele>
        <time>2013-09-28T11:25:32Z</time>
      </trkpt>
      <trkpt lat="47.50444" lon="6.81018">
        <ele>324.1</ele>
        <time>2013-09-28T11:25:35Z</time>
      </trkpt>
      <trkpt lat="47.50443" lon="6.81046">
        <ele>324.58</ele>
        <time>2013-09-28T11:25:38Z</time>
      </trkpt>
      <trkpt lat="47.50441" lon="6.8108">
        <ele>324.1</ele>
        <time>2013-09-28T11:25:42Z</time>
      </trkpt>
      <trkpt lat="47.5044" lon="6.81114">
        <ele>324.1</ele>
        <time>2013-09-28T11:25:46Z</time>
      </trkpt>
      <trkpt lat="47.50439" lon="6.81147">
        <ele>324.58</ele>
        <time>2013-09-28T11:25:50Z</time>
      </trkpt>
      <trkpt lat="47.50438" lon="6.81178">
        <ele>324.58</ele>
        <time>2013-09-28T11:25:54Z</time>
      </trkpt>
      <trkpt lat="47.50436" lon="6.81209">
        <ele>325.54</ele>
        <time>2013-09-28T11:25:58Z</time>
      </trkpt>
      <trkpt lat="47.50431" lon="6.81237">
        <ele>325.54</ele>
        <time>2013-09-28T11:26:02Z</time>
      </trkpt>
      <trkpt lat="47.50426" lon="6.81265">
        <ele>325.06</ele>
        <time>2013-09-28T11:26:06Z</time>
      </trkpt>
      <trkpt lat="47.50422" lon="6.81297">
        <ele>324.58</ele>
        <time>2013-09-28T11:26:10Z</time>
      </trkpt>
      <trkpt lat="47.50419" lon="6.81329">
        <ele>324.58</ele>
        <time>2013-09-28T11:26:14Z</time>
      </trkpt>
      <trkpt lat="47.50417" lon="6.81362">
        <ele>325.06</ele>
        <time>2013-09-28T11:26:18Z</time>
      </trkpt>
      <trkpt lat="47.50417" lon="6.81395">
        <ele>325.06</ele>
        <time>2013-09-28T11:26:22Z</time>
      </trkpt>
      <trkpt lat="47.50414" lon="6.81428">
        <ele>324.58</ele>
        <time>2013-09-28T11:26:26Z</time>
      </trkpt>
      <trkpt lat="47.50411" lon="6.8146">
        <ele>325.06</ele>
        <time>2013-09-28T11:26:30Z</time>
      </trkpt>
      <trkpt lat="47.50409" lon="6.81492">
        <ele>324.58</ele>
        <time>2013-09-28T11:26:34Z</time>
      </trkpt>
      <trkpt lat="47.50408" lon="6.81524">
        <ele>325.06</ele>
        <time>2013-09-28T11:26:38Z</time>
      </trkpt>
      <trkpt lat="47.50407" lon="6.81556">
        <ele>324.58</ele>
        <time>2013-09-28T11:26:42Z</time>
      </trkpt>
      <trkpt lat="47.50406" lon="6.81589">
        <ele>324.58</ele>
        <time>2013-09-28T11:26:46Z</time>
      </trkpt>
      <trkpt lat="47.50404" lon="6.81623">
        <ele>325.06</ele>
        <time>2013-09-28T11:26:50Z</time>
      </trkpt>
      <trkpt lat="47.50402" lon="6.81651">
        <ele>325.06</ele>
        <time>2013-09-28T11:26:53Z</time>
      </trkpt>
      <trkpt lat="47.50399" lon="6.8168">
        <ele>324.58</ele>
        <time>2013-09-28T11:26:56Z</time>
      </trkpt>
      <trkpt lat="47.50396" lon="6.81709">
        <ele>324.58</ele>
        <time>2013-09-28T11:26:59Z</time>
      </trkpt>
      <trkpt lat="47.50393" lon="6.81737">
        <ele>325.06</ele>
        <time>2013-09-28T11:27:02Z</time>
      </trkpt>
      <trkpt lat="47.50391" lon="6.81766">
        <ele>324.58</ele>
        <time>2013-09-28T11:27:05Z</time>
      </trkpt>
      <trkpt lat="47.5039" lon="6.81795">
        <ele>325.06</ele>
        <time>2013-09-28T11:27:08Z</time>
      </trkpt>
      <trkpt lat="47.50388" lon="6.81824">
        <ele>324.58</ele>
        <time>2013-09-28T11:27:11Z</time>
      </trkpt>
      <trkpt lat="47.50386" lon="6.81853">
        <ele>325.06</ele>
        <time>2013-09-28T11:27:14Z</time>
      </trkpt>
      <trkpt lat="47.50383" lon="6.81882">
        <ele>324.58</ele>
        <time>2013-09-28T11:27:17Z</time>
      </trkpt>
      <trkpt lat="47.5038" lon="6.81913">
        <ele>324.58</ele>
        <time>2013-09-28T11:27:20Z</time>
      </trkpt>
      <trkpt lat="47.50378" lon="6.81942">
        <ele>325.06</ele>
        <time>2013-09-28T11:27:23Z</time>
      </trkpt>
      <trkpt lat="47.50375" lon="6.8197">
        <ele>324.58</ele>
        <time>2013-09-28T11:27:26Z</time>
      </trkpt>
      <trkpt lat="47.50373" lon="6.81999">
        <ele>324.58</ele>
        <time>2013-09-28T11:27:29Z</time>
      </trkpt>
      <trkpt lat="47.5037" lon="6.82029">
        <ele>324.58</ele>
        <time>2013-09-28T11:27:32Z</time>
      </trkpt>
      <trkpt lat="47.50368" lon="6.82058">
        <ele>325.06</ele>
        <time>2013-09-28T11:27:35Z</time>
      </trkpt>
      <trkpt lat="47.50366" lon="6.82087">
        <ele>324.58</ele>
        <time>2013-09-28T11:27:38Z</time>
      </trkpt>
      <trkpt lat="47.50364" lon="6.82117">
        <ele>324.58</ele>
        <time>2013-09-28T11:27:41Z</time>
      </trkpt>
      <trkpt lat="47.50363" lon="6.82145">
        <ele>325.54</ele>
        <time>2013-09-28T11:27:44Z</time>
      </trkpt>
      <trkpt lat="47.5036" lon="6.82173">
        <ele>325.06</ele>
        <time>2013-09-28T11:27:47Z</time>
      </trkpt>
      <trkpt lat="47.50357" lon="6.82202">
        <ele>325.54</ele>
        <time>2013-09-28T11:27:50Z</time>
      </trkpt>
      <trkpt lat="47.50356" lon="6.82231">
        <ele>325.06</ele>
        <time>2013-09-28T11:27:53Z</time>
      </trkpt>
      <trkpt lat="47.50353" lon="6.8226">
        <ele>324.1</ele>
        <time>2013-09-28T11:27:56Z</time>
      </trkpt>
      <trkpt lat="47.5035" lon="6.8229">
        <ele>325.06</ele>
        <time>2013-09-28T11:27:59Z</time>
      </trkpt>
      <trkpt lat="47.50348" lon="6.8232">
        <ele>324.58</ele>
        <time>2013-09-28T11:28:02Z</time>
      </trkpt>
      <trkpt lat="47.50348" lon="6.82349">
        <ele>325.06</ele>
        <time>2013-09-28T11:28:05Z</time>
      </trkpt>
      <trkpt lat="47.50349" lon="6.82379">
        <ele>325.06</ele>
        <time>2013-09-28T11:28:08Z</time>
      </trkpt>
      <trkpt lat="47.50355" lon="6.82406">
        <ele>325.06</ele>
        <time>2013-09-28T11:28:11Z</time>
      </trkpt>
      <trkpt lat="47.50367" lon="6.82437">
        <ele>325.06</ele>
        <time>2013-09-28T11:28:15Z</time>
      </trkpt>
      <trkpt lat="47.50374" lon="6.82463">
        <ele>325.06</ele>
        <time>2013-09-28T11:28:19Z</time>
      </trkpt>
      <trkpt lat="47.50377" lon="6.82495">
        <ele>325.06</ele>
        <time>2013-09-28T11:28:24Z</time>
      </trkpt>
      <trkpt lat="47.50377" lon="6.82528">
        <ele>325.06</ele>
        <time>2013-09-28T11:28:29Z</time>
      </trkpt>
      <trkpt lat="47.50356" lon="6.82554">
        <ele>325.06</ele>
        <time>2013-09-28T11:28:34Z</time>
      </trkpt>
      <trkpt lat="47.50348" lon="6.82582">
        <ele>325.06</ele>
        <time>2013-09-28T11:28:38Z</time>
      </trkpt>
      <trkpt lat="47.50345" lon="6.82613">
        <ele>325.06</ele>
        <time>2013-09-28T11:28:42Z</time>
      </trkpt>
      <trkpt lat="47.50345" lon="6.82644">
        <ele>325.06</ele>
        <time>2013-09-28T11:28:46Z</time>
      </trkpt>
      <trkpt lat="47.50343" lon="6.82676">
        <ele>325.54</ele>
        <time>2013-09-28T11:28:50Z</time>
      </trkpt>
      <trkpt lat="47.50345" lon="6.8271">
        <ele>325.54</ele>
        <time>2013-09-28T11:28:54Z</time>
      </trkpt>
      <trkpt lat="47.50347" lon="6.82748">
        <ele>325.54</ele>
        <time>2013-09-28T11:28:58Z</time>
      </trkpt>
      <trkpt lat="47.50353" lon="6.82785">
        <ele>325.54</ele>
        <time>2013-09-28T11:29:02Z</time>
      </trkpt>
      <trkpt lat="47.50358" lon="6.82812">
        <ele>325.54</ele>
        <time>2013-09-28T11:29:05Z</time>
      </trkpt>
      <trkpt lat="47.50365" lon="6.8284">
        <ele>325.54</ele>
        <time>2013-09-28T11:29:08Z</time>
      </trkpt>
      <trkpt lat="47.50372" lon="6.82868">
        <ele>325.54</ele>
        <time>2013-09-28T11:29:11Z</time>
      </trkpt>
      <trkpt lat="47.50376" lon="6.82896">
        <ele>325.54</ele>
        <time>2013-09-28T11:29:14Z</time>
      </trkpt>
      <trkpt lat="47.5038" lon="6.82924">
        <ele>326.02</ele>
        <time>2013-09-28T11:29:17Z</time>
      </trkpt>
      <trkpt lat="47.50384" lon="6.82952">
        <ele>325.54</ele>
        <time>2013-09-28T11:29:20Z</time>
      </trkpt>
      <trkpt lat="47.50388" lon="6.82979">
        <ele>325.54</ele>
        <time>2013-09-28T11:29:23Z</time>
      </trkpt>
      <trkpt lat="47.50392" lon="6.83008">
        <ele>326.02</ele>
        <time>2013-09-28T11:29:26Z</time>
      </trkpt>
      <trkpt lat="47.50396" lon="6.83037">
        <ele>325.54</ele>
        <time>2013-09-28T11:29:29Z</time>
      </trkpt>
      <trkpt lat="47.50401" lon="6.83066">
        <ele>326.02</ele>
        <time>2013-09-28T11:29:32Z</time>
      </trkpt>
      <trkpt lat="47.50406" lon="6.83095">
        <ele>318.81</ele>
        <time>2013-09-28T11:29:35Z</time>
      </trkpt>
      <trkpt lat="47.5041" lon="6.83123">
        <ele>325.54</ele>
        <time>2013-09-28T11:29:38Z</time>
      </trkpt>
      <trkpt lat="47.50414" lon="6.83152">
        <ele>325.54</ele>
        <time>2013-09-28T11:29:41Z</time>
      </trkpt>
      <trkpt lat="47.50422" lon="6.8318">
        <ele>326.5</ele>
        <time>2013-09-28T11:29:44Z</time>
      </trkpt>
      <trkpt lat="47.50429" lon="6.83207">
        <ele>326.02</ele>
        <time>2013-09-28T11:29:47Z</time>
      </trkpt>
      <trkpt lat="47.50435" lon="6.83235">
        <ele>326.02</ele>
        <time>2013-09-28T11:29:50Z</time>
      </trkpt>
      <trkpt lat="47.50441" lon="6.83262">
        <ele>326.02</ele>
        <time>2013-09-28T11:29:53Z</time>
      </trkpt>
      <trkpt lat="47.50451" lon="6.83287">
        <ele>324.58</ele>
        <time>2013-09-28T11:29:56Z</time>
      </trkpt>
      <trkpt lat="47.50467" lon="6.83308">
        <ele>324.1</ele>
        <time>2013-09-28T11:29:59Z</time>
      </trkpt>
      <trkpt lat="47.50481" lon="6.83335">
        <ele>324.1</ele>
        <time>2013-09-28T11:30:02Z</time>
      </trkpt>
      <trkpt lat="47.50483" lon="6.83361">
        <ele>325.06</ele>
        <time>2013-09-28T11:30:05Z</time>
      </trkpt>
      <trkpt lat="47.50474" lon="6.83389">
        <ele>325.54</ele>
        <time>2013-09-28T11:30:09Z</time>
      </trkpt>
      <trkpt lat="47.50473" lon="6.83419">
        <ele>325.54</ele>
        <time>2013-09-28T11:30:13Z</time>
      </trkpt>
      <trkpt lat="47.5048" lon="6.83452">
        <ele>325.54</ele>
        <time>2013-09-28T11:30:17Z</time>
      </trkpt>
      <trkpt lat="47.50487" lon="6.83479">
        <ele>324.58</ele>
        <time>2013-09-28T11:30:20Z</time>
      </trkpt>
      <trkpt lat="47.50494" lon="6.83506">
        <ele>320.74</ele>
        <time>2013-09-28T11:30:23Z</time>
      </trkpt>
      <trkpt lat="47.50501" lon="6.83533">
        <ele>325.54</ele>
        <time>2013-09-28T11:30:26Z</time>
      </trkpt>
      <trkpt lat="47.50509" lon="6.83559">
        <ele>325.54</ele>
        <time>2013-09-28T11:30:29Z</time>
      </trkpt>
      <trkpt lat="47.50517" lon="6.83584">
        <ele>325.54</ele>
        <time>2013-09-28T11:30:32Z</time>
      </trkpt>
      <trkpt lat="47.50524" lon="6.8361">
        <ele>326.02</ele>
        <time>2013-09-28T11:30:35Z</time>
      </trkpt>
      <trkpt lat="47.50532" lon="6.83636">
        <ele>326.02</ele>
        <time>2013-09-28T11:30:38Z</time>
      </trkpt>
      <trkpt lat="47.50541" lon="6.83663">
        <ele>326.02</ele>
        <time>2013-09-28T11:30:41Z</time>
      </trkpt>
      <trkpt lat="47.50549" lon="6.83689">
        <ele>326.02</ele>
        <time>2013-09-28T11:30:44Z</time>
      </trkpt>
      <trkpt lat="47.50556" lon="6.83717">
        <ele>325.54</ele>
        <time>2013-09-28T11:30:47Z</time>
      </trkpt>
      <trkpt lat="47.50562" lon="6.83746">
        <ele>326.02</ele>
        <time>2013-09-28T11:30:50Z</time>
      </trkpt>
      <trkpt lat="47.50568" lon="6.83774">
        <ele>326.5</ele>
        <time>2013-09-28T11:30:53Z</time>
      </trkpt>
      <trkpt lat="47.50573" lon="6.83802">
        <ele>326.5</ele>
        <time>2013-09-28T11:30:56Z</time>
      </trkpt>
      <trkpt lat="47.50579" lon="6.83831">
        <ele>326.5</ele>
        <time>2013-09-28T11:30:59Z</time>
      </trkpt>
      <trkpt lat="47.50586" lon="6.83859">
        <ele>326.5</ele>
        <time>2013-09-28T11:31:02Z</time>
      </trkpt>
      <trkpt lat="47.50592" lon="6.83888">
        <ele>326.5</ele>
        <time>2013-09-28T11:31:05Z</time>
      </trkpt>
      <trkpt lat="47.50599" lon="6.83915">
        <ele>326.99</ele>
        <time>2013-09-28T11:31:08Z</time>
      </trkpt>
      <trkpt lat="47.50608" lon="6.83942">
        <ele>326.02</ele>
        <time>2013-09-28T11:31:11Z</time>
      </trkpt>
      <trkpt lat="47.50617" lon="6.83969">
        <ele>326.02</ele>
        <time>2013-09-28T11:31:14Z</time>
      </trkpt>
      <trkpt lat="47.50624" lon="6.83998">
        <ele>325.54</ele>
        <time>2013-09-28T11:31:17Z</time>
      </trkpt>
      <trkpt lat="47.50631" lon="6.84027">
        <ele>325.54</ele>
        <time>2013-09-28T11:31:20Z</time>
      </trkpt>
      <trkpt lat="47.50637" lon="6.84055">
        <ele>326.02</ele>
        <time>2013-09-28T11:31:23Z</time>
      </trkpt>
      <trkpt lat="47.50645" lon="6.84081">
        <ele>325.54</ele>
        <time>2013-09-28T11:31:26Z</time>
      </trkpt>
      <trkpt lat="47.50653" lon="6.84107">
        <ele>325.54</ele>
        <time>2013-09-28T11:31:29Z</time>
      </trkpt>
      <trkpt lat="47.50667" lon="6.84124">
        <ele>324.58</ele>
        <time>2013-09-28T11:31:32Z</time>
      </trkpt>
      <trkpt lat="47.50684" lon="6.84142">
        <ele>324.1</ele>
        <time>2013-09-28T11:31:35Z</time>
      </trkpt>
      <trkpt lat="47.507" lon="6.84171">
        <ele>323.62</ele>
        <time>2013-09-28T11:31:38Z</time>
      </trkpt>
      <trkpt lat="47.50711" lon="6.84202">
        <ele>325.54</ele>
        <time>2013-09-28T11:31:41Z</time>
      </trkpt>
      <trkpt lat="47.50715" lon="6.84227">
        <ele>325.54</ele>
        <time>2013-09-28T11:31:44Z</time>
      </trkpt>
      <trkpt lat="47.50721" lon="6.84259">
        <ele>326.5</ele>
        <time>2013-09-28T11:31:48Z</time>
      </trkpt>
      <trkpt lat="47.50726" lon="6.84283">
        <ele>325.06</ele>
        <time>2013-09-28T11:31:51Z</time>
      </trkpt>
      <trkpt lat="47.50734" lon="6.84307">
        <ele>325.54</ele>
        <time>2013-09-28T11:31:54Z</time>
      </trkpt>
      <trkpt lat="47.50743" lon="6.84331">
        <ele>325.06</ele>
        <time>2013-09-28T11:31:57Z</time>
      </trkpt>
      <trkpt lat="47.50752" lon="6.84355">
        <ele>325.06</ele>
        <time>2013-09-28T11:32:00Z</time>
      </trkpt>
      <trkpt lat="47.50762" lon="6.84379">
        <ele>325.54</ele>
        <time>2013-09-28T11:32:03Z</time>
      </trkpt>
      <trkpt lat="47.50772" lon="6.84404">
        <ele>325.54</ele>
        <time>2013-09-28T11:32:06Z</time>
      </trkpt>
      <trkpt lat="47.50782" lon="6.84429">
        <ele>326.02</ele>
        <time>2013-09-28T11:32:09Z</time>
      </trkpt>
      <trkpt lat="47.50794" lon="6.84453">
        <ele>325.54</ele>
        <time>2013-09-28T11:32:12Z</time>
      </trkpt>
      <trkpt lat="47.50804" lon="6.84476">
        <ele>326.02</ele>
        <time>2013-09-28T11:32:15Z</time>
      </trkpt>
      <trkpt lat="47.50815" lon="6.845">
        <ele>326.02</ele>
        <time>2013-09-28T11:32:18Z</time>
      </trkpt>
      <trkpt lat="47.50826" lon="6.84523">
        <ele>326.02</ele>
        <time>2013-09-28T11:32:21Z</time>
      </trkpt>
      <trkpt lat="47.50838" lon="6.84547">
        <ele>326.02</ele>
        <time>2013-09-28T11:32:24Z</time>
      </trkpt>
      <trkpt lat="47.50849" lon="6.84569">
        <ele>326.5</ele>
        <time>2013-09-28T11:32:27Z</time>
      </trkpt>
      <trkpt lat="47.50862" lon="6.84591">
        <ele>326.5</ele>
        <time>2013-09-28T11:32:30Z</time>
      </trkpt>
      <trkpt lat="47.50876" lon="6.84613">
        <ele>326.02</ele>
        <time>2013-09-28T11:32:33Z</time>
      </trkpt>
      <trkpt lat="47.5089" lon="6.84637">
        <ele>326.02</ele>
        <time>2013-09-28T11:32:36Z</time>
      </trkpt>
      <trkpt lat="47.50903" lon="6.84663">
        <ele>326.02</ele>
        <time>2013-09-28T11:32:39Z</time>
      </trkpt>
      <trkpt lat="47.50913" lon="6.84691">
        <ele>326.5</ele>
        <time>2013-09-28T11:32:42Z</time>
      </trkpt>
      <trkpt lat="47.50922" lon="6.84718">
        <ele>326.99</ele>
        <time>2013-09-28T11:32:45Z</time>
      </trkpt>
      <trkpt lat="47.50928" lon="6.84744">
        <ele>327.95</ele>
        <time>2013-09-28T11:32:48Z</time>
      </trkpt>
      <trkpt lat="47.50935" lon="6.84768">
        <ele>327.47</ele>
        <time>2013-09-28T11:32:51Z</time>
      </trkpt>
      <trkpt lat="47.50943" lon="6.84793">
        <ele>327.47</ele>
        <time>2013-09-28T11:32:54Z</time>
      </trkpt>
      <trkpt lat="47.50951" lon="6.84819">
        <ele>327.47</ele>
        <time>2013-09-28T11:32:57Z</time>
      </trkpt>
      <trkpt lat="47.50959" lon="6.84848">
        <ele>326.5</ele>
        <time>2013-09-28T11:33:00Z</time>
      </trkpt>
      <trkpt lat="47.50967" lon="6.84876">
        <ele>326.5</ele>
        <time>2013-09-28T11:33:03Z</time>
      </trkpt>
      <trkpt lat="47.50972" lon="6.84906">
        <ele>327.47</ele>
        <time>2013-09-28T11:33:06Z</time>
      </trkpt>
      <trkpt lat="47.50971" lon="6.84936">
        <ele>327.47</ele>
        <time>2013-09-28T11:33:09Z</time>
      </trkpt>
      <trkpt lat="47.50975" lon="6.84964">
        <ele>326.99</ele>
        <time>2013-09-28T11:33:12Z</time>
      </trkpt>
      <trkpt lat="47.50983" lon="6.84991">
        <ele>326.5</ele>
        <time>2013-09-28T11:33:15Z</time>
      </trkpt>
      <trkpt lat="47.50992" lon="6.85018">
        <ele>326.5</ele>
        <time>2013-09-28T11:33:18Z</time>
      </trkpt>
      <trkpt lat="47.51" lon="6.85046">
        <ele>326.5</ele>
        <time>2013-09-28T11:33:21Z</time>
      </trkpt>
      <trkpt lat="47.51009" lon="6.85073">
        <ele>326.5</ele>
        <time>2013-09-28T11:33:24Z</time>
      </trkpt>
      <trkpt lat="47.51027" lon="6.85085">
        <ele>327.47</ele>
        <time>2013-09-28T11:33:28Z</time>
      </trkpt>
      <trkpt lat="47.51037" lon="6.85107">
        <ele>327.95</ele>
        <time>2013-09-28T11:33:31Z</time>
      </trkpt>
      <trkpt lat="47.51044" lon="6.85134">
        <ele>326.99</ele>
        <time>2013-09-28T11:33:34Z</time>
      </trkpt>
      <trkpt lat="47.51053" lon="6.85162">
        <ele>327.47</ele>
        <time>2013-09-28T11:33:37Z</time>
      </trkpt>
      <trkpt lat="47.51061" lon="6.85189">
        <ele>327.47</ele>
        <time>2013-09-28T11:33:40Z</time>
      </trkpt>
      <trkpt lat="47.51069" lon="6.85215">
        <ele>326.99</ele>
        <time>2013-09-28T11:33:43Z</time>
      </trkpt>
      <trkpt lat="47.51079" lon="6.85243">
        <ele>326.99</ele>
        <time>2013-09-28T11:33:46Z</time>
      </trkpt>
      <trkpt lat="47.51088" lon="6.85269">
        <ele>326.99</ele>
        <time>2013-09-28T11:33:49Z</time>
      </trkpt>
      <trkpt lat="47.51096" lon="6.85296">
        <ele>327.47</ele>
        <time>2013-09-28T11:33:52Z</time>
      </trkpt>
      <trkpt lat="47.51105" lon="6.85325">
        <ele>327.47</ele>
        <time>2013-09-28T11:33:55Z</time>
      </trkpt>
      <trkpt lat="47.51113" lon="6.85354">
        <ele>327.47</ele>
        <time>2013-09-28T11:33:58Z</time>
      </trkpt>
      <trkpt lat="47.51121" lon="6.85382">
        <ele>326.99</ele>
        <time>2013-09-28T11:34:01Z</time>
      </trkpt>
      <trkpt lat="47.5113" lon="6.85409">
        <ele>327.47</ele>
        <time>2013-09-28T11:34:04Z</time>
      </trkpt>
      <trkpt lat="47.51138" lon="6.85435">
        <ele>327.47</ele>
        <time>2013-09-28T11:34:07Z</time>
      </trkpt>
      <trkpt lat="47.51146" lon="6.85461">
        <ele>327.95</ele>
        <time>2013-09-28T11:34:10Z</time>
      </trkpt>
      <trkpt lat="47.51154" lon="6.85487">
        <ele>327.95</ele>
        <time>2013-09-28T11:34:13Z</time>
      </trkpt>
      <trkpt lat="47.51162" lon="6.85514">
        <ele>327.95</ele>
        <time>2013-09-28T11:34:16Z</time>
      </trkpt>
      <trkpt lat="47.5117" lon="6.85542">
        <ele>327.47</ele>
        <time>2013-09-28T11:34:19Z</time>
      </trkpt>
      <trkpt lat="47.51178" lon="6.85568">
        <ele>327.95</ele>
        <time>2013-09-28T11:34:22Z</time>
      </trkpt>
      <trkpt lat="47.51188" lon="6.85597">
        <ele>327.95</ele>
        <time>2013-09-28T11:34:25Z</time>
      </trkpt>
      <trkpt lat="47.51198" lon="6.85626">
        <ele>327.95</ele>
        <time>2013-09-28T11:34:28Z</time>
      </trkpt>
      <trkpt lat="47.51207" lon="6.85654">
        <ele>328.43</ele>
        <time>2013-09-28T11:34:31Z</time>
      </trkpt>
      <trkpt lat="47.51218" lon="6.85682">
        <ele>327.95</ele>
        <time>2013-09-28T11:34:34Z</time>
      </trkpt>
      <trkpt lat="47.51228" lon="6.85711">
        <ele>328.43</ele>
        <time>2013-09-28T11:34:37Z</time>
      </trkpt>
      <trkpt lat="47.51237" lon="6.85738">
        <ele>327.95</ele>
        <time>2013-09-28T11:34:40Z</time>
      </trkpt>
      <trkpt lat="47.51246" lon="6.85765">
        <ele>328.43</ele>
        <time>2013-09-28T11:34:43Z</time>
      </trkpt>
      <trkpt lat="47.51254" lon="6.85792">
        <ele>328.43</ele>
        <time>2013-09-28T11:34:46Z</time>
      </trkpt>
      <trkpt lat="47.51261" lon="6.85818">
        <ele>328.43</ele>
        <time>2013-09-28T11:34:49Z</time>
      </trkpt>
      <trkpt lat="47.51269" lon="6.85842">
        <ele>328.91</ele>
        <time>2013-09-28T11:34:52Z</time>
      </trkpt>
      <trkpt lat="47.51275" lon="6.8587">
        <ele>328.91</ele>
        <time>2013-09-28T11:34:56Z</time>
      </trkpt>
      <trkpt lat="47.51263" lon="6.85874">
        <ele>330.35</ele>
        <time>2013-09-28T11:35:03Z</time>
      </trkpt>
      <trkpt lat="47.5128" lon="6.85862">
        <ele>331.79</ele>
        <time>2013-09-28T11:35:10Z</time>
      </trkpt>
      <trkpt lat="47.51296" lon="6.85852">
        <ele>331.79</ele>
        <time>2013-09-28T11:35:18Z</time>
      </trkpt>
      <trkpt lat="47.51304" lon="6.85877">
        <ele>330.83</ele>
        <time>2013-09-28T11:35:23Z</time>
      </trkpt>
      <trkpt lat="47.51312" lon="6.85906">
        <ele>330.35</ele>
        <time>2013-09-28T11:35:27Z</time>
      </trkpt>
      <trkpt lat="47.51322" lon="6.85938">
        <ele>330.35</ele>
        <time>2013-09-28T11:35:31Z</time>
      </trkpt>
      <trkpt lat="47.51333" lon="6.8597">
        <ele>329.87</ele>
        <time>2013-09-28T11:35:35Z</time>
      </trkpt>
      <trkpt lat="47.51341" lon="6.85994">
        <ele>327.95</ele>
        <time>2013-09-28T11:35:38Z</time>
      </trkpt>
      <trkpt lat="47.5135" lon="6.86019">
        <ele>329.87</ele>
        <time>2013-09-28T11:35:41Z</time>
      </trkpt>
      <trkpt lat="47.51358" lon="6.86046">
        <ele>329.87</ele>
        <time>2013-09-28T11:35:44Z</time>
      </trkpt>
      <trkpt lat="47.51366" lon="6.86073">
        <ele>329.87</ele>
        <time>2013-09-28T11:35:47Z</time>
      </trkpt>
      <trkpt lat="47.51375" lon="6.86099">
        <ele>329.87</ele>
        <time>2013-09-28T11:35:50Z</time>
      </trkpt>
      <trkpt lat="47.51383" lon="6.86126">
        <ele>329.87</ele>
        <time>2013-09-28T11:35:53Z</time>
      </trkpt>
      <trkpt lat="47.51391" lon="6.86151">
        <ele>329.87</ele>
        <time>2013-09-28T11:35:56Z</time>
      </trkpt>
      <trkpt lat="47.51399" lon="6.86175">
        <ele>329.87</ele>
        <time>2013-09-28T11:35:59Z</time>
      </trkpt>
      <trkpt lat="47.51407" lon="6.86201">
        <ele>329.87</ele>
        <time>2013-09-28T11:36:02Z</time>
      </trkpt>
      <trkpt lat="47.51414" lon="6.86227">
        <ele>329.39</ele>
        <time>2013-09-28T11:36:05Z</time>
      </trkpt>
      <trkpt lat="47.51422" lon="6.86253">
        <ele>329.87</ele>
        <time>2013-09-28T11:36:08Z</time>
      </trkpt>
      <trkpt lat="47.51431" lon="6.86279">
        <ele>329.39</ele>
        <time>2013-09-28T11:36:11Z</time>
      </trkpt>
      <trkpt lat="47.51439" lon="6.86307">
        <ele>329.87</ele>
        <time>2013-09-28T11:36:14Z</time>
      </trkpt>
      <trkpt lat="47.51447" lon="6.86334">
        <ele>329.87</ele>
        <time>2013-09-28T11:36:17Z</time>
      </trkpt>
      <trkpt lat="47.51456" lon="6.86362">
        <ele>328.91</ele>
        <time>2013-09-28T11:36:20Z</time>
      </trkpt>
      <trkpt lat="47.51465" lon="6.86391">
        <ele>329.39</ele>
        <time>2013-09-28T11:36:23Z</time>
      </trkpt>
      <trkpt lat="47.51473" lon="6.86419">
        <ele>329.39</ele>
        <time>2013-09-28T11:36:26Z</time>
      </trkpt>
      <trkpt lat="47.51482" lon="6.86448">
        <ele>329.39</ele>
        <time>2013-09-28T11:36:29Z</time>
      </trkpt>
      <trkpt lat="47.51491" lon="6.86476">
        <ele>329.39</ele>
        <time>2013-09-28T11:36:32Z</time>
      </trkpt>
      <trkpt lat="47.51501" lon="6.86502">
        <ele>328.91</ele>
        <time>2013-09-28T11:36:35Z</time>
      </trkpt>
      <trkpt lat="47.51509" lon="6.86529">
        <ele>328.91</ele>
        <time>2013-09-28T11:36:38Z</time>
      </trkpt>
      <trkpt lat="47.51517" lon="6.86557">
        <ele>329.87</ele>
        <time>2013-09-28T11:36:41Z</time>
      </trkpt>
      <trkpt lat="47.51526" lon="6.86586">
        <ele>329.39</ele>
        <time>2013-09-28T11:36:44Z</time>
      </trkpt>
      <trkpt lat="47.51533" lon="6.86614">
        <ele>329.39</ele>
        <time>2013-09-28T11:36:47Z</time>
      </trkpt>
      <trkpt lat="47.51542" lon="6.86642">
        <ele>328.91</ele>
        <time>2013-09-28T11:36:50Z</time>
      </trkpt>
      <trkpt lat="47.5155" lon="6.8667">
        <ele>329.39</ele>
        <time>2013-09-28T11:36:53Z</time>
      </trkpt>
      <trkpt lat="47.51559" lon="6.86697">
        <ele>329.39</ele>
        <time>2013-09-28T11:36:56Z</time>
      </trkpt>
      <trkpt lat="47.51568" lon="6.86724">
        <ele>329.39</ele>
        <time>2013-09-28T11:36:59Z</time>
      </trkpt>
      <trkpt lat="47.51577" lon="6.86752">
        <ele>329.39</ele>
        <time>2013-09-28T11:37:02Z</time>
      </trkpt>
      <trkpt lat="47.51586" lon="6.8678">
        <ele>329.39</ele>
        <time>2013-09-28T11:37:05Z</time>
      </trkpt>
      <trkpt lat="47.51595" lon="6.86807">
        <ele>329.87</ele>
        <time>2013-09-28T11:37:08Z</time>
      </trkpt>
      <trkpt lat="47.51604" lon="6.86836">
        <ele>329.39</ele>
        <time>2013-09-28T11:37:11Z</time>
      </trkpt>
      <trkpt lat="47.51613" lon="6.86864">
        <ele>329.39</ele>
        <time>2013-09-28T11:37:14Z</time>
      </trkpt>
      <trkpt lat="47.51621" lon="6.86893">
        <ele>328.91</ele>
        <time>2013-09-28T11:37:17Z</time>
      </trkpt>
      <trkpt lat="47.5163" lon="6.86921">
        <ele>329.39</ele>
        <time>2013-09-28T11:37:20Z</time>
      </trkpt>
      <trkpt lat="47.51639" lon="6.86949">
        <ele>329.39</ele>
        <time>2013-09-28T11:37:23Z</time>
      </trkpt>
      <trkpt lat="47.51648" lon="6.86977">
        <ele>329.39</ele>
        <time>2013-09-28T11:37:26Z</time>
      </trkpt>
      <trkpt lat="47.51657" lon="6.87005">
        <ele>329.39</ele>
        <time>2013-09-28T11:37:29Z</time>
      </trkpt>
      <trkpt lat="47.51666" lon="6.87034">
        <ele>329.39</ele>
        <time>2013-09-28T11:37:32Z</time>
      </trkpt>
      <trkpt lat="47.51675" lon="6.87063">
        <ele>329.39</ele>
        <time>2013-09-28T11:37:35Z</time>
      </trkpt>
      <trkpt lat="47.51685" lon="6.8709">
        <ele>328.91</ele>
        <time>2013-09-28T11:37:38Z</time>
      </trkpt>
      <trkpt lat="47.51694" lon="6.87118">
        <ele>329.39</ele>
        <time>2013-09-28T11:37:41Z</time>
      </trkpt>
      <trkpt lat="47.51703" lon="6.87147">
        <ele>329.39</ele>
        <time>2013-09-28T11:37:44Z</time>
      </trkpt>
      <trkpt lat="47.51711" lon="6.87175">
        <ele>329.39</ele>
        <time>2013-09-28T11:37:47Z</time>
      </trkpt>
      <trkpt lat="47.51721" lon="6.87205">
        <ele>328.91</ele>
        <time>2013-09-28T11:37:50Z</time>
      </trkpt>
      <trkpt lat="47.51729" lon="6.87234">
        <ele>329.39</ele>
        <time>2013-09-28T11:37:53Z</time>
      </trkpt>
      <trkpt lat="47.51737" lon="6.87262">
        <ele>329.39</ele>
        <time>2013-09-28T11:37:56Z</time>
      </trkpt>
      <trkpt lat="47.51745" lon="6.8729">
        <ele>329.39</ele>
        <time>2013-09-28T11:37:59Z</time>
      </trkpt>
      <trkpt lat="47.51753" lon="6.87317">
        <ele>329.39</ele>
        <time>2013-09-28T11:38:02Z</time>
      </trkpt>
      <trkpt lat="47.51762" lon="6.87346">
        <ele>329.39</ele>
        <time>2013-09-28T11:38:05Z</time>
      </trkpt>
      <trkpt lat="47.51771" lon="6.87374">
        <ele>329.39</ele>
        <time>2013-09-28T11:38:08Z</time>
      </trkpt>
      <trkpt lat="47.5178" lon="6.87402">
        <ele>329.39</ele>
        <time>2013-09-28T11:38:11Z</time>
      </trkpt>
      <trkpt lat="47.51788" lon="6.87431">
        <ele>329.39</ele>
        <time>2013-09-28T11:38:14Z</time>
      </trkpt>
      <trkpt lat="47.51796" lon="6.87459">
        <ele>329.39</ele>
        <time>2013-09-28T11:38:17Z</time>
      </trkpt>
      <trkpt lat="47.51804" lon="6.87486">
        <ele>329.39</ele>
        <time>2013-09-28T11:38:20Z</time>
      </trkpt>
      <trkpt lat="47.51813" lon="6.87514">
        <ele>328.91</ele>
        <time>2013-09-28T11:38:23Z</time>
      </trkpt>
      <trkpt lat="47.51822" lon="6.87542">
        <ele>329.39</ele>
        <time>2013-09-28T11:38:26Z</time>
      </trkpt>
      <trkpt lat="47.5183" lon="6.87571">
        <ele>328.91</ele>
        <time>2013-09-28T11:38:29Z</time>
      </trkpt>
      <trkpt lat="47.51838" lon="6.87598">
        <ele>328.91</ele>
        <time>2013-09-28T11:38:32Z</time>
      </trkpt>
      <trkpt lat="47.51847" lon="6.87626">
        <ele>328.91</ele>
        <time>2013-09-28T11:38:35Z</time>
      </trkpt>
      <trkpt lat="47.51856" lon="6.87653">
        <ele>328.91</ele>
        <time>2013-09-28T11:38:38Z</time>
      </trkpt>
      <trkpt lat="47.51864" lon="6.87679">
        <ele>329.87</ele>
        <time>2013-09-28T11:38:41Z</time>
      </trkpt>
      <trkpt lat="47.51872" lon="6.87707">
        <ele>326.02</ele>
        <time>2013-09-28T11:38:44Z</time>
      </trkpt>
      <trkpt lat="47.5188" lon="6.87734">
        <ele>329.87</ele>
        <time>2013-09-28T11:38:47Z</time>
      </trkpt>
      <trkpt lat="47.51888" lon="6.87761">
        <ele>328.91</ele>
        <time>2013-09-28T11:38:50Z</time>
      </trkpt>
      <trkpt lat="47.51897" lon="6.87788">
        <ele>329.87</ele>
        <time>2013-09-28T11:38:53Z</time>
      </trkpt>
      <trkpt lat="47.51905" lon="6.87815">
        <ele>329.87</ele>
        <time>2013-09-28T11:38:56Z</time>
      </trkpt>
      <trkpt lat="47.51914" lon="6.87841">
        <ele>330.35</ele>
        <time>2013-09-28T11:38:59Z</time>
      </trkpt>
      <trkpt lat="47.51923" lon="6.87868">
        <ele>330.35</ele>
        <time>2013-09-28T11:39:02Z</time>
      </trkpt>
      <trkpt lat="47.51931" lon="6.87895">
        <ele>330.35</ele>
        <time>2013-09-28T11:39:05Z</time>
      </trkpt>
      <trkpt lat="47.51939" lon="6.87923">
        <ele>330.35</ele>
        <time>2013-09-28T11:39:08Z</time>
      </trkpt>
      <trkpt lat="47.51948" lon="6.8795">
        <ele>329.87</ele>
        <time>2013-09-28T11:39:11Z</time>
      </trkpt>
      <trkpt lat="47.51957" lon="6.87977">
        <ele>330.35</ele>
        <time>2013-09-28T11:39:14Z</time>
      </trkpt>
      <trkpt lat="47.51966" lon="6.88003">
        <ele>330.83</ele>
        <time>2013-09-28T11:39:17Z</time>
      </trkpt>
      <trkpt lat="47.51976" lon="6.88027">
        <ele>333.23</ele>
        <time>2013-09-28T11:39:21Z</time>
      </trkpt>
      <trkpt lat="47.51981" lon="6.8805">
        <ele>332.75</ele>
        <time>2013-09-28T11:39:31Z</time>
      </trkpt>
      <trkpt lat="47.51982" lon="6.88048">
        <ele>333.23</ele>
        <time>2013-09-28T11:39:41Z</time>
      </trkpt>
      <trkpt lat="47.51968" lon="6.88036">
        <ele>333.71</ele>
        <time>2013-09-28T11:39:46Z</time>
      </trkpt>
      <trkpt lat="47.51955" lon="6.88055">
        <ele>334.2</ele>
        <time>2013-09-28T11:39:51Z</time>
      </trkpt>
      <trkpt lat="47.51965" lon="6.88084">
        <ele>332.75</ele>
        <time>2013-09-28T11:39:56Z</time>
      </trkpt>
      <trkpt lat="47.51974" lon="6.88113">
        <ele>333.71</ele>
        <time>2013-09-28T11:40:00Z</time>
      </trkpt>
      <trkpt lat="47.51983" lon="6.88143">
        <ele>333.23</ele>
        <time>2013-09-28T11:40:04Z</time>
      </trkpt>
      <trkpt lat="47.51992" lon="6.88173">
        <ele>333.23</ele>
        <time>2013-09-28T11:40:08Z</time>
      </trkpt>
      <trkpt lat="47.52001" lon="6.88205">
        <ele>332.75</ele>
        <time>2013-09-28T11:40:12Z</time>
      </trkpt>
      <trkpt lat="47.5201" lon="6.8823">
        <ele>333.23</ele>
        <time>2013-09-28T11:40:15Z</time>
      </trkpt>
      <trkpt lat="47.52018" lon="6.88255">
        <ele>333.23</ele>
        <time>2013-09-28T11:40:18Z</time>
      </trkpt>
      <trkpt lat="47.52026" lon="6.88281">
        <ele>333.71</ele>
        <time>2013-09-28T11:40:21Z</time>
      </trkpt>
      <trkpt lat="47.52034" lon="6.88305">
        <ele>333.71</ele>
        <time>2013-09-28T11:40:24Z</time>
      </trkpt>
      <trkpt lat="47.52044" lon="6.88337">
        <ele>333.23</ele>
        <time>2013-09-28T11:40:28Z</time>
      </trkpt>
      <trkpt lat="47.52053" lon="6.88363">
        <ele>333.23</ele>
        <time>2013-09-28T11:40:32Z</time>
      </trkpt>
      <trkpt lat="47.52071" lon="6.88364">
        <ele>333.71</ele>
        <time>2013-09-28T11:40:37Z</time>
      </trkpt>
      <trkpt lat="47.52086" lon="6.8834">
        <ele>334.2</ele>
        <time>2013-09-28T11:40:42Z</time>
      </trkpt>
      <trkpt lat="47.52101" lon="6.88327">
        <ele>334.68</ele>
        <time>2013-09-28T11:40:47Z</time>
      </trkpt>
      <trkpt lat="47.52118" lon="6.88309">
        <ele>334.2</ele>
        <time>2013-09-28T11:40:52Z</time>
      </trkpt>
      <trkpt lat="47.52133" lon="6.8829">
        <ele>333.71</ele>
        <time>2013-09-28T11:40:56Z</time>
      </trkpt>
      <trkpt lat="47.5215" lon="6.88271">
        <ele>333.71</ele>
        <time>2013-09-28T11:41:00Z</time>
      </trkpt>
      <trkpt lat="47.52166" lon="6.88254">
        <ele>333.71</ele>
        <time>2013-09-28T11:41:04Z</time>
      </trkpt>
      <trkpt lat="47.52181" lon="6.88238">
        <ele>332.75</ele>
        <time>2013-09-28T11:41:08Z</time>
      </trkpt>
      <trkpt lat="47.52198" lon="6.88219">
        <ele>333.23</ele>
        <time>2013-09-28T11:41:13Z</time>
      </trkpt>
      <trkpt lat="47.52216" lon="6.88199">
        <ele>333.23</ele>
        <time>2013-09-28T11:41:18Z</time>
      </trkpt>
      <trkpt lat="47.52231" lon="6.88181">
        <ele>333.71</ele>
        <time>2013-09-28T11:41:22Z</time>
      </trkpt>
      <trkpt lat="47.52245" lon="6.88163">
        <ele>334.68</ele>
        <time>2013-09-28T11:41:26Z</time>
      </trkpt>
      <trkpt lat="47.52259" lon="6.88144">
        <ele>336.12</ele>
        <time>2013-09-28T11:41:31Z</time>
      </trkpt>
      <trkpt lat="47.52253" lon="6.88131">
        <ele>335.64</ele>
        <time>2013-09-28T11:42:04Z</time>
      </trkpt>
      <trkpt lat="47.5227" lon="6.88125">
        <ele>335.16</ele>
        <time>2013-09-28T11:42:12Z</time>
      </trkpt>
      <trkpt lat="47.52282" lon="6.88101">
        <ele>334.2</ele>
        <time>2013-09-28T11:42:16Z</time>
      </trkpt>
      <trkpt lat="47.52295" lon="6.88082">
        <ele>334.2</ele>
        <time>2013-09-28T11:42:20Z</time>
      </trkpt>
      <trkpt lat="47.52309" lon="6.88065">
        <ele>333.71</ele>
        <time>2013-09-28T11:42:24Z</time>
      </trkpt>
      <trkpt lat="47.52325" lon="6.88048">
        <ele>333.71</ele>
        <time>2013-09-28T11:42:28Z</time>
      </trkpt>
      <trkpt lat="47.52342" lon="6.88039">
        <ele>334.2</ele>
        <time>2013-09-28T11:42:32Z</time>
      </trkpt>
      <trkpt lat="47.52363" lon="6.88034">
        <ele>334.68</ele>
        <time>2013-09-28T11:42:37Z</time>
      </trkpt>
      <trkpt lat="47.5238" lon="6.88042">
        <ele>334.2</ele>
        <time>2013-09-28T11:42:42Z</time>
      </trkpt>
      <trkpt lat="47.52391" lon="6.88071">
        <ele>334.68</ele>
        <time>2013-09-28T11:42:47Z</time>
      </trkpt>
      <trkpt lat="47.52398" lon="6.88104">
        <ele>334.68</ele>
        <time>2013-09-28T11:42:52Z</time>
      </trkpt>
      <trkpt lat="47.52404" lon="6.88132">
        <ele>334.68</ele>
        <time>2013-09-28T11:42:56Z</time>
      </trkpt>
      <trkpt lat="47.52415" lon="6.88157">
        <ele>334.68</ele>
        <time>2013-09-28T11:43:00Z</time>
      </trkpt>
      <trkpt lat="47.52423" lon="6.88186">
        <ele>334.68</ele>
        <time>2013-09-28T11:43:04Z</time>
      </trkpt>
      <trkpt lat="47.52432" lon="6.88214">
        <ele>334.2</ele>
        <time>2013-09-28T11:43:08Z</time>
      </trkpt>
      <trkpt lat="47.52442" lon="6.88242">
        <ele>334.68</ele>
        <time>2013-09-28T11:43:12Z</time>
      </trkpt>
      <trkpt lat="47.52455" lon="6.88266">
        <ele>334.68</ele>
        <time>2013-09-28T11:43:16Z</time>
      </trkpt>
      <trkpt lat="47.5247" lon="6.8829">
        <ele>334.68</ele>
        <time>2013-09-28T11:43:20Z</time>
      </trkpt>
      <trkpt lat="47.52486" lon="6.88314">
        <ele>334.68</ele>
        <time>2013-09-28T11:43:24Z</time>
      </trkpt>
      <trkpt lat="47.52503" lon="6.88338">
        <ele>334.68</ele>
        <time>2013-09-28T11:43:28Z</time>
      </trkpt>
      <trkpt lat="47.52519" lon="6.88362">
        <ele>334.2</ele>
        <time>2013-09-28T11:43:32Z</time>
      </trkpt>
      <trkpt lat="47.52534" lon="6.88387">
        <ele>334.2</ele>
        <time>2013-09-28T11:43:36Z</time>
      </trkpt>
      <trkpt lat="47.52552" lon="6.88412">
        <ele>334.68</ele>
        <time>2013-09-28T11:43:40Z</time>
      </trkpt>
      <trkpt lat="47.52565" lon="6.88431">
        <ele>334.68</ele>
        <time>2013-09-28T11:43:43Z</time>
      </trkpt>
      <trkpt lat="47.52577" lon="6.88451">
        <ele>335.64</ele>
        <time>2013-09-28T11:43:46Z</time>
      </trkpt>
      <trkpt lat="47.52591" lon="6.8847">
        <ele>333.71</ele>
        <time>2013-09-28T11:43:49Z</time>
      </trkpt>
      <trkpt lat="47.52604" lon="6.88491">
        <ele>333.71</ele>
        <time>2013-09-28T11:43:52Z</time>
      </trkpt>
      <trkpt lat="47.52618" lon="6.88512">
        <ele>334.2</ele>
        <time>2013-09-28T11:43:55Z</time>
      </trkpt>
      <trkpt lat="47.52632" lon="6.88531">
        <ele>334.68</ele>
        <time>2013-09-28T11:43:58Z</time>
      </trkpt>
      <trkpt lat="47.52646" lon="6.8855">
        <ele>335.16</ele>
        <time>2013-09-28T11:44:01Z</time>
      </trkpt>
      <trkpt lat="47.5266" lon="6.8857">
        <ele>335.16</ele>
        <time>2013-09-28T11:44:04Z</time>
      </trkpt>
      <trkpt lat="47.52677" lon="6.88595">
        <ele>335.16</ele>
        <time>2013-09-28T11:44:08Z</time>
      </trkpt>
      <trkpt lat="47.52689" lon="6.88616">
        <ele>335.64</ele>
        <time>2013-09-28T11:44:11Z</time>
      </trkpt>
      <trkpt lat="47.52703" lon="6.88639">
        <ele>334.68</ele>
        <time>2013-09-28T11:44:14Z</time>
      </trkpt>
      <trkpt lat="47.52715" lon="6.88662">
        <ele>335.16</ele>
        <time>2013-09-28T11:44:17Z</time>
      </trkpt>
      <trkpt lat="47.52726" lon="6.88688">
        <ele>335.16</ele>
        <time>2013-09-28T11:44:20Z</time>
      </trkpt>
      <trkpt lat="47.52736" lon="6.88715">
        <ele>334.68</ele>
        <time>2013-09-28T11:44:23Z</time>
      </trkpt>
      <trkpt lat="47.52742" lon="6.88747">
        <ele>334.2</ele>
        <time>2013-09-28T11:44:26Z</time>
      </trkpt>
      <trkpt lat="47.52745" lon="6.88775">
        <ele>334.68</ele>
        <time>2013-09-28T11:44:29Z</time>
      </trkpt>
      <trkpt lat="47.52756" lon="6.88807">
        <ele>336.12</ele>
        <time>2013-09-28T11:44:33Z</time>
      </trkpt>
      <trkpt lat="47.52767" lon="6.88833">
        <ele>338.04</ele>
        <time>2013-09-28T11:44:37Z</time>
      </trkpt>
      <trkpt lat="47.52788" lon="6.88831">
        <ele>338.52</ele>
        <time>2013-09-28T11:44:42Z</time>
      </trkpt>
      <trkpt lat="47.52806" lon="6.88828">
        <ele>338.04</ele>
        <time>2013-09-28T11:44:46Z</time>
      </trkpt>
      <trkpt lat="47.52819" lon="6.88848">
        <ele>335.64</ele>
        <time>2013-09-28T11:44:50Z</time>
      </trkpt>
      <trkpt lat="47.52824" lon="6.88876">
        <ele>334.68</ele>
        <time>2013-09-28T11:44:53Z</time>
      </trkpt>
      <trkpt lat="47.52813" lon="6.88904">
        <ele>334.68</ele>
        <time>2013-09-28T11:44:56Z</time>
      </trkpt>
      <trkpt lat="47.52814" lon="6.88932">
        <ele>334.68</ele>
        <time>2013-09-28T11:44:59Z</time>
      </trkpt>
      <trkpt lat="47.52815" lon="6.88961">
        <ele>334.68</ele>
        <time>2013-09-28T11:45:02Z</time>
      </trkpt>
      <trkpt lat="47.52816" lon="6.8899">
        <ele>334.2</ele>
        <time>2013-09-28T11:45:05Z</time>
      </trkpt>
      <trkpt lat="47.52814" lon="6.89018">
        <ele>334.2</ele>
        <time>2013-09-28T11:45:08Z</time>
      </trkpt>
      <trkpt lat="47.52813" lon="6.89047">
        <ele>334.68</ele>
        <time>2013-09-28T11:45:11Z</time>
      </trkpt>
      <trkpt lat="47.52812" lon="6.89076">
        <ele>334.2</ele>
        <time>2013-09-28T11:45:14Z</time>
      </trkpt>
      <trkpt lat="47.52811" lon="6.89104">
        <ele>334.68</ele>
        <time>2013-09-28T11:45:17Z</time>
      </trkpt>
      <trkpt lat="47.5281" lon="6.89133">
        <ele>334.68</ele>
        <time>2013-09-28T11:45:20Z</time>
      </trkpt>
      <trkpt lat="47.52808" lon="6.89162">
        <ele>334.2</ele>
        <time>2013-09-28T11:45:23Z</time>
      </trkpt>
      <trkpt lat="47.52807" lon="6.89189">
        <ele>334.68</ele>
        <time>2013-09-28T11:45:26Z</time>
      </trkpt>
      <trkpt lat="47.52807" lon="6.89218">
        <ele>334.68</ele>
        <time>2013-09-28T11:45:29Z</time>
      </trkpt>
      <trkpt lat="47.52806" lon="6.89248">
        <ele>334.68</ele>
        <time>2013-09-28T11:45:32Z</time>
      </trkpt>
      <trkpt lat="47.52805" lon="6.89279">
        <ele>334.68</ele>
        <time>2013-09-28T11:45:35Z</time>
      </trkpt>
      <trkpt lat="47.52804" lon="6.89308">
        <ele>334.2</ele>
        <time>2013-09-28T11:45:38Z</time>
      </trkpt>
      <trkpt lat="47.52803" lon="6.89338">
        <ele>335.16</ele>
        <time>2013-09-28T11:45:41Z</time>
      </trkpt>
      <trkpt lat="47.52802" lon="6.89368">
        <ele>334.2</ele>
        <time>2013-09-28T11:45:44Z</time>
      </trkpt>
      <trkpt lat="47.528" lon="6.89399">
        <ele>334.68</ele>
        <time>2013-09-28T11:45:47Z</time>
      </trkpt>
      <trkpt lat="47.52799" lon="6.8943">
        <ele>335.16</ele>
        <time>2013-09-28T11:45:50Z</time>
      </trkpt>
      <trkpt lat="47.52798" lon="6.89461">
        <ele>334.68</ele>
        <time>2013-09-28T11:45:53Z</time>
      </trkpt>
      <trkpt lat="47.52797" lon="6.89493">
        <ele>334.68</ele>
        <time>2013-09-28T11:45:56Z</time>
      </trkpt>
      <trkpt lat="47.52795" lon="6.89524">
        <ele>334.68</ele>
        <time>2013-09-28T11:45:59Z</time>
      </trkpt>
      <trkpt lat="47.52794" lon="6.89556">
        <ele>334.68</ele>
        <time>2013-09-28T11:46:02Z</time>
      </trkpt>
      <trkpt lat="47.52793" lon="6.89585">
        <ele>334.68</ele>
        <time>2013-09-28T11:46:05Z</time>
      </trkpt>
      <trkpt lat="47.52788" lon="6.89615">
        <ele>334.68</ele>
        <time>2013-09-28T11:46:08Z</time>
      </trkpt>
      <trkpt lat="47.52787" lon="6.89644">
        <ele>335.16</ele>
        <time>2013-09-28T11:46:11Z</time>
      </trkpt>
      <trkpt lat="47.52791" lon="6.89674">
        <ele>334.68</ele>
        <time>2013-09-28T11:46:14Z</time>
      </trkpt>
      <trkpt lat="47.52793" lon="6.89704">
        <ele>334.68</ele>
        <time>2013-09-28T11:46:17Z</time>
      </trkpt>
      <trkpt lat="47.52795" lon="6.89732">
        <ele>334.68</ele>
        <time>2013-09-28T11:46:20Z</time>
      </trkpt>
      <trkpt lat="47.528" lon="6.89759">
        <ele>334.68</ele>
        <time>2013-09-28T11:46:23Z</time>
      </trkpt>
      <trkpt lat="47.52806" lon="6.89786">
        <ele>334.68</ele>
        <time>2013-09-28T11:46:26Z</time>
      </trkpt>
      <trkpt lat="47.52812" lon="6.89813">
        <ele>334.2</ele>
        <time>2013-09-28T11:46:29Z</time>
      </trkpt>
      <trkpt lat="47.52821" lon="6.89841">
        <ele>335.16</ele>
        <time>2013-09-28T11:46:32Z</time>
      </trkpt>
      <trkpt lat="47.52831" lon="6.89868">
        <ele>334.2</ele>
        <time>2013-09-28T11:46:35Z</time>
      </trkpt>
      <trkpt lat="47.52843" lon="6.89893">
        <ele>334.2</ele>
        <time>2013-09-28T11:46:38Z</time>
      </trkpt>
      <trkpt lat="47.52855" lon="6.89916">
        <ele>334.2</ele>
        <time>2013-09-28T11:46:41Z</time>
      </trkpt>
      <trkpt lat="47.5287" lon="6.89938">
        <ele>334.2</ele>
        <time>2013-09-28T11:46:44Z</time>
      </trkpt>
      <trkpt lat="47.52885" lon="6.89959">
        <ele>334.2</ele>
        <time>2013-09-28T11:46:47Z</time>
      </trkpt>
      <trkpt lat="47.529" lon="6.89979">
        <ele>334.2</ele>
        <time>2013-09-28T11:46:50Z</time>
      </trkpt>
      <trkpt lat="47.52916" lon="6.89999">
        <ele>334.2</ele>
        <time>2013-09-28T11:46:53Z</time>
      </trkpt>
      <trkpt lat="47.52931" lon="6.90019">
        <ele>334.2</ele>
        <time>2013-09-28T11:46:56Z</time>
      </trkpt>
      <trkpt lat="47.52946" lon="6.90041">
        <ele>334.68</ele>
        <time>2013-09-28T11:46:59Z</time>
      </trkpt>
      <trkpt lat="47.52962" lon="6.90062">
        <ele>334.2</ele>
        <time>2013-09-28T11:47:02Z</time>
      </trkpt>
      <trkpt lat="47.52977" lon="6.90082">
        <ele>334.2</ele>
        <time>2013-09-28T11:47:05Z</time>
      </trkpt>
      <trkpt lat="47.52992" lon="6.90103">
        <ele>334.2</ele>
        <time>2013-09-28T11:47:08Z</time>
      </trkpt>
      <trkpt lat="47.53007" lon="6.90124">
        <ele>334.2</ele>
        <time>2013-09-28T11:47:11Z</time>
      </trkpt>
      <trkpt lat="47.53022" lon="6.90144">
        <ele>334.68</ele>
        <time>2013-09-28T11:47:14Z</time>
      </trkpt>
      <trkpt lat="47.53037" lon="6.90165">
        <ele>333.71</ele>
        <time>2013-09-28T11:47:17Z</time>
      </trkpt>
      <trkpt lat="47.53052" lon="6.90186">
        <ele>334.2</ele>
        <time>2013-09-28T11:47:20Z</time>
      </trkpt>
      <trkpt lat="47.53067" lon="6.90205">
        <ele>334.68</ele>
        <time>2013-09-28T11:47:23Z</time>
      </trkpt>
      <trkpt lat="47.53082" lon="6.90225">
        <ele>334.2</ele>
        <time>2013-09-28T11:47:26Z</time>
      </trkpt>
      <trkpt lat="47.53097" lon="6.90245">
        <ele>334.68</ele>
        <time>2013-09-28T11:47:29Z</time>
      </trkpt>
      <trkpt lat="47.53112" lon="6.90265">
        <ele>334.68</ele>
        <time>2013-09-28T11:47:32Z</time>
      </trkpt>
      <trkpt lat="47.53127" lon="6.90285">
        <ele>334.2</ele>
        <time>2013-09-28T11:47:35Z</time>
      </trkpt>
      <trkpt lat="47.53142" lon="6.90305">
        <ele>334.68</ele>
        <time>2013-09-28T11:47:38Z</time>
      </trkpt>
      <trkpt lat="47.53158" lon="6.90325">
        <ele>334.2</ele>
        <time>2013-09-28T11:47:41Z</time>
      </trkpt>
      <trkpt lat="47.53173" lon="6.90345">
        <ele>334.2</ele>
        <time>2013-09-28T11:47:44Z</time>
      </trkpt>
      <trkpt lat="47.53187" lon="6.90365">
        <ele>334.2</ele>
        <time>2013-09-28T11:47:47Z</time>
      </trkpt>
      <trkpt lat="47.532" lon="6.90384">
        <ele>334.68</ele>
        <time>2013-09-28T11:47:50Z</time>
      </trkpt>
      <trkpt lat="47.53213" lon="6.90411">
        <ele>335.16</ele>
        <time>2013-09-28T11:47:54Z</time>
      </trkpt>
      <trkpt lat="47.53228" lon="6.90431">
        <ele>336.12</ele>
        <time>2013-09-28T11:47:58Z</time>
      </trkpt>
      <trkpt lat="47.53243" lon="6.90447">
        <ele>336.6</ele>
        <time>2013-09-28T11:48:03Z</time>
      </trkpt>
      <trkpt lat="47.5326" lon="6.90466">
        <ele>335.64</ele>
        <time>2013-09-28T11:48:08Z</time>
      </trkpt>
      <trkpt lat="47.53275" lon="6.90486">
        <ele>335.16</ele>
        <time>2013-09-28T11:48:12Z</time>
      </trkpt>
      <trkpt lat="47.53292" lon="6.90507">
        <ele>336.12</ele>
        <time>2013-09-28T11:48:16Z</time>
      </trkpt>
      <trkpt lat="47.53309" lon="6.90529">
        <ele>336.6</ele>
        <time>2013-09-28T11:48:20Z</time>
      </trkpt>
      <trkpt lat="47.53324" lon="6.9055">
        <ele>337.08</ele>
        <time>2013-09-28T11:48:24Z</time>
      </trkpt>
      <trkpt lat="47.5334" lon="6.90571">
        <ele>336.12</ele>
        <time>2013-09-28T11:48:28Z</time>
      </trkpt>
      <trkpt lat="47.53355" lon="6.90594">
        <ele>337.08</ele>
        <time>2013-09-28T11:48:32Z</time>
      </trkpt>
      <trkpt lat="47.53373" lon="6.90618">
        <ele>335.64</ele>
        <time>2013-09-28T11:48:36Z</time>
      </trkpt>
      <trkpt lat="47.53386" lon="6.90637">
        <ele>333.71</ele>
        <time>2013-09-28T11:48:39Z</time>
      </trkpt>
      <trkpt lat="47.53401" lon="6.90656">
        <ele>335.64</ele>
        <time>2013-09-28T11:48:42Z</time>
      </trkpt>
      <trkpt lat="47.53415" lon="6.90675">
        <ele>336.12</ele>
        <time>2013-09-28T11:48:45Z</time>
      </trkpt>
      <trkpt lat="47.53431" lon="6.90693">
        <ele>336.12</ele>
        <time>2013-09-28T11:48:48Z</time>
      </trkpt>
      <trkpt lat="47.53447" lon="6.9071">
        <ele>336.12</ele>
        <time>2013-09-28T11:48:51Z</time>
      </trkpt>
      <trkpt lat="47.53462" lon="6.90726">
        <ele>336.6</ele>
        <time>2013-09-28T11:48:54Z</time>
      </trkpt>
      <trkpt lat="47.53478" lon="6.9074">
        <ele>336.6</ele>
        <time>2013-09-28T11:48:57Z</time>
      </trkpt>
      <trkpt lat="47.53494" lon="6.90754">
        <ele>335.64</ele>
        <time>2013-09-28T11:49:00Z</time>
      </trkpt>
      <trkpt lat="47.53511" lon="6.90768">
        <ele>336.12</ele>
        <time>2013-09-28T11:49:03Z</time>
      </trkpt>
      <trkpt lat="47.53528" lon="6.90781">
        <ele>335.64</ele>
        <time>2013-09-28T11:49:06Z</time>
      </trkpt>
      <trkpt lat="47.53544" lon="6.90795">
        <ele>336.12</ele>
        <time>2013-09-28T11:49:09Z</time>
      </trkpt>
      <trkpt lat="47.5356" lon="6.90809">
        <ele>335.64</ele>
        <time>2013-09-28T11:49:12Z</time>
      </trkpt>
      <trkpt lat="47.53575" lon="6.90823">
        <ele>335.64</ele>
        <time>2013-09-28T11:49:15Z</time>
      </trkpt>
      <trkpt lat="47.53592" lon="6.90838">
        <ele>335.64</ele>
        <time>2013-09-28T11:49:18Z</time>
      </trkpt>
      <trkpt lat="47.53608" lon="6.90853">
        <ele>336.12</ele>
        <time>2013-09-28T11:49:21Z</time>
      </trkpt>
      <trkpt lat="47.53626" lon="6.90869">
        <ele>335.64</ele>
        <time>2013-09-28T11:49:24Z</time>
      </trkpt>
      <trkpt lat="47.53643" lon="6.90884">
        <ele>336.12</ele>
        <time>2013-09-28T11:49:27Z</time>
      </trkpt>
      <trkpt lat="47.5366" lon="6.909">
        <ele>335.64</ele>
        <time>2013-09-28T11:49:30Z</time>
      </trkpt>
      <trkpt lat="47.53678" lon="6.90915">
        <ele>336.12</ele>
        <time>2013-09-28T11:49:33Z</time>
      </trkpt>
      <trkpt lat="47.53695" lon="6.90929">
        <ele>335.64</ele>
        <time>2013-09-28T11:49:36Z</time>
      </trkpt>
      <trkpt lat="47.53713" lon="6.90945">
        <ele>335.64</ele>
        <time>2013-09-28T11:49:39Z</time>
      </trkpt>
      <trkpt lat="47.53731" lon="6.90959">
        <ele>335.64</ele>
        <time>2013-09-28T11:49:42Z</time>
      </trkpt>
      <trkpt lat="47.53748" lon="6.90975">
        <ele>336.12</ele>
        <time>2013-09-28T11:49:45Z</time>
      </trkpt>
      <trkpt lat="47.53766" lon="6.90989">
        <ele>336.12</ele>
        <time>2013-09-28T11:49:48Z</time>
      </trkpt>
      <trkpt lat="47.53785" lon="6.91004">
        <ele>336.12</ele>
        <time>2013-09-28T11:49:51Z</time>
      </trkpt>
      <trkpt lat="47.53804" lon="6.91015">
        <ele>336.12</ele>
        <time>2013-09-28T11:49:54Z</time>
      </trkpt>
      <trkpt lat="47.53822" lon="6.91026">
        <ele>336.12</ele>
        <time>2013-09-28T11:49:57Z</time>
      </trkpt>
      <trkpt lat="47.53842" lon="6.91035">
        <ele>335.64</ele>
        <time>2013-09-28T11:50:00Z</time>
      </trkpt>
      <trkpt lat="47.53861" lon="6.91042">
        <ele>336.12</ele>
        <time>2013-09-28T11:50:03Z</time>
      </trkpt>
      <trkpt lat="47.5388" lon="6.91049">
        <ele>335.64</ele>
        <time>2013-09-28T11:50:06Z</time>
      </trkpt>
      <trkpt lat="47.53899" lon="6.91054">
        <ele>335.64</ele>
        <time>2013-09-28T11:50:09Z</time>
      </trkpt>
      <trkpt lat="47.53918" lon="6.91055">
        <ele>335.16</ele>
        <time>2013-09-28T11:50:12Z</time>
      </trkpt>
      <trkpt lat="47.53938" lon="6.91048">
        <ele>335.16</ele>
        <time>2013-09-28T11:50:15Z</time>
      </trkpt>
      <trkpt lat="47.53956" lon="6.91032">
        <ele>335.64</ele>
        <time>2013-09-28T11:50:18Z</time>
      </trkpt>
      <trkpt lat="47.5397" lon="6.91011">
        <ele>335.64</ele>
        <time>2013-09-28T11:50:21Z</time>
      </trkpt>
      <trkpt lat="47.53983" lon="6.90988">
        <ele>335.64</ele>
        <time>2013-09-28T11:50:24Z</time>
      </trkpt>
      <trkpt lat="47.53995" lon="6.90963">
        <ele>336.12</ele>
        <time>2013-09-28T11:50:27Z</time>
      </trkpt>
      <trkpt lat="47.54005" lon="6.90939">
        <ele>336.6</ele>
        <time>2013-09-28T11:50:30Z</time>
      </trkpt>
      <trkpt lat="47.54017" lon="6.90908">
        <ele>336.6</ele>
        <time>2013-09-28T11:50:34Z</time>
      </trkpt>
      <trkpt lat="47.54029" lon="6.9088">
        <ele>336.12</ele>
        <time>2013-09-28T11:50:38Z</time>
      </trkpt>
      <trkpt lat="47.5404" lon="6.90851">
        <ele>336.12</ele>
        <time>2013-09-28T11:50:42Z</time>
      </trkpt>
      <trkpt lat="47.54049" lon="6.90823">
        <ele>336.12</ele>
        <time>2013-09-28T11:50:46Z</time>
      </trkpt>
      <trkpt lat="47.5406" lon="6.90798">
        <ele>336.12</ele>
        <time>2013-09-28T11:50:50Z</time>
      </trkpt>
      <trkpt lat="47.54078" lon="6.90778">
        <ele>336.6</ele>
        <time>2013-09-28T11:50:54Z</time>
      </trkpt>
      <trkpt lat="47.54096" lon="6.90759">
        <ele>336.6</ele>
        <time>2013-09-28T11:50:58Z</time>
      </trkpt>
      <trkpt lat="47.5412" lon="6.90745">
        <ele>336.6</ele>
        <time>2013-09-28T11:51:02Z</time>
      </trkpt>
      <trkpt lat="47.54142" lon="6.90732">
        <ele>337.56</ele>
        <time>2013-09-28T11:51:06Z</time>
      </trkpt>
      <trkpt lat="47.54161" lon="6.90723">
        <ele>336.12</ele>
        <time>2013-09-28T11:51:09Z</time>
      </trkpt>
      <trkpt lat="47.5418" lon="6.90715">
        <ele>337.08</ele>
        <time>2013-09-28T11:51:12Z</time>
      </trkpt>
      <trkpt lat="47.54199" lon="6.90707">
        <ele>337.08</ele>
        <time>2013-09-28T11:51:15Z</time>
      </trkpt>
      <trkpt lat="47.54218" lon="6.907">
        <ele>337.08</ele>
        <time>2013-09-28T11:51:18Z</time>
      </trkpt>
      <trkpt lat="47.54237" lon="6.90692">
        <ele>337.08</ele>
        <time>2013-09-28T11:51:21Z</time>
      </trkpt>
      <trkpt lat="47.54256" lon="6.90686">
        <ele>337.08</ele>
        <time>2013-09-28T11:51:24Z</time>
      </trkpt>
      <trkpt lat="47.54276" lon="6.9068">
        <ele>337.08</ele>
        <time>2013-09-28T11:51:27Z</time>
      </trkpt>
      <trkpt lat="47.54295" lon="6.90673">
        <ele>336.6</ele>
        <time>2013-09-28T11:51:30Z</time>
      </trkpt>
      <trkpt lat="47.54314" lon="6.90668">
        <ele>336.6</ele>
        <time>2013-09-28T11:51:33Z</time>
      </trkpt>
      <trkpt lat="47.54332" lon="6.90664">
        <ele>336.6</ele>
        <time>2013-09-28T11:51:36Z</time>
      </trkpt>
      <trkpt lat="47.54351" lon="6.90662">
        <ele>336.6</ele>
        <time>2013-09-28T11:51:39Z</time>
      </trkpt>
      <trkpt lat="47.5437" lon="6.90665">
        <ele>336.6</ele>
        <time>2013-09-28T11:51:42Z</time>
      </trkpt>
      <trkpt lat="47.5439" lon="6.90671">
        <ele>336.6</ele>
        <time>2013-09-28T11:51:45Z</time>
      </trkpt>
      <trkpt lat="47.5441" lon="6.90677">
        <ele>336.12</ele>
        <time>2013-09-28T11:51:48Z</time>
      </trkpt>
      <trkpt lat="47.5443" lon="6.9068">
        <ele>336.12</ele>
        <time>2013-09-28T11:51:51Z</time>
      </trkpt>
      <trkpt lat="47.54448" lon="6.90681">
        <ele>336.12</ele>
        <time>2013-09-28T11:51:54Z</time>
      </trkpt>
      <trkpt lat="47.54467" lon="6.90676">
        <ele>336.12</ele>
        <time>2013-09-28T11:51:57Z</time>
      </trkpt>
      <trkpt lat="47.54485" lon="6.90668">
        <ele>336.12</ele>
        <time>2013-09-28T11:52:00Z</time>
      </trkpt>
      <trkpt lat="47.54504" lon="6.90659">
        <ele>336.12</ele>
        <time>2013-09-28T11:52:03Z</time>
      </trkpt>
      <trkpt lat="47.54524" lon="6.90652">
        <ele>335.64</ele>
        <time>2013-09-28T11:52:06Z</time>
      </trkpt>
      <trkpt lat="47.54543" lon="6.90644">
        <ele>334.68</ele>
        <time>2013-09-28T11:52:09Z</time>
      </trkpt>
      <trkpt lat="47.54561" lon="6.90636">
        <ele>335.16</ele>
        <time>2013-09-28T11:52:12Z</time>
      </trkpt>
      <trkpt lat="47.5458" lon="6.90627">
        <ele>335.64</ele>
        <time>2013-09-28T11:52:15Z</time>
      </trkpt>
      <trkpt lat="47.54598" lon="6.90618">
        <ele>335.64</ele>
        <time>2013-09-28T11:52:18Z</time>
      </trkpt>
      <trkpt lat="47.54616" lon="6.9061">
        <ele>336.6</ele>
        <time>2013-09-28T11:52:21Z</time>
      </trkpt>
      <trkpt lat="47.54634" lon="6.90601">
        <ele>336.6</ele>
        <time>2013-09-28T11:52:24Z</time>
      </trkpt>
      <trkpt lat="47.54652" lon="6.90593">
        <ele>336.6</ele>
        <time>2013-09-28T11:52:27Z</time>
      </trkpt>
      <trkpt lat="47.54673" lon="6.90584">
        <ele>337.08</ele>
        <time>2013-09-28T11:52:31Z</time>
      </trkpt>
      <trkpt lat="47.54689" lon="6.90601">
        <ele>337.08</ele>
        <time>2013-09-28T11:52:35Z</time>
      </trkpt>
      <trkpt lat="47.54703" lon="6.90624">
        <ele>336.6</ele>
        <time>2013-09-28T11:52:39Z</time>
      </trkpt>
      <trkpt lat="47.5472" lon="6.90632">
        <ele>337.08</ele>
        <time>2013-09-28T11:52:42Z</time>
      </trkpt>
      <trkpt lat="47.54738" lon="6.90642">
        <ele>336.6</ele>
        <time>2013-09-28T11:52:45Z</time>
      </trkpt>
      <trkpt lat="47.54755" lon="6.90664">
        <ele>336.6</ele>
        <time>2013-09-28T11:52:49Z</time>
      </trkpt>
      <trkpt lat="47.54768" lon="6.90692">
        <ele>336.6</ele>
        <time>2013-09-28T11:52:53Z</time>
      </trkpt>
      <trkpt lat="47.54779" lon="6.9072">
        <ele>337.08</ele>
        <time>2013-09-28T11:52:57Z</time>
      </trkpt>
      <trkpt lat="47.54794" lon="6.90748">
        <ele>337.56</ele>
        <time>2013-09-28T11:53:01Z</time>
      </trkpt>
      <trkpt lat="47.5481" lon="6.90773">
        <ele>338.04</ele>
        <time>2013-09-28T11:53:05Z</time>
      </trkpt>
      <trkpt lat="47.54825" lon="6.908">
        <ele>336.6</ele>
        <time>2013-09-28T11:53:09Z</time>
      </trkpt>
      <trkpt lat="47.54837" lon="6.90821">
        <ele>338.04</ele>
        <time>2013-09-28T11:53:12Z</time>
      </trkpt>
      <trkpt lat="47.54849" lon="6.90843">
        <ele>337.08</ele>
        <time>2013-09-28T11:53:15Z</time>
      </trkpt>
      <trkpt lat="47.5486" lon="6.90865">
        <ele>338.04</ele>
        <time>2013-09-28T11:53:18Z</time>
      </trkpt>
      <trkpt lat="47.54872" lon="6.90886">
        <ele>337.56</ele>
        <time>2013-09-28T11:53:21Z</time>
      </trkpt>
      <trkpt lat="47.54884" lon="6.90907">
        <ele>337.56</ele>
        <time>2013-09-28T11:53:24Z</time>
      </trkpt>
      <trkpt lat="47.54896" lon="6.9093">
        <ele>337.08</ele>
        <time>2013-09-28T11:53:27Z</time>
      </trkpt>
      <trkpt lat="47.54907" lon="6.90951">
        <ele>337.08</ele>
        <time>2013-09-28T11:53:30Z</time>
      </trkpt>
      <trkpt lat="47.54918" lon="6.90973">
        <ele>337.08</ele>
        <time>2013-09-28T11:53:33Z</time>
      </trkpt>
      <trkpt lat="47.5493" lon="6.90995">
        <ele>337.08</ele>
        <time>2013-09-28T11:53:36Z</time>
      </trkpt>
      <trkpt lat="47.54942" lon="6.91017">
        <ele>337.08</ele>
        <time>2013-09-28T11:53:39Z</time>
      </trkpt>
      <trkpt lat="47.54953" lon="6.91039">
        <ele>337.08</ele>
        <time>2013-09-28T11:53:42Z</time>
      </trkpt>
      <trkpt lat="47.54966" lon="6.91061">
        <ele>337.08</ele>
        <time>2013-09-28T11:53:45Z</time>
      </trkpt>
      <trkpt lat="47.54978" lon="6.91083">
        <ele>337.56</ele>
        <time>2013-09-28T11:53:48Z</time>
      </trkpt>
      <trkpt lat="47.54989" lon="6.91105">
        <ele>337.56</ele>
        <time>2013-09-28T11:53:51Z</time>
      </trkpt>
      <trkpt lat="47.55" lon="6.91127">
        <ele>337.56</ele>
        <time>2013-09-28T11:53:54Z</time>
      </trkpt>
      <trkpt lat="47.55012" lon="6.91149">
        <ele>337.08</ele>
        <time>2013-09-28T11:53:57Z</time>
      </trkpt>
      <trkpt lat="47.55024" lon="6.91172">
        <ele>337.08</ele>
        <time>2013-09-28T11:54:00Z</time>
      </trkpt>
      <trkpt lat="47.55035" lon="6.91194">
        <ele>337.56</ele>
        <time>2013-09-28T11:54:03Z</time>
      </trkpt>
      <trkpt lat="47.55047" lon="6.91216">
        <ele>337.56</ele>
        <time>2013-09-28T11:54:06Z</time>
      </trkpt>
      <trkpt lat="47.55059" lon="6.91238">
        <ele>337.08</ele>
        <time>2013-09-28T11:54:09Z</time>
      </trkpt>
      <trkpt lat="47.55071" lon="6.9126">
        <ele>337.08</ele>
        <time>2013-09-28T11:54:12Z</time>
      </trkpt>
      <trkpt lat="47.55082" lon="6.91283">
        <ele>337.08</ele>
        <time>2013-09-28T11:54:15Z</time>
      </trkpt>
      <trkpt lat="47.55094" lon="6.91305">
        <ele>337.56</ele>
        <time>2013-09-28T11:54:18Z</time>
      </trkpt>
      <trkpt lat="47.55106" lon="6.91327">
        <ele>337.56</ele>
        <time>2013-09-28T11:54:21Z</time>
      </trkpt>
      <trkpt lat="47.55117" lon="6.91349">
        <ele>337.56</ele>
        <time>2013-09-28T11:54:24Z</time>
      </trkpt>
      <trkpt lat="47.55129" lon="6.9137">
        <ele>337.56</ele>
        <time>2013-09-28T11:54:27Z</time>
      </trkpt>
      <trkpt lat="47.5514" lon="6.91392">
        <ele>337.08</ele>
        <time>2013-09-28T11:54:30Z</time>
      </trkpt>
      <trkpt lat="47.55152" lon="6.91415">
        <ele>337.08</ele>
        <time>2013-09-28T11:54:33Z</time>
      </trkpt>
      <trkpt lat="47.55164" lon="6.91437">
        <ele>337.56</ele>
        <time>2013-09-28T11:54:36Z</time>
      </trkpt>
      <trkpt lat="47.55175" lon="6.9146">
        <ele>337.56</ele>
        <time>2013-09-28T11:54:39Z</time>
      </trkpt>
      <trkpt lat="47.55188" lon="6.91482">
        <ele>337.56</ele>
        <time>2013-09-28T11:54:42Z</time>
      </trkpt>
      <trkpt lat="47.552" lon="6.91504">
        <ele>337.08</ele>
        <time>2013-09-28T11:54:45Z</time>
      </trkpt>
      <trkpt lat="47.55212" lon="6.91527">
        <ele>338.04</ele>
        <time>2013-09-28T11:54:48Z</time>
      </trkpt>
      <trkpt lat="47.55224" lon="6.91549">
        <ele>337.08</ele>
        <time>2013-09-28T11:54:51Z</time>
      </trkpt>
      <trkpt lat="47.55236" lon="6.91573">
        <ele>337.56</ele>
        <time>2013-09-28T11:54:54Z</time>
      </trkpt>
      <trkpt lat="47.55249" lon="6.91595">
        <ele>337.08</ele>
        <time>2013-09-28T11:54:57Z</time>
      </trkpt>
      <trkpt lat="47.55261" lon="6.91618">
        <ele>337.56</ele>
        <time>2013-09-28T11:55:00Z</time>
      </trkpt>
      <trkpt lat="47.55273" lon="6.91641">
        <ele>337.56</ele>
        <time>2013-09-28T11:55:03Z</time>
      </trkpt>
      <trkpt lat="47.55285" lon="6.91664">
        <ele>337.56</ele>
        <time>2013-09-28T11:55:06Z</time>
      </trkpt>
      <trkpt lat="47.55297" lon="6.91687">
        <ele>337.56</ele>
        <time>2013-09-28T11:55:09Z</time>
      </trkpt>
      <trkpt lat="47.55309" lon="6.91709">
        <ele>337.56</ele>
        <time>2013-09-28T11:55:12Z</time>
      </trkpt>
      <trkpt lat="47.5532" lon="6.91731">
        <ele>337.56</ele>
        <time>2013-09-28T11:55:15Z</time>
      </trkpt>
      <trkpt lat="47.55332" lon="6.91753">
        <ele>337.08</ele>
        <time>2013-09-28T11:55:18Z</time>
      </trkpt>
      <trkpt lat="47.55343" lon="6.91773">
        <ele>337.08</ele>
        <time>2013-09-28T11:55:21Z</time>
      </trkpt>
      <trkpt lat="47.55358" lon="6.91801">
        <ele>337.08</ele>
        <time>2013-09-28T11:55:25Z</time>
      </trkpt>
      <trkpt lat="47.5537" lon="6.91823">
        <ele>337.08</ele>
        <time>2013-09-28T11:55:28Z</time>
      </trkpt>
      <trkpt lat="47.55381" lon="6.91844">
        <ele>337.56</ele>
        <time>2013-09-28T11:55:31Z</time>
      </trkpt>
      <trkpt lat="47.55393" lon="6.91866">
        <ele>337.56</ele>
        <time>2013-09-28T11:55:34Z</time>
      </trkpt>
      <trkpt lat="47.55404" lon="6.91888">
        <ele>338.04</ele>
        <time>2013-09-28T11:55:37Z</time>
      </trkpt>
      <trkpt lat="47.55415" lon="6.9191">
        <ele>337.56</ele>
        <time>2013-09-28T11:55:40Z</time>
      </trkpt>
      <trkpt lat="47.55427" lon="6.91932">
        <ele>337.56</ele>
        <time>2013-09-28T11:55:43Z</time>
      </trkpt>
      <trkpt lat="47.55438" lon="6.91954">
        <ele>337.08</ele>
        <time>2013-09-28T11:55:46Z</time>
      </trkpt>
      <trkpt lat="47.55453" lon="6.91983">
        <ele>338.04</ele>
        <time>2013-09-28T11:55:50Z</time>
      </trkpt>
      <trkpt lat="47.55465" lon="6.92005">
        <ele>337.56</ele>
        <time>2013-09-28T11:55:53Z</time>
      </trkpt>
      <trkpt lat="47.55476" lon="6.92028">
        <ele>337.08</ele>
        <time>2013-09-28T11:55:56Z</time>
      </trkpt>
      <trkpt lat="47.55488" lon="6.9205">
        <ele>337.08</ele>
        <time>2013-09-28T11:55:59Z</time>
      </trkpt>
      <trkpt lat="47.55499" lon="6.92071">
        <ele>337.08</ele>
        <time>2013-09-28T11:56:02Z</time>
      </trkpt>
      <trkpt lat="47.5551" lon="6.92092">
        <ele>337.08</ele>
        <time>2013-09-28T11:56:05Z</time>
      </trkpt>
      <trkpt lat="47.55521" lon="6.92113">
        <ele>337.56</ele>
        <time>2013-09-28T11:56:08Z</time>
      </trkpt>
      <trkpt lat="47.55533" lon="6.92134">
        <ele>338.52</ele>
        <time>2013-09-28T11:56:11Z</time>
      </trkpt>
      <trkpt lat="47.55544" lon="6.92156">
        <ele>337.08</ele>
        <time>2013-09-28T11:56:14Z</time>
      </trkpt>
      <trkpt lat="47.55555" lon="6.92177">
        <ele>337.56</ele>
        <time>2013-09-28T11:56:17Z</time>
      </trkpt>
      <trkpt lat="47.55568" lon="6.92199">
        <ele>337.56</ele>
        <time>2013-09-28T11:56:20Z</time>
      </trkpt>
      <trkpt lat="47.5558" lon="6.92221">
        <ele>337.56</ele>
        <time>2013-09-28T11:56:23Z</time>
      </trkpt>
      <trkpt lat="47.55592" lon="6.92243">
        <ele>337.56</ele>
        <time>2013-09-28T11:56:26Z</time>
      </trkpt>
      <trkpt lat="47.55603" lon="6.92267">
        <ele>338.04</ele>
        <time>2013-09-28T11:56:29Z</time>
      </trkpt>
      <trkpt lat="47.55616" lon="6.92289">
        <ele>338.04</ele>
        <time>2013-09-28T11:56:32Z</time>
      </trkpt>
      <trkpt lat="47.55629" lon="6.9231">
        <ele>337.56</ele>
        <time>2013-09-28T11:56:35Z</time>
      </trkpt>
      <trkpt lat="47.5564" lon="6.92332">
        <ele>337.56</ele>
        <time>2013-09-28T11:56:38Z</time>
      </trkpt>
      <trkpt lat="47.5565" lon="6.92356">
        <ele>339</ele>
        <time>2013-09-28T11:56:41Z</time>
      </trkpt>
      <trkpt lat="47.55661" lon="6.92378">
        <ele>338.04</ele>
        <time>2013-09-28T11:56:44Z</time>
      </trkpt>
      <trkpt lat="47.55673" lon="6.924">
        <ele>338.52</ele>
        <time>2013-09-28T11:56:47Z</time>
      </trkpt>
      <trkpt lat="47.55684" lon="6.92423">
        <ele>338.52</ele>
        <time>2013-09-28T11:56:50Z</time>
      </trkpt>
      <trkpt lat="47.55695" lon="6.92445">
        <ele>339</ele>
        <time>2013-09-28T11:56:53Z</time>
      </trkpt>
      <trkpt lat="47.55706" lon="6.92467">
        <ele>339.48</ele>
        <time>2013-09-28T11:56:56Z</time>
      </trkpt>
      <trkpt lat="47.55722" lon="6.92486">
        <ele>340.44</ele>
        <time>2013-09-28T11:57:01Z</time>
      </trkpt>
      <trkpt lat="47.55718" lon="6.9251">
        <ele>341.89</ele>
        <time>2013-09-28T11:57:09Z</time>
      </trkpt>
      <trkpt lat="47.55711" lon="6.92533">
        <ele>340.44</ele>
        <time>2013-09-28T11:57:18Z</time>
      </trkpt>
      <trkpt lat="47.55726" lon="6.92552">
        <ele>339.48</ele>
        <time>2013-09-28T11:57:23Z</time>
      </trkpt>
      <trkpt lat="47.55737" lon="6.92577">
        <ele>338.52</ele>
        <time>2013-09-28T11:57:26Z</time>
      </trkpt>
      <trkpt lat="47.55748" lon="6.92601">
        <ele>337.56</ele>
        <time>2013-09-28T11:57:29Z</time>
      </trkpt>
      <trkpt lat="47.55759" lon="6.92626">
        <ele>338.52</ele>
        <time>2013-09-28T11:57:32Z</time>
      </trkpt>
      <trkpt lat="47.5577" lon="6.92648">
        <ele>338.52</ele>
        <time>2013-09-28T11:57:35Z</time>
      </trkpt>
      <trkpt lat="47.55781" lon="6.92678">
        <ele>338.52</ele>
        <time>2013-09-28T11:57:39Z</time>
      </trkpt>
      <trkpt lat="47.55792" lon="6.92709">
        <ele>338.04</ele>
        <time>2013-09-28T11:57:43Z</time>
      </trkpt>
      <trkpt lat="47.55804" lon="6.92738">
        <ele>338.52</ele>
        <time>2013-09-28T11:57:47Z</time>
      </trkpt>
      <trkpt lat="47.55819" lon="6.92761">
        <ele>338.52</ele>
        <time>2013-09-28T11:57:51Z</time>
      </trkpt>
      <trkpt lat="47.5583" lon="6.92792">
        <ele>338.04</ele>
        <time>2013-09-28T11:57:55Z</time>
      </trkpt>
      <trkpt lat="47.5584" lon="6.92821">
        <ele>338.52</ele>
        <time>2013-09-28T11:57:59Z</time>
      </trkpt>
      <trkpt lat="47.55851" lon="6.92849">
        <ele>338.52</ele>
        <time>2013-09-28T11:58:03Z</time>
      </trkpt>
      <trkpt lat="47.55859" lon="6.92872">
        <ele>335.64</ele>
        <time>2013-09-28T11:58:06Z</time>
      </trkpt>
      <trkpt lat="47.55868" lon="6.92896">
        <ele>339</ele>
        <time>2013-09-28T11:58:09Z</time>
      </trkpt>
      <trkpt lat="47.55876" lon="6.9292">
        <ele>339</ele>
        <time>2013-09-28T11:58:12Z</time>
      </trkpt>
      <trkpt lat="47.55884" lon="6.92944">
        <ele>338.52</ele>
        <time>2013-09-28T11:58:15Z</time>
      </trkpt>
      <trkpt lat="47.55893" lon="6.92968">
        <ele>339</ele>
        <time>2013-09-28T11:58:18Z</time>
      </trkpt>
      <trkpt lat="47.55902" lon="6.92992">
        <ele>338.52</ele>
        <time>2013-09-28T11:58:21Z</time>
      </trkpt>
      <trkpt lat="47.55908" lon="6.93019">
        <ele>339</ele>
        <time>2013-09-28T11:58:24Z</time>
      </trkpt>
      <trkpt lat="47.55914" lon="6.93045">
        <ele>339</ele>
        <time>2013-09-28T11:58:27Z</time>
      </trkpt>
      <trkpt lat="47.55922" lon="6.93069">
        <ele>338.52</ele>
        <time>2013-09-28T11:58:30Z</time>
      </trkpt>
      <trkpt lat="47.55932" lon="6.93093">
        <ele>339</ele>
        <time>2013-09-28T11:58:33Z</time>
      </trkpt>
      <trkpt lat="47.55941" lon="6.93118">
        <ele>338.52</ele>
        <time>2013-09-28T11:58:36Z</time>
      </trkpt>
      <trkpt lat="47.5595" lon="6.93143">
        <ele>338.52</ele>
        <time>2013-09-28T11:58:39Z</time>
      </trkpt>
      <trkpt lat="47.55959" lon="6.93168">
        <ele>339</ele>
        <time>2013-09-28T11:58:42Z</time>
      </trkpt>
      <trkpt lat="47.55969" lon="6.93192">
        <ele>339.48</ele>
        <time>2013-09-28T11:58:45Z</time>
      </trkpt>
      <trkpt lat="47.55978" lon="6.93216">
        <ele>339</ele>
        <time>2013-09-28T11:58:48Z</time>
      </trkpt>
      <trkpt lat="47.55987" lon="6.9324">
        <ele>339</ele>
        <time>2013-09-28T11:58:51Z</time>
      </trkpt>
      <trkpt lat="47.55996" lon="6.93265">
        <ele>339</ele>
        <time>2013-09-28T11:58:54Z</time>
      </trkpt>
      <trkpt lat="47.56006" lon="6.9329">
        <ele>339</ele>
        <time>2013-09-28T11:58:57Z</time>
      </trkpt>
      <trkpt lat="47.56017" lon="6.93314">
        <ele>338.52</ele>
        <time>2013-09-28T11:59:00Z</time>
      </trkpt>
      <trkpt lat="47.56028" lon="6.93339">
        <ele>339</ele>
        <time>2013-09-28T11:59:03Z</time>
      </trkpt>
      <trkpt lat="47.56039" lon="6.93365">
        <ele>338.52</ele>
        <time>2013-09-28T11:59:06Z</time>
      </trkpt>
      <trkpt lat="47.56049" lon="6.93389">
        <ele>339</ele>
        <time>2013-09-28T11:59:09Z</time>
      </trkpt>
      <trkpt lat="47.56058" lon="6.93414">
        <ele>338.52</ele>
        <time>2013-09-28T11:59:12Z</time>
      </trkpt>
      <trkpt lat="47.56066" lon="6.9344">
        <ele>338.52</ele>
        <time>2013-09-28T11:59:15Z</time>
      </trkpt>
      <trkpt lat="47.56076" lon="6.93464">
        <ele>339</ele>
        <time>2013-09-28T11:59:18Z</time>
      </trkpt>
      <trkpt lat="47.56086" lon="6.93489">
        <ele>339</ele>
        <time>2013-09-28T11:59:21Z</time>
      </trkpt>
      <trkpt lat="47.56097" lon="6.93513">
        <ele>339</ele>
        <time>2013-09-28T11:59:24Z</time>
      </trkpt>
      <trkpt lat="47.56107" lon="6.93537">
        <ele>338.52</ele>
        <time>2013-09-28T11:59:27Z</time>
      </trkpt>
      <trkpt lat="47.56118" lon="6.93561">
        <ele>338.52</ele>
        <time>2013-09-28T11:59:30Z</time>
      </trkpt>
      <trkpt lat="47.5613" lon="6.93584">
        <ele>339</ele>
        <time>2013-09-28T11:59:33Z</time>
      </trkpt>
      <trkpt lat="47.56141" lon="6.93608">
        <ele>339</ele>
        <time>2013-09-28T11:59:36Z</time>
      </trkpt>
      <trkpt lat="47.56152" lon="6.9363">
        <ele>339</ele>
        <time>2013-09-28T11:59:39Z</time>
      </trkpt>
      <trkpt lat="47.56163" lon="6.93653">
        <ele>339</ele>
        <time>2013-09-28T11:59:42Z</time>
      </trkpt>
      <trkpt lat="47.56175" lon="6.93676">
        <ele>339</ele>
        <time>2013-09-28T11:59:45Z</time>
      </trkpt>
      <trkpt lat="47.56187" lon="6.93698">
        <ele>339</ele>
        <time>2013-09-28T11:59:48Z</time>
      </trkpt>
      <trkpt lat="47.56198" lon="6.9372">
        <ele>339</ele>
        <time>2013-09-28T11:59:51Z</time>
      </trkpt>
      <trkpt lat="47.56211" lon="6.93741">
        <ele>339</ele>
        <time>2013-09-28T11:59:54Z</time>
      </trkpt>
      <trkpt lat="47.56223" lon="6.93762">
        <ele>339</ele>
        <time>2013-09-28T11:59:57Z</time>
      </trkpt>
      <trkpt lat="47.56235" lon="6.93784">
        <ele>339</ele>
        <time>2013-09-28T12:00:00Z</time>
      </trkpt>
      <trkpt lat="47.56247" lon="6.93804">
        <ele>339</ele>
        <time>2013-09-28T12:00:03Z</time>
      </trkpt>
      <trkpt lat="47.56259" lon="6.93825">
        <ele>339.48</ele>
        <time>2013-09-28T12:00:06Z</time>
      </trkpt>
      <trkpt lat="47.56271" lon="6.93846">
        <ele>339.48</ele>
        <time>2013-09-28T12:00:09Z</time>
      </trkpt>
      <trkpt lat="47.56284" lon="6.93868">
        <ele>339.96</ele>
        <time>2013-09-28T12:00:12Z</time>
      </trkpt>
      <trkpt lat="47.56296" lon="6.93889">
        <ele>340.44</ele>
        <time>2013-09-28T12:00:15Z</time>
      </trkpt>
      <trkpt lat="47.56312" lon="6.93914">
        <ele>341.41</ele>
        <time>2013-09-28T12:00:19Z</time>
      </trkpt>
      <trkpt lat="47.56329" lon="6.93935">
        <ele>340.44</ele>
        <time>2013-09-28T12:00:23Z</time>
      </trkpt>
      <trkpt lat="47.5634" lon="6.93956">
        <ele>340.44</ele>
        <time>2013-09-28T12:00:26Z</time>
      </trkpt>
      <trkpt lat="47.5635" lon="6.93979">
        <ele>340.44</ele>
        <time>2013-09-28T12:00:29Z</time>
      </trkpt>
      <trkpt lat="47.56364" lon="6.94005">
        <ele>340.92</ele>
        <time>2013-09-28T12:00:33Z</time>
      </trkpt>
      <trkpt lat="47.56377" lon="6.94031">
        <ele>340.92</ele>
        <time>2013-09-28T12:00:37Z</time>
      </trkpt>
      <trkpt lat="47.5639" lon="6.94057">
        <ele>341.41</ele>
        <time>2013-09-28T12:00:41Z</time>
      </trkpt>
      <trkpt lat="47.56403" lon="6.94082">
        <ele>341.41</ele>
        <time>2013-09-28T12:00:45Z</time>
      </trkpt>
      <trkpt lat="47.56418" lon="6.94107">
        <ele>341.89</ele>
        <time>2013-09-28T12:00:49Z</time>
      </trkpt>
      <trkpt lat="47.56433" lon="6.94132">
        <ele>341.89</ele>
        <time>2013-09-28T12:00:53Z</time>
      </trkpt>
      <trkpt lat="47.56448" lon="6.94156">
        <ele>342.37</ele>
        <time>2013-09-28T12:00:57Z</time>
      </trkpt>
      <trkpt lat="47.56463" lon="6.94182">
        <ele>341.89</ele>
        <time>2013-09-28T12:01:01Z</time>
      </trkpt>
      <trkpt lat="47.56478" lon="6.94206">
        <ele>341.89</ele>
        <time>2013-09-28T12:01:05Z</time>
      </trkpt>
      <trkpt lat="47.56494" lon="6.94232">
        <ele>341.89</ele>
        <time>2013-09-28T12:01:09Z</time>
      </trkpt>
      <trkpt lat="47.56509" lon="6.94257">
        <ele>341.89</ele>
        <time>2013-09-28T12:01:13Z</time>
      </trkpt>
      <trkpt lat="47.56524" lon="6.94283">
        <ele>341.41</ele>
        <time>2013-09-28T12:01:17Z</time>
      </trkpt>
      <trkpt lat="47.56541" lon="6.94307">
        <ele>341.41</ele>
        <time>2013-09-28T12:01:21Z</time>
      </trkpt>
      <trkpt lat="47.56556" lon="6.94332">
        <ele>341.41</ele>
        <time>2013-09-28T12:01:25Z</time>
      </trkpt>
      <trkpt lat="47.56572" lon="6.94355">
        <ele>340.92</ele>
        <time>2013-09-28T12:01:29Z</time>
      </trkpt>
      <trkpt lat="47.56585" lon="6.94376">
        <ele>340.92</ele>
        <time>2013-09-28T12:01:33Z</time>
      </trkpt>
      <trkpt lat="47.56598" lon="6.94396">
        <ele>341.41</ele>
        <time>2013-09-28T12:01:38Z</time>
      </trkpt>
      <trkpt lat="47.56611" lon="6.94415">
        <ele>340.92</ele>
        <time>2013-09-28T12:01:44Z</time>
      </trkpt>
      <trkpt lat="47.56626" lon="6.94436">
        <ele>340.92</ele>
        <time>2013-09-28T12:01:49Z</time>
      </trkpt>
      <trkpt lat="47.56641" lon="6.94452">
        <ele>340.92</ele>
        <time>2013-09-28T12:01:53Z</time>
      </trkpt>
      <trkpt lat="47.56654" lon="6.94476">
        <ele>340.92</ele>
        <time>2013-09-28T12:01:57Z</time>
      </trkpt>
      <trkpt lat="47.56666" lon="6.94501">
        <ele>340.44</ele>
        <time>2013-09-28T12:02:01Z</time>
      </trkpt>
      <trkpt lat="47.56679" lon="6.94522">
        <ele>340.92</ele>
        <time>2013-09-28T12:02:05Z</time>
      </trkpt>
      <trkpt lat="47.56693" lon="6.94542">
        <ele>340.44</ele>
        <time>2013-09-28T12:02:09Z</time>
      </trkpt>
      <trkpt lat="47.56705" lon="6.94562">
        <ele>340.44</ele>
        <time>2013-09-28T12:02:13Z</time>
      </trkpt>
      <trkpt lat="47.56717" lon="6.94581">
        <ele>340.92</ele>
        <time>2013-09-28T12:02:17Z</time>
      </trkpt>
      <trkpt lat="47.5673" lon="6.94601">
        <ele>340.44</ele>
        <time>2013-09-28T12:02:21Z</time>
      </trkpt>
      <trkpt lat="47.56743" lon="6.94624">
        <ele>340.44</ele>
        <time>2013-09-28T12:02:25Z</time>
      </trkpt>
      <trkpt lat="47.56758" lon="6.94648">
        <ele>340.92</ele>
        <time>2013-09-28T12:02:29Z</time>
      </trkpt>
      <trkpt lat="47.56773" lon="6.94673">
        <ele>340.44</ele>
        <time>2013-09-28T12:02:33Z</time>
      </trkpt>
      <trkpt lat="47.56789" lon="6.94698">
        <ele>340.44</ele>
        <time>2013-09-28T12:02:37Z</time>
      </trkpt>
      <trkpt lat="47.56804" lon="6.94722">
        <ele>340.44</ele>
        <time>2013-09-28T12:02:41Z</time>
      </trkpt>
      <trkpt lat="47.56819" lon="6.94747">
        <ele>337.56</ele>
        <time>2013-09-28T12:02:45Z</time>
      </trkpt>
      <trkpt lat="47.56836" lon="6.94772">
        <ele>340.92</ele>
        <time>2013-09-28T12:02:49Z</time>
      </trkpt>
      <trkpt lat="47.56852" lon="6.94798">
        <ele>340.92</ele>
        <time>2013-09-28T12:02:53Z</time>
      </trkpt>
      <trkpt lat="47.56864" lon="6.94817">
        <ele>340.92</ele>
        <time>2013-09-28T12:02:56Z</time>
      </trkpt>
      <trkpt lat="47.56876" lon="6.94838">
        <ele>340.44</ele>
        <time>2013-09-28T12:02:59Z</time>
      </trkpt>
      <trkpt lat="47.56889" lon="6.94858">
        <ele>340.44</ele>
        <time>2013-09-28T12:03:02Z</time>
      </trkpt>
      <trkpt lat="47.56903" lon="6.94878">
        <ele>340.92</ele>
        <time>2013-09-28T12:03:05Z</time>
      </trkpt>
      <trkpt lat="47.56917" lon="6.94897">
        <ele>340.92</ele>
        <time>2013-09-28T12:03:08Z</time>
      </trkpt>
      <trkpt lat="47.56931" lon="6.94916">
        <ele>340.92</ele>
        <time>2013-09-28T12:03:11Z</time>
      </trkpt>
      <trkpt lat="47.56946" lon="6.94934">
        <ele>340.92</ele>
        <time>2013-09-28T12:03:14Z</time>
      </trkpt>
      <trkpt lat="47.5696" lon="6.94952">
        <ele>340.44</ele>
        <time>2013-09-28T12:03:17Z</time>
      </trkpt>
      <trkpt lat="47.56975" lon="6.9497">
        <ele>341.41</ele>
        <time>2013-09-28T12:03:20Z</time>
      </trkpt>
      <trkpt lat="47.5699" lon="6.94987">
        <ele>340.44</ele>
        <time>2013-09-28T12:03:23Z</time>
      </trkpt>
      <trkpt lat="47.57005" lon="6.95005">
        <ele>340.92</ele>
        <time>2013-09-28T12:03:26Z</time>
      </trkpt>
      <trkpt lat="47.57021" lon="6.95022">
        <ele>341.41</ele>
        <time>2013-09-28T12:03:29Z</time>
      </trkpt>
      <trkpt lat="47.57035" lon="6.95039">
        <ele>340.92</ele>
        <time>2013-09-28T12:03:32Z</time>
      </trkpt>
      <trkpt lat="47.57051" lon="6.95055">
        <ele>340.92</ele>
        <time>2013-09-28T12:03:35Z</time>
      </trkpt>
      <trkpt lat="47.57066" lon="6.95072">
        <ele>340.92</ele>
        <time>2013-09-28T12:03:38Z</time>
      </trkpt>
      <trkpt lat="47.57081" lon="6.95089">
        <ele>341.41</ele>
        <time>2013-09-28T12:03:41Z</time>
      </trkpt>
      <trkpt lat="47.57095" lon="6.95106">
        <ele>341.41</ele>
        <time>2013-09-28T12:03:44Z</time>
      </trkpt>
      <trkpt lat="47.5711" lon="6.95123">
        <ele>341.41</ele>
        <time>2013-09-28T12:03:47Z</time>
      </trkpt>
      <trkpt lat="47.57124" lon="6.9514">
        <ele>341.41</ele>
        <time>2013-09-28T12:03:50Z</time>
      </trkpt>
      <trkpt lat="47.57138" lon="6.95157">
        <ele>340.92</ele>
        <time>2013-09-28T12:03:53Z</time>
      </trkpt>
      <trkpt lat="47.57153" lon="6.95174">
        <ele>341.41</ele>
        <time>2013-09-28T12:03:56Z</time>
      </trkpt>
      <trkpt lat="47.57168" lon="6.95191">
        <ele>341.41</ele>
        <time>2013-09-28T12:03:59Z</time>
      </trkpt>
      <trkpt lat="47.57183" lon="6.95207">
        <ele>340.92</ele>
        <time>2013-09-28T12:04:02Z</time>
      </trkpt>
      <trkpt lat="47.57198" lon="6.95225">
        <ele>340.92</ele>
        <time>2013-09-28T12:04:05Z</time>
      </trkpt>
      <trkpt lat="47.57212" lon="6.95242">
        <ele>340.92</ele>
        <time>2013-09-28T12:04:08Z</time>
      </trkpt>
      <trkpt lat="47.57228" lon="6.95259">
        <ele>342.85</ele>
        <time>2013-09-28T12:04:11Z</time>
      </trkpt>
      <trkpt lat="47.57243" lon="6.95277">
        <ele>341.41</ele>
        <time>2013-09-28T12:04:14Z</time>
      </trkpt>
      <trkpt lat="47.57258" lon="6.95295">
        <ele>341.89</ele>
        <time>2013-09-28T12:04:17Z</time>
      </trkpt>
      <trkpt lat="47.57273" lon="6.95312">
        <ele>342.37</ele>
        <time>2013-09-28T12:04:20Z</time>
      </trkpt>
      <trkpt lat="47.57288" lon="6.95329">
        <ele>342.37</ele>
        <time>2013-09-28T12:04:23Z</time>
      </trkpt>
      <trkpt lat="47.57304" lon="6.95346">
        <ele>341.89</ele>
        <time>2013-09-28T12:04:26Z</time>
      </trkpt>
      <trkpt lat="47.57319" lon="6.95364">
        <ele>341.41</ele>
        <time>2013-09-28T12:04:29Z</time>
      </trkpt>
      <trkpt lat="47.57335" lon="6.95382">
        <ele>341.41</ele>
        <time>2013-09-28T12:04:32Z</time>
      </trkpt>
      <trkpt lat="47.5735" lon="6.954">
        <ele>341.89</ele>
        <time>2013-09-28T12:04:35Z</time>
      </trkpt>
      <trkpt lat="47.57366" lon="6.95418">
        <ele>341.41</ele>
        <time>2013-09-28T12:04:38Z</time>
      </trkpt>
      <trkpt lat="47.57381" lon="6.95436">
        <ele>340.92</ele>
        <time>2013-09-28T12:04:41Z</time>
      </trkpt>
      <trkpt lat="47.57397" lon="6.95454">
        <ele>341.89</ele>
        <time>2013-09-28T12:04:44Z</time>
      </trkpt>
      <trkpt lat="47.57412" lon="6.95472">
        <ele>341.41</ele>
        <time>2013-09-28T12:04:47Z</time>
      </trkpt>
      <trkpt lat="47.57428" lon="6.95489">
        <ele>341.89</ele>
        <time>2013-09-28T12:04:50Z</time>
      </trkpt>
      <trkpt lat="47.57443" lon="6.95507">
        <ele>341.89</ele>
        <time>2013-09-28T12:04:53Z</time>
      </trkpt>
      <trkpt lat="47.57459" lon="6.95525">
        <ele>341.89</ele>
        <time>2013-09-28T12:04:56Z</time>
      </trkpt>
      <trkpt lat="47.57475" lon="6.95542">
        <ele>341.89</ele>
        <time>2013-09-28T12:04:59Z</time>
      </trkpt>
      <trkpt lat="47.5749" lon="6.9556">
        <ele>341.89</ele>
        <time>2013-09-28T12:05:02Z</time>
      </trkpt>
      <trkpt lat="47.57506" lon="6.95578">
        <ele>341.89</ele>
        <time>2013-09-28T12:05:05Z</time>
      </trkpt>
      <trkpt lat="47.57522" lon="6.95597">
        <ele>342.37</ele>
        <time>2013-09-28T12:05:08Z</time>
      </trkpt>
      <trkpt lat="47.57537" lon="6.95615">
        <ele>342.37</ele>
        <time>2013-09-28T12:05:11Z</time>
      </trkpt>
      <trkpt lat="47.57552" lon="6.95633">
        <ele>342.37</ele>
        <time>2013-09-28T12:05:14Z</time>
      </trkpt>
      <trkpt lat="47.57567" lon="6.95652">
        <ele>341.89</ele>
        <time>2013-09-28T12:05:17Z</time>
      </trkpt>
      <trkpt lat="47.57583" lon="6.95671">
        <ele>342.85</ele>
        <time>2013-09-28T12:05:20Z</time>
      </trkpt>
      <trkpt lat="47.57597" lon="6.95691">
        <ele>341.89</ele>
        <time>2013-09-28T12:05:23Z</time>
      </trkpt>
      <trkpt lat="47.57612" lon="6.95712">
        <ele>341.89</ele>
        <time>2013-09-28T12:05:26Z</time>
      </trkpt>
      <trkpt lat="47.57626" lon="6.95732">
        <ele>341.41</ele>
        <time>2013-09-28T12:05:29Z</time>
      </trkpt>
      <trkpt lat="47.57639" lon="6.95752">
        <ele>341.89</ele>
        <time>2013-09-28T12:05:32Z</time>
      </trkpt>
      <trkpt lat="47.57653" lon="6.95772">
        <ele>342.37</ele>
        <time>2013-09-28T12:05:35Z</time>
      </trkpt>
      <trkpt lat="47.57666" lon="6.95793">
        <ele>342.37</ele>
        <time>2013-09-28T12:05:38Z</time>
      </trkpt>
      <trkpt lat="47.5768" lon="6.95814">
        <ele>342.37</ele>
        <time>2013-09-28T12:05:41Z</time>
      </trkpt>
      <trkpt lat="47.57692" lon="6.95833">
        <ele>342.37</ele>
        <time>2013-09-28T12:05:44Z</time>
      </trkpt>
      <trkpt lat="47.57705" lon="6.95852">
        <ele>342.85</ele>
        <time>2013-09-28T12:05:47Z</time>
      </trkpt>
      <trkpt lat="47.57718" lon="6.95871">
        <ele>342.37</ele>
        <time>2013-09-28T12:05:50Z</time>
      </trkpt>
      <trkpt lat="47.57731" lon="6.95891">
        <ele>342.37</ele>
        <time>2013-09-28T12:05:53Z</time>
      </trkpt>
      <trkpt lat="47.57744" lon="6.9591">
        <ele>341.89</ele>
        <time>2013-09-28T12:05:56Z</time>
      </trkpt>
      <trkpt lat="47.57757" lon="6.9593">
        <ele>341.89</ele>
        <time>2013-09-28T12:05:59Z</time>
      </trkpt>
      <trkpt lat="47.5777" lon="6.9595">
        <ele>342.37</ele>
        <time>2013-09-28T12:06:02Z</time>
      </trkpt>
      <trkpt lat="47.57783" lon="6.9597">
        <ele>341.89</ele>
        <time>2013-09-28T12:06:05Z</time>
      </trkpt>
      <trkpt lat="47.57795" lon="6.9599">
        <ele>342.37</ele>
        <time>2013-09-28T12:06:08Z</time>
      </trkpt>
      <trkpt lat="47.57809" lon="6.9601">
        <ele>342.37</ele>
        <time>2013-09-28T12:06:11Z</time>
      </trkpt>
      <trkpt lat="47.57822" lon="6.9603">
        <ele>342.37</ele>
        <time>2013-09-28T12:06:14Z</time>
      </trkpt>
      <trkpt lat="47.57835" lon="6.9605">
        <ele>342.37</ele>
        <time>2013-09-28T12:06:17Z</time>
      </trkpt>
      <trkpt lat="47.57848" lon="6.9607">
        <ele>342.37</ele>
        <time>2013-09-28T12:06:20Z</time>
      </trkpt>
      <trkpt lat="47.57863" lon="6.96088">
        <ele>341.89</ele>
        <time>2013-09-28T12:06:23Z</time>
      </trkpt>
      <trkpt lat="47.57877" lon="6.96106">
        <ele>341.89</ele>
        <time>2013-09-28T12:06:26Z</time>
      </trkpt>
      <trkpt lat="47.57891" lon="6.96125">
        <ele>342.37</ele>
        <time>2013-09-28T12:06:29Z</time>
      </trkpt>
      <trkpt lat="47.57907" lon="6.96148">
        <ele>342.85</ele>
        <time>2013-09-28T12:06:33Z</time>
      </trkpt>
      <trkpt lat="47.57922" lon="6.96172">
        <ele>342.85</ele>
        <time>2013-09-28T12:06:37Z</time>
      </trkpt>
      <trkpt lat="47.57938" lon="6.96197">
        <ele>343.33</ele>
        <time>2013-09-28T12:06:41Z</time>
      </trkpt>
      <trkpt lat="47.57954" lon="6.96222">
        <ele>343.81</ele>
        <time>2013-09-28T12:06:45Z</time>
      </trkpt>
      <trkpt lat="47.5797" lon="6.96248">
        <ele>342.85</ele>
        <time>2013-09-28T12:06:49Z</time>
      </trkpt>
      <trkpt lat="47.57983" lon="6.96269">
        <ele>342.85</ele>
        <time>2013-09-28T12:06:52Z</time>
      </trkpt>
      <trkpt lat="47.57996" lon="6.96288">
        <ele>342.85</ele>
        <time>2013-09-28T12:06:55Z</time>
      </trkpt>
      <trkpt lat="47.58008" lon="6.96308">
        <ele>343.33</ele>
        <time>2013-09-28T12:06:58Z</time>
      </trkpt>
      <trkpt lat="47.58024" lon="6.96333">
        <ele>342.85</ele>
        <time>2013-09-28T12:07:02Z</time>
      </trkpt>
      <trkpt lat="47.5804" lon="6.96359">
        <ele>343.33</ele>
        <time>2013-09-28T12:07:06Z</time>
      </trkpt>
      <trkpt lat="47.58057" lon="6.96383">
        <ele>343.33</ele>
        <time>2013-09-28T12:07:10Z</time>
      </trkpt>
      <trkpt lat="47.58071" lon="6.964">
        <ele>342.85</ele>
        <time>2013-09-28T12:07:14Z</time>
      </trkpt>
      <trkpt lat="47.58083" lon="6.96423">
        <ele>342.85</ele>
        <time>2013-09-28T12:07:35Z</time>
      </trkpt>
      <trkpt lat="47.58096" lon="6.96443">
        <ele>342.85</ele>
        <time>2013-09-28T12:07:39Z</time>
      </trkpt>
      <trkpt lat="47.58111" lon="6.96466">
        <ele>343.33</ele>
        <time>2013-09-28T12:07:43Z</time>
      </trkpt>
      <trkpt lat="47.58126" lon="6.9649">
        <ele>343.33</ele>
        <time>2013-09-28T12:07:47Z</time>
      </trkpt>
      <trkpt lat="47.58143" lon="6.96513">
        <ele>343.33</ele>
        <time>2013-09-28T12:07:51Z</time>
      </trkpt>
      <trkpt lat="47.58159" lon="6.96539">
        <ele>343.81</ele>
        <time>2013-09-28T12:07:55Z</time>
      </trkpt>
      <trkpt lat="47.58172" lon="6.96558">
        <ele>343.81</ele>
        <time>2013-09-28T12:07:58Z</time>
      </trkpt>
      <trkpt lat="47.58189" lon="6.9658">
        <ele>343.33</ele>
        <time>2013-09-28T12:08:02Z</time>
      </trkpt>
      <trkpt lat="47.58203" lon="6.96599">
        <ele>343.33</ele>
        <time>2013-09-28T12:08:06Z</time>
      </trkpt>
      <trkpt lat="47.58218" lon="6.96623">
        <ele>343.81</ele>
        <time>2013-09-28T12:08:10Z</time>
      </trkpt>
      <trkpt lat="47.58231" lon="6.96643">
        <ele>344.29</ele>
        <time>2013-09-28T12:08:13Z</time>
      </trkpt>
      <trkpt lat="47.58244" lon="6.96665">
        <ele>343.33</ele>
        <time>2013-09-28T12:08:16Z</time>
      </trkpt>
      <trkpt lat="47.58257" lon="6.96688">
        <ele>343.81</ele>
        <time>2013-09-28T12:08:19Z</time>
      </trkpt>
      <trkpt lat="47.58271" lon="6.96709">
        <ele>343.81</ele>
        <time>2013-09-28T12:08:22Z</time>
      </trkpt>
      <trkpt lat="47.58286" lon="6.9673">
        <ele>343.81</ele>
        <time>2013-09-28T12:08:25Z</time>
      </trkpt>
      <trkpt lat="47.583" lon="6.96752">
        <ele>343.81</ele>
        <time>2013-09-28T12:08:28Z</time>
      </trkpt>
      <trkpt lat="47.58314" lon="6.96774">
        <ele>343.33</ele>
        <time>2013-09-28T12:08:31Z</time>
      </trkpt>
      <trkpt lat="47.58328" lon="6.96796">
        <ele>343.81</ele>
        <time>2013-09-28T12:08:34Z</time>
      </trkpt>
      <trkpt lat="47.58341" lon="6.96817">
        <ele>344.29</ele>
        <time>2013-09-28T12:08:37Z</time>
      </trkpt>
      <trkpt lat="47.58355" lon="6.96839">
        <ele>343.81</ele>
        <time>2013-09-28T12:08:40Z</time>
      </trkpt>
      <trkpt lat="47.58369" lon="6.96862">
        <ele>343.81</ele>
        <time>2013-09-28T12:08:43Z</time>
      </trkpt>
      <trkpt lat="47.58383" lon="6.96884">
        <ele>343.81</ele>
        <time>2013-09-28T12:08:46Z</time>
      </trkpt>
      <trkpt lat="47.58397" lon="6.96905">
        <ele>344.29</ele>
        <time>2013-09-28T12:08:49Z</time>
      </trkpt>
      <trkpt lat="47.58411" lon="6.96927">
        <ele>343.81</ele>
        <time>2013-09-28T12:08:52Z</time>
      </trkpt>
      <trkpt lat="47.58426" lon="6.96949">
        <ele>344.29</ele>
        <time>2013-09-28T12:08:55Z</time>
      </trkpt>
      <trkpt lat="47.58442" lon="6.9697">
        <ele>343.81</ele>
        <time>2013-09-28T12:08:58Z</time>
      </trkpt>
      <trkpt lat="47.58456" lon="6.96992">
        <ele>343.81</ele>
        <time>2013-09-28T12:09:01Z</time>
      </trkpt>
      <trkpt lat="47.58469" lon="6.97013">
        <ele>343.81</ele>
        <time>2013-09-28T12:09:04Z</time>
      </trkpt>
      <trkpt lat="47.58481" lon="6.97032">
        <ele>343.33</ele>
        <time>2013-09-28T12:09:07Z</time>
      </trkpt>
      <trkpt lat="47.58494" lon="6.97052">
        <ele>342.85</ele>
        <time>2013-09-28T12:09:10Z</time>
      </trkpt>
      <trkpt lat="47.58506" lon="6.97073">
        <ele>342.37</ele>
        <time>2013-09-28T12:09:13Z</time>
      </trkpt>
      <trkpt lat="47.58519" lon="6.97094">
        <ele>342.37</ele>
        <time>2013-09-28T12:09:16Z</time>
      </trkpt>
      <trkpt lat="47.58533" lon="6.97113">
        <ele>342.85</ele>
        <time>2013-09-28T12:09:19Z</time>
      </trkpt>
      <trkpt lat="47.58545" lon="6.97133">
        <ele>342.85</ele>
        <time>2013-09-28T12:09:22Z</time>
      </trkpt>
      <trkpt lat="47.58558" lon="6.97152">
        <ele>343.33</ele>
        <time>2013-09-28T12:09:25Z</time>
      </trkpt>
      <trkpt lat="47.58574" lon="6.97177">
        <ele>342.37</ele>
        <time>2013-09-28T12:09:29Z</time>
      </trkpt>
      <trkpt lat="47.58587" lon="6.97197">
        <ele>342.37</ele>
        <time>2013-09-28T12:09:32Z</time>
      </trkpt>
      <trkpt lat="47.586" lon="6.97216">
        <ele>342.85</ele>
        <time>2013-09-28T12:09:35Z</time>
      </trkpt>
      <trkpt lat="47.58612" lon="6.97236">
        <ele>342.85</ele>
        <time>2013-09-28T12:09:38Z</time>
      </trkpt>
      <trkpt lat="47.58625" lon="6.97256">
        <ele>344.29</ele>
        <time>2013-09-28T12:09:41Z</time>
      </trkpt>
      <trkpt lat="47.58638" lon="6.97276">
        <ele>342.37</ele>
        <time>2013-09-28T12:09:44Z</time>
      </trkpt>
      <trkpt lat="47.58651" lon="6.97295">
        <ele>342.85</ele>
        <time>2013-09-28T12:09:47Z</time>
      </trkpt>
      <trkpt lat="47.58664" lon="6.97316">
        <ele>342.37</ele>
        <time>2013-09-28T12:09:50Z</time>
      </trkpt>
      <trkpt lat="47.58677" lon="6.97336">
        <ele>342.85</ele>
        <time>2013-09-28T12:09:53Z</time>
      </trkpt>
      <trkpt lat="47.5869" lon="6.97356">
        <ele>342.37</ele>
        <time>2013-09-28T12:09:56Z</time>
      </trkpt>
      <trkpt lat="47.58703" lon="6.97374">
        <ele>342.85</ele>
        <time>2013-09-28T12:09:59Z</time>
      </trkpt>
      <trkpt lat="47.58716" lon="6.97394">
        <ele>342.85</ele>
        <time>2013-09-28T12:10:02Z</time>
      </trkpt>
      <trkpt lat="47.58729" lon="6.97414">
        <ele>342.37</ele>
        <time>2013-09-28T12:10:05Z</time>
      </trkpt>
      <trkpt lat="47.58743" lon="6.97435">
        <ele>342.37</ele>
        <time>2013-09-28T12:10:08Z</time>
      </trkpt>
      <trkpt lat="47.58756" lon="6.97455">
        <ele>342.37</ele>
        <time>2013-09-28T12:10:11Z</time>
      </trkpt>
      <trkpt lat="47.58768" lon="6.97474">
        <ele>342.85</ele>
        <time>2013-09-28T12:10:14Z</time>
      </trkpt>
      <trkpt lat="47.58781" lon="6.97494">
        <ele>342.37</ele>
        <time>2013-09-28T12:10:17Z</time>
      </trkpt>
      <trkpt lat="47.58797" lon="6.97519">
        <ele>343.33</ele>
        <time>2013-09-28T12:10:21Z</time>
      </trkpt>
      <trkpt lat="47.58813" lon="6.97545">
        <ele>342.85</ele>
        <time>2013-09-28T12:10:25Z</time>
      </trkpt>
      <trkpt lat="47.58825" lon="6.97566">
        <ele>342.37</ele>
        <time>2013-09-28T12:10:28Z</time>
      </trkpt>
      <trkpt lat="47.58838" lon="6.97585">
        <ele>342.85</ele>
        <time>2013-09-28T12:10:31Z</time>
      </trkpt>
      <trkpt lat="47.58851" lon="6.97605">
        <ele>342.85</ele>
        <time>2013-09-28T12:10:34Z</time>
      </trkpt>
      <trkpt lat="47.58863" lon="6.97624">
        <ele>343.33</ele>
        <time>2013-09-28T12:10:37Z</time>
      </trkpt>
      <trkpt lat="47.58876" lon="6.97644">
        <ele>342.85</ele>
        <time>2013-09-28T12:10:40Z</time>
      </trkpt>
      <trkpt lat="47.58888" lon="6.97664">
        <ele>343.81</ele>
        <time>2013-09-28T12:10:43Z</time>
      </trkpt>
      <trkpt lat="47.58902" lon="6.97685">
        <ele>343.33</ele>
        <time>2013-09-28T12:10:46Z</time>
      </trkpt>
      <trkpt lat="47.58915" lon="6.97706">
        <ele>343.81</ele>
        <time>2013-09-28T12:10:49Z</time>
      </trkpt>
      <trkpt lat="47.58929" lon="6.97726">
        <ele>343.33</ele>
        <time>2013-09-28T12:10:52Z</time>
      </trkpt>
      <trkpt lat="47.58943" lon="6.97746">
        <ele>343.33</ele>
        <time>2013-09-28T12:10:55Z</time>
      </trkpt>
      <trkpt lat="47.58957" lon="6.97765">
        <ele>343.33</ele>
        <time>2013-09-28T12:10:58Z</time>
      </trkpt>
      <trkpt lat="47.5897" lon="6.97785">
        <ele>343.81</ele>
        <time>2013-09-28T12:11:01Z</time>
      </trkpt>
      <trkpt lat="47.58983" lon="6.97806">
        <ele>343.81</ele>
        <time>2013-09-28T12:11:04Z</time>
      </trkpt>
      <trkpt lat="47.58995" lon="6.97826">
        <ele>343.33</ele>
        <time>2013-09-28T12:11:07Z</time>
      </trkpt>
      <trkpt lat="47.59009" lon="6.97845">
        <ele>343.33</ele>
        <time>2013-09-28T12:11:10Z</time>
      </trkpt>
      <trkpt lat="47.59021" lon="6.97865">
        <ele>343.33</ele>
        <time>2013-09-28T12:11:13Z</time>
      </trkpt>
      <trkpt lat="47.59034" lon="6.97885">
        <ele>343.33</ele>
        <time>2013-09-28T12:11:16Z</time>
      </trkpt>
      <trkpt lat="47.5905" lon="6.9791">
        <ele>343.81</ele>
        <time>2013-09-28T12:11:20Z</time>
      </trkpt>
      <trkpt lat="47.59063" lon="6.97929">
        <ele>343.33</ele>
        <time>2013-09-28T12:11:23Z</time>
      </trkpt>
      <trkpt lat="47.59076" lon="6.97949">
        <ele>342.85</ele>
        <time>2013-09-28T12:11:26Z</time>
      </trkpt>
      <trkpt lat="47.5909" lon="6.97968">
        <ele>343.81</ele>
        <time>2013-09-28T12:11:29Z</time>
      </trkpt>
      <trkpt lat="47.59102" lon="6.97988">
        <ele>343.81</ele>
        <time>2013-09-28T12:11:32Z</time>
      </trkpt>
      <trkpt lat="47.59115" lon="6.98008">
        <ele>344.29</ele>
        <time>2013-09-28T12:11:35Z</time>
      </trkpt>
      <trkpt lat="47.59129" lon="6.98029">
        <ele>343.81</ele>
        <time>2013-09-28T12:11:38Z</time>
      </trkpt>
      <trkpt lat="47.59143" lon="6.98049">
        <ele>343.81</ele>
        <time>2013-09-28T12:11:41Z</time>
      </trkpt>
      <trkpt lat="47.59157" lon="6.98069">
        <ele>344.29</ele>
        <time>2013-09-28T12:11:44Z</time>
      </trkpt>
      <trkpt lat="47.59171" lon="6.9809">
        <ele>344.29</ele>
        <time>2013-09-28T12:11:47Z</time>
      </trkpt>
      <trkpt lat="47.59185" lon="6.98111">
        <ele>344.29</ele>
        <time>2013-09-28T12:11:50Z</time>
      </trkpt>
      <trkpt lat="47.59197" lon="6.98132">
        <ele>344.77</ele>
        <time>2013-09-28T12:11:53Z</time>
      </trkpt>
      <trkpt lat="47.59211" lon="6.98154">
        <ele>343.81</ele>
        <time>2013-09-28T12:11:56Z</time>
      </trkpt>
      <trkpt lat="47.59225" lon="6.98175">
        <ele>343.81</ele>
        <time>2013-09-28T12:11:59Z</time>
      </trkpt>
      <trkpt lat="47.59239" lon="6.98196">
        <ele>344.29</ele>
        <time>2013-09-28T12:12:02Z</time>
      </trkpt>
      <trkpt lat="47.59253" lon="6.98216">
        <ele>343.81</ele>
        <time>2013-09-28T12:12:05Z</time>
      </trkpt>
      <trkpt lat="47.59268" lon="6.98232">
        <ele>344.29</ele>
        <time>2013-09-28T12:12:08Z</time>
      </trkpt>
      <trkpt lat="47.59283" lon="6.98248">
        <ele>344.29</ele>
        <time>2013-09-28T12:12:11Z</time>
      </trkpt>
      <trkpt lat="47.59296" lon="6.9827">
        <ele>344.77</ele>
        <time>2013-09-28T12:12:14Z</time>
      </trkpt>
      <trkpt lat="47.59307" lon="6.98291">
        <ele>345.25</ele>
        <time>2013-09-28T12:12:17Z</time>
      </trkpt>
      <trkpt lat="47.59322" lon="6.98317">
        <ele>345.73</ele>
        <time>2013-09-28T12:12:21Z</time>
      </trkpt>
      <trkpt lat="47.59335" lon="6.98342">
        <ele>346.21</ele>
        <time>2013-09-28T12:12:25Z</time>
      </trkpt>
      <trkpt lat="47.59349" lon="6.98367">
        <ele>345.73</ele>
        <time>2013-09-28T12:12:29Z</time>
      </trkpt>
      <trkpt lat="47.59364" lon="6.98393">
        <ele>346.21</ele>
        <time>2013-09-28T12:12:33Z</time>
      </trkpt>
      <trkpt lat="47.59379" lon="6.98419">
        <ele>345.25</ele>
        <time>2013-09-28T12:12:37Z</time>
      </trkpt>
      <trkpt lat="47.59395" lon="6.98444">
        <ele>345.73</ele>
        <time>2013-09-28T12:12:41Z</time>
      </trkpt>
      <trkpt lat="47.5941" lon="6.98467">
        <ele>346.21</ele>
        <time>2013-09-28T12:12:45Z</time>
      </trkpt>
      <trkpt lat="47.59426" lon="6.98492">
        <ele>346.21</ele>
        <time>2013-09-28T12:12:49Z</time>
      </trkpt>
      <trkpt lat="47.59442" lon="6.98517">
        <ele>345.73</ele>
        <time>2013-09-28T12:12:53Z</time>
      </trkpt>
      <trkpt lat="47.59454" lon="6.98536">
        <ele>346.21</ele>
        <time>2013-09-28T12:12:56Z</time>
      </trkpt>
      <trkpt lat="47.5947" lon="6.98562">
        <ele>346.21</ele>
        <time>2013-09-28T12:13:00Z</time>
      </trkpt>
      <trkpt lat="47.59483" lon="6.98581">
        <ele>346.21</ele>
        <time>2013-09-28T12:13:03Z</time>
      </trkpt>
      <trkpt lat="47.59498" lon="6.98607">
        <ele>345.73</ele>
        <time>2013-09-28T12:13:07Z</time>
      </trkpt>
      <trkpt lat="47.59512" lon="6.98633">
        <ele>346.21</ele>
        <time>2013-09-28T12:13:11Z</time>
      </trkpt>
      <trkpt lat="47.59526" lon="6.98661">
        <ele>346.69</ele>
        <time>2013-09-28T12:13:15Z</time>
      </trkpt>
      <trkpt lat="47.59538" lon="6.98692">
        <ele>346.69</ele>
        <time>2013-09-28T12:13:19Z</time>
      </trkpt>
      <trkpt lat="47.59546" lon="6.98716">
        <ele>346.21</ele>
        <time>2013-09-28T12:13:22Z</time>
      </trkpt>
      <trkpt lat="47.59553" lon="6.98742">
        <ele>346.21</ele>
        <time>2013-09-28T12:13:25Z</time>
      </trkpt>
      <trkpt lat="47.59559" lon="6.98767">
        <ele>346.21</ele>
        <time>2013-09-28T12:13:28Z</time>
      </trkpt>
      <trkpt lat="47.59565" lon="6.98793">
        <ele>346.69</ele>
        <time>2013-09-28T12:13:31Z</time>
      </trkpt>
      <trkpt lat="47.59569" lon="6.9882">
        <ele>347.17</ele>
        <time>2013-09-28T12:13:34Z</time>
      </trkpt>
      <trkpt lat="47.59572" lon="6.98847">
        <ele>346.69</ele>
        <time>2013-09-28T12:13:37Z</time>
      </trkpt>
      <trkpt lat="47.59574" lon="6.98874">
        <ele>346.69</ele>
        <time>2013-09-28T12:13:40Z</time>
      </trkpt>
      <trkpt lat="47.59576" lon="6.98903">
        <ele>347.17</ele>
        <time>2013-09-28T12:13:43Z</time>
      </trkpt>
      <trkpt lat="47.59578" lon="6.98932">
        <ele>346.69</ele>
        <time>2013-09-28T12:13:46Z</time>
      </trkpt>
      <trkpt lat="47.59578" lon="6.98962">
        <ele>345.73</ele>
        <time>2013-09-28T12:13:49Z</time>
      </trkpt>
      <trkpt lat="47.5958" lon="6.98991">
        <ele>346.21</ele>
        <time>2013-09-28T12:13:52Z</time>
      </trkpt>
      <trkpt lat="47.59581" lon="6.9902">
        <ele>346.21</ele>
        <time>2013-09-28T12:13:55Z</time>
      </trkpt>
      <trkpt lat="47.59583" lon="6.99049">
        <ele>346.21</ele>
        <time>2013-09-28T12:13:58Z</time>
      </trkpt>
      <trkpt lat="47.59583" lon="6.99077">
        <ele>345.73</ele>
        <time>2013-09-28T12:14:01Z</time>
      </trkpt>
      <trkpt lat="47.59584" lon="6.99105">
        <ele>346.21</ele>
        <time>2013-09-28T12:14:04Z</time>
      </trkpt>
      <trkpt lat="47.59586" lon="6.99132">
        <ele>346.21</ele>
        <time>2013-09-28T12:14:07Z</time>
      </trkpt>
      <trkpt lat="47.59589" lon="6.99159">
        <ele>346.21</ele>
        <time>2013-09-28T12:14:10Z</time>
      </trkpt>
      <trkpt lat="47.59592" lon="6.99194">
        <ele>345.73</ele>
        <time>2013-09-28T12:14:14Z</time>
      </trkpt>
      <trkpt lat="47.59597" lon="6.9922">
        <ele>346.69</ele>
        <time>2013-09-28T12:14:17Z</time>
      </trkpt>
      <trkpt lat="47.59602" lon="6.99246">
        <ele>346.69</ele>
        <time>2013-09-28T12:14:20Z</time>
      </trkpt>
      <trkpt lat="47.59608" lon="6.99271">
        <ele>346.21</ele>
        <time>2013-09-28T12:14:23Z</time>
      </trkpt>
      <trkpt lat="47.59617" lon="6.99304">
        <ele>346.69</ele>
        <time>2013-09-28T12:14:27Z</time>
      </trkpt>
      <trkpt lat="47.59625" lon="6.99328">
        <ele>346.69</ele>
        <time>2013-09-28T12:14:30Z</time>
      </trkpt>
      <trkpt lat="47.59633" lon="6.99353">
        <ele>346.69</ele>
        <time>2013-09-28T12:14:33Z</time>
      </trkpt>
      <trkpt lat="47.59644" lon="6.99377">
        <ele>346.21</ele>
        <time>2013-09-28T12:14:36Z</time>
      </trkpt>
      <trkpt lat="47.59655" lon="6.994">
        <ele>346.21</ele>
        <time>2013-09-28T12:14:39Z</time>
      </trkpt>
      <trkpt lat="47.59667" lon="6.99422">
        <ele>346.21</ele>
        <time>2013-09-28T12:14:42Z</time>
      </trkpt>
      <trkpt lat="47.5968" lon="6.99445">
        <ele>346.21</ele>
        <time>2013-09-28T12:14:45Z</time>
      </trkpt>
      <trkpt lat="47.59695" lon="6.99465">
        <ele>346.21</ele>
        <time>2013-09-28T12:14:48Z</time>
      </trkpt>
      <trkpt lat="47.59709" lon="6.99485">
        <ele>346.21</ele>
        <time>2013-09-28T12:14:51Z</time>
      </trkpt>
      <trkpt lat="47.59723" lon="6.99504">
        <ele>346.69</ele>
        <time>2013-09-28T12:14:54Z</time>
      </trkpt>
      <trkpt lat="47.59737" lon="6.99523">
        <ele>346.21</ele>
        <time>2013-09-28T12:14:57Z</time>
      </trkpt>
      <trkpt lat="47.59753" lon="6.99541">
        <ele>346.21</ele>
        <time>2013-09-28T12:15:00Z</time>
      </trkpt>
      <trkpt lat="47.59769" lon="6.99558">
        <ele>346.21</ele>
        <time>2013-09-28T12:15:03Z</time>
      </trkpt>
      <trkpt lat="47.59787" lon="6.99576">
        <ele>345.73</ele>
        <time>2013-09-28T12:15:06Z</time>
      </trkpt>
      <trkpt lat="47.59805" lon="6.99594">
        <ele>345.25</ele>
        <time>2013-09-28T12:15:09Z</time>
      </trkpt>
      <trkpt lat="47.59822" lon="6.99612">
        <ele>345.73</ele>
        <time>2013-09-28T12:15:12Z</time>
      </trkpt>
      <trkpt lat="47.59838" lon="6.9963">
        <ele>345.73</ele>
        <time>2013-09-28T12:15:15Z</time>
      </trkpt>
      <trkpt lat="47.59853" lon="6.99648">
        <ele>346.21</ele>
        <time>2013-09-28T12:15:18Z</time>
      </trkpt>
      <trkpt lat="47.59868" lon="6.99664">
        <ele>346.21</ele>
        <time>2013-09-28T12:15:21Z</time>
      </trkpt>
      <trkpt lat="47.59883" lon="6.99681">
        <ele>346.21</ele>
        <time>2013-09-28T12:15:24Z</time>
      </trkpt>
      <trkpt lat="47.59898" lon="6.99698">
        <ele>346.21</ele>
        <time>2013-09-28T12:15:27Z</time>
      </trkpt>
      <trkpt lat="47.59914" lon="6.99715">
        <ele>345.73</ele>
        <time>2013-09-28T12:15:30Z</time>
      </trkpt>
      <trkpt lat="47.59929" lon="6.99731">
        <ele>346.21</ele>
        <time>2013-09-28T12:15:33Z</time>
      </trkpt>
      <trkpt lat="47.59944" lon="6.99748">
        <ele>345.73</ele>
        <time>2013-09-28T12:15:36Z</time>
      </trkpt>
      <trkpt lat="47.59959" lon="6.99765">
        <ele>346.21</ele>
        <time>2013-09-28T12:15:39Z</time>
      </trkpt>
      <trkpt lat="47.59973" lon="6.99781">
        <ele>346.21</ele>
        <time>2013-09-28T12:15:42Z</time>
      </trkpt>
      <trkpt lat="47.59988" lon="6.99797">
        <ele>346.21</ele>
        <time>2013-09-28T12:15:45Z</time>
      </trkpt>
      <trkpt lat="47.60003" lon="6.99813">
        <ele>346.21</ele>
        <time>2013-09-28T12:15:48Z</time>
      </trkpt>
      <trkpt lat="47.60017" lon="6.99829">
        <ele>346.21</ele>
        <time>2013-09-28T12:15:51Z</time>
      </trkpt>
      <trkpt lat="47.60032" lon="6.99846">
        <ele>346.21</ele>
        <time>2013-09-28T12:15:54Z</time>
      </trkpt>
      <trkpt lat="47.60048" lon="6.99864">
        <ele>346.69</ele>
        <time>2013-09-28T12:15:57Z</time>
      </trkpt>
      <trkpt lat="47.60062" lon="6.99883">
        <ele>346.21</ele>
        <time>2013-09-28T12:16:00Z</time>
      </trkpt>
      <trkpt lat="47.60075" lon="6.99903">
        <ele>346.21</ele>
        <time>2013-09-28T12:16:03Z</time>
      </trkpt>
      <trkpt lat="47.60086" lon="6.99924">
        <ele>346.69</ele>
        <time>2013-09-28T12:16:06Z</time>
      </trkpt>
      <trkpt lat="47.60098" lon="6.99946">
        <ele>346.69</ele>
        <time>2013-09-28T12:16:09Z</time>
      </trkpt>
      <trkpt lat="47.60109" lon="6.99968">
        <ele>346.69</ele>
        <time>2013-09-28T12:16:12Z</time>
      </trkpt>
      <trkpt lat="47.60118" lon="6.99992">
        <ele>346.69</ele>
        <time>2013-09-28T12:16:15Z</time>
      </trkpt>
      <trkpt lat="47.60126" lon="7.00017">
        <ele>347.65</ele>
        <time>2013-09-28T12:16:18Z</time>
      </trkpt>
      <trkpt lat="47.60134" lon="7.00043">
        <ele>347.17</ele>
        <time>2013-09-28T12:16:21Z</time>
      </trkpt>
      <trkpt lat="47.6014" lon="7.00071">
        <ele>347.65</ele>
        <time>2013-09-28T12:16:24Z</time>
      </trkpt>
      <trkpt lat="47.60143" lon="7.00098">
        <ele>347.17</ele>
        <time>2013-09-28T12:16:27Z</time>
      </trkpt>
      <trkpt lat="47.60143" lon="7.00125">
        <ele>347.17</ele>
        <time>2013-09-28T12:16:30Z</time>
      </trkpt>
      <trkpt lat="47.60143" lon="7.00159">
        <ele>347.65</ele>
        <time>2013-09-28T12:16:34Z</time>
      </trkpt>
      <trkpt lat="47.60139" lon="7.0019">
        <ele>348.62</ele>
        <time>2013-09-28T12:16:38Z</time>
      </trkpt>
      <trkpt lat="47.60131" lon="7.00221">
        <ele>350.06</ele>
        <time>2013-09-28T12:16:43Z</time>
      </trkpt>
      <trkpt lat="47.60122" lon="7.00249">
        <ele>349.58</ele>
        <time>2013-09-28T12:16:47Z</time>
      </trkpt>
      <trkpt lat="47.60116" lon="7.00279">
        <ele>349.58</ele>
        <time>2013-09-28T12:16:51Z</time>
      </trkpt>
      <trkpt lat="47.60109" lon="7.00309">
        <ele>350.06</ele>
        <time>2013-09-28T12:16:55Z</time>
      </trkpt>
      <trkpt lat="47.60102" lon="7.00338">
        <ele>349.58</ele>
        <time>2013-09-28T12:16:59Z</time>
      </trkpt>
      <trkpt lat="47.60096" lon="7.00366">
        <ele>350.06</ele>
        <time>2013-09-28T12:17:03Z</time>
      </trkpt>
      <trkpt lat="47.60093" lon="7.00393">
        <ele>349.58</ele>
        <time>2013-09-28T12:17:07Z</time>
      </trkpt>
      <trkpt lat="47.6009" lon="7.00421">
        <ele>349.58</ele>
        <time>2013-09-28T12:17:11Z</time>
      </trkpt>
      <trkpt lat="47.6009" lon="7.00449">
        <ele>349.58</ele>
        <time>2013-09-28T12:17:15Z</time>
      </trkpt>
      <trkpt lat="47.60091" lon="7.00479">
        <ele>349.58</ele>
        <time>2013-09-28T12:17:19Z</time>
      </trkpt>
      <trkpt lat="47.60092" lon="7.00511">
        <ele>349.58</ele>
        <time>2013-09-28T12:17:23Z</time>
      </trkpt>
      <trkpt lat="47.60093" lon="7.00543">
        <ele>349.58</ele>
        <time>2013-09-28T12:17:27Z</time>
      </trkpt>
      <trkpt lat="47.60094" lon="7.00577">
        <ele>349.58</ele>
        <time>2013-09-28T12:17:31Z</time>
      </trkpt>
      <trkpt lat="47.60098" lon="7.00611">
        <ele>349.58</ele>
        <time>2013-09-28T12:17:35Z</time>
      </trkpt>
      <trkpt lat="47.60102" lon="7.00645">
        <ele>350.06</ele>
        <time>2013-09-28T12:17:39Z</time>
      </trkpt>
      <trkpt lat="47.60107" lon="7.0068">
        <ele>350.06</ele>
        <time>2013-09-28T12:17:43Z</time>
      </trkpt>
      <trkpt lat="47.60114" lon="7.00705">
        <ele>350.54</ele>
        <time>2013-09-28T12:17:46Z</time>
      </trkpt>
      <trkpt lat="47.60121" lon="7.0073">
        <ele>350.54</ele>
        <time>2013-09-28T12:17:49Z</time>
      </trkpt>
      <trkpt lat="47.60131" lon="7.00753">
        <ele>350.06</ele>
        <time>2013-09-28T12:17:52Z</time>
      </trkpt>
      <trkpt lat="47.60142" lon="7.00775">
        <ele>350.06</ele>
        <time>2013-09-28T12:17:55Z</time>
      </trkpt>
      <trkpt lat="47.60158" lon="7.00802">
        <ele>350.06</ele>
        <time>2013-09-28T12:17:59Z</time>
      </trkpt>
      <trkpt lat="47.60171" lon="7.00822">
        <ele>350.06</ele>
        <time>2013-09-28T12:18:02Z</time>
      </trkpt>
      <trkpt lat="47.60185" lon="7.00842">
        <ele>349.58</ele>
        <time>2013-09-28T12:18:05Z</time>
      </trkpt>
      <trkpt lat="47.60199" lon="7.00862">
        <ele>350.54</ele>
        <time>2013-09-28T12:18:08Z</time>
      </trkpt>
      <trkpt lat="47.60212" lon="7.00881">
        <ele>349.1</ele>
        <time>2013-09-28T12:18:11Z</time>
      </trkpt>
      <trkpt lat="47.60225" lon="7.00902">
        <ele>350.06</ele>
        <time>2013-09-28T12:18:14Z</time>
      </trkpt>
      <trkpt lat="47.60238" lon="7.00921">
        <ele>349.58</ele>
        <time>2013-09-28T12:18:17Z</time>
      </trkpt>
      <trkpt lat="47.60252" lon="7.00941">
        <ele>350.06</ele>
        <time>2013-09-28T12:18:20Z</time>
      </trkpt>
      <trkpt lat="47.60267" lon="7.00963">
        <ele>350.06</ele>
        <time>2013-09-28T12:18:23Z</time>
      </trkpt>
      <trkpt lat="47.60281" lon="7.00984">
        <ele>349.58</ele>
        <time>2013-09-28T12:18:26Z</time>
      </trkpt>
      <trkpt lat="47.60295" lon="7.01005">
        <ele>350.06</ele>
        <time>2013-09-28T12:18:29Z</time>
      </trkpt>
      <trkpt lat="47.60309" lon="7.01025">
        <ele>350.06</ele>
        <time>2013-09-28T12:18:32Z</time>
      </trkpt>
      <trkpt lat="47.60322" lon="7.01046">
        <ele>350.06</ele>
        <time>2013-09-28T12:18:35Z</time>
      </trkpt>
      <trkpt lat="47.60336" lon="7.01066">
        <ele>350.06</ele>
        <time>2013-09-28T12:18:38Z</time>
      </trkpt>
      <trkpt lat="47.6035" lon="7.01087">
        <ele>350.06</ele>
        <time>2013-09-28T12:18:41Z</time>
      </trkpt>
      <trkpt lat="47.60364" lon="7.01109">
        <ele>350.06</ele>
        <time>2013-09-28T12:18:44Z</time>
      </trkpt>
      <trkpt lat="47.60376" lon="7.01132">
        <ele>350.54</ele>
        <time>2013-09-28T12:18:47Z</time>
      </trkpt>
      <trkpt lat="47.60388" lon="7.01156">
        <ele>350.06</ele>
        <time>2013-09-28T12:18:50Z</time>
      </trkpt>
      <trkpt lat="47.60401" lon="7.01181">
        <ele>350.06</ele>
        <time>2013-09-28T12:18:53Z</time>
      </trkpt>
      <trkpt lat="47.60413" lon="7.01206">
        <ele>350.06</ele>
        <time>2013-09-28T12:18:56Z</time>
      </trkpt>
      <trkpt lat="47.60424" lon="7.0123">
        <ele>350.06</ele>
        <time>2013-09-28T12:18:59Z</time>
      </trkpt>
      <trkpt lat="47.60434" lon="7.01254">
        <ele>350.54</ele>
        <time>2013-09-28T12:19:02Z</time>
      </trkpt>
      <trkpt lat="47.60445" lon="7.01279">
        <ele>350.06</ele>
        <time>2013-09-28T12:19:05Z</time>
      </trkpt>
      <trkpt lat="47.60458" lon="7.01305">
        <ele>350.06</ele>
        <time>2013-09-28T12:19:08Z</time>
      </trkpt>
      <trkpt lat="47.6047" lon="7.0133">
        <ele>349.58</ele>
        <time>2013-09-28T12:19:11Z</time>
      </trkpt>
      <trkpt lat="47.60481" lon="7.01355">
        <ele>350.06</ele>
        <time>2013-09-28T12:19:14Z</time>
      </trkpt>
      <trkpt lat="47.60492" lon="7.01377">
        <ele>350.06</ele>
        <time>2013-09-28T12:19:17Z</time>
      </trkpt>
      <trkpt lat="47.60502" lon="7.014">
        <ele>350.06</ele>
        <time>2013-09-28T12:19:20Z</time>
      </trkpt>
      <trkpt lat="47.60512" lon="7.01423">
        <ele>349.58</ele>
        <time>2013-09-28T12:19:23Z</time>
      </trkpt>
      <trkpt lat="47.60523" lon="7.01448">
        <ele>350.06</ele>
        <time>2013-09-28T12:19:26Z</time>
      </trkpt>
      <trkpt lat="47.60534" lon="7.01473">
        <ele>350.06</ele>
        <time>2013-09-28T12:19:29Z</time>
      </trkpt>
      <trkpt lat="47.60546" lon="7.01499">
        <ele>350.06</ele>
        <time>2013-09-28T12:19:32Z</time>
      </trkpt>
      <trkpt lat="47.60557" lon="7.01523">
        <ele>350.54</ele>
        <time>2013-09-28T12:19:35Z</time>
      </trkpt>
      <trkpt lat="47.60569" lon="7.01547">
        <ele>350.06</ele>
        <time>2013-09-28T12:19:38Z</time>
      </trkpt>
      <trkpt lat="47.6058" lon="7.01572">
        <ele>350.06</ele>
        <time>2013-09-28T12:19:41Z</time>
      </trkpt>
      <trkpt lat="47.60591" lon="7.01596">
        <ele>350.06</ele>
        <time>2013-09-28T12:19:44Z</time>
      </trkpt>
      <trkpt lat="47.60601" lon="7.0162">
        <ele>350.54</ele>
        <time>2013-09-28T12:19:47Z</time>
      </trkpt>
      <trkpt lat="47.60612" lon="7.01645">
        <ele>350.06</ele>
        <time>2013-09-28T12:19:50Z</time>
      </trkpt>
      <trkpt lat="47.60622" lon="7.0167">
        <ele>350.06</ele>
        <time>2013-09-28T12:19:53Z</time>
      </trkpt>
      <trkpt lat="47.60635" lon="7.01695">
        <ele>350.54</ele>
        <time>2013-09-28T12:19:56Z</time>
      </trkpt>
      <trkpt lat="47.60646" lon="7.0172">
        <ele>350.06</ele>
        <time>2013-09-28T12:19:59Z</time>
      </trkpt>
      <trkpt lat="47.60658" lon="7.01745">
        <ele>350.54</ele>
        <time>2013-09-28T12:20:02Z</time>
      </trkpt>
      <trkpt lat="47.60669" lon="7.0177">
        <ele>350.06</ele>
        <time>2013-09-28T12:20:05Z</time>
      </trkpt>
      <trkpt lat="47.60681" lon="7.01795">
        <ele>350.06</ele>
        <time>2013-09-28T12:20:08Z</time>
      </trkpt>
      <trkpt lat="47.60693" lon="7.01822">
        <ele>349.58</ele>
        <time>2013-09-28T12:20:11Z</time>
      </trkpt>
      <trkpt lat="47.60704" lon="7.01848">
        <ele>349.1</ele>
        <time>2013-09-28T12:20:14Z</time>
      </trkpt>
      <trkpt lat="47.60716" lon="7.01873">
        <ele>350.06</ele>
        <time>2013-09-28T12:20:17Z</time>
      </trkpt>
      <trkpt lat="47.60728" lon="7.01897">
        <ele>350.06</ele>
        <time>2013-09-28T12:20:20Z</time>
      </trkpt>
      <trkpt lat="47.60739" lon="7.01922">
        <ele>349.58</ele>
        <time>2013-09-28T12:20:23Z</time>
      </trkpt>
      <trkpt lat="47.60751" lon="7.01946">
        <ele>350.06</ele>
        <time>2013-09-28T12:20:26Z</time>
      </trkpt>
      <trkpt lat="47.60762" lon="7.01971">
        <ele>350.06</ele>
        <time>2013-09-28T12:20:29Z</time>
      </trkpt>
      <trkpt lat="47.60773" lon="7.01995">
        <ele>350.06</ele>
        <time>2013-09-28T12:20:32Z</time>
      </trkpt>
      <trkpt lat="47.60785" lon="7.02019">
        <ele>350.06</ele>
        <time>2013-09-28T12:20:35Z</time>
      </trkpt>
      <trkpt lat="47.60796" lon="7.02044">
        <ele>349.58</ele>
        <time>2013-09-28T12:20:38Z</time>
      </trkpt>
      <trkpt lat="47.60807" lon="7.02068">
        <ele>350.06</ele>
        <time>2013-09-28T12:20:41Z</time>
      </trkpt>
      <trkpt lat="47.60817" lon="7.02092">
        <ele>349.1</ele>
        <time>2013-09-28T12:20:44Z</time>
      </trkpt>
      <trkpt lat="47.60828" lon="7.02115">
        <ele>350.54</ele>
        <time>2013-09-28T12:20:47Z</time>
      </trkpt>
      <trkpt lat="47.60839" lon="7.02139">
        <ele>350.54</ele>
        <time>2013-09-28T12:20:50Z</time>
      </trkpt>
      <trkpt lat="47.60849" lon="7.02163">
        <ele>350.54</ele>
        <time>2013-09-28T12:20:53Z</time>
      </trkpt>
      <trkpt lat="47.60861" lon="7.02187">
        <ele>351.02</ele>
        <time>2013-09-28T12:20:56Z</time>
      </trkpt>
      <trkpt lat="47.60873" lon="7.0221">
        <ele>350.06</ele>
        <time>2013-09-28T12:20:59Z</time>
      </trkpt>
      <trkpt lat="47.60886" lon="7.02232">
        <ele>350.06</ele>
        <time>2013-09-28T12:21:02Z</time>
      </trkpt>
      <trkpt lat="47.60897" lon="7.02256">
        <ele>350.06</ele>
        <time>2013-09-28T12:21:05Z</time>
      </trkpt>
      <trkpt lat="47.60909" lon="7.0228">
        <ele>350.06</ele>
        <time>2013-09-28T12:21:08Z</time>
      </trkpt>
      <trkpt lat="47.6092" lon="7.02302">
        <ele>349.58</ele>
        <time>2013-09-28T12:21:11Z</time>
      </trkpt>
      <trkpt lat="47.60933" lon="7.02323">
        <ele>350.06</ele>
        <time>2013-09-28T12:21:14Z</time>
      </trkpt>
      <trkpt lat="47.60949" lon="7.02347">
        <ele>350.06</ele>
        <time>2013-09-28T12:21:18Z</time>
      </trkpt>
      <trkpt lat="47.60964" lon="7.02369">
        <ele>350.06</ele>
        <time>2013-09-28T12:21:22Z</time>
      </trkpt>
      <trkpt lat="47.60981" lon="7.02389">
        <ele>351.5</ele>
        <time>2013-09-28T12:21:27Z</time>
      </trkpt>
      <trkpt lat="47.60997" lon="7.02404">
        <ele>351.02</ele>
        <time>2013-09-28T12:21:32Z</time>
      </trkpt>
      <trkpt lat="47.61012" lon="7.02425">
        <ele>351.02</ele>
        <time>2013-09-28T12:21:38Z</time>
      </trkpt>
      <trkpt lat="47.61024" lon="7.02443">
        <ele>351.02</ele>
        <time>2013-09-28T12:21:44Z</time>
      </trkpt>
      <trkpt lat="47.61039" lon="7.02461">
        <ele>355.83</ele>
        <time>2013-09-28T12:21:52Z</time>
      </trkpt>
      <trkpt lat="47.61057" lon="7.02476">
        <ele>351.02</ele>
        <time>2013-09-28T12:22:00Z</time>
      </trkpt>
      <trkpt lat="47.61075" lon="7.02492">
        <ele>351.02</ele>
        <time>2013-09-28T12:22:06Z</time>
      </trkpt>
      <trkpt lat="47.61092" lon="7.02507">
        <ele>351.98</ele>
        <time>2013-09-28T12:22:10Z</time>
      </trkpt>
      <trkpt lat="47.6111" lon="7.02522">
        <ele>351.98</ele>
        <time>2013-09-28T12:22:14Z</time>
      </trkpt>
      <trkpt lat="47.61128" lon="7.02538">
        <ele>351.98</ele>
        <time>2013-09-28T12:22:18Z</time>
      </trkpt>
      <trkpt lat="47.61146" lon="7.02554">
        <ele>351.5</ele>
        <time>2013-09-28T12:22:22Z</time>
      </trkpt>
      <trkpt lat="47.61166" lon="7.0257">
        <ele>351.5</ele>
        <time>2013-09-28T12:22:26Z</time>
      </trkpt>
      <trkpt lat="47.61186" lon="7.02586">
        <ele>351.98</ele>
        <time>2013-09-28T12:22:30Z</time>
      </trkpt>
      <trkpt lat="47.61206" lon="7.02603">
        <ele>351.98</ele>
        <time>2013-09-28T12:22:34Z</time>
      </trkpt>
      <trkpt lat="47.61226" lon="7.0262">
        <ele>351.98</ele>
        <time>2013-09-28T12:22:38Z</time>
      </trkpt>
      <trkpt lat="47.61247" lon="7.02635">
        <ele>351.5</ele>
        <time>2013-09-28T12:22:42Z</time>
      </trkpt>
      <trkpt lat="47.61266" lon="7.02651">
        <ele>351.98</ele>
        <time>2013-09-28T12:22:46Z</time>
      </trkpt>
      <trkpt lat="47.61285" lon="7.02666">
        <ele>353.42</ele>
        <time>2013-09-28T12:22:50Z</time>
      </trkpt>
      <trkpt lat="47.61303" lon="7.02678">
        <ele>353.42</ele>
        <time>2013-09-28T12:22:54Z</time>
      </trkpt>
      <trkpt lat="47.61321" lon="7.02697">
        <ele>353.42</ele>
        <time>2013-09-28T12:22:58Z</time>
      </trkpt>
      <trkpt lat="47.61339" lon="7.02714">
        <ele>354.38</ele>
        <time>2013-09-28T12:23:02Z</time>
      </trkpt>
      <trkpt lat="47.61358" lon="7.02731">
        <ele>352.94</ele>
        <time>2013-09-28T12:23:06Z</time>
      </trkpt>
      <trkpt lat="47.61375" lon="7.02745">
        <ele>353.42</ele>
        <time>2013-09-28T12:23:10Z</time>
      </trkpt>
      <trkpt lat="47.61393" lon="7.02758">
        <ele>353.42</ele>
        <time>2013-09-28T12:23:14Z</time>
      </trkpt>
      <trkpt lat="47.61409" lon="7.02772">
        <ele>353.9</ele>
        <time>2013-09-28T12:23:18Z</time>
      </trkpt>
      <trkpt lat="47.61427" lon="7.02787">
        <ele>353.9</ele>
        <time>2013-09-28T12:23:22Z</time>
      </trkpt>
      <trkpt lat="47.61443" lon="7.02803">
        <ele>353.9</ele>
        <time>2013-09-28T12:23:26Z</time>
      </trkpt>
      <trkpt lat="47.61462" lon="7.02818">
        <ele>353.9</ele>
        <time>2013-09-28T12:23:30Z</time>
      </trkpt>
      <trkpt lat="47.61482" lon="7.02835">
        <ele>353.42</ele>
        <time>2013-09-28T12:23:34Z</time>
      </trkpt>
      <trkpt lat="47.61503" lon="7.02852">
        <ele>353.42</ele>
        <time>2013-09-28T12:23:38Z</time>
      </trkpt>
      <trkpt lat="47.61523" lon="7.02872">
        <ele>353.9</ele>
        <time>2013-09-28T12:23:42Z</time>
      </trkpt>
      <trkpt lat="47.61541" lon="7.02894">
        <ele>353.9</ele>
        <time>2013-09-28T12:23:46Z</time>
      </trkpt>
      <trkpt lat="47.61559" lon="7.02915">
        <ele>354.38</ele>
        <time>2013-09-28T12:23:50Z</time>
      </trkpt>
      <trkpt lat="47.61576" lon="7.02939">
        <ele>354.38</ele>
        <time>2013-09-28T12:23:54Z</time>
      </trkpt>
      <trkpt lat="47.61591" lon="7.02963">
        <ele>353.9</ele>
        <time>2013-09-28T12:23:58Z</time>
      </trkpt>
      <trkpt lat="47.61606" lon="7.02984">
        <ele>353.9</ele>
        <time>2013-09-28T12:24:02Z</time>
      </trkpt>
      <trkpt lat="47.6162" lon="7.03007">
        <ele>353.42</ele>
        <time>2013-09-28T12:24:08Z</time>
      </trkpt>
      <trkpt lat="47.61631" lon="7.03024">
        <ele>353.9</ele>
        <time>2013-09-28T12:26:05Z</time>
      </trkpt>
      <trkpt lat="47.61643" lon="7.03013">
        <ele>354.86</ele>
        <time>2013-09-28T12:26:58Z</time>
      </trkpt>
      <trkpt lat="47.61648" lon="7.03005">
        <ele>354.86</ele>
        <time>2013-09-28T12:29:08Z</time>
      </trkpt>
    </trkseg>
  </trk>
</gpx>